<?xml version='1.0' encoding='UTF-8'?><gpx version="1.1" creator="JPX - https://github.com/jenetics/jpx" xmlns="http://www.topografix.com/GPX/1/1"><trk><trkseg><trkpt lat="37.61931517006512" lon="-4.326914726513998"><ele>411.0</ele><time>2026-04-18T06:32:11Z</time></trkpt><trkpt lat="37.6192504566893" lon="-4.326906165718723"><ele>411.0</ele><time>2026-04-18T06:32:24Z</time></trkpt><trkpt lat="37.61921893812441" lon="-4.326835287105762"><ele>411.0</ele><time>2026-04-18T06:32:28Z</time></trkpt><trkpt lat="37.61927005595008" lon="-4.3268868002304695"><ele>411.0</ele><time>2026-04-18T06:32:30Z</time></trkpt><trkpt lat="37.61931794099671" lon="-4.3269580584441565"><ele>411.0</ele><time>2026-04-18T06:32:32Z</time></trkpt><trkpt lat="37.61938482614292" lon="-4.326985994403538"><ele>411.0</ele><time>2026-04-18T06:32:34Z</time></trkpt><trkpt lat="37.61931313463538" lon="-4.326936470672653"><ele>411.0</ele><time>2026-04-18T06:34:45.999Z</time></trkpt><trkpt lat="37.61924120485043" lon="-4.3269180832618925"><ele>411.0</ele><time>2026-04-18T06:34:49.999Z</time></trkpt><trkpt lat="37.61917081600942" lon="-4.326873808731888"><ele>411.0</ele><time>2026-04-18T06:35:12.999Z</time></trkpt><trkpt lat="37.61918794441694" lon="-4.326793380045756"><ele>411.0</ele><time>2026-04-18T06:35:16.999Z</time></trkpt><trkpt lat="37.61922657520475" lon="-4.326722958057445"><ele>411.0</ele><time>2026-04-18T06:35:20.001Z</time></trkpt><trkpt lat="37.61927152784148" lon="-4.326638324035285"><ele>411.0</ele><time>2026-04-18T06:35:22.001Z</time></trkpt><trkpt lat="37.61932714853695" lon="-4.3265369382788945"><ele>411.0</ele><time>2026-04-18T06:35:24.001Z</time></trkpt><trkpt lat="37.61938819555714" lon="-4.326416006512526"><ele>411.0</ele><time>2026-04-18T06:35:26.001Z</time></trkpt><trkpt lat="37.61941814114895" lon="-4.326341809569573"><ele>411.0</ele><time>2026-04-18T06:35:27.001Z</time></trkpt><trkpt lat="37.61944669334539" lon="-4.326268749444979"><ele>411.0</ele><time>2026-04-18T06:35:28.001Z</time></trkpt><trkpt lat="37.619478907786494" lon="-4.326196313585762"><ele>411.0</ele><time>2026-04-18T06:35:29.001Z</time></trkpt><trkpt lat="37.61951138470709" lon="-4.3261281831024965"><ele>411.0</ele><time>2026-04-18T06:35:30.001Z</time></trkpt><trkpt lat="37.619540570379435" lon="-4.326040848097869"><ele>411.0</ele><time>2026-04-18T06:35:32.001Z</time></trkpt><trkpt lat="37.61956980626931" lon="-4.325962712366261"><ele>411.0</ele><time>2026-04-18T06:35:37.001Z</time></trkpt><trkpt lat="37.619480952324906" lon="-4.325883210082126"><ele>410.57142857142856</ele><time>2026-04-18T06:35:38.001Z</time></trkpt><trkpt lat="37.61942156140487" lon="-4.325855636463873"><ele>410.1428571428571</ele><time>2026-04-18T06:35:40.001Z</time></trkpt><trkpt lat="37.619366061835294" lon="-4.325806717000067"><ele>409.7142857142857</ele><time>2026-04-18T06:35:42.001Z</time></trkpt><trkpt lat="37.619311129474454" lon="-4.325764310140124"><ele>409.2857142857143</ele><time>2026-04-18T06:35:44.001Z</time></trkpt><trkpt lat="37.61925386732592" lon="-4.325721033244958"><ele>408.8571428571429</ele><time>2026-04-18T06:35:46.001Z</time></trkpt><trkpt lat="37.61917416626002" lon="-4.325661120719898"><ele>408.42857142857144</ele><time>2026-04-18T06:35:49Z</time></trkpt><trkpt lat="37.61909511139575" lon="-4.325622701919787"><ele>408.0</ele><time>2026-04-18T06:35:52Z</time></trkpt><trkpt lat="37.61901529631878" lon="-4.325565892362459"><ele>408.4</ele><time>2026-04-18T06:36:06Z</time></trkpt><trkpt lat="37.61894253998803" lon="-4.325515199450389"><ele>408.79999999999995</ele><time>2026-04-18T06:36:08Z</time></trkpt><trkpt lat="37.61885029528187" lon="-4.325450928029396"><ele>409.2</ele><time>2026-04-18T06:36:10Z</time></trkpt><trkpt lat="37.618746985548036" lon="-4.325379842875661"><ele>409.6</ele><time>2026-04-18T06:36:12Z</time></trkpt><trkpt lat="37.61863521309232" lon="-4.325304992990898"><ele>410.0</ele><time>2026-04-18T06:36:14Z</time></trkpt><trkpt lat="37.61852038010022" lon="-4.325231611400283"><ele>409.14285714285717</ele><time>2026-04-18T06:36:16Z</time></trkpt><trkpt lat="37.61846260245185" lon="-4.325194464262896"><ele>408.2857142857143</ele><time>2026-04-18T06:36:17Z</time></trkpt><trkpt lat="37.61840287720647" lon="-4.325156064951484"><ele>407.42857142857144</ele><time>2026-04-18T06:36:18Z</time></trkpt><trkpt lat="37.61834055165917" lon="-4.325116467852218"><ele>406.57142857142856</ele><time>2026-04-18T06:36:19Z</time></trkpt><trkpt lat="37.618277753705584" lon="-4.325077084158235"><ele>405.71428571428567</ele><time>2026-04-18T06:36:20Z</time></trkpt><trkpt lat="37.61821370064246" lon="-4.32503691332377"><ele>404.85714285714283</ele><time>2026-04-18T06:36:21Z</time></trkpt><trkpt lat="37.61815046451149" lon="-4.324997254827912"><ele>404.0</ele><time>2026-04-18T06:36:22Z</time></trkpt><trkpt lat="37.61808434590904" lon="-4.324955788591482"><ele>404.0</ele><time>2026-04-18T06:36:23Z</time></trkpt><trkpt lat="37.61801902672604" lon="-4.324914823709716"><ele>404.0</ele><time>2026-04-18T06:36:24Z</time></trkpt><trkpt lat="37.617957545289975" lon="-4.324876265665983"><ele>404.0</ele><time>2026-04-18T06:36:25Z</time></trkpt><trkpt lat="37.61789153205223" lon="-4.324834873042837"><ele>404.0</ele><time>2026-04-18T06:36:26Z</time></trkpt><trkpt lat="37.6178260364945" lon="-4.324791705038844"><ele>404.0</ele><time>2026-04-18T06:36:27Z</time></trkpt><trkpt lat="37.61776255417082" lon="-4.324749009969431"><ele>404.0</ele><time>2026-04-18T06:36:27.999Z</time></trkpt><trkpt lat="37.61769794617825" lon="-4.324705557831729"><ele>404.0</ele><time>2026-04-18T06:36:28.999Z</time></trkpt><trkpt lat="37.61763479781323" lon="-4.3246630873669325"><ele>403.99999999999994</ele><time>2026-04-18T06:36:29.999Z</time></trkpt><trkpt lat="37.61757392070151" lon="-4.324622144435064"><ele>404.0</ele><time>2026-04-18T06:36:30.999Z</time></trkpt><trkpt lat="37.61751342388338" lon="-4.324581457268887"><ele>404.0</ele><time>2026-04-18T06:36:31.999Z</time></trkpt><trkpt lat="37.61743002029066" lon="-4.324534650115079"><ele>404.0</ele><time>2026-04-18T06:36:33.999Z</time></trkpt><trkpt lat="37.61733977156932" lon="-4.324519577430722"><ele>403.99999999999994</ele><time>2026-04-18T06:36:35.999Z</time></trkpt><trkpt lat="37.61727005768885" lon="-4.324397888121904"><ele>404.0</ele><time>2026-04-18T06:36:37.999Z</time></trkpt><trkpt lat="37.61719356629402" lon="-4.32427963429395"><ele>404.0</ele><time>2026-04-18T06:36:39.999Z</time></trkpt><trkpt lat="37.6171078617954" lon="-4.324176881389297"><ele>404.0</ele><time>2026-04-18T06:36:41.999Z</time></trkpt><trkpt lat="37.61703794323763" lon="-4.324052369762238"><ele>404.0</ele><time>2026-04-18T06:36:43.999Z</time></trkpt><trkpt lat="37.61696624183326" lon="-4.323927570858609"><ele>404.0</ele><time>2026-04-18T06:36:45.999Z</time></trkpt><trkpt lat="37.61690013834723" lon="-4.323817261153973"><ele>404.4</ele><time>2026-04-18T06:36:47.999Z</time></trkpt><trkpt lat="37.61682864362492" lon="-4.323718293527945"><ele>404.79999999999995</ele><time>2026-04-18T06:36:49.999Z</time></trkpt><trkpt lat="37.616752565941106" lon="-4.323640603397765"><ele>405.20000000000005</ele><time>2026-04-18T06:36:51.999Z</time></trkpt><trkpt lat="37.61666201919121" lon="-4.323589104585844"><ele>405.6</ele><time>2026-04-18T06:36:53.999Z</time></trkpt><trkpt lat="37.61655113688804" lon="-4.32356953824886"><ele>406.0</ele><time>2026-04-18T06:36:55.999Z</time></trkpt><trkpt lat="37.616431336144345" lon="-4.323574433127544"><ele>406.0</ele><time>2026-04-18T06:36:57.999Z</time></trkpt><trkpt lat="37.6163089837792" lon="-4.323562103577555"><ele>406.0</ele><time>2026-04-18T06:36:59.999Z</time></trkpt><trkpt lat="37.61619034827049" lon="-4.323559284626673"><ele>406.0</ele><time>2026-04-18T06:37:01.999Z</time></trkpt><trkpt lat="37.61608217070967" lon="-4.323479867961694"><ele>406.0</ele><time>2026-04-18T06:37:03.999Z</time></trkpt><trkpt lat="37.61603380326022" lon="-4.323426391166377"><ele>406.0</ele><time>2026-04-18T06:37:04.999Z</time></trkpt><trkpt lat="37.615953756564615" lon="-4.323329726827708"><ele>406.8</ele><time>2026-04-18T06:37:06.999Z</time></trkpt><trkpt lat="37.61587288386801" lon="-4.323229771299197"><ele>407.6</ele><time>2026-04-18T06:37:08.999Z</time></trkpt><trkpt lat="37.615799379005885" lon="-4.323120718993549"><ele>408.4</ele><time>2026-04-18T06:37:10.999Z</time></trkpt><trkpt lat="37.61576703929429" lon="-4.322996065025805"><ele>409.2</ele><time>2026-04-18T06:37:12.999Z</time></trkpt><trkpt lat="37.615728093397266" lon="-4.322897304398506"><ele>410.0</ele><time>2026-04-18T06:37:14.999Z</time></trkpt><trkpt lat="37.61568882855039" lon="-4.322797626050731"><ele>409.99999999999994</ele><time>2026-04-18T06:37:16.999Z</time></trkpt><trkpt lat="37.61563339786494" lon="-4.3227024939559815"><ele>410.0</ele><time>2026-04-18T06:37:18.998Z</time></trkpt><trkpt lat="37.61555007019361" lon="-4.322616181798285"><ele>410.0</ele><time>2026-04-18T06:37:20.998Z</time></trkpt><trkpt lat="37.61550267132416" lon="-4.322558345663912"><ele>410.0</ele><time>2026-04-18T06:37:21.998Z</time></trkpt><trkpt lat="37.615453945121246" lon="-4.32249660344188"><ele>409.99999999999994</ele><time>2026-04-18T06:37:22.998Z</time></trkpt><trkpt lat="37.61540615588996" lon="-4.322431468492495"><ele>410.0</ele><time>2026-04-18T06:37:24.001Z</time></trkpt><trkpt lat="37.6153703333532" lon="-4.322351764341757"><ele>408.66666666666663</ele><time>2026-04-18T06:37:25.001Z</time></trkpt><trkpt lat="37.61531075978001" lon="-4.322285042173128"><ele>407.3333333333333</ele><time>2026-04-18T06:37:26.001Z</time></trkpt><trkpt lat="37.615273526287304" lon="-4.322197829154659"><ele>406.0</ele><time>2026-04-18T06:37:27.001Z</time></trkpt><trkpt lat="37.61524474927656" lon="-4.322102875643637"><ele>404.66666666666663</ele><time>2026-04-18T06:37:28.001Z</time></trkpt><trkpt lat="37.615220690691345" lon="-4.322005943800368"><ele>403.3333333333333</ele><time>2026-04-18T06:37:29.001Z</time></trkpt><trkpt lat="37.615198195257854" lon="-4.321905823989822"><ele>402.0</ele><time>2026-04-18T06:37:30.001Z</time></trkpt><trkpt lat="37.61517649783204" lon="-4.321808567980977"><ele>401.6666666666667</ele><time>2026-04-18T06:37:31.001Z</time></trkpt><trkpt lat="37.615154519252044" lon="-4.321709229603689"><ele>401.33333333333337</ele><time>2026-04-18T06:37:32.001Z</time></trkpt><trkpt lat="37.61513232680463" lon="-4.321608924593079"><ele>401.0</ele><time>2026-04-18T06:37:33.001Z</time></trkpt><trkpt lat="37.61510941795355" lon="-4.321508180047689"><ele>400.6666666666667</ele><time>2026-04-18T06:37:34.001Z</time></trkpt><trkpt lat="37.61508013549209" lon="-4.321409605809104"><ele>400.33333333333337</ele><time>2026-04-18T06:37:35.001Z</time></trkpt><trkpt lat="37.61504275939596" lon="-4.321315399832044"><ele>400.0</ele><time>2026-04-18T06:37:36.001Z</time></trkpt><trkpt lat="37.61499368951344" lon="-4.321224726033128"><ele>400.0</ele><time>2026-04-18T06:37:37.001Z</time></trkpt><trkpt lat="37.614927771052066" lon="-4.3211541888141385"><ele>400.0</ele><time>2026-04-18T06:37:38.001Z</time></trkpt><trkpt lat="37.614851592760665" lon="-4.32110150406106"><ele>400.0</ele><time>2026-04-18T06:37:39.001Z</time></trkpt><trkpt lat="37.614756954389726" lon="-4.321076208588034"><ele>400.0</ele><time>2026-04-18T06:37:40.001Z</time></trkpt><trkpt lat="37.61466179868731" lon="-4.321063045487058"><ele>400.0</ele><time>2026-04-18T06:37:41.001Z</time></trkpt><trkpt lat="37.614558546527725" lon="-4.321046766949879"><ele>398.8</ele><time>2026-04-18T06:37:42.001Z</time></trkpt><trkpt lat="37.61446602498622" lon="-4.321084111946348"><ele>397.6</ele><time>2026-04-18T06:37:43.001Z</time></trkpt><trkpt lat="37.61437549494586" lon="-4.321138279518725"><ele>396.4</ele><time>2026-04-18T06:37:44.001Z</time></trkpt><trkpt lat="37.614284279446785" lon="-4.321196804663399"><ele>395.2</ele><time>2026-04-18T06:37:45.001Z</time></trkpt><trkpt lat="37.61419356114484" lon="-4.321254605920533"><ele>394.0</ele><time>2026-04-18T06:37:46.001Z</time></trkpt><trkpt lat="37.614101419473826" lon="-4.321318353244714"><ele>394.0</ele><time>2026-04-18T06:37:47.001Z</time></trkpt><trkpt lat="37.614010214356405" lon="-4.321375818947527"><ele>394.0</ele><time>2026-04-18T06:37:48Z</time></trkpt><trkpt lat="37.613915248946775" lon="-4.321433566167676"><ele>394.0</ele><time>2026-04-18T06:37:49Z</time></trkpt><trkpt lat="37.61381674633247" lon="-4.321481216437231"><ele>394.0</ele><time>2026-04-18T06:37:50Z</time></trkpt><trkpt lat="37.61370792725547" lon="-4.321512711352803"><ele>394.0</ele><time>2026-04-18T06:37:51Z</time></trkpt><trkpt lat="37.61359645887435" lon="-4.321511682968437"><ele>392.6</ele><time>2026-04-18T06:37:52Z</time></trkpt><trkpt lat="37.61348967215343" lon="-4.3214986128979085"><ele>391.2</ele><time>2026-04-18T06:37:53Z</time></trkpt><trkpt lat="37.613383999362675" lon="-4.3214674124448145"><ele>389.8</ele><time>2026-04-18T06:37:54Z</time></trkpt><trkpt lat="37.613277970471" lon="-4.321438685717428"><ele>388.40000000000003</ele><time>2026-04-18T06:37:55Z</time></trkpt><trkpt lat="37.61316831435116" lon="-4.321431804426218"><ele>387.0</ele><time>2026-04-18T06:37:56Z</time></trkpt><trkpt lat="37.61295419659549" lon="-4.321376823587544"><ele>387.0</ele><time>2026-04-18T06:37:58Z</time></trkpt><trkpt lat="37.61285769022835" lon="-4.321351455131081"><ele>387.0</ele><time>2026-04-18T06:37:59Z</time></trkpt><trkpt lat="37.61276371507241" lon="-4.321326825206084"><ele>387.0</ele><time>2026-04-18T06:38:00Z</time></trkpt><trkpt lat="37.61267369478633" lon="-4.321302075919734"><ele>387.0</ele><time>2026-04-18T06:38:01Z</time></trkpt><trkpt lat="37.6125808638648" lon="-4.321262930374556"><ele>387.0</ele><time>2026-04-18T06:38:02Z</time></trkpt><trkpt lat="37.61248840556308" lon="-4.3212443605497155"><ele>384.8</ele><time>2026-04-18T06:38:03Z</time></trkpt><trkpt lat="37.61239655402815" lon="-4.3212214372960736"><ele>382.6</ele><time>2026-04-18T06:38:04Z</time></trkpt><trkpt lat="37.61230916633578" lon="-4.321191323711561"><ele>380.40000000000003</ele><time>2026-04-18T06:38:05Z</time></trkpt><trkpt lat="37.61222049094776" lon="-4.321179307734171"><ele>378.20000000000005</ele><time>2026-04-18T06:38:06Z</time></trkpt><trkpt lat="37.61215104954608" lon="-4.321088531629073"><ele>376.0</ele><time>2026-04-18T06:38:07Z</time></trkpt><trkpt lat="37.612079471058045" lon="-4.321027524358795"><ele>376.0</ele><time>2026-04-18T06:38:08Z</time></trkpt><trkpt lat="37.612012561902766" lon="-4.320972955758753"><ele>376.0</ele><time>2026-04-18T06:38:09Z</time></trkpt><trkpt lat="37.61194438991296" lon="-4.32095101351342"><ele>376.0</ele><time>2026-04-18T06:38:10Z</time></trkpt><trkpt lat="37.61183053264111" lon="-4.320888494358216"><ele>376.0</ele><time>2026-04-18T06:38:12Z</time></trkpt><trkpt lat="37.611795523326954" lon="-4.320957196407733"><ele>376.0</ele><time>2026-04-18T06:39:24.998Z</time></trkpt><trkpt lat="37.61181818447928" lon="-4.321034879479154"><ele>376.0</ele><time>2026-04-18T06:39:27.998Z</time></trkpt><trkpt lat="37.61183767207716" lon="-4.321116606983993"><ele>375.8333333333333</ele><time>2026-04-18T06:39:31.001Z</time></trkpt><trkpt lat="37.61186695406476" lon="-4.321208891743424"><ele>375.66666666666663</ele><time>2026-04-18T06:39:35.001Z</time></trkpt><trkpt lat="37.611854626092004" lon="-4.321308556056493"><ele>375.5</ele><time>2026-04-18T06:39:38.001Z</time></trkpt><trkpt lat="37.611829375908684" lon="-4.321383537535466"><ele>375.3333333333333</ele><time>2026-04-18T06:39:41.001Z</time></trkpt><trkpt lat="37.611788656344245" lon="-4.321498573973291"><ele>375.1666666666667</ele><time>2026-04-18T06:39:45.001Z</time></trkpt><trkpt lat="37.611753647185864" lon="-4.321588045150983"><ele>375.0</ele><time>2026-04-18T06:39:47.001Z</time></trkpt><trkpt lat="37.61170316568598" lon="-4.321656615338078"><ele>374.5</ele><time>2026-04-18T06:39:49.001Z</time></trkpt><trkpt lat="37.6116522824922" lon="-4.321716311152044"><ele>374.0</ele><time>2026-04-18T06:39:51Z</time></trkpt><trkpt lat="37.61160413510547" lon="-4.32177683522615"><ele>373.5</ele><time>2026-04-18T06:39:53Z</time></trkpt><trkpt lat="37.611545175252665" lon="-4.321844303317908"><ele>373.0</ele><time>2026-04-18T06:39:55Z</time></trkpt><trkpt lat="37.61148177439465" lon="-4.321916677815042"><ele>372.5</ele><time>2026-04-18T06:39:57Z</time></trkpt><trkpt lat="37.61140998278726" lon="-4.321998002199872"><ele>372.0</ele><time>2026-04-18T06:39:59Z</time></trkpt><trkpt lat="37.61133335043824" lon="-4.322088431646084"><ele>372.0</ele><time>2026-04-18T06:40:01Z</time></trkpt><trkpt lat="37.61125321808492" lon="-4.322186075426192"><ele>372.0</ele><time>2026-04-18T06:40:03Z</time></trkpt><trkpt lat="37.61117037519726" lon="-4.322289022596258"><ele>372.0</ele><time>2026-04-18T06:40:05Z</time></trkpt><trkpt lat="37.61108212101515" lon="-4.322387992370735"><ele>372.0</ele><time>2026-04-18T06:40:07Z</time></trkpt><trkpt lat="37.6109957150502" lon="-4.322490418291148"><ele>371.0</ele><time>2026-04-18T06:40:09Z</time></trkpt><trkpt lat="37.61091079973705" lon="-4.322594442397203"><ele>370.0</ele><time>2026-04-18T06:40:11Z</time></trkpt><trkpt lat="37.61082418865122" lon="-4.322697375251834"><ele>369.0</ele><time>2026-04-18T06:40:13Z</time></trkpt><trkpt lat="37.61073849688234" lon="-4.3227992940309425"><ele>368.0</ele><time>2026-04-18T06:40:15Z</time></trkpt><trkpt lat="37.61065457162135" lon="-4.322897553910987"><ele>368.0</ele><time>2026-04-18T06:40:17Z</time></trkpt><trkpt lat="37.61057681794156" lon="-4.322984935968299"><ele>368.0</ele><time>2026-04-18T06:40:19Z</time></trkpt><trkpt lat="37.610518095470866" lon="-4.323062056897188"><ele>368.0</ele><time>2026-04-18T06:40:21Z</time></trkpt><trkpt lat="37.610514142722934" lon="-4.323163614266813"><ele>368.0</ele><time>2026-04-18T06:40:24Z</time></trkpt><trkpt lat="37.6106051169943" lon="-4.3231724187550995"><ele>368.0</ele><time>2026-04-18T06:40:26Z</time></trkpt><trkpt lat="37.61068397852413" lon="-4.323162252793147"><ele>368.0</ele><time>2026-04-18T06:40:28Z</time></trkpt><trkpt lat="37.610776225167946" lon="-4.323194327371112"><ele>368.5</ele><time>2026-04-18T06:40:31Z</time></trkpt><trkpt lat="37.610817631364405" lon="-4.3232874556798295"><ele>369.0</ele><time>2026-04-18T06:40:32.999Z</time></trkpt><trkpt lat="37.61081671408382" lon="-4.323375839264716"><ele>369.5</ele><time>2026-04-18T06:40:34.999Z</time></trkpt><trkpt lat="37.61080842753193" lon="-4.323480740715533"><ele>370.0</ele><time>2026-04-18T06:40:37.999Z</time></trkpt><trkpt lat="37.61079366467456" lon="-4.323597129838669"><ele>370.5</ele><time>2026-04-18T06:40:40.999Z</time></trkpt><trkpt lat="37.610781697900705" lon="-4.323685466095163"><ele>371.0</ele><time>2026-04-18T06:40:42.999Z</time></trkpt><trkpt lat="37.61076384226609" lon="-4.323772580098729"><ele>371.0</ele><time>2026-04-18T06:40:44.999Z</time></trkpt><trkpt lat="37.6107294376278" lon="-4.3238637771580075"><ele>371.0</ele><time>2026-04-18T06:40:46.999Z</time></trkpt><trkpt lat="37.61070999139735" lon="-4.323962344955082"><ele>371.0</ele><time>2026-04-18T06:40:48.999Z</time></trkpt><trkpt lat="37.61071177463142" lon="-4.324064379079858"><ele>371.0</ele><time>2026-04-18T06:40:50.999Z</time></trkpt><trkpt lat="37.61066943179316" lon="-4.3241641573952165"><ele>371.0</ele><time>2026-04-18T06:40:53.999Z</time></trkpt><trkpt lat="37.61059950924448" lon="-4.3242359294482045"><ele>371.0</ele><time>2026-04-18T06:40:56.999Z</time></trkpt><trkpt lat="37.6105462364827" lon="-4.324309747678419"><ele>371.33333333333337</ele><time>2026-04-18T06:40:59.999Z</time></trkpt><trkpt lat="37.61048572846241" lon="-4.324375237927969"><ele>371.6666666666667</ele><time>2026-04-18T06:41:02.999Z</time></trkpt><trkpt lat="37.6104278306993" lon="-4.324445639224828"><ele>372.0</ele><time>2026-04-18T06:41:05.999Z</time></trkpt><trkpt lat="37.61037253623055" lon="-4.324509550905021"><ele>372.3333333333333</ele><time>2026-04-18T06:41:08.999Z</time></trkpt><trkpt lat="37.61032145079456" lon="-4.324582978680789"><ele>372.66666666666663</ele><time>2026-04-18T06:41:11.999Z</time></trkpt><trkpt lat="37.61026060488882" lon="-4.324650742883444"><ele>373.0</ele><time>2026-04-18T06:41:14.999Z</time></trkpt><trkpt lat="37.61020054340433" lon="-4.324726213088747"><ele>376.0</ele><time>2026-04-18T06:41:17.999Z</time></trkpt><trkpt lat="37.61014215933047" lon="-4.3248070074582925"><ele>379.0</ele><time>2026-04-18T06:41:20.998Z</time></trkpt><trkpt lat="37.610076735738446" lon="-4.324882466755762"><ele>382.0</ele><time>2026-04-18T06:41:23.998Z</time></trkpt><trkpt lat="37.610020511705315" lon="-4.324956027955923"><ele>385.0</ele><time>2026-04-18T06:41:26.998Z</time></trkpt><trkpt lat="37.6099629830196" lon="-4.3250346014239565"><ele>388.00000000000006</ele><time>2026-04-18T06:41:29.998Z</time></trkpt><trkpt lat="37.609910527988795" lon="-4.325111026958922"><ele>391.0</ele><time>2026-04-18T06:41:32.998Z</time></trkpt><trkpt lat="37.60984665214258" lon="-4.325152077774118"><ele>391.00000000000006</ele><time>2026-04-18T06:41:36.001Z</time></trkpt><trkpt lat="37.60976606438597" lon="-4.325142262672841"><ele>391.0</ele><time>2026-04-18T06:41:39.001Z</time></trkpt><trkpt lat="37.60969517840164" lon="-4.325180456674742"><ele>391.0</ele><time>2026-04-18T06:41:42.001Z</time></trkpt><trkpt lat="37.60962065691792" lon="-4.325226357761528"><ele>391.0</ele><time>2026-04-18T06:41:45.001Z</time></trkpt><trkpt lat="37.60955031349506" lon="-4.325258698777195"><ele>391.00000000000006</ele><time>2026-04-18T06:41:48.001Z</time></trkpt><trkpt lat="37.60947912018422" lon="-4.325290162718874"><ele>391.0</ele><time>2026-04-18T06:41:51.001Z</time></trkpt><trkpt lat="37.60940742278287" lon="-4.325328284611278"><ele>391.85714285714283</ele><time>2026-04-18T06:41:54.001Z</time></trkpt><trkpt lat="37.6093372679042" lon="-4.325357362727436"><ele>392.7142857142857</ele><time>2026-04-18T06:41:57Z</time></trkpt><trkpt lat="37.60927224334608" lon="-4.325390607613442"><ele>393.57142857142856</ele><time>2026-04-18T06:42:00Z</time></trkpt><trkpt lat="37.609211582471794" lon="-4.325424930717619"><ele>394.42857142857144</ele><time>2026-04-18T06:42:03Z</time></trkpt><trkpt lat="37.609146844478566" lon="-4.325453938435306"><ele>395.2857142857143</ele><time>2026-04-18T06:42:06Z</time></trkpt><trkpt lat="37.60907822930158" lon="-4.325477719640894"><ele>396.1428571428571</ele><time>2026-04-18T06:42:09Z</time></trkpt><trkpt lat="37.609005653987566" lon="-4.325485193189447"><ele>397.0</ele><time>2026-04-18T06:42:12Z</time></trkpt><trkpt lat="37.608929574985694" lon="-4.325506980793636"><ele>397.0</ele><time>2026-04-18T06:42:15Z</time></trkpt><trkpt lat="37.608861404730945" lon="-4.325510852701672"><ele>397.0</ele><time>2026-04-18T06:42:18Z</time></trkpt><trkpt lat="37.60879653208619" lon="-4.325522431187869"><ele>397.0</ele><time>2026-04-18T06:42:21Z</time></trkpt><trkpt lat="37.60873211112838" lon="-4.325522162481902"><ele>397.0</ele><time>2026-04-18T06:42:24Z</time></trkpt><trkpt lat="37.60866871040884" lon="-4.325519782947136"><ele>397.0</ele><time>2026-04-18T06:42:27Z</time></trkpt><trkpt lat="37.60859339438157" lon="-4.325510200960687"><ele>397.0</ele><time>2026-04-18T06:42:31Z</time></trkpt><trkpt lat="37.6085152905948" lon="-4.32550188199718"><ele>397.0</ele><time>2026-04-18T06:42:35Z</time></trkpt><trkpt lat="37.60843678267445" lon="-4.325507309239193"><ele>398.57142857142856</ele><time>2026-04-18T06:42:38.999Z</time></trkpt><trkpt lat="37.60835705000811" lon="-4.325519015205718"><ele>400.1428571428571</ele><time>2026-04-18T06:42:42.999Z</time></trkpt><trkpt lat="37.60826991702853" lon="-4.325520751627813"><ele>401.7142857142857</ele><time>2026-04-18T06:42:46.999Z</time></trkpt><trkpt lat="37.608201219283174" lon="-4.325528093492524"><ele>403.2857142857143</ele><time>2026-04-18T06:42:49.999Z</time></trkpt><trkpt lat="37.60813460642027" lon="-4.325533704207556"><ele>404.8571428571429</ele><time>2026-04-18T06:42:52.999Z</time></trkpt><trkpt lat="37.608060870643996" lon="-4.325540533074646"><ele>406.42857142857144</ele><time>2026-04-18T06:42:55.999Z</time></trkpt><trkpt lat="37.60799144609754" lon="-4.325539551828121"><ele>408.0</ele><time>2026-04-18T06:42:58.999Z</time></trkpt><trkpt lat="37.60791962143746" lon="-4.325541498168435"><ele>408.0</ele><time>2026-04-18T06:43:01.999Z</time></trkpt><trkpt lat="37.607846160113006" lon="-4.325551175321408"><ele>408.0</ele><time>2026-04-18T06:43:04.999Z</time></trkpt><trkpt lat="37.60777956284426" lon="-4.325555453732678"><ele>408.0</ele><time>2026-04-18T06:43:07.999Z</time></trkpt><trkpt lat="37.607709042913996" lon="-4.325545471466743"><ele>408.0</ele><time>2026-04-18T06:43:10.999Z</time></trkpt><trkpt lat="37.60762821970148" lon="-4.325540937670208"><ele>408.0</ele><time>2026-04-18T06:43:14.999Z</time></trkpt><trkpt lat="37.60754429023518" lon="-4.325529380345689"><ele>408.0</ele><time>2026-04-18T06:43:18.999Z</time></trkpt><trkpt lat="37.60746789121903" lon="-4.3255111533894155"><ele>410.0</ele><time>2026-04-18T06:43:21.999Z</time></trkpt><trkpt lat="37.60739303777154" lon="-4.325497491941582"><ele>412.0</ele><time>2026-04-18T06:43:24.998Z</time></trkpt><trkpt lat="37.607316890256854" lon="-4.32546771423422"><ele>414.0</ele><time>2026-04-18T06:43:27.998Z</time></trkpt><trkpt lat="37.60724107824885" lon="-4.325449779157662"><ele>416.0</ele><time>2026-04-18T06:43:30.998Z</time></trkpt><trkpt lat="37.607171917837576" lon="-4.325427112876065"><ele>418.0</ele><time>2026-04-18T06:43:33.998Z</time></trkpt><trkpt lat="37.60710630639188" lon="-4.325403126218927"><ele>420.0</ele><time>2026-04-18T06:43:36.998Z</time></trkpt><trkpt lat="37.60703275450334" lon="-4.325366951292382"><ele>421.3333333333333</ele><time>2026-04-18T06:43:39.998Z</time></trkpt><trkpt lat="37.606961572719364" lon="-4.3253241131662294"><ele>422.66666666666663</ele><time>2026-04-18T06:43:43Z</time></trkpt><trkpt lat="37.60689578042901" lon="-4.325295969851616"><ele>424.0</ele><time>2026-04-18T06:43:46Z</time></trkpt><trkpt lat="37.60682087706707" lon="-4.3252783381446305"><ele>425.3333333333333</ele><time>2026-04-18T06:43:49Z</time></trkpt><trkpt lat="37.60674794706103" lon="-4.325276834499408"><ele>426.66666666666663</ele><time>2026-04-18T06:43:52Z</time></trkpt><trkpt lat="37.60666644077794" lon="-4.3252984969382045"><ele>428.0</ele><time>2026-04-18T06:43:56Z</time></trkpt><trkpt lat="37.60659665825743" lon="-4.325322952307396"><ele>428.00000000000006</ele><time>2026-04-18T06:43:59Z</time></trkpt><trkpt lat="37.60652065197548" lon="-4.3253595612967874"><ele>428.0</ele><time>2026-04-18T06:44:02.999Z</time></trkpt><trkpt lat="37.60644975889762" lon="-4.325355014149962"><ele>428.0</ele><time>2026-04-18T06:44:05.999Z</time></trkpt><trkpt lat="37.606381722424004" lon="-4.325338233247034"><ele>428.0</ele><time>2026-04-18T06:44:08.999Z</time></trkpt><trkpt lat="37.606316914230824" lon="-4.325379474711693"><ele>428.0</ele><time>2026-04-18T06:44:12.999Z</time></trkpt><trkpt lat="37.60629518353482" lon="-4.325462511004036"><ele>428.00000000000006</ele><time>2026-04-18T06:44:16.999Z</time></trkpt><trkpt lat="37.6062696421866" lon="-4.325545481244908"><ele>428.0</ele><time>2026-04-18T06:44:20.999Z</time></trkpt><trkpt lat="37.60624587974501" lon="-4.325623671359666"><ele>430.28571428571433</ele><time>2026-04-18T06:44:24.999Z</time></trkpt><trkpt lat="37.606195663312455" lon="-4.325703778972806"><ele>432.57142857142856</ele><time>2026-04-18T06:44:28.999Z</time></trkpt><trkpt lat="37.6061706097401" lon="-4.325789751809093"><ele>434.8571428571429</ele><time>2026-04-18T06:44:32.999Z</time></trkpt><trkpt lat="37.60618188762547" lon="-4.3258838319944095"><ele>437.14285714285717</ele><time>2026-04-18T06:44:36.999Z</time></trkpt><trkpt lat="37.60618403329521" lon="-4.325980426450696"><ele>439.42857142857144</ele><time>2026-04-18T06:44:41.999Z</time></trkpt><trkpt lat="37.60618248017575" lon="-4.326069968370387"><ele>441.7142857142857</ele><time>2026-04-18T06:44:45.998Z</time></trkpt><trkpt lat="37.606174544851704" lon="-4.326155464138983"><ele>444.0</ele><time>2026-04-18T06:44:49.998Z</time></trkpt><trkpt lat="37.606189243110315" lon="-4.326244519327648"><ele>444.0</ele><time>2026-04-18T06:44:53.998Z</time></trkpt><trkpt lat="37.60620991429695" lon="-4.326325378060105"><ele>444.0</ele><time>2026-04-18T06:44:57.998Z</time></trkpt><trkpt lat="37.60621717569575" lon="-4.326406943940648"><ele>444.0</ele><time>2026-04-18T06:45:01.998Z</time></trkpt><trkpt lat="37.60617608588801" lon="-4.326471733417191"><ele>444.0</ele><time>2026-04-18T06:45:06.998Z</time></trkpt><trkpt lat="37.6060904802249" lon="-4.326517030249082"><ele>444.0</ele><time>2026-04-18T06:45:32.997Z</time></trkpt><trkpt lat="37.60602694683704" lon="-4.326561599160663"><ele>444.0</ele><time>2026-04-18T06:45:35.997Z</time></trkpt><trkpt lat="37.60595323804865" lon="-4.326588587731946"><ele>444.0</ele><time>2026-04-18T06:45:39.997Z</time></trkpt><trkpt lat="37.60588621842528" lon="-4.326569191092894"><ele>447.0</ele><time>2026-04-18T06:45:42.997Z</time></trkpt><trkpt lat="37.60581575494608" lon="-4.326571392884341"><ele>450.0</ele><time>2026-04-18T06:45:46.997Z</time></trkpt><trkpt lat="37.60575071829892" lon="-4.326540609087178"><ele>453.0</ele><time>2026-04-18T06:45:50Z</time></trkpt><trkpt lat="37.605687065922254" lon="-4.326533585100812"><ele>456.0</ele><time>2026-04-18T06:45:53Z</time></trkpt><trkpt lat="37.60562317094072" lon="-4.32651951934909"><ele>459.0</ele><time>2026-04-18T06:45:56Z</time></trkpt><trkpt lat="37.605554702655375" lon="-4.326519302935187"><ele>462.0</ele><time>2026-04-18T06:46:00Z</time></trkpt><trkpt lat="37.60547569215649" lon="-4.326524648362248"><ele>465.0</ele><time>2026-04-18T06:46:04Z</time></trkpt><trkpt lat="37.60541284070038" lon="-4.32650153981188"><ele>465.0</ele><time>2026-04-18T06:46:06.999Z</time></trkpt><trkpt lat="37.60535755837805" lon="-4.326438070592431"><ele>465.0</ele><time>2026-04-18T06:46:10.999Z</time></trkpt><trkpt lat="37.60529576720261" lon="-4.326405670469125"><ele>465.0</ele><time>2026-04-18T06:46:14.999Z</time></trkpt><trkpt lat="37.60521960130741" lon="-4.326407411346687"><ele>465.0</ele><time>2026-04-18T06:46:18.999Z</time></trkpt><trkpt lat="37.60514956109347" lon="-4.326374930759225"><ele>465.0</ele><time>2026-04-18T06:46:22.999Z</time></trkpt><trkpt lat="37.605096783367856" lon="-4.3263226937038235"><ele>465.0</ele><time>2026-04-18T06:46:26.999Z</time></trkpt><trkpt lat="37.60503853856938" lon="-4.326286344248032"><ele>465.0</ele><time>2026-04-18T06:46:29.999Z</time></trkpt><trkpt lat="37.6049743510846" lon="-4.3262607618346385"><ele>464.71428571428567</ele><time>2026-04-18T06:46:32.999Z</time></trkpt><trkpt lat="37.60490227352788" lon="-4.326241386846748"><ele>464.42857142857144</ele><time>2026-04-18T06:46:36.999Z</time></trkpt><trkpt lat="37.60484078925445" lon="-4.326223798983559"><ele>464.1428571428571</ele><time>2026-04-18T06:46:39.999Z</time></trkpt><trkpt lat="37.60477847321899" lon="-4.32621229162613"><ele>463.85714285714283</ele><time>2026-04-18T06:46:42.999Z</time></trkpt><trkpt lat="37.60470432792976" lon="-4.326202724459451"><ele>463.57142857142856</ele><time>2026-04-18T06:46:46.999Z</time></trkpt><trkpt lat="37.60463481908089" lon="-4.326198997931368"><ele>463.2857142857143</ele><time>2026-04-18T06:46:49.998Z</time></trkpt><trkpt lat="37.604568595826485" lon="-4.326203175254319"><ele>463.0</ele><time>2026-04-18T06:46:52.998Z</time></trkpt><trkpt lat="37.604483324749864" lon="-4.326195766528245"><ele>463.0</ele><time>2026-04-18T06:46:56.998Z</time></trkpt><trkpt lat="37.604417223025585" lon="-4.326192819152266"><ele>462.99999999999994</ele><time>2026-04-18T06:46:59.998Z</time></trkpt><trkpt lat="37.604346964728514" lon="-4.326171162309314"><ele>463.0</ele><time>2026-04-18T06:47:02.998Z</time></trkpt><trkpt lat="37.60430881702658" lon="-4.32609895312862"><ele>463.0</ele><time>2026-04-18T06:47:04.998Z</time></trkpt><trkpt lat="37.60424449572626" lon="-4.326052589275461"><ele>462.99999999999994</ele><time>2026-04-18T06:47:06.998Z</time></trkpt><trkpt lat="37.60419797651093" lon="-4.325997028845277"><ele>463.0</ele><time>2026-04-18T06:47:08.998Z</time></trkpt><trkpt lat="37.60411332149869" lon="-4.325961364251395"><ele>463.0</ele><time>2026-04-18T06:47:11.998Z</time></trkpt><trkpt lat="37.60404075161462" lon="-4.32592976050172"><ele>463.0</ele><time>2026-04-18T06:47:14.998Z</time></trkpt><trkpt lat="37.6040067826902" lon="-4.325862810219323"><ele>462.99999999999994</ele><time>2026-04-18T06:47:16.998Z</time></trkpt><trkpt lat="37.60395351476726" lon="-4.325806743976781"><ele>463.0</ele><time>2026-04-18T06:47:19.998Z</time></trkpt><trkpt lat="37.60388212540841" lon="-4.325836789959525"><ele>463.0</ele><time>2026-04-18T06:47:24.998Z</time></trkpt><trkpt lat="37.60382936107506" lon="-4.325907651736432"><ele>462.99999999999994</ele><time>2026-04-18T06:47:28.998Z</time></trkpt><trkpt lat="37.60376599469903" lon="-4.325910669329762"><ele>463.0</ele><time>2026-04-18T06:47:31.998Z</time></trkpt><trkpt lat="37.6036974864103" lon="-4.3259323222524"><ele>463.0</ele><time>2026-04-18T06:47:35.997Z</time></trkpt><trkpt lat="37.603620322356804" lon="-4.325930700874844"><ele>464.0</ele><time>2026-04-18T06:47:39.997Z</time></trkpt><trkpt lat="37.60354746346137" lon="-4.325908188258977"><ele>464.99999999999994</ele><time>2026-04-18T06:47:43.997Z</time></trkpt><trkpt lat="37.603471463781446" lon="-4.325903953860847"><ele>466.0</ele><time>2026-04-18T06:47:47.997Z</time></trkpt><trkpt lat="37.603395044239015" lon="-4.325880916119519"><ele>467.0</ele><time>2026-04-18T06:47:51.997Z</time></trkpt><trkpt lat="37.60332494488856" lon="-4.325881211566648"><ele>467.99999999999994</ele><time>2026-04-18T06:47:56Z</time></trkpt><trkpt lat="37.60325559396449" lon="-4.3258863137784065"><ele>469.0</ele><time>2026-04-18T06:48:00Z</time></trkpt><trkpt lat="37.60319182880061" lon="-4.325870415612989"><ele>470.0</ele><time>2026-04-18T06:48:04Z</time></trkpt><trkpt lat="37.60311963027955" lon="-4.325874398235154"><ele>470.0</ele><time>2026-04-18T06:48:09Z</time></trkpt><trkpt lat="37.60305419566709" lon="-4.325868461431763"><ele>469.99999999999994</ele><time>2026-04-18T06:50:30.999Z</time></trkpt><trkpt lat="37.603009179854716" lon="-4.3258115234206"><ele>470.0</ele><time>2026-04-18T06:50:36.999Z</time></trkpt><trkpt lat="37.60294649498243" lon="-4.325786580945912"><ele>470.0</ele><time>2026-04-18T06:50:39.999Z</time></trkpt><trkpt lat="37.60292130789499" lon="-4.325877859572173"><ele>469.99999999999994</ele><time>2026-04-18T06:50:44.999Z</time></trkpt><trkpt lat="37.602857560524384" lon="-4.325925913001908"><ele>470.0</ele><time>2026-04-18T06:50:48.999Z</time></trkpt><trkpt lat="37.60278008342135" lon="-4.325928601868226"><ele>470.0</ele><time>2026-04-18T06:50:53.999Z</time></trkpt><trkpt lat="37.60270595785797" lon="-4.32595138769951"><ele>471.1428571428571</ele><time>2026-04-18T06:50:57.999Z</time></trkpt><trkpt lat="37.60263415298684" lon="-4.325933062228188"><ele>472.2857142857142</ele><time>2026-04-18T06:51:01.999Z</time></trkpt><trkpt lat="37.60256279210664" lon="-4.325934996154713"><ele>473.42857142857144</ele><time>2026-04-18T06:51:05.998Z</time></trkpt><trkpt lat="37.60250897787041" lon="-4.325891859849685"><ele>474.57142857142856</ele><time>2026-04-18T06:51:08.998Z</time></trkpt><trkpt lat="37.6024400342087" lon="-4.3258425860833825"><ele>475.7142857142857</ele><time>2026-04-18T06:51:12.998Z</time></trkpt><trkpt lat="37.60236867888274" lon="-4.325816508451424"><ele>476.8571428571429</ele><time>2026-04-18T06:51:15.998Z</time></trkpt><trkpt lat="37.602303990856" lon="-4.325867407391171"><ele>478.00000000000006</ele><time>2026-04-18T06:51:17.998Z</time></trkpt><trkpt lat="37.60223494037787" lon="-4.325924038973405"><ele>478.00000000000006</ele><time>2026-04-18T06:51:19.998Z</time></trkpt><trkpt lat="37.60218792595745" lon="-4.32597865391453"><ele>478.0</ele><time>2026-04-18T06:51:21.998Z</time></trkpt><trkpt lat="37.602186421252604" lon="-4.326064135889952"><ele>478.00000000000006</ele><time>2026-04-18T06:51:24.998Z</time></trkpt><trkpt lat="37.60210174561504" lon="-4.326106174647428"><ele>478.00000000000006</ele><time>2026-04-18T06:51:27.998Z</time></trkpt><trkpt lat="37.602038703463975" lon="-4.326161292883116"><ele>478.0</ele><time>2026-04-18T06:51:30.998Z</time></trkpt><trkpt lat="37.601986353921326" lon="-4.326226445976127"><ele>478.00000000000006</ele><time>2026-04-18T06:51:33.998Z</time></trkpt><trkpt lat="37.601928963111085" lon="-4.326268476619395"><ele>478.00000000000006</ele><time>2026-04-18T06:51:36.998Z</time></trkpt><trkpt lat="37.601869154146364" lon="-4.326293947909467"><ele>478.00000000000006</ele><time>2026-04-18T06:51:39.998Z</time></trkpt><trkpt lat="37.60179117778402" lon="-4.326306140609532"><ele>478.0</ele><time>2026-04-18T06:51:43.998Z</time></trkpt><trkpt lat="37.601728843628536" lon="-4.326317573098743"><ele>478.00000000000006</ele><time>2026-04-18T06:51:46.998Z</time></trkpt><trkpt lat="37.60166273459866" lon="-4.326354201137897"><ele>478.00000000000006</ele><time>2026-04-18T06:51:50.997Z</time></trkpt><trkpt lat="37.60170454201747" lon="-4.3264144051137885"><ele>478.0</ele><time>2026-04-18T06:51:53.997Z</time></trkpt><trkpt lat="37.60173180848339" lon="-4.326487527845475"><ele>478.00000000000006</ele><time>2026-04-18T06:51:58.997Z</time></trkpt><trkpt lat="37.60166034115669" lon="-4.3264792352304395"><ele>478.00000000000006</ele><time>2026-04-18T06:52:02.997Z</time></trkpt><trkpt lat="37.60159211832924" lon="-4.3264757570085655"><ele>479.7142857142858</ele><time>2026-04-18T06:52:06Z</time></trkpt><trkpt lat="37.60153031876524" lon="-4.326503756954822"><ele>481.42857142857144</ele><time>2026-04-18T06:52:09Z</time></trkpt><trkpt lat="37.60147036091005" lon="-4.326555208865473"><ele>483.14285714285717</ele><time>2026-04-18T06:52:12Z</time></trkpt><trkpt lat="37.601409941796284" lon="-4.3266089539689565"><ele>484.8571428571429</ele><time>2026-04-18T06:52:15Z</time></trkpt><trkpt lat="37.60134708696778" lon="-4.32666127815793"><ele>486.57142857142856</ele><time>2026-04-18T06:52:18Z</time></trkpt><trkpt lat="37.60128920314241" lon="-4.326715877766647"><ele>488.2857142857143</ele><time>2026-04-18T06:52:21Z</time></trkpt><trkpt lat="37.60123093462084" lon="-4.326768690579364"><ele>490.0</ele><time>2026-04-18T06:52:24Z</time></trkpt><trkpt lat="37.60117200374527" lon="-4.326833830602016"><ele>490.00000000000006</ele><time>2026-04-18T06:52:27Z</time></trkpt><trkpt lat="37.60111580175338" lon="-4.3268907102380005"><ele>490.0</ele><time>2026-04-18T06:52:29.999Z</time></trkpt><trkpt lat="37.60104856271728" lon="-4.326949100017823"><ele>490.0</ele><time>2026-04-18T06:52:32.999Z</time></trkpt><trkpt lat="37.60098862698177" lon="-4.326997740397433"><ele>490.0</ele><time>2026-04-18T06:52:35.999Z</time></trkpt><trkpt lat="37.60092343547932" lon="-4.327061681787651"><ele>490.00000000000006</ele><time>2026-04-18T06:52:38.999Z</time></trkpt><trkpt lat="37.60086129120702" lon="-4.327118855811874"><ele>490.0</ele><time>2026-04-18T06:52:41.999Z</time></trkpt><trkpt lat="37.60079694747113" lon="-4.327176772521283"><ele>490.0</ele><time>2026-04-18T06:52:44.999Z</time></trkpt><trkpt lat="37.600743125670455" lon="-4.327220966135735"><ele>490.0</ele><time>2026-04-18T06:52:47.999Z</time></trkpt><trkpt lat="37.60067589361733" lon="-4.327282484218762"><ele>490.0</ele><time>2026-04-18T06:53:02.999Z</time></trkpt><trkpt lat="37.6006067701468" lon="-4.3273367171005495"><ele>490.0</ele><time>2026-04-18T06:53:05.999Z</time></trkpt><trkpt lat="37.60055099639116" lon="-4.327389646613482"><ele>490.0</ele><time>2026-04-18T06:53:08.999Z</time></trkpt><trkpt lat="37.60048760001552" lon="-4.327437052441226"><ele>490.0</ele><time>2026-04-18T06:53:11.998Z</time></trkpt><trkpt lat="37.600433314022" lon="-4.327495568039133"><ele>490.0</ele><time>2026-04-18T06:53:14.998Z</time></trkpt><trkpt lat="37.60042289876029" lon="-4.327578930785359"><ele>491.1666666666667</ele><time>2026-04-18T06:53:17.998Z</time></trkpt><trkpt lat="37.60041396249434" lon="-4.327657848453077"><ele>492.33333333333337</ele><time>2026-04-18T06:53:20.998Z</time></trkpt><trkpt lat="37.60036697549727" lon="-4.327743824284483"><ele>493.5</ele><time>2026-04-18T06:53:24.998Z</time></trkpt><trkpt lat="37.60029674917948" lon="-4.327800354904142"><ele>494.66666666666663</ele><time>2026-04-18T06:53:27.998Z</time></trkpt><trkpt lat="37.600228373946315" lon="-4.327851184849178"><ele>495.8333333333333</ele><time>2026-04-18T06:53:30.998Z</time></trkpt><trkpt lat="37.60016833266709" lon="-4.327915535856892"><ele>497.0</ele><time>2026-04-18T06:53:33.998Z</time></trkpt><trkpt lat="37.60009758247377" lon="-4.327948069006336"><ele>496.99999999999994</ele><time>2026-04-18T06:53:36.998Z</time></trkpt><trkpt lat="37.60002095880201" lon="-4.327965429265222"><ele>497.0</ele><time>2026-04-18T06:53:39.998Z</time></trkpt><trkpt lat="37.59994662006455" lon="-4.327958274860096"><ele>497.0</ele><time>2026-04-18T06:53:42.998Z</time></trkpt><trkpt lat="37.59986532351556" lon="-4.327975569175984"><ele>497.0</ele><time>2026-04-18T06:53:45.998Z</time></trkpt><trkpt lat="37.5997891423154" lon="-4.327990050813749"><ele>496.99999999999994</ele><time>2026-04-18T06:53:48.998Z</time></trkpt><trkpt lat="37.599718281410645" lon="-4.3279969826892115"><ele>497.0</ele><time>2026-04-18T06:53:51.998Z</time></trkpt><trkpt lat="37.599638727177876" lon="-4.327978029033459"><ele>496.99999999999994</ele><time>2026-04-18T06:53:54.998Z</time></trkpt><trkpt lat="37.599563674887115" lon="-4.327957647162328"><ele>497.0</ele><time>2026-04-18T06:53:57.997Z</time></trkpt><trkpt lat="37.5994937461909" lon="-4.3279150617215"><ele>497.0</ele><time>2026-04-18T06:54:00.997Z</time></trkpt><trkpt lat="37.59941977445463" lon="-4.32787242837551"><ele>497.0</ele><time>2026-04-18T06:54:03.997Z</time></trkpt><trkpt lat="37.59933636168576" lon="-4.327877560643368"><ele>496.99999999999994</ele><time>2026-04-18T06:54:06.997Z</time></trkpt><trkpt lat="37.59926437300212" lon="-4.327898439481785"><ele>497.0</ele><time>2026-04-18T06:54:09.997Z</time></trkpt><trkpt lat="37.59920038760556" lon="-4.327955027892395"><ele>498.2857142857143</ele><time>2026-04-18T06:54:14Z</time></trkpt><trkpt lat="37.599131401315155" lon="-4.327990521590175"><ele>499.57142857142856</ele><time>2026-04-18T06:54:17Z</time></trkpt><trkpt lat="37.59908765651562" lon="-4.328053512973338"><ele>500.8571428571429</ele><time>2026-04-18T06:54:20Z</time></trkpt><trkpt lat="37.59902602581059" lon="-4.328091216848873"><ele>502.14285714285717</ele><time>2026-04-18T06:54:23Z</time></trkpt><trkpt lat="37.598958950086974" lon="-4.328070631414648"><ele>503.42857142857144</ele><time>2026-04-18T06:54:26Z</time></trkpt><trkpt lat="37.59889451395869" lon="-4.328109947302351"><ele>504.7142857142858</ele><time>2026-04-18T06:54:29Z</time></trkpt><trkpt lat="37.59887125964549" lon="-4.328185421508301"><ele>506.00000000000006</ele><time>2026-04-18T06:54:32Z</time></trkpt><trkpt lat="37.59884303134092" lon="-4.32827976238005"><ele>507.57142857142867</ele><time>2026-04-18T06:54:35.999Z</time></trkpt><trkpt lat="37.59881484904587" lon="-4.328356340385487"><ele>509.14285714285717</ele><time>2026-04-18T06:54:38.999Z</time></trkpt><trkpt lat="37.59877811119727" lon="-4.328424468519954"><ele>510.7142857142858</ele><time>2026-04-18T06:54:41.999Z</time></trkpt><trkpt lat="37.59874686873388" lon="-4.328500193907391"><ele>512.2857142857143</ele><time>2026-04-18T06:54:44.999Z</time></trkpt><trkpt lat="37.59870914232466" lon="-4.32858746700975"><ele>513.8571428571429</ele><time>2026-04-18T06:54:48.999Z</time></trkpt><trkpt lat="37.59866256671018" lon="-4.328680900898084"><ele>515.4285714285714</ele><time>2026-04-18T06:54:52.999Z</time></trkpt><trkpt lat="37.59866201709304" lon="-4.3287768873860335"><ele>517.0</ele><time>2026-04-18T06:54:56.999Z</time></trkpt><trkpt lat="37.598684422775484" lon="-4.328853955749466"><ele>519.0</ele><time>2026-04-18T06:54:59.999Z</time></trkpt><trkpt lat="37.59870275294841" lon="-4.328931530830489"><ele>521.0</ele><time>2026-04-18T06:55:03.999Z</time></trkpt><trkpt lat="37.5987182453963" lon="-4.329020575725777"><ele>523.0</ele><time>2026-04-18T06:55:07.999Z</time></trkpt><trkpt lat="37.5987153364855" lon="-4.3291121002962685"><ele>525.0</ele><time>2026-04-18T06:55:12.999Z</time></trkpt><trkpt lat="37.59863952802484" lon="-4.329119239523367"><ele>527.0</ele><time>2026-04-18T06:55:16.999Z</time></trkpt><trkpt lat="37.59857481206844" lon="-4.329117235285884"><ele>529.0</ele><time>2026-04-18T06:55:19.998Z</time></trkpt><trkpt lat="37.598509532983215" lon="-4.32911657908093"><ele>531.0</ele><time>2026-04-18T06:55:22.998Z</time></trkpt><trkpt lat="37.59843448505655" lon="-4.3291217175422245"><ele>532.8571428571429</ele><time>2026-04-18T06:55:26.998Z</time></trkpt><trkpt lat="37.598370259776054" lon="-4.329116829171359"><ele>534.7142857142858</ele><time>2026-04-18T06:55:29.998Z</time></trkpt><trkpt lat="37.598296418491806" lon="-4.329103693740619"><ele>536.5714285714286</ele><time>2026-04-18T06:55:32.998Z</time></trkpt><trkpt lat="37.59821953115772" lon="-4.329118809877145"><ele>538.4285714285714</ele><time>2026-04-18T06:55:35.998Z</time></trkpt><trkpt lat="37.5981448191591" lon="-4.329143475835513"><ele>540.2857142857142</ele><time>2026-04-18T06:55:38.998Z</time></trkpt><trkpt lat="37.598075650055485" lon="-4.32917340261695"><ele>542.1428571428571</ele><time>2026-04-18T06:55:41.998Z</time></trkpt><trkpt lat="37.59800680571048" lon="-4.329216853685164"><ele>544.0</ele><time>2026-04-18T06:55:44.998Z</time></trkpt><trkpt lat="37.59794878478323" lon="-4.329258992597227"><ele>543.9999999999999</ele><time>2026-04-18T06:55:47.998Z</time></trkpt><trkpt lat="37.597895405591366" lon="-4.329313816276863"><ele>544.0</ele><time>2026-04-18T06:55:50.998Z</time></trkpt><trkpt lat="37.597833131999955" lon="-4.329367828045085"><ele>544.0</ele><time>2026-04-18T06:55:54.998Z</time></trkpt><trkpt lat="37.59777731284085" lon="-4.329406301760894"><ele>544.0</ele><time>2026-04-18T06:55:57.998Z</time></trkpt><trkpt lat="37.5977255210017" lon="-4.329475853797668"><ele>544.0</ele><time>2026-04-18T06:56:01.998Z</time></trkpt><trkpt lat="37.597708100109216" lon="-4.329565404847036"><ele>543.9999999999999</ele><time>2026-04-18T06:56:06.997Z</time></trkpt><trkpt lat="37.59765189078231" lon="-4.329636865207725"><ele>544.0</ele><time>2026-04-18T06:56:10.997Z</time></trkpt><trkpt lat="37.59759454615944" lon="-4.329697674140084"><ele>547.4285714285713</ele><time>2026-04-18T06:56:16Z</time></trkpt><trkpt lat="37.5976201113211" lon="-4.32979003289082"><ele>550.8571428571429</ele><time>2026-04-18T06:56:20Z</time></trkpt><trkpt lat="37.59762684254549" lon="-4.329871220080999"><ele>554.2857142857142</ele><time>2026-04-18T06:56:23Z</time></trkpt><trkpt lat="37.59761732501093" lon="-4.329952659073274"><ele>557.7142857142857</ele><time>2026-04-18T06:56:27Z</time></trkpt><trkpt lat="37.597618436406975" lon="-4.330039625108248"><ele>561.1428571428571</ele><time>2026-04-18T06:57:01.999Z</time></trkpt><trkpt lat="37.59762486183506" lon="-4.330125511701337"><ele>564.5714285714286</ele><time>2026-04-18T06:57:11.999Z</time></trkpt><trkpt lat="37.59762807145989" lon="-4.330208256161429"><ele>568.0</ele><time>2026-04-18T06:57:21.999Z</time></trkpt><trkpt lat="37.59765556761352" lon="-4.33028014271747"><ele>568.0</ele><time>2026-04-18T06:57:33.998Z</time></trkpt><trkpt lat="37.597613979101475" lon="-4.330360562362551"><ele>568.0</ele><time>2026-04-18T06:58:04.998Z</time></trkpt><trkpt lat="37.59760217223858" lon="-4.330446941795502"><ele>568.0</ele><time>2026-04-18T06:58:08.998Z</time></trkpt><trkpt lat="37.59760186812345" lon="-4.330528389591284"><ele>568.0</ele><time>2026-04-18T06:58:11.998Z</time></trkpt><trkpt lat="37.59759332408587" lon="-4.330609667611629"><ele>568.0</ele><time>2026-04-18T06:58:15.997Z</time></trkpt><trkpt lat="37.59760161559195" lon="-4.330698901986071"><ele>568.0</ele><time>2026-04-18T06:58:19.997Z</time></trkpt><trkpt lat="37.5976093710355" lon="-4.330781135159631"><ele>568.0</ele><time>2026-04-18T06:58:24Z</time></trkpt><trkpt lat="37.59760889381097" lon="-4.330867380077105"><ele>570.4285714285714</ele><time>2026-04-18T06:58:28Z</time></trkpt><trkpt lat="37.597620266855756" lon="-4.330955979076761"><ele>572.8571428571428</ele><time>2026-04-18T06:58:32Z</time></trkpt><trkpt lat="37.59761094000178" lon="-4.3310363338804665"><ele>575.2857142857142</ele><time>2026-04-18T06:58:36Z</time></trkpt><trkpt lat="37.59758759467437" lon="-4.331131640884137"><ele>577.7142857142857</ele><time>2026-04-18T06:58:41Z</time></trkpt><trkpt lat="37.597574240944596" lon="-4.331213765396476"><ele>580.1428571428571</ele><time>2026-04-18T06:58:45Z</time></trkpt><trkpt lat="37.597575424154606" lon="-4.331296823798315"><ele>582.5714285714286</ele><time>2026-04-18T06:58:48.999Z</time></trkpt><trkpt lat="37.59758876200468" lon="-4.33137708491089"><ele>585.0</ele><time>2026-04-18T06:58:52.999Z</time></trkpt><trkpt lat="37.597591656313" lon="-4.331473490856607"><ele>587.4285714285714</ele><time>2026-04-18T06:58:56.999Z</time></trkpt><trkpt lat="37.59752511342749" lon="-4.331507204398009"><ele>589.8571428571429</ele><time>2026-04-18T06:59:00.999Z</time></trkpt><trkpt lat="37.597501860867034" lon="-4.331592049713954"><ele>592.2857142857142</ele><time>2026-04-18T06:59:03.999Z</time></trkpt><trkpt lat="37.59746734849541" lon="-4.331669793244486"><ele>594.7142857142858</ele><time>2026-04-18T06:59:07.999Z</time></trkpt><trkpt lat="37.59742902952645" lon="-4.331751646109138"><ele>597.1428571428571</ele><time>2026-04-18T06:59:11.999Z</time></trkpt><trkpt lat="37.5973931827567" lon="-4.331832169512557"><ele>599.5714285714286</ele><time>2026-04-18T06:59:15.999Z</time></trkpt><trkpt lat="37.59735384450468" lon="-4.331917039454826"><ele>602.0</ele><time>2026-04-18T06:59:19.999Z</time></trkpt><trkpt lat="37.59730185089676" lon="-4.331998833677814"><ele>602.0</ele><time>2026-04-18T06:59:23.999Z</time></trkpt><trkpt lat="37.59726707762582" lon="-4.332077347656803"><ele>602.0</ele><time>2026-04-18T06:59:27.999Z</time></trkpt><trkpt lat="37.59720362975235" lon="-4.332143771271117"><ele>602.0</ele><time>2026-04-18T06:59:31.999Z</time></trkpt><trkpt lat="37.59715156722142" lon="-4.332194297947745"><ele>602.0</ele><time>2026-04-18T06:59:34.998Z</time></trkpt><trkpt lat="37.597106291676525" lon="-4.332252338273885"><ele>602.0</ele><time>2026-04-18T06:59:38.998Z</time></trkpt><trkpt lat="37.59708353340531" lon="-4.332335888326186"><ele>602.0</ele><time>2026-04-18T06:59:42.998Z</time></trkpt><trkpt lat="37.59705845438638" lon="-4.332415746531842"><ele>602.0</ele><time>2026-04-18T06:59:46.998Z</time></trkpt><trkpt lat="37.59702927891877" lon="-4.332503269428498"><ele>604.2857142857143</ele><time>2026-04-18T06:59:50.998Z</time></trkpt><trkpt lat="37.59703636938455" lon="-4.332589065827369"><ele>606.5714285714286</ele><time>2026-04-18T06:59:54.998Z</time></trkpt><trkpt lat="37.59707003753681" lon="-4.332670233794037"><ele>608.8571428571429</ele><time>2026-04-18T06:59:58.998Z</time></trkpt><trkpt lat="37.59708643109779" lon="-4.332752000213451"><ele>611.1428571428571</ele><time>2026-04-18T07:00:02.998Z</time></trkpt><trkpt lat="37.59708674130957" lon="-4.332851061320464"><ele>613.4285714285714</ele><time>2026-04-18T07:00:06.998Z</time></trkpt><trkpt lat="37.59704768989017" lon="-4.33294226249611"><ele>615.7142857142858</ele><time>2026-04-18T07:00:10.998Z</time></trkpt><trkpt lat="37.597021369611326" lon="-4.333037122255341"><ele>618.0</ele><time>2026-04-18T07:00:14.998Z</time></trkpt><trkpt lat="37.59698354016147" lon="-4.333109045972526"><ele>620.5</ele><time>2026-04-18T07:00:18.997Z</time></trkpt><trkpt lat="37.59693790394557" lon="-4.333184165887741"><ele>623.0</ele><time>2026-04-18T07:00:22.997Z</time></trkpt><trkpt lat="37.59688693830068" lon="-4.333263072803865"><ele>625.5</ele><time>2026-04-18T07:00:26.997Z</time></trkpt><trkpt lat="37.5968772916162" lon="-4.333352147038165"><ele>628.0</ele><time>2026-04-18T07:00:31Z</time></trkpt><trkpt lat="37.596887241296145" lon="-4.333452954048463"><ele>630.5</ele><time>2026-04-18T07:00:35Z</time></trkpt><trkpt lat="37.59690245061941" lon="-4.333548959588859"><ele>633.0</ele><time>2026-04-18T07:00:39Z</time></trkpt><trkpt lat="37.59686565260797" lon="-4.333637180442051"><ele>633.0</ele><time>2026-04-18T07:00:43Z</time></trkpt><trkpt lat="37.59680714245224" lon="-4.333673767533765"><ele>633.0</ele><time>2026-04-18T07:00:46Z</time></trkpt><trkpt lat="37.59675274153792" lon="-4.3337203260732595"><ele>633.0</ele><time>2026-04-18T07:00:49Z</time></trkpt><trkpt lat="37.59671796781587" lon="-4.3337914037120155"><ele>633.0</ele><time>2026-04-18T07:00:52Z</time></trkpt><trkpt lat="37.596666488997634" lon="-4.333864539023101"><ele>633.0</ele><time>2026-04-18T07:00:57Z</time></trkpt><trkpt lat="37.5966257462433" lon="-4.333926382714142"><ele>633.0</ele><time>2026-04-18T07:00:59.999Z</time></trkpt><trkpt lat="37.596584913544554" lon="-4.334000705372679"><ele>633.0</ele><time>2026-04-18T07:01:03.999Z</time></trkpt><trkpt lat="37.59655431807272" lon="-4.334072145763908"><ele>634.8571428571429</ele><time>2026-04-18T07:01:06.999Z</time></trkpt><trkpt lat="37.59652248329809" lon="-4.334157475715714"><ele>636.7142857142858</ele><time>2026-04-18T07:01:10.999Z</time></trkpt><trkpt lat="37.59649186755038" lon="-4.334255444428356"><ele>638.5714285714287</ele><time>2026-04-18T07:01:14.999Z</time></trkpt><trkpt lat="37.59645998062208" lon="-4.334331742120711"><ele>640.4285714285714</ele><time>2026-04-18T07:01:17.999Z</time></trkpt><trkpt lat="37.59642796098088" lon="-4.334411724021345"><ele>642.2857142857143</ele><time>2026-04-18T07:01:20.999Z</time></trkpt><trkpt lat="37.59640692384034" lon="-4.33448718167836"><ele>644.1428571428572</ele><time>2026-04-18T07:01:23.999Z</time></trkpt><trkpt lat="37.596382203065374" lon="-4.334568630390837"><ele>646.0</ele><time>2026-04-18T07:01:26.999Z</time></trkpt><trkpt lat="37.596374810300894" lon="-4.33467196793069"><ele>647.4285714285714</ele><time>2026-04-18T07:01:30.999Z</time></trkpt><trkpt lat="37.596368810899214" lon="-4.334757941784123"><ele>648.8571428571429</ele><time>2026-04-18T07:01:33.999Z</time></trkpt><trkpt lat="37.59633661716992" lon="-4.334832535186555"><ele>650.2857142857142</ele><time>2026-04-18T07:01:36.999Z</time></trkpt><trkpt lat="37.59629041915805" lon="-4.33490135218631"><ele>651.7142857142858</ele><time>2026-04-18T07:01:39.999Z</time></trkpt><trkpt lat="37.59628820060962" lon="-4.3350052253894145"><ele>653.1428571428571</ele><time>2026-04-18T07:01:42.999Z</time></trkpt><trkpt lat="37.59633047904133" lon="-4.3350855230301555"><ele>654.5714285714286</ele><time>2026-04-18T07:01:45.998Z</time></trkpt><trkpt lat="37.59635268407622" lon="-4.335167690860692"><ele>656.0</ele><time>2026-04-18T07:01:47.998Z</time></trkpt><trkpt lat="37.596372470516414" lon="-4.335245986436193"><ele>655.9999999999999</ele><time>2026-04-18T07:01:49.998Z</time></trkpt><trkpt lat="37.59637177727773" lon="-4.335333282889232"><ele>656.0</ele><time>2026-04-18T07:01:51.998Z</time></trkpt><trkpt lat="37.59639231477216" lon="-4.335417279185076"><ele>656.0</ele><time>2026-04-18T07:01:53.998Z</time></trkpt><trkpt lat="37.59643129348422" lon="-4.335498535766871"><ele>656.0</ele><time>2026-04-18T07:01:55.998Z</time></trkpt><trkpt lat="37.596491134135476" lon="-4.335532464761543"><ele>656.0</ele><time>2026-04-18T07:01:57.998Z</time></trkpt><trkpt lat="37.59654721947092" lon="-4.335591747696514"><ele>655.9999999999999</ele><time>2026-04-18T07:02:00.998Z</time></trkpt><trkpt lat="37.596559213139" lon="-4.335670425584604"><ele>656.0</ele><time>2026-04-18T07:02:02.998Z</time></trkpt><trkpt lat="37.59655230228657" lon="-4.3357572565374"><ele>657.0</ele><time>2026-04-18T07:02:04.998Z</time></trkpt><trkpt lat="37.59653513440447" lon="-4.335840596522098"><ele>658.0</ele><time>2026-04-18T07:02:06.998Z</time></trkpt><trkpt lat="37.59650682123303" lon="-4.335922669580956"><ele>659.0</ele><time>2026-04-18T07:02:08.998Z</time></trkpt><trkpt lat="37.5964974778368" lon="-4.336019607273694"><ele>660.0</ele><time>2026-04-18T07:02:10.998Z</time></trkpt><trkpt lat="37.59654321340049" lon="-4.336102401632086"><ele>661.0</ele><time>2026-04-18T07:02:12.998Z</time></trkpt><trkpt lat="37.59659361569739" lon="-4.336163727065229"><ele>662.0</ele><time>2026-04-18T07:02:14.998Z</time></trkpt><trkpt lat="37.596622349500926" lon="-4.336270713515503"><ele>662.0</ele><time>2026-04-18T07:02:17.998Z</time></trkpt><trkpt lat="37.59663328906376" lon="-4.336368206358265"><ele>662.0</ele><time>2026-04-18T07:02:19.998Z</time></trkpt><trkpt lat="37.59666828731869" lon="-4.336454560551043"><ele>662.0</ele><time>2026-04-18T07:02:21.998Z</time></trkpt><trkpt lat="37.59670616830156" lon="-4.336524643191722"><ele>662.0</ele><time>2026-04-18T07:02:23.998Z</time></trkpt><trkpt lat="37.596714274831655" lon="-4.336614404587107"><ele>662.0</ele><time>2026-04-18T07:02:25.998Z</time></trkpt><trkpt lat="37.59672273630185" lon="-4.3366969523166246"><ele>662.0</ele><time>2026-04-18T07:02:27.998Z</time></trkpt><trkpt lat="37.59672295302475" lon="-4.336791368757015"><ele>662.0</ele><time>2026-04-18T07:02:29.997Z</time></trkpt><trkpt lat="37.596705231133875" lon="-4.336880998895705"><ele>662.0</ele><time>2026-04-18T07:02:31.997Z</time></trkpt><trkpt lat="37.59667817034825" lon="-4.336965560767708"><ele>662.0</ele><time>2026-04-18T07:02:34Z</time></trkpt><trkpt lat="37.59664642671105" lon="-4.337062672758951"><ele>662.0</ele><time>2026-04-18T07:02:36Z</time></trkpt><trkpt lat="37.59661988390879" lon="-4.337149424267988"><ele>662.0</ele><time>2026-04-18T07:02:38Z</time></trkpt><trkpt lat="37.596597427013315" lon="-4.337247282845163"><ele>662.0</ele><time>2026-04-18T07:02:40Z</time></trkpt><trkpt lat="37.59659168969138" lon="-4.3373388324879825"><ele>662.0</ele><time>2026-04-18T07:02:42Z</time></trkpt><trkpt lat="37.59659695825565" lon="-4.33743642549046"><ele>662.1666666666666</ele><time>2026-04-18T07:02:44Z</time></trkpt><trkpt lat="37.59660163942689" lon="-4.337528662327177"><ele>662.3333333333333</ele><time>2026-04-18T07:02:46Z</time></trkpt><trkpt lat="37.596609000362946" lon="-4.337626581502118"><ele>662.5</ele><time>2026-04-18T07:02:48Z</time></trkpt><trkpt lat="37.596593002819304" lon="-4.337725175122573"><ele>662.6666666666666</ele><time>2026-04-18T07:02:50Z</time></trkpt><trkpt lat="37.596543515409174" lon="-4.337805304614498"><ele>662.8333333333334</ele><time>2026-04-18T07:02:52Z</time></trkpt><trkpt lat="37.59650396623126" lon="-4.337884343143981"><ele>663.0</ele><time>2026-04-18T07:02:54Z</time></trkpt><trkpt lat="37.596484352942255" lon="-4.337980421521815"><ele>663.0</ele><time>2026-04-18T07:02:56Z</time></trkpt><trkpt lat="37.596474632538666" lon="-4.338074493593402"><ele>663.0</ele><time>2026-04-18T07:02:58Z</time></trkpt><trkpt lat="37.59646481355548" lon="-4.3381620892072545"><ele>663.0</ele><time>2026-04-18T07:03:00Z</time></trkpt><trkpt lat="37.59643622144939" lon="-4.338239034026477"><ele>663.0</ele><time>2026-04-18T07:03:02Z</time></trkpt><trkpt lat="37.5963667293706" lon="-4.33827659965259"><ele>663.0</ele><time>2026-04-18T07:03:04Z</time></trkpt><trkpt lat="37.59628946683581" lon="-4.338283017571193"><ele>663.0</ele><time>2026-04-18T07:03:06Z</time></trkpt><trkpt lat="37.596207408397916" lon="-4.338306433047935"><ele>663.4</ele><time>2026-04-18T07:03:07.999Z</time></trkpt><trkpt lat="37.596119449451194" lon="-4.338354660365987"><ele>663.8</ele><time>2026-04-18T07:03:09.999Z</time></trkpt><trkpt lat="37.596040345802336" lon="-4.338428580978455"><ele>664.2</ele><time>2026-04-18T07:03:11.999Z</time></trkpt><trkpt lat="37.59595655595184" lon="-4.338492136558664"><ele>664.6</ele><time>2026-04-18T07:03:13.999Z</time></trkpt><trkpt lat="37.5958644751946" lon="-4.338523211656599"><ele>665.0</ele><time>2026-04-18T07:03:15.999Z</time></trkpt><trkpt lat="37.59576488742605" lon="-4.338562271183079"><ele>665.0</ele><time>2026-04-18T07:03:17.999Z</time></trkpt><trkpt lat="37.59568153350368" lon="-4.338602242133636"><ele>665.0</ele><time>2026-04-18T07:03:19.999Z</time></trkpt><trkpt lat="37.59558966725178" lon="-4.338615782391071"><ele>665.0</ele><time>2026-04-18T07:03:21.999Z</time></trkpt><trkpt lat="37.595492066143684" lon="-4.338621383012973"><ele>665.0</ele><time>2026-04-18T07:03:23.999Z</time></trkpt><trkpt lat="37.595398170741305" lon="-4.338627969571293"><ele>665.0</ele><time>2026-04-18T07:03:25.999Z</time></trkpt><trkpt lat="37.59531865368085" lon="-4.33864738978954"><ele>665.0</ele><time>2026-04-18T07:03:27.999Z</time></trkpt><trkpt lat="37.59523899714465" lon="-4.3386759897347265"><ele>665.0</ele><time>2026-04-18T07:03:29.999Z</time></trkpt><trkpt lat="37.59516161686912" lon="-4.338698675057566"><ele>665.0</ele><time>2026-04-18T07:03:31.999Z</time></trkpt><trkpt lat="37.59508002122751" lon="-4.338711621862534"><ele>665.0</ele><time>2026-04-18T07:03:33.999Z</time></trkpt><trkpt lat="37.594990898042525" lon="-4.338733750552901"><ele>665.0</ele><time>2026-04-18T07:03:35.999Z</time></trkpt><trkpt lat="37.594890187591325" lon="-4.338778554690071"><ele>665.0</ele><time>2026-04-18T07:03:37.999Z</time></trkpt><trkpt lat="37.59478446424527" lon="-4.338826359753149"><ele>665.0</ele><time>2026-04-18T07:03:39.999Z</time></trkpt><trkpt lat="37.59468237759873" lon="-4.338898990932188"><ele>665.0</ele><time>2026-04-18T07:03:41.999Z</time></trkpt><trkpt lat="37.59458688317818" lon="-4.338971124921181"><ele>665.0</ele><time>2026-04-18T07:03:43.999Z</time></trkpt><trkpt lat="37.59450317222673" lon="-4.339056509153798"><ele>665.0</ele><time>2026-04-18T07:03:45.999Z</time></trkpt><trkpt lat="37.594412351740125" lon="-4.339155111046313"><ele>665.0</ele><time>2026-04-18T07:03:47.999Z</time></trkpt><trkpt lat="37.59436117402921" lon="-4.3392071081238495"><ele>665.0</ele><time>2026-04-18T07:03:48.999Z</time></trkpt><trkpt lat="37.59427299775121" lon="-4.339286825275866"><ele>665.0</ele><time>2026-04-18T07:03:50.999Z</time></trkpt><trkpt lat="37.594171919914274" lon="-4.339358122872134"><ele>665.0</ele><time>2026-04-18T07:03:52.998Z</time></trkpt><trkpt lat="37.59408531141511" lon="-4.339409684326349"><ele>665.0</ele><time>2026-04-18T07:03:54.998Z</time></trkpt><trkpt lat="37.59398722543829" lon="-4.339390572543191"><ele>665.0</ele><time>2026-04-18T07:03:56.998Z</time></trkpt><trkpt lat="37.59389548680635" lon="-4.339390229084959"><ele>665.0</ele><time>2026-04-18T07:03:58.998Z</time></trkpt><trkpt lat="37.593811446732445" lon="-4.33943118475231"><ele>665.0</ele><time>2026-04-18T07:04:00.998Z</time></trkpt><trkpt lat="37.593728624758434" lon="-4.339482704153618"><ele>665.0</ele><time>2026-04-18T07:04:02.998Z</time></trkpt><trkpt lat="37.593627155347335" lon="-4.339497758618039"><ele>665.0</ele><time>2026-04-18T07:04:04.998Z</time></trkpt><trkpt lat="37.593523948944224" lon="-4.33950796720012"><ele>665.6</ele><time>2026-04-18T07:04:06.998Z</time></trkpt><trkpt lat="37.59343762633852" lon="-4.339549256641321"><ele>666.2</ele><time>2026-04-18T07:04:08.998Z</time></trkpt><trkpt lat="37.59336815504642" lon="-4.339620879337477"><ele>666.8</ele><time>2026-04-18T07:04:10.998Z</time></trkpt><trkpt lat="37.59330680643292" lon="-4.339708354316321"><ele>667.4</ele><time>2026-04-18T07:04:12.998Z</time></trkpt><trkpt lat="37.59323859015734" lon="-4.3397848817096225"><ele>668.0</ele><time>2026-04-18T07:04:14.998Z</time></trkpt><trkpt lat="37.59317454152143" lon="-4.339871035675002"><ele>668.0</ele><time>2026-04-18T07:04:16.998Z</time></trkpt><trkpt lat="37.593123949136206" lon="-4.339955118524784"><ele>668.0</ele><time>2026-04-18T07:04:18.998Z</time></trkpt><trkpt lat="37.59308502757792" lon="-4.340064701764101"><ele>668.0</ele><time>2026-04-18T07:04:20.998Z</time></trkpt><trkpt lat="37.59302169393831" lon="-4.340170067301789"><ele>668.0</ele><time>2026-04-18T07:04:22.998Z</time></trkpt><trkpt lat="37.59296475767259" lon="-4.340276773474609"><ele>668.0</ele><time>2026-04-18T07:04:24.998Z</time></trkpt><trkpt lat="37.59291102296705" lon="-4.340385949317379"><ele>668.0</ele><time>2026-04-18T07:04:26.998Z</time></trkpt><trkpt lat="37.59284833321034" lon="-4.340486071315868"><ele>668.0</ele><time>2026-04-18T07:04:28.998Z</time></trkpt><trkpt lat="37.59277517263473" lon="-4.340580888642023"><ele>668.0</ele><time>2026-04-18T07:04:30.998Z</time></trkpt><trkpt lat="37.59270669215486" lon="-4.3406812855000725"><ele>668.0</ele><time>2026-04-18T07:04:32.998Z</time></trkpt><trkpt lat="37.5926317346036" lon="-4.340785411162675"><ele>668.0</ele><time>2026-04-18T07:04:34.998Z</time></trkpt><trkpt lat="37.592561509954" lon="-4.3408915410286735"><ele>668.4</ele><time>2026-04-18T07:04:36.998Z</time></trkpt><trkpt lat="37.59249876770745" lon="-4.341001797092071"><ele>668.8</ele><time>2026-04-18T07:04:39Z</time></trkpt><trkpt lat="37.59243395466509" lon="-4.341114389068827"><ele>669.2</ele><time>2026-04-18T07:04:41Z</time></trkpt><trkpt lat="37.592367897058885" lon="-4.3412228137423625"><ele>669.6</ele><time>2026-04-18T07:04:43Z</time></trkpt><trkpt lat="37.59230738902678" lon="-4.341337133886529"><ele>670.0</ele><time>2026-04-18T07:04:45Z</time></trkpt><trkpt lat="37.592248112223196" lon="-4.341453486050589"><ele>670.8</ele><time>2026-04-18T07:04:47Z</time></trkpt><trkpt lat="37.59219352931294" lon="-4.34157205925659"><ele>671.6</ele><time>2026-04-18T07:04:49Z</time></trkpt><trkpt lat="37.59215556464033" lon="-4.341689699539983"><ele>672.4000000000001</ele><time>2026-04-18T07:04:51Z</time></trkpt><trkpt lat="37.592118341663834" lon="-4.341803238475068"><ele>673.2</ele><time>2026-04-18T07:04:53Z</time></trkpt><trkpt lat="37.59204888732506" lon="-4.341904649955833"><ele>674.0</ele><time>2026-04-18T07:04:55Z</time></trkpt><trkpt lat="37.59199307489968" lon="-4.342014689085091"><ele>674.0</ele><time>2026-04-18T07:04:57Z</time></trkpt><trkpt lat="37.59192464418539" lon="-4.342100550395147"><ele>674.0</ele><time>2026-04-18T07:04:59Z</time></trkpt><trkpt lat="37.59185744999684" lon="-4.342172212884698"><ele>674.0</ele><time>2026-04-18T07:05:01Z</time></trkpt><trkpt lat="37.59178329527871" lon="-4.342246949739568"><ele>674.0</ele><time>2026-04-18T07:05:03Z</time></trkpt><trkpt lat="37.59170099172838" lon="-4.342305653051942"><ele>674.0</ele><time>2026-04-18T07:05:05Z</time></trkpt><trkpt lat="37.59162469143551" lon="-4.342354486543236"><ele>671.8000000000001</ele><time>2026-04-18T07:05:07Z</time></trkpt><trkpt lat="37.59154887694295" lon="-4.342414089535522"><ele>669.6</ele><time>2026-04-18T07:05:09Z</time></trkpt><trkpt lat="37.59147444764082" lon="-4.342496805475805"><ele>667.4</ele><time>2026-04-18T07:05:11Z</time></trkpt><trkpt lat="37.59140835161065" lon="-4.342595762508329"><ele>665.2</ele><time>2026-04-18T07:05:13Z</time></trkpt><trkpt lat="37.59134356360637" lon="-4.342691459205555"><ele>663.0</ele><time>2026-04-18T07:05:15Z</time></trkpt><trkpt lat="37.59127758322932" lon="-4.342791822116896"><ele>663.0</ele><time>2026-04-18T07:05:16.999Z</time></trkpt><trkpt lat="37.59120057769457" lon="-4.342889133172358"><ele>663.0</ele><time>2026-04-18T07:05:18.999Z</time></trkpt><trkpt lat="37.59112078882477" lon="-4.342980654500181"><ele>663.0</ele><time>2026-04-18T07:05:20.999Z</time></trkpt><trkpt lat="37.591043347602316" lon="-4.3430658889711"><ele>663.0</ele><time>2026-04-18T07:05:22.999Z</time></trkpt><trkpt lat="37.59096282600772" lon="-4.343152844655529"><ele>663.0</ele><time>2026-04-18T07:05:24.999Z</time></trkpt><trkpt lat="37.5908729866571" lon="-4.343234853036957"><ele>662.6666666666666</ele><time>2026-04-18T07:05:26.999Z</time></trkpt><trkpt lat="37.59077505847597" lon="-4.343321366990553"><ele>662.3333333333334</ele><time>2026-04-18T07:05:28.999Z</time></trkpt><trkpt lat="37.59071398004629" lon="-4.3433673362779945"><ele>662.0</ele><time>2026-04-18T07:05:29.999Z</time></trkpt><trkpt lat="37.59065468963172" lon="-4.343405669097399"><ele>661.6666666666667</ele><time>2026-04-18T07:05:30.999Z</time></trkpt><trkpt lat="37.59059483203712" lon="-4.343444772427945"><ele>661.3333333333334</ele><time>2026-04-18T07:05:31.999Z</time></trkpt><trkpt lat="37.590536528830306" lon="-4.343486766668201"><ele>661.0</ele><time>2026-04-18T07:05:32.999Z</time></trkpt><trkpt lat="37.5904784142949" lon="-4.343531202788882"><ele>661.0</ele><time>2026-04-18T07:05:33.999Z</time></trkpt><trkpt lat="37.59041849050983" lon="-4.3435774907092926"><ele>661.0</ele><time>2026-04-18T07:05:34.999Z</time></trkpt><trkpt lat="37.59036395849547" lon="-4.343624376540153"><ele>661.0</ele><time>2026-04-18T07:05:35.999Z</time></trkpt><trkpt lat="37.590309842102975" lon="-4.343675428675248"><ele>661.0</ele><time>2026-04-18T07:05:36.999Z</time></trkpt><trkpt lat="37.59021294252203" lon="-4.343769288758555"><ele>661.0</ele><time>2026-04-18T07:05:38.999Z</time></trkpt><trkpt lat="37.5901148868155" lon="-4.343849863694055"><ele>661.0</ele><time>2026-04-18T07:05:40.999Z</time></trkpt><trkpt lat="37.59002801421534" lon="-4.343935844132686"><ele>660.25</ele><time>2026-04-18T07:05:42.999Z</time></trkpt><trkpt lat="37.5899351607721" lon="-4.344023560729246"><ele>659.5</ele><time>2026-04-18T07:05:44.999Z</time></trkpt><trkpt lat="37.58984276418324" lon="-4.3441094906082345"><ele>658.75</ele><time>2026-04-18T07:05:46.999Z</time></trkpt><trkpt lat="37.58976312461342" lon="-4.34421076170625"><ele>658.0</ele><time>2026-04-18T07:05:48.999Z</time></trkpt><trkpt lat="37.58968983584769" lon="-4.344326281711981"><ele>658.0</ele><time>2026-04-18T07:05:50.999Z</time></trkpt><trkpt lat="37.589606730261615" lon="-4.344429880023869"><ele>658.0</ele><time>2026-04-18T07:05:52.999Z</time></trkpt><trkpt lat="37.58951640335131" lon="-4.344512821818533"><ele>658.0</ele><time>2026-04-18T07:05:54.999Z</time></trkpt><trkpt lat="37.58944471144189" lon="-4.344605947519472"><ele>658.0</ele><time>2026-04-18T07:05:56.999Z</time></trkpt><trkpt lat="37.58935942652288" lon="-4.344683531820962"><ele>658.0</ele><time>2026-04-18T07:05:58.999Z</time></trkpt><trkpt lat="37.589270282513986" lon="-4.344751983831472"><ele>657.8</ele><time>2026-04-18T07:06:00.999Z</time></trkpt><trkpt lat="37.58916397927298" lon="-4.344807707796843"><ele>657.5999999999999</ele><time>2026-04-18T07:06:02.998Z</time></trkpt><trkpt lat="37.58905955223947" lon="-4.344863562782966"><ele>657.4000000000001</ele><time>2026-04-18T07:06:04.998Z</time></trkpt><trkpt lat="37.58896320802573" lon="-4.344911623271036"><ele>657.2</ele><time>2026-04-18T07:06:06.998Z</time></trkpt><trkpt lat="37.588864264873315" lon="-4.344926526314627"><ele>657.0</ele><time>2026-04-18T07:06:08.998Z</time></trkpt><trkpt lat="37.58878543018362" lon="-4.344945812258781"><ele>657.0</ele><time>2026-04-18T07:06:10.998Z</time></trkpt><trkpt lat="37.58871811744514" lon="-4.344964854981369"><ele>657.0</ele><time>2026-04-18T07:06:12.998Z</time></trkpt><trkpt lat="37.58864351739747" lon="-4.344952414321479"><ele>657.0</ele><time>2026-04-18T07:06:14.998Z</time></trkpt><trkpt lat="37.58856415749122" lon="-4.344961422834272"><ele>657.0</ele><time>2026-04-18T07:06:17.998Z</time></trkpt><trkpt lat="37.58848625071792" lon="-4.34499617532507"><ele>657.0</ele><time>2026-04-18T07:06:20.998Z</time></trkpt><trkpt lat="37.5884032085525" lon="-4.345008534487859"><ele>657.0</ele><time>2026-04-18T07:06:22.998Z</time></trkpt><trkpt lat="37.58832147769912" lon="-4.345039874084293"><ele>657.4285714285714</ele><time>2026-04-18T07:06:24.998Z</time></trkpt><trkpt lat="37.58825463577397" lon="-4.345101010754548"><ele>657.8571428571429</ele><time>2026-04-18T07:06:26.998Z</time></trkpt><trkpt lat="37.588207342095515" lon="-4.345163585225905"><ele>658.2857142857143</ele><time>2026-04-18T07:06:28.998Z</time></trkpt><trkpt lat="37.58816681919746" lon="-4.3452305745981725"><ele>658.7142857142858</ele><time>2026-04-18T07:06:30.998Z</time></trkpt><trkpt lat="37.58811656876738" lon="-4.345289612950997"><ele>659.1428571428571</ele><time>2026-04-18T07:06:32.998Z</time></trkpt><trkpt lat="37.58806758005313" lon="-4.345348718579109"><ele>659.5714285714287</ele><time>2026-04-18T07:06:34.998Z</time></trkpt><trkpt lat="37.58799591994183" lon="-4.345419305686063"><ele>660.0</ele><time>2026-04-18T07:06:37.998Z</time></trkpt><trkpt lat="37.58792677424756" lon="-4.345485402266339"><ele>660.0</ele><time>2026-04-18T07:06:40.998Z</time></trkpt><trkpt lat="37.587873508171384" lon="-4.345538234856196"><ele>660.0</ele><time>2026-04-18T07:06:42.998Z</time></trkpt><trkpt lat="37.587826647340066" lon="-4.345629374899131"><ele>660.0</ele><time>2026-04-18T07:06:46Z</time></trkpt><trkpt lat="37.587805692898705" lon="-4.345724607583635"><ele>660.0</ele><time>2026-04-18T07:06:49Z</time></trkpt><trkpt lat="37.5877437508529" lon="-4.345815763749156"><ele>660.0</ele><time>2026-04-18T07:06:52Z</time></trkpt><trkpt lat="37.58769282480745" lon="-4.345913438140308"><ele>660.0</ele><time>2026-04-18T07:06:55Z</time></trkpt><trkpt lat="37.587628201771" lon="-4.345991598732971"><ele>661.6666666666666</ele><time>2026-04-18T07:06:58Z</time></trkpt><trkpt lat="37.58756911150006" lon="-4.346075608526141"><ele>663.3333333333334</ele><time>2026-04-18T07:07:01Z</time></trkpt><trkpt lat="37.587510051496565" lon="-4.3461443921410385"><ele>665.0</ele><time>2026-04-18T07:07:04Z</time></trkpt><trkpt lat="37.58745530809942" lon="-4.346211039618143"><ele>666.6666666666667</ele><time>2026-04-18T07:07:07Z</time></trkpt><trkpt lat="37.587400927956594" lon="-4.346265583811898"><ele>668.3333333333334</ele><time>2026-04-18T07:07:10Z</time></trkpt><trkpt lat="37.587351273518955" lon="-4.34633718084978"><ele>670.0</ele><time>2026-04-18T07:07:12.999Z</time></trkpt><trkpt lat="37.587304486042356" lon="-4.346418008452832"><ele>672.0</ele><time>2026-04-18T07:07:15.999Z</time></trkpt><trkpt lat="37.587239014241504" lon="-4.346481256827898"><ele>674.0</ele><time>2026-04-18T07:07:18.999Z</time></trkpt><trkpt lat="37.587165867427295" lon="-4.346530781688397"><ele>676.0</ele><time>2026-04-18T07:07:21.999Z</time></trkpt><trkpt lat="37.587104683278" lon="-4.346556726341151"><ele>678.0</ele><time>2026-04-18T07:07:23.999Z</time></trkpt><trkpt lat="37.587023276314206" lon="-4.346592894427311"><ele>680.0</ele><time>2026-04-18T07:07:26.999Z</time></trkpt><trkpt lat="37.58695942638493" lon="-4.346609759159504"><ele>682.0</ele><time>2026-04-18T07:07:28.999Z</time></trkpt><trkpt lat="37.58690665818596" lon="-4.346692785850795"><ele>682.3333333333334</ele><time>2026-04-18T07:07:31.999Z</time></trkpt><trkpt lat="37.586894823369434" lon="-4.346791351519833"><ele>682.6666666666667</ele><time>2026-04-18T07:07:34.999Z</time></trkpt><trkpt lat="37.58687601473539" lon="-4.346885660430482"><ele>683.0</ele><time>2026-04-18T07:07:37.999Z</time></trkpt><trkpt lat="37.5868508694377" lon="-4.346963883699899"><ele>683.3333333333334</ele><time>2026-04-18T07:07:40.999Z</time></trkpt><trkpt lat="37.58686044770305" lon="-4.347065483458974"><ele>683.6666666666666</ele><time>2026-04-18T07:07:43.999Z</time></trkpt><trkpt lat="37.58689190679549" lon="-4.347137039479343"><ele>684.0</ele><time>2026-04-18T07:07:45.999Z</time></trkpt><trkpt lat="37.58690919689944" lon="-4.347237987019438"><ele>686.1666666666666</ele><time>2026-04-18T07:07:48.998Z</time></trkpt><trkpt lat="37.58690028564243" lon="-4.347343631263886"><ele>688.3333333333334</ele><time>2026-04-18T07:07:51.998Z</time></trkpt><trkpt lat="37.58688625778484" lon="-4.347439940294026"><ele>690.5</ele><time>2026-04-18T07:07:54.998Z</time></trkpt><trkpt lat="37.58683624929673" lon="-4.347504368695081"><ele>692.6666666666667</ele><time>2026-04-18T07:07:57.998Z</time></trkpt><trkpt lat="37.586765514818964" lon="-4.347553463254418"><ele>694.8333333333334</ele><time>2026-04-18T07:08:01.998Z</time></trkpt><trkpt lat="37.58669673987075" lon="-4.347615097411896"><ele>697.0</ele><time>2026-04-18T07:08:05.998Z</time></trkpt><trkpt lat="37.58664694013519" lon="-4.347664914164493"><ele>697.0</ele><time>2026-04-18T07:08:08.998Z</time></trkpt><trkpt lat="37.58659198991466" lon="-4.347714975309598"><ele>697.0</ele><time>2026-04-18T07:08:11.998Z</time></trkpt><trkpt lat="37.586534257572" lon="-4.347753446591145"><ele>697.0</ele><time>2026-04-18T07:08:14.998Z</time></trkpt><trkpt lat="37.58647012744552" lon="-4.347782661498546"><ele>697.0</ele><time>2026-04-18T07:08:17.998Z</time></trkpt><trkpt lat="37.58640090790209" lon="-4.347840353726727"><ele>697.0</ele><time>2026-04-18T07:08:21.998Z</time></trkpt><trkpt lat="37.58635582106483" lon="-4.347898116721692"><ele>697.0</ele><time>2026-04-18T07:08:24.998Z</time></trkpt><trkpt lat="37.58629648845543" lon="-4.347974562356451"><ele>697.0</ele><time>2026-04-18T07:08:28.998Z</time></trkpt><trkpt lat="37.586243620439966" lon="-4.348025093409898"><ele>697.8571428571429</ele><time>2026-04-18T07:08:31.998Z</time></trkpt><trkpt lat="37.58617382483734" lon="-4.348004445078084"><ele>698.7142857142857</ele><time>2026-04-18T07:08:34.997Z</time></trkpt><trkpt lat="37.586102072907046" lon="-4.347997403312962"><ele>699.5714285714286</ele><time>2026-04-18T07:08:37.997Z</time></trkpt><trkpt lat="37.58603853237241" lon="-4.348046013605779"><ele>700.4285714285714</ele><time>2026-04-18T07:08:40.997Z</time></trkpt><trkpt lat="37.58597947340158" lon="-4.348085044238837"><ele>701.2857142857143</ele><time>2026-04-18T07:08:43.997Z</time></trkpt><trkpt lat="37.585920533504726" lon="-4.3481293671544154"><ele>702.1428571428571</ele><time>2026-04-18T07:08:46.997Z</time></trkpt><trkpt lat="37.58586135288035" lon="-4.34817098346608"><ele>703.0</ele><time>2026-04-18T07:08:49.997Z</time></trkpt><trkpt lat="37.5857881631975" lon="-4.348157065111077"><ele>706.0</ele><time>2026-04-18T07:08:53Z</time></trkpt><trkpt lat="37.58570669561537" lon="-4.348134756861605"><ele>709.0</ele><time>2026-04-18T07:08:56Z</time></trkpt><trkpt lat="37.585632516248026" lon="-4.348113475367129"><ele>712.0</ele><time>2026-04-18T07:08:59Z</time></trkpt><trkpt lat="37.58554853214997" lon="-4.34808776529251"><ele>715.0</ele><time>2026-04-18T07:09:02Z</time></trkpt><trkpt lat="37.585462734077176" lon="-4.348058328498625"><ele>718.0</ele><time>2026-04-18T07:09:05Z</time></trkpt><trkpt lat="37.58537810861335" lon="-4.3480817518050525"><ele>721.0</ele><time>2026-04-18T07:09:08Z</time></trkpt><trkpt lat="37.585305806695104" lon="-4.348129508094451"><ele>722.1666666666667</ele><time>2026-04-18T07:09:11Z</time></trkpt><trkpt lat="37.58522461731031" lon="-4.348152973279385"><ele>723.3333333333334</ele><time>2026-04-18T07:09:14Z</time></trkpt><trkpt lat="37.58514728031435" lon="-4.348154784663869"><ele>724.5</ele><time>2026-04-18T07:09:17Z</time></trkpt><trkpt lat="37.5850816088639" lon="-4.348143498941467"><ele>725.6666666666666</ele><time>2026-04-18T07:09:19Z</time></trkpt><trkpt lat="37.58500593893977" lon="-4.348183783692451"><ele>726.8333333333333</ele><time>2026-04-18T07:09:22Z</time></trkpt><trkpt lat="37.584924402567886" lon="-4.348168913529736"><ele>728.0</ele><time>2026-04-18T07:09:25Z</time></trkpt><trkpt lat="37.58484071371791" lon="-4.3481906075965115"><ele>728.0</ele><time>2026-04-18T07:09:28Z</time></trkpt><trkpt lat="37.58476028740829" lon="-4.348223065643508"><ele>728.0</ele><time>2026-04-18T07:09:31Z</time></trkpt><trkpt lat="37.58467561111562" lon="-4.348235715338606"><ele>728.0</ele><time>2026-04-18T07:09:34Z</time></trkpt><trkpt lat="37.58459684585625" lon="-4.348203119556597"><ele>728.0</ele><time>2026-04-18T07:09:36.999Z</time></trkpt><trkpt lat="37.58450467321718" lon="-4.3482169917720475"><ele>728.0</ele><time>2026-04-18T07:09:39.999Z</time></trkpt><trkpt lat="37.58441045297569" lon="-4.348231546585808"><ele>728.0</ele><time>2026-04-18T07:09:42.999Z</time></trkpt><trkpt lat="37.584341101501884" lon="-4.348237293692779"><ele>728.8571428571429</ele><time>2026-04-18T07:09:44.999Z</time></trkpt><trkpt lat="37.58427438977067" lon="-4.34823932953753"><ele>729.7142857142858</ele><time>2026-04-18T07:09:46.999Z</time></trkpt><trkpt lat="37.58421083533754" lon="-4.348245555051481"><ele>730.5714285714286</ele><time>2026-04-18T07:09:48.999Z</time></trkpt><trkpt lat="37.584148205985585" lon="-4.3482635730661"><ele>731.4285714285714</ele><time>2026-04-18T07:09:50.999Z</time></trkpt><trkpt lat="37.584083992178876" lon="-4.348278500153564"><ele>732.2857142857143</ele><time>2026-04-18T07:09:52.999Z</time></trkpt><trkpt lat="37.58401442526312" lon="-4.348279196141623"><ele>733.1428571428571</ele><time>2026-04-18T07:09:54.999Z</time></trkpt><trkpt lat="37.58394669104465" lon="-4.348285951161205"><ele>734.0</ele><time>2026-04-18T07:09:56.999Z</time></trkpt><trkpt lat="37.58385822792982" lon="-4.348294598305009"><ele>734.0</ele><time>2026-04-18T07:09:59.999Z</time></trkpt><trkpt lat="37.5837942489238" lon="-4.348274735168482"><ele>734.0</ele><time>2026-04-18T07:10:01.999Z</time></trkpt><trkpt lat="37.583721389505776" lon="-4.348230470043619"><ele>734.0</ele><time>2026-04-18T07:10:04.999Z</time></trkpt><trkpt lat="37.58366449638553" lon="-4.348267163445848"><ele>734.0</ele><time>2026-04-18T07:10:07.999Z</time></trkpt><trkpt lat="37.58366736392077" lon="-4.3483597450898115"><ele>734.0</ele><time>2026-04-18T07:10:09.999Z</time></trkpt><trkpt lat="37.583682504171364" lon="-4.3484499657705475"><ele>734.0</ele><time>2026-04-18T07:10:12.999Z</time></trkpt><trkpt lat="37.58370199129655" lon="-4.348549289971573"><ele>734.0</ele><time>2026-04-18T07:10:15.999Z</time></trkpt><trkpt lat="37.58374156227879" lon="-4.348642999630551"><ele>734.0</ele><time>2026-04-18T07:10:18.999Z</time></trkpt><trkpt lat="37.58379786525311" lon="-4.348700914067309"><ele>734.0</ele><time>2026-04-18T07:10:20.999Z</time></trkpt><trkpt lat="37.58386597254831" lon="-4.348725365517962"><ele>734.0</ele><time>2026-04-18T07:10:22.998Z</time></trkpt><trkpt lat="37.58393684804878" lon="-4.348748359435054"><ele>734.0</ele><time>2026-04-18T07:10:24.998Z</time></trkpt><trkpt lat="37.584000352681116" lon="-4.348774717552197"><ele>734.0</ele><time>2026-04-18T07:10:26.998Z</time></trkpt><trkpt lat="37.5840645723594" lon="-4.348806139553046"><ele>734.0</ele><time>2026-04-18T07:10:28.998Z</time></trkpt><trkpt lat="37.58412711834563" lon="-4.348839195972275"><ele>734.0</ele><time>2026-04-18T07:10:30.998Z</time></trkpt><trkpt lat="37.584186865833686" lon="-4.3488672299945845"><ele>734.1666666666666</ele><time>2026-04-18T07:10:32.998Z</time></trkpt><trkpt lat="37.584254124737384" lon="-4.348905227491437"><ele>734.3333333333333</ele><time>2026-04-18T07:10:34.998Z</time></trkpt><trkpt lat="37.58431567976465" lon="-4.3490017310810885"><ele>734.5</ele><time>2026-04-18T07:10:37.998Z</time></trkpt><trkpt lat="37.58435522942519" lon="-4.3490856250244105"><ele>734.6666666666666</ele><time>2026-04-18T07:10:39.998Z</time></trkpt><trkpt lat="37.58436697865658" lon="-4.3491689569451575"><ele>734.8333333333334</ele><time>2026-04-18T07:10:41.998Z</time></trkpt><trkpt lat="37.584347925325325" lon="-4.349288059416774"><ele>735.0</ele><time>2026-04-18T07:10:44.998Z</time></trkpt><trkpt lat="37.58432724680978" lon="-4.349368339299746"><ele>735.0</ele><time>2026-04-18T07:10:46.998Z</time></trkpt><trkpt lat="37.58429609467736" lon="-4.349452867686674"><ele>735.0</ele><time>2026-04-18T07:10:48.998Z</time></trkpt><trkpt lat="37.58425383260412" lon="-4.349533583626748"><ele>735.0</ele><time>2026-04-18T07:10:50.998Z</time></trkpt><trkpt lat="37.58420503537606" lon="-4.349617243334912"><ele>735.0</ele><time>2026-04-18T07:10:52.998Z</time></trkpt><trkpt lat="37.58417170667298" lon="-4.349702049296995"><ele>735.0</ele><time>2026-04-18T07:10:54.998Z</time></trkpt><trkpt lat="37.584126826427635" lon="-4.34980073677373"><ele>735.0</ele><time>2026-04-18T07:10:57Z</time></trkpt><trkpt lat="37.584096270047795" lon="-4.349887929676262"><ele>733.8333333333334</ele><time>2026-04-18T07:10:59Z</time></trkpt><trkpt lat="37.584088360419194" lon="-4.349993640128994"><ele>732.6666666666666</ele><time>2026-04-18T07:11:01Z</time></trkpt><trkpt lat="37.58403982443159" lon="-4.350086359241043"><ele>731.5</ele><time>2026-04-18T07:11:03Z</time></trkpt><trkpt lat="37.58398890539503" lon="-4.350154006988735"><ele>730.3333333333333</ele><time>2026-04-18T07:11:05Z</time></trkpt><trkpt lat="37.58392837620637" lon="-4.350199758106684"><ele>729.1666666666666</ele><time>2026-04-18T07:11:07Z</time></trkpt><trkpt lat="37.583844501550786" lon="-4.350228383193739"><ele>728.0</ele><time>2026-04-18T07:11:09Z</time></trkpt><trkpt lat="37.58376613236971" lon="-4.350240328589498"><ele>724.8</ele><time>2026-04-18T07:11:11Z</time></trkpt><trkpt lat="37.58367646070466" lon="-4.350259374146477"><ele>721.5999999999999</ele><time>2026-04-18T07:11:13Z</time></trkpt><trkpt lat="37.58357613464313" lon="-4.350279745614179"><ele>718.4000000000001</ele><time>2026-04-18T07:11:15Z</time></trkpt><trkpt lat="37.58348261548172" lon="-4.350317162882813"><ele>715.2</ele><time>2026-04-18T07:11:17Z</time></trkpt><trkpt lat="37.58339196032822" lon="-4.350364669504555"><ele>712.0</ele><time>2026-04-18T07:11:19Z</time></trkpt><trkpt lat="37.58332815571963" lon="-4.3503702641304995"><ele>712.0</ele><time>2026-04-18T07:11:20Z</time></trkpt><trkpt lat="37.583209603726786" lon="-4.350386075177892"><ele>712.0</ele><time>2026-04-18T07:11:22Z</time></trkpt><trkpt lat="37.583092576539734" lon="-4.350421160409006"><ele>712.0</ele><time>2026-04-18T07:11:24Z</time></trkpt><trkpt lat="37.583025149530464" lon="-4.350438567392196"><ele>712.0</ele><time>2026-04-18T07:11:25Z</time></trkpt><trkpt lat="37.58289882140834" lon="-4.350474409852126"><ele>712.0</ele><time>2026-04-18T07:11:27Z</time></trkpt><trkpt lat="37.582833232479324" lon="-4.350493721584998"><ele>707.6</ele><time>2026-04-18T07:11:28Z</time></trkpt><trkpt lat="37.58273941428768" lon="-4.35059119014179"><ele>703.2</ele><time>2026-04-18T07:11:30Z</time></trkpt><trkpt lat="37.58269954075622" lon="-4.350677214266054"><ele>698.8</ele><time>2026-04-18T07:11:31Z</time></trkpt><trkpt lat="37.58264984983052" lon="-4.350763189519272"><ele>694.4</ele><time>2026-04-18T07:11:32Z</time></trkpt><trkpt lat="37.58258652965116" lon="-4.350832796351275"><ele>690.0</ele><time>2026-04-18T07:11:33Z</time></trkpt><trkpt lat="37.58250722287401" lon="-4.350896309263841"><ele>690.0</ele><time>2026-04-18T07:11:34Z</time></trkpt><trkpt lat="37.582435215999524" lon="-4.350948824658172"><ele>690.0</ele><time>2026-04-18T07:11:35Z</time></trkpt><trkpt lat="37.582364683459566" lon="-4.350999045302596"><ele>690.0</ele><time>2026-04-18T07:11:36Z</time></trkpt><trkpt lat="37.58229810005243" lon="-4.351040830016961"><ele>690.0</ele><time>2026-04-18T07:11:37Z</time></trkpt><trkpt lat="37.58223389142358" lon="-4.3510627374032955"><ele>690.0</ele><time>2026-04-18T07:11:38Z</time></trkpt><trkpt lat="37.58216813379331" lon="-4.351075601204455"><ele>690.0</ele><time>2026-04-18T07:11:39Z</time></trkpt><trkpt lat="37.58210158634344" lon="-4.351074775707327"><ele>690.0</ele><time>2026-04-18T07:11:40Z</time></trkpt><trkpt lat="37.58197038136759" lon="-4.351077314390983"><ele>686.5</ele><time>2026-04-18T07:11:42Z</time></trkpt><trkpt lat="37.5819002843035" lon="-4.351089160247589"><ele>683.0</ele><time>2026-04-18T07:11:42.999Z</time></trkpt><trkpt lat="37.58178355988253" lon="-4.35114928164936"><ele>679.5</ele><time>2026-04-18T07:11:44.999Z</time></trkpt><trkpt lat="37.58166181733584" lon="-4.351080451610161"><ele>676.0</ele><time>2026-04-18T07:11:46.999Z</time></trkpt><trkpt lat="37.58154277545235" lon="-4.351045087994353"><ele>676.0</ele><time>2026-04-18T07:11:48.999Z</time></trkpt><trkpt lat="37.58142534881745" lon="-4.351048097006693"><ele>676.0</ele><time>2026-04-18T07:11:50.999Z</time></trkpt><trkpt lat="37.58134667224733" lon="-4.350928270224118"><ele>676.0</ele><time>2026-04-18T07:11:52.999Z</time></trkpt><trkpt lat="37.581280296161864" lon="-4.3508645352066635"><ele>676.0</ele><time>2026-04-18T07:11:53.999Z</time></trkpt><trkpt lat="37.58119991776693" lon="-4.350838578792775"><ele>676.0</ele><time>2026-04-18T07:11:54.999Z</time></trkpt><trkpt lat="37.581114456079035" lon="-4.350826818639024"><ele>673.1999999999999</ele><time>2026-04-18T07:11:55.999Z</time></trkpt><trkpt lat="37.5810189092802" lon="-4.350795295552575"><ele>670.4</ele><time>2026-04-18T07:11:56.999Z</time></trkpt><trkpt lat="37.58091881151554" lon="-4.350778778052005"><ele>667.6</ele><time>2026-04-18T07:11:57.999Z</time></trkpt><trkpt lat="37.58081677475687" lon="-4.350791380500834"><ele>664.8</ele><time>2026-04-18T07:11:58.999Z</time></trkpt><trkpt lat="37.58071606071567" lon="-4.350785620784168"><ele>662.0</ele><time>2026-04-18T07:11:59.999Z</time></trkpt><trkpt lat="37.58061509492881" lon="-4.350757457215093"><ele>662.0</ele><time>2026-04-18T07:12:00.999Z</time></trkpt><trkpt lat="37.58052339696608" lon="-4.350745717034082"><ele>662.0</ele><time>2026-04-18T07:12:01.999Z</time></trkpt><trkpt lat="37.580441406193735" lon="-4.3507511183020595"><ele>662.0</ele><time>2026-04-18T07:12:02.999Z</time></trkpt><trkpt lat="37.58037414307758" lon="-4.350731352936368"><ele>662.0</ele><time>2026-04-18T07:12:03.999Z</time></trkpt><trkpt lat="37.58027258657158" lon="-4.350679861090854"><ele>662.0</ele><time>2026-04-18T07:12:05.999Z</time></trkpt><trkpt lat="37.58017758042038" lon="-4.350703255162622"><ele>661.6666666666666</ele><time>2026-04-18T07:12:07.999Z</time></trkpt><trkpt lat="37.58010903951203" lon="-4.350719635389733"><ele>661.3333333333333</ele><time>2026-04-18T07:12:09.999Z</time></trkpt><trkpt lat="37.58003717159027" lon="-4.350738548603222"><ele>661.0</ele><time>2026-04-18T07:12:11.999Z</time></trkpt><trkpt lat="37.579950504196134" lon="-4.350751397986073"><ele>660.6666666666666</ele><time>2026-04-18T07:12:13.999Z</time></trkpt><trkpt lat="37.57984803632033" lon="-4.350759904335676"><ele>660.3333333333334</ele><time>2026-04-18T07:12:15.999Z</time></trkpt><trkpt lat="37.579737702669135" lon="-4.350751110228155"><ele>660.0</ele><time>2026-04-18T07:12:17.999Z</time></trkpt><trkpt lat="37.579633648557135" lon="-4.3507994910626255"><ele>660.0</ele><time>2026-04-18T07:12:19.999Z</time></trkpt><trkpt lat="37.57956715483205" lon="-4.350867822377286"><ele>660.0</ele><time>2026-04-18T07:12:21.999Z</time></trkpt><trkpt lat="37.57953108979597" lon="-4.350960545344686"><ele>660.0</ele><time>2026-04-18T07:12:24.999Z</time></trkpt><trkpt lat="37.579495965310755" lon="-4.351057816123537"><ele>660.0</ele><time>2026-04-18T07:12:27.999Z</time></trkpt><trkpt lat="37.579451869359616" lon="-4.351155126880932"><ele>660.0</ele><time>2026-04-18T07:12:30.998Z</time></trkpt><trkpt lat="37.57941266402484" lon="-4.351227333773263"><ele>660.0</ele><time>2026-04-18T07:12:32.998Z</time></trkpt><trkpt lat="37.57938607288429" lon="-4.3513140861328345"><ele>659.5</ele><time>2026-04-18T07:12:34.998Z</time></trkpt><trkpt lat="37.5793848055163" lon="-4.35140923575809"><ele>659.0</ele><time>2026-04-18T07:12:36.998Z</time></trkpt><trkpt lat="37.57940726626469" lon="-4.351514165834591"><ele>658.5</ele><time>2026-04-18T07:12:38.998Z</time></trkpt><trkpt lat="37.579428067991486" lon="-4.351621699812527"><ele>658.0</ele><time>2026-04-18T07:12:40.998Z</time></trkpt><trkpt lat="37.579441172391846" lon="-4.35172282041042"><ele>657.5</ele><time>2026-04-18T07:12:42.998Z</time></trkpt><trkpt lat="37.57944837012851" lon="-4.351827531794771"><ele>657.0</ele><time>2026-04-18T07:12:44.998Z</time></trkpt><trkpt lat="37.57946933651879" lon="-4.35192280575773"><ele>657.0</ele><time>2026-04-18T07:12:46.998Z</time></trkpt><trkpt lat="37.579482361889994" lon="-4.3520609596024435"><ele>657.0</ele><time>2026-04-18T07:12:48.998Z</time></trkpt><trkpt lat="37.57949105612453" lon="-4.352198094419177"><ele>657.0</ele><time>2026-04-18T07:12:50.998Z</time></trkpt><trkpt lat="37.57950646650019" lon="-4.3523207994975"><ele>657.0</ele><time>2026-04-18T07:12:52.998Z</time></trkpt><trkpt lat="37.57953516464566" lon="-4.35244562672619"><ele>657.0</ele><time>2026-04-18T07:12:54.998Z</time></trkpt><trkpt lat="37.57953420113388" lon="-4.352540962421983"><ele>655.8333333333334</ele><time>2026-04-18T07:12:56.998Z</time></trkpt><trkpt lat="37.57950207728231" lon="-4.352611016633261"><ele>654.6666666666666</ele><time>2026-04-18T07:12:58.998Z</time></trkpt><trkpt lat="37.579448091106066" lon="-4.352684639191053"><ele>653.5</ele><time>2026-04-18T07:13:00.998Z</time></trkpt><trkpt lat="37.579447055950965" lon="-4.352780548101926"><ele>652.3333333333333</ele><time>2026-04-18T07:13:03Z</time></trkpt><trkpt lat="37.579457287763155" lon="-4.352859635698663"><ele>651.1666666666666</ele><time>2026-04-18T07:13:05Z</time></trkpt><trkpt lat="37.579476167071284" lon="-4.352943266414395"><ele>650.0</ele><time>2026-04-18T07:13:07Z</time></trkpt><trkpt lat="37.5795123313641" lon="-4.353087887651914"><ele>649.1666666666666</ele><time>2026-04-18T07:13:09Z</time></trkpt><trkpt lat="37.579528427797534" lon="-4.353166618096464"><ele>648.3333333333333</ele><time>2026-04-18T07:13:10Z</time></trkpt><trkpt lat="37.57954583509439" lon="-4.3533040910489476"><ele>647.5</ele><time>2026-04-18T07:13:12Z</time></trkpt><trkpt lat="37.57955851414264" lon="-4.353415783327722"><ele>646.6666666666666</ele><time>2026-04-18T07:13:14Z</time></trkpt><trkpt lat="37.57951011100404" lon="-4.3535117770514695"><ele>645.8333333333334</ele><time>2026-04-18T07:13:16Z</time></trkpt><trkpt lat="37.579463676891955" lon="-4.353576662306688"><ele>645.0</ele><time>2026-04-18T07:13:18Z</time></trkpt><trkpt lat="37.57942868988516" lon="-4.353648539915822"><ele>644.0</ele><time>2026-04-18T07:13:21Z</time></trkpt><trkpt lat="37.579381357931915" lon="-4.3537088249002585"><ele>643.0</ele><time>2026-04-18T07:13:23Z</time></trkpt><trkpt lat="37.57933360099531" lon="-4.353799074518068"><ele>642.0</ele><time>2026-04-18T07:13:25Z</time></trkpt><trkpt lat="37.57927965350675" lon="-4.3538849124592645"><ele>641.0</ele><time>2026-04-18T07:13:27Z</time></trkpt><trkpt lat="37.57922897398926" lon="-4.353941042023061"><ele>640.0</ele><time>2026-04-18T07:13:30Z</time></trkpt><trkpt lat="37.57920220748433" lon="-4.354023433733729"><ele>639.0</ele><time>2026-04-18T07:13:34Z</time></trkpt><trkpt lat="37.57917223657243" lon="-4.354095170898702"><ele>638.0</ele><time>2026-04-18T07:13:38Z</time></trkpt><trkpt lat="37.57918605481092" lon="-4.35418618440207"><ele>637.7142857142858</ele><time>2026-04-18T07:13:43Z</time></trkpt><trkpt lat="37.57917179514228" lon="-4.354270647212425"><ele>637.4285714285713</ele><time>2026-04-18T07:14:00.999Z</time></trkpt><trkpt lat="37.57912386636614" lon="-4.3543406151016635"><ele>637.1428571428571</ele><time>2026-04-18T07:14:05.999Z</time></trkpt><trkpt lat="37.579089326960556" lon="-4.354410472126041"><ele>636.8571428571429</ele><time>2026-04-18T07:14:08.999Z</time></trkpt><trkpt lat="37.579071513228705" lon="-4.354492996407123"><ele>636.5714285714287</ele><time>2026-04-18T07:14:11.999Z</time></trkpt><trkpt lat="37.57903784990398" lon="-4.354579558145406"><ele>636.2857142857142</ele><time>2026-04-18T07:14:15.999Z</time></trkpt><trkpt lat="37.57900280179865" lon="-4.3546585177564765"><ele>636.0</ele><time>2026-04-18T07:14:19.999Z</time></trkpt><trkpt lat="37.57898104203081" lon="-4.354740378213469"><ele>637.1428571428571</ele><time>2026-04-18T07:14:23.999Z</time></trkpt><trkpt lat="37.57892233792664" lon="-4.354788838553922"><ele>638.2857142857143</ele><time>2026-04-18T07:14:27.999Z</time></trkpt><trkpt lat="37.57886107924015" lon="-4.3548135681350155"><ele>639.4285714285714</ele><time>2026-04-18T07:14:30.999Z</time></trkpt><trkpt lat="37.57878725441145" lon="-4.354860103918685"><ele>640.5714285714286</ele><time>2026-04-18T07:14:34.999Z</time></trkpt><trkpt lat="37.578727918165974" lon="-4.354896752037909"><ele>641.7142857142858</ele><time>2026-04-18T07:14:37.998Z</time></trkpt><trkpt lat="37.57866487913349" lon="-4.3549434039254935"><ele>642.8571428571429</ele><time>2026-04-18T07:14:40.998Z</time></trkpt><trkpt lat="37.578610293778645" lon="-4.355006968201062"><ele>644.0</ele><time>2026-04-18T07:14:43.998Z</time></trkpt><trkpt lat="37.578573882557016" lon="-4.355075351243787"><ele>644.0</ele><time>2026-04-18T07:14:46.998Z</time></trkpt><trkpt lat="37.57853040601873" lon="-4.355133558308475"><ele>644.0</ele><time>2026-04-18T07:14:49.998Z</time></trkpt><trkpt lat="37.578469623385224" lon="-4.355178055799188"><ele>644.0</ele><time>2026-04-18T07:14:52.998Z</time></trkpt><trkpt lat="37.57841497932742" lon="-4.355231621178124"><ele>644.0</ele><time>2026-04-18T07:14:55.998Z</time></trkpt><trkpt lat="37.57835819874365" lon="-4.3553054789926176"><ele>644.0</ele><time>2026-04-18T07:14:58.998Z</time></trkpt><trkpt lat="37.57832396606624" lon="-4.355403069749523"><ele>644.0</ele><time>2026-04-18T07:15:01.998Z</time></trkpt><trkpt lat="37.578320831420264" lon="-4.355493764477824"><ele>644.0</ele><time>2026-04-18T07:15:04.998Z</time></trkpt><trkpt lat="37.578294276372496" lon="-4.3555843509415775"><ele>647.0</ele><time>2026-04-18T07:15:08Z</time></trkpt><trkpt lat="37.57826587681867" lon="-4.35566466856625"><ele>650.0</ele><time>2026-04-18T07:15:11Z</time></trkpt><trkpt lat="37.578200586335605" lon="-4.355731632142037"><ele>653.0</ele><time>2026-04-18T07:15:14Z</time></trkpt><trkpt lat="37.57818012126252" lon="-4.355825245469248"><ele>656.0</ele><time>2026-04-18T07:15:18Z</time></trkpt><trkpt lat="37.57814563385099" lon="-4.3559020522711265"><ele>659.0</ele><time>2026-04-18T07:15:21Z</time></trkpt><trkpt lat="37.578121780322256" lon="-4.355996075101787"><ele>662.0</ele><time>2026-04-18T07:15:24Z</time></trkpt><trkpt lat="37.57809284770149" lon="-4.356079126458708"><ele>662.0</ele><time>2026-04-18T07:15:27Z</time></trkpt><trkpt lat="37.57805661442358" lon="-4.356158912354352"><ele>662.0</ele><time>2026-04-18T07:15:30Z</time></trkpt><trkpt lat="37.578021516031974" lon="-4.356246057824493"><ele>662.0</ele><time>2026-04-18T07:15:34Z</time></trkpt><trkpt lat="37.57798250909855" lon="-4.35632267882752"><ele>662.0</ele><time>2026-04-18T07:15:37Z</time></trkpt><trkpt lat="37.577941055565944" lon="-4.3563921323837995"><ele>662.0</ele><time>2026-04-18T07:15:40Z</time></trkpt><trkpt lat="37.577886086428165" lon="-4.356452283699936"><ele>662.0</ele><time>2026-04-18T07:15:43Z</time></trkpt><trkpt lat="37.577831430575195" lon="-4.356536980236266"><ele>662.8333333333333</ele><time>2026-04-18T07:15:46Z</time></trkpt><trkpt lat="37.577792187018865" lon="-4.356621104069628"><ele>663.6666666666666</ele><time>2026-04-18T07:15:49Z</time></trkpt><trkpt lat="37.57776163545792" lon="-4.356706653450955"><ele>664.5</ele><time>2026-04-18T07:15:52Z</time></trkpt><trkpt lat="37.577755304499554" lon="-4.356815189655263"><ele>665.3333333333334</ele><time>2026-04-18T07:15:55Z</time></trkpt><trkpt lat="37.57779450022109" lon="-4.356905293890721"><ele>666.1666666666667</ele><time>2026-04-18T07:15:58Z</time></trkpt><trkpt lat="37.57783138635473" lon="-4.3569916139472715"><ele>667.0</ele><time>2026-04-18T07:16:01.999Z</time></trkpt><trkpt lat="37.577866331072926" lon="-4.35706612915239"><ele>668.1666666666667</ele><time>2026-04-18T07:16:04.999Z</time></trkpt><trkpt lat="37.577896906454335" lon="-4.357135839149912"><ele>669.3333333333334</ele><time>2026-04-18T07:16:07.999Z</time></trkpt><trkpt lat="37.577955022996186" lon="-4.357225697918303"><ele>670.5</ele><time>2026-04-18T07:16:10.999Z</time></trkpt><trkpt lat="37.578004127849496" lon="-4.35729048273677"><ele>671.6666666666666</ele><time>2026-04-18T07:16:13.999Z</time></trkpt><trkpt lat="37.57803864184082" lon="-4.357358019355073"><ele>672.8333333333333</ele><time>2026-04-18T07:16:16.999Z</time></trkpt><trkpt lat="37.57797882746348" lon="-4.357435428950516"><ele>674.0</ele><time>2026-04-18T07:16:19.999Z</time></trkpt><trkpt lat="37.57795177432027" lon="-4.357543193784715"><ele>674.0</ele><time>2026-04-18T07:16:22.999Z</time></trkpt><trkpt lat="37.57790813007925" lon="-4.357649696509762"><ele>674.0</ele><time>2026-04-18T07:16:25.999Z</time></trkpt><trkpt lat="37.57787596439747" lon="-4.357748553769815"><ele>674.0</ele><time>2026-04-18T07:16:28.999Z</time></trkpt><trkpt lat="37.57783472908272" lon="-4.357846241854152"><ele>674.0</ele><time>2026-04-18T07:16:31.999Z</time></trkpt><trkpt lat="37.577796433324956" lon="-4.357937598343285"><ele>674.0</ele><time>2026-04-18T07:16:34.999Z</time></trkpt><trkpt lat="37.57775768280278" lon="-4.3580257413995875"><ele>674.0</ele><time>2026-04-18T07:16:37.999Z</time></trkpt><trkpt lat="37.57772436931561" lon="-4.358116296974039"><ele>675.3333333333333</ele><time>2026-04-18T07:16:40.999Z</time></trkpt><trkpt lat="37.57770049862376" lon="-4.358204936060374"><ele>676.6666666666666</ele><time>2026-04-18T07:16:43.998Z</time></trkpt><trkpt lat="37.57766302088421" lon="-4.35827062317613"><ele>678.0</ele><time>2026-04-18T07:16:45.998Z</time></trkpt><trkpt lat="37.5776356398824" lon="-4.358367047104838"><ele>679.3333333333334</ele><time>2026-04-18T07:16:48.998Z</time></trkpt><trkpt lat="37.57759254202208" lon="-4.358456332547989"><ele>680.6666666666667</ele><time>2026-04-18T07:16:51.998Z</time></trkpt><trkpt lat="37.57755789717738" lon="-4.358546452435761"><ele>682.0</ele><time>2026-04-18T07:16:54.998Z</time></trkpt><trkpt lat="37.577508091109685" lon="-4.358631271942868"><ele>682.0</ele><time>2026-04-18T07:16:57.998Z</time></trkpt><trkpt lat="37.57747497340126" lon="-4.35872420494663"><ele>682.0</ele><time>2026-04-18T07:17:00.998Z</time></trkpt><trkpt lat="37.57743742311422" lon="-4.358814787141802"><ele>682.0</ele><time>2026-04-18T07:17:03.998Z</time></trkpt><trkpt lat="37.57738857451435" lon="-4.3588893328905725"><ele>682.0</ele><time>2026-04-18T07:17:06.998Z</time></trkpt><trkpt lat="37.57734001701996" lon="-4.358974539496975"><ele>682.0</ele><time>2026-04-18T07:17:09.998Z</time></trkpt><trkpt lat="37.577300574208955" lon="-4.359063032652357"><ele>682.0</ele><time>2026-04-18T07:17:13Z</time></trkpt><trkpt lat="37.57725510114441" lon="-4.359145673556224"><ele>680.3333333333334</ele><time>2026-04-18T07:17:16Z</time></trkpt><trkpt lat="37.57719595927383" lon="-4.359206058394147"><ele>678.6666666666667</ele><time>2026-04-18T07:17:19Z</time></trkpt><trkpt lat="37.57715270251264" lon="-4.359288721414529"><ele>677.0</ele><time>2026-04-18T07:17:22Z</time></trkpt><trkpt lat="37.577087980063226" lon="-4.359370312451456"><ele>675.3333333333334</ele><time>2026-04-18T07:17:25Z</time></trkpt><trkpt lat="37.57701958902964" lon="-4.359422027881014"><ele>673.6666666666666</ele><time>2026-04-18T07:17:28Z</time></trkpt><trkpt lat="37.57696303030656" lon="-4.359483871604728"><ele>672.0</ele><time>2026-04-18T07:17:31Z</time></trkpt><trkpt lat="37.57690668714325" lon="-4.359556808499032"><ele>674.3333333333334</ele><time>2026-04-18T07:17:34Z</time></trkpt><trkpt lat="37.576854179461456" lon="-4.359644678012947"><ele>676.6666666666666</ele><time>2026-04-18T07:17:37Z</time></trkpt><trkpt lat="37.576810087015296" lon="-4.359725722225617"><ele>679.0</ele><time>2026-04-18T07:17:40Z</time></trkpt><trkpt lat="37.57676148248569" lon="-4.359797634929092"><ele>681.3333333333333</ele><time>2026-04-18T07:17:43Z</time></trkpt><trkpt lat="37.57673827036218" lon="-4.359892096607802"><ele>683.6666666666666</ele><time>2026-04-18T07:17:47Z</time></trkpt><trkpt lat="37.576699638591535" lon="-4.359961661531667"><ele>686.0</ele><time>2026-04-18T07:17:50Z</time></trkpt><trkpt lat="37.576704781514756" lon="-4.36004933769089"><ele>686.0</ele><time>2026-04-18T07:17:52Z</time></trkpt><trkpt lat="37.57670108787119" lon="-4.360146879531865"><ele>686.0</ele><time>2026-04-18T07:17:54Z</time></trkpt><trkpt lat="37.57668205568027" lon="-4.360225270129634"><ele>686.0</ele><time>2026-04-18T07:17:56Z</time></trkpt><trkpt lat="37.57665510891191" lon="-4.3603199670629165"><ele>686.0</ele><time>2026-04-18T07:17:58Z</time></trkpt><trkpt lat="37.57670115039004" lon="-4.360388132278237"><ele>686.0</ele><time>2026-04-18T07:18:07.999Z</time></trkpt><trkpt lat="37.57667664595859" lon="-4.360492405313248"><ele>686.0</ele><time>2026-04-18T07:18:10.999Z</time></trkpt><trkpt lat="37.57662733629849" lon="-4.360545979614941"><ele>686.0</ele><time>2026-04-18T07:18:13.999Z</time></trkpt><trkpt lat="37.576583556584815" lon="-4.360608555291475"><ele>684.8333333333333</ele><time>2026-04-18T07:18:16.999Z</time></trkpt><trkpt lat="37.57652949414023" lon="-4.360665286582568"><ele>683.6666666666666</ele><time>2026-04-18T07:18:20.999Z</time></trkpt><trkpt lat="37.57647757447265" lon="-4.36071904459494"><ele>682.5</ele><time>2026-04-18T07:18:23.999Z</time></trkpt><trkpt lat="37.57640461273408" lon="-4.360774039985979"><ele>681.3333333333334</ele><time>2026-04-18T07:18:26.999Z</time></trkpt><trkpt lat="37.57636290988831" lon="-4.360861286486436"><ele>680.1666666666667</ele><time>2026-04-18T07:18:29.999Z</time></trkpt><trkpt lat="37.576287534382395" lon="-4.360884108562441"><ele>679.0</ele><time>2026-04-18T07:18:32.999Z</time></trkpt><trkpt lat="37.576269506873835" lon="-4.3609859815285335"><ele>679.0</ele><time>2026-04-18T07:18:36.999Z</time></trkpt><trkpt lat="37.57619442392428" lon="-4.360980419555962"><ele>679.0</ele><time>2026-04-18T07:18:39.999Z</time></trkpt><trkpt lat="37.57612895848652" lon="-4.360932703547452"><ele>679.0</ele><time>2026-04-18T07:18:42.999Z</time></trkpt><trkpt lat="37.57611026633206" lon="-4.360856134651098"><ele>679.0</ele><time>2026-04-18T07:18:53.998Z</time></trkpt><trkpt lat="37.57605533743933" lon="-4.360801136144597"><ele>679.0</ele><time>2026-04-18T07:18:56.998Z</time></trkpt><trkpt lat="37.57600041263239" lon="-4.360750462827002"><ele>679.0</ele><time>2026-04-18T07:19:00.998Z</time></trkpt><trkpt lat="37.57595702688416" lon="-4.360678039517244"><ele>679.0</ele><time>2026-04-18T07:19:04.998Z</time></trkpt><trkpt lat="37.575917047927575" lon="-4.360606353330654"><ele>680.7142857142857</ele><time>2026-04-18T07:19:08.998Z</time></trkpt><trkpt lat="37.575880360620324" lon="-4.360539113697134"><ele>682.4285714285714</ele><time>2026-04-18T07:19:12.998Z</time></trkpt><trkpt lat="37.57585772051146" lon="-4.360457957891121"><ele>684.1428571428571</ele><time>2026-04-18T07:19:16.998Z</time></trkpt><trkpt lat="37.57584851129334" lon="-4.360369426562141"><ele>685.8571428571429</ele><time>2026-04-18T07:19:21Z</time></trkpt><trkpt lat="37.575816452414294" lon="-4.360294731769612"><ele>687.5714285714286</ele><time>2026-04-18T07:19:25Z</time></trkpt><trkpt lat="37.57574644024652" lon="-4.3602672276310495"><ele>689.2857142857142</ele><time>2026-04-18T07:19:29Z</time></trkpt><trkpt lat="37.57568220857266" lon="-4.360227574429037"><ele>691.0</ele><time>2026-04-18T07:19:33Z</time></trkpt><trkpt lat="37.57560464850511" lon="-4.360210956875264"><ele>693.8333333333334</ele><time>2026-04-18T07:19:37Z</time></trkpt><trkpt lat="37.57553403955706" lon="-4.360165230945049"><ele>696.6666666666667</ele><time>2026-04-18T07:19:41Z</time></trkpt><trkpt lat="37.575469466928745" lon="-4.360127587220925"><ele>699.5</ele><time>2026-04-18T07:19:45Z</time></trkpt><trkpt lat="37.575400392778626" lon="-4.360085260033253"><ele>702.3333333333334</ele><time>2026-04-18T07:19:49Z</time></trkpt><trkpt lat="37.57536644968095" lon="-4.3599996783710315"><ele>705.1666666666666</ele><time>2026-04-18T07:19:53Z</time></trkpt><trkpt lat="37.5752996205029" lon="-4.359949352809739"><ele>708.0</ele><time>2026-04-18T07:19:57Z</time></trkpt><trkpt lat="37.57523267225596" lon="-4.359900290204877"><ele>708.7142857142858</ele><time>2026-04-18T07:20:01Z</time></trkpt><trkpt lat="37.57516466539413" lon="-4.359870469775478"><ele>709.4285714285713</ele><time>2026-04-18T07:20:05Z</time></trkpt><trkpt lat="37.57508465954766" lon="-4.3598625158899385"><ele>710.1428571428571</ele><time>2026-04-18T07:20:09Z</time></trkpt><trkpt lat="37.57503544137266" lon="-4.359793914702416"><ele>710.8571428571429</ele><time>2026-04-18T07:20:13Z</time></trkpt><trkpt lat="37.5749740767878" lon="-4.359743083848007"><ele>711.5714285714287</ele><time>2026-04-18T07:20:16.999Z</time></trkpt><trkpt lat="37.574912922268744" lon="-4.359683983019402"><ele>712.2857142857142</ele><time>2026-04-18T07:20:20.999Z</time></trkpt><trkpt lat="37.57484742032825" lon="-4.359664630208653"><ele>713.0</ele><time>2026-04-18T07:20:24.999Z</time></trkpt><trkpt lat="37.574784684953315" lon="-4.359702164213819"><ele>713.5714285714286</ele><time>2026-04-18T07:20:28.999Z</time></trkpt><trkpt lat="37.57476941861471" lon="-4.359618592094427"><ele>714.1428571428572</ele><time>2026-04-18T07:20:32.999Z</time></trkpt><trkpt lat="37.574802224899365" lon="-4.359541842880217"><ele>714.7142857142858</ele><time>2026-04-18T07:20:35.999Z</time></trkpt><trkpt lat="37.574786968602396" lon="-4.3594377214046"><ele>715.2857142857142</ele><time>2026-04-18T07:20:39.999Z</time></trkpt><trkpt lat="37.5747189711924" lon="-4.359440364807341"><ele>715.8571428571429</ele><time>2026-04-18T07:20:43.999Z</time></trkpt><trkpt lat="37.57463544398102" lon="-4.359446214637813"><ele>716.4285714285714</ele><time>2026-04-18T07:20:47.999Z</time></trkpt><trkpt lat="37.57457271199209" lon="-4.359452940794351"><ele>717.0</ele><time>2026-04-18T07:20:50.999Z</time></trkpt><trkpt lat="37.57449041599554" lon="-4.359468698608916"><ele>717.7142857142857</ele><time>2026-04-18T07:20:54.999Z</time></trkpt><trkpt lat="37.57442654901485" lon="-4.359480609500767"><ele>718.4285714285713</ele><time>2026-04-18T07:20:57.999Z</time></trkpt><trkpt lat="37.57436209235014" lon="-4.3594999464983495"><ele>719.1428571428571</ele><time>2026-04-18T07:21:00.998Z</time></trkpt><trkpt lat="37.57428119352357" lon="-4.359517540682662"><ele>719.8571428571429</ele><time>2026-04-18T07:21:04.998Z</time></trkpt><trkpt lat="37.574219654719315" lon="-4.359535867490418"><ele>720.5714285714286</ele><time>2026-04-18T07:21:07.998Z</time></trkpt><trkpt lat="37.574141467660766" lon="-4.359566186610759"><ele>721.2857142857143</ele><time>2026-04-18T07:21:11.998Z</time></trkpt><trkpt lat="37.57407424191858" lon="-4.3595862548963265"><ele>722.0</ele><time>2026-04-18T07:21:14.998Z</time></trkpt><trkpt lat="37.57400728527236" lon="-4.359594892872577"><ele>722.0</ele><time>2026-04-18T07:21:17.998Z</time></trkpt><trkpt lat="37.573938216692014" lon="-4.359608831027519"><ele>722.0</ele><time>2026-04-18T07:21:20.998Z</time></trkpt><trkpt lat="37.57386600355459" lon="-4.359606041148743"><ele>722.0</ele><time>2026-04-18T07:21:23.998Z</time></trkpt><trkpt lat="37.57378875906369" lon="-4.359598664113337"><ele>722.0</ele><time>2026-04-18T07:21:27.001Z</time></trkpt><trkpt lat="37.57371570804189" lon="-4.3596148766206015"><ele>722.0</ele><time>2026-04-18T07:21:30Z</time></trkpt><trkpt lat="37.57364050270672" lon="-4.359607463835861"><ele>722.0</ele><time>2026-04-18T07:21:33Z</time></trkpt><trkpt lat="37.57356361304581" lon="-4.3596172440849825"><ele>722.0</ele><time>2026-04-18T07:21:36Z</time></trkpt><trkpt lat="37.57348760050579" lon="-4.3596361386005285"><ele>723.3333333333333</ele><time>2026-04-18T07:21:39Z</time></trkpt><trkpt lat="37.57341112753555" lon="-4.359658642451942"><ele>724.6666666666666</ele><time>2026-04-18T07:21:41.999Z</time></trkpt><trkpt lat="37.57333396475049" lon="-4.359691911646133"><ele>726.0</ele><time>2026-04-18T07:21:44.999Z</time></trkpt><trkpt lat="37.573259207272855" lon="-4.359684188493596"><ele>727.3333333333334</ele><time>2026-04-18T07:21:47.999Z</time></trkpt><trkpt lat="37.57318400269626" lon="-4.359712328422788"><ele>728.6666666666667</ele><time>2026-04-18T07:21:50.999Z</time></trkpt><trkpt lat="37.573131682726604" lon="-4.359661720846084"><ele>730.0</ele><time>2026-04-18T07:21:53.999Z</time></trkpt><trkpt lat="37.57306510577727" lon="-4.359590400113984"><ele>730.1428571428572</ele><time>2026-04-18T07:21:57.999Z</time></trkpt><trkpt lat="37.57300557498119" lon="-4.359561759632115"><ele>730.2857142857143</ele><time>2026-04-18T07:22:00.999Z</time></trkpt><trkpt lat="37.572937784522566" lon="-4.359541831877479"><ele>730.4285714285714</ele><time>2026-04-18T07:22:03.999Z</time></trkpt><trkpt lat="37.57287180683497" lon="-4.359568865326906"><ele>730.5714285714287</ele><time>2026-04-18T07:22:06.999Z</time></trkpt><trkpt lat="37.57281453734633" lon="-4.35960386980471"><ele>730.7142857142857</ele><time>2026-04-18T07:22:09.999Z</time></trkpt><trkpt lat="37.57274055540315" lon="-4.35961095296118"><ele>730.8571428571429</ele><time>2026-04-18T07:22:13.999Z</time></trkpt><trkpt lat="37.572676567318545" lon="-4.3596052429795025"><ele>731.0</ele><time>2026-04-18T07:22:16.999Z</time></trkpt><trkpt lat="37.5726207296267" lon="-4.359642215042041"><ele>732.6666666666666</ele><time>2026-04-18T07:22:19.999Z</time></trkpt><trkpt lat="37.572535728271916" lon="-4.359676148966863"><ele>734.3333333333333</ele><time>2026-04-18T07:22:23.998Z</time></trkpt><trkpt lat="37.572464864577384" lon="-4.359702759430757"><ele>736.0</ele><time>2026-04-18T07:22:26.998Z</time></trkpt><trkpt lat="37.572396852740326" lon="-4.35969115190399"><ele>737.6666666666666</ele><time>2026-04-18T07:22:29.998Z</time></trkpt><trkpt lat="37.572338631171" lon="-4.359730255869945"><ele>739.3333333333334</ele><time>2026-04-18T07:22:32.998Z</time></trkpt><trkpt lat="37.57226875139479" lon="-4.35971350518545"><ele>741.0</ele><time>2026-04-18T07:22:35.998Z</time></trkpt><trkpt lat="37.572179159803774" lon="-4.3597170287655915"><ele>741.1428571428571</ele><time>2026-04-18T07:22:39.998Z</time></trkpt><trkpt lat="37.57210892553039" lon="-4.359718046840252"><ele>741.2857142857143</ele><time>2026-04-18T07:22:42.998Z</time></trkpt><trkpt lat="37.57204381549697" lon="-4.359723194952585"><ele>741.4285714285714</ele><time>2026-04-18T07:22:45.998Z</time></trkpt><trkpt lat="37.57197873424884" lon="-4.3597102645028265"><ele>741.5714285714286</ele><time>2026-04-18T07:22:48.998Z</time></trkpt><trkpt lat="37.571906266808526" lon="-4.359730490646746"><ele>741.7142857142858</ele><time>2026-04-18T07:22:51.998Z</time></trkpt><trkpt lat="37.57183159290553" lon="-4.359745601355824"><ele>741.8571428571429</ele><time>2026-04-18T07:22:54.998Z</time></trkpt><trkpt lat="37.57175889730087" lon="-4.3597437240763455"><ele>742.0</ele><time>2026-04-18T07:22:57.998Z</time></trkpt><trkpt lat="37.5716803075025" lon="-4.359732912105178"><ele>743.8571428571429</ele><time>2026-04-18T07:23:00.998Z</time></trkpt><trkpt lat="37.57160286437353" lon="-4.359746797814324"><ele>745.7142857142858</ele><time>2026-04-18T07:23:03.998Z</time></trkpt><trkpt lat="37.57152943084451" lon="-4.359760718850321"><ele>747.5714285714286</ele><time>2026-04-18T07:23:06.998Z</time></trkpt><trkpt lat="37.57145483564383" lon="-4.3597815687709645"><ele>749.4285714285714</ele><time>2026-04-18T07:23:09.997Z</time></trkpt><trkpt lat="37.57137627923088" lon="-4.359792825914234"><ele>751.2857142857143</ele><time>2026-04-18T07:23:12.997Z</time></trkpt><trkpt lat="37.571310991848975" lon="-4.359802663193002"><ele>753.1428571428571</ele><time>2026-04-18T07:23:15.997Z</time></trkpt><trkpt lat="37.57124491938739" lon="-4.35977865646237"><ele>755.0</ele><time>2026-04-18T07:23:18.997Z</time></trkpt><trkpt lat="37.571165688259725" lon="-4.359788372716517"><ele>757.6666666666666</ele><time>2026-04-18T07:23:21.997Z</time></trkpt><trkpt lat="37.57108608225369" lon="-4.359789465655409"><ele>760.3333333333333</ele><time>2026-04-18T07:23:24.997Z</time></trkpt><trkpt lat="37.571006475497754" lon="-4.35977458074468"><ele>763.0</ele><time>2026-04-18T07:23:27.997Z</time></trkpt><trkpt lat="37.57092524095275" lon="-4.359768461218265"><ele>765.6666666666666</ele><time>2026-04-18T07:23:31Z</time></trkpt><trkpt lat="37.57084131801542" lon="-4.359783693209417"><ele>768.3333333333334</ele><time>2026-04-18T07:23:34Z</time></trkpt><trkpt lat="37.57075958420151" lon="-4.359797338568421"><ele>771.0</ele><time>2026-04-18T07:23:37Z</time></trkpt><trkpt lat="37.570680257479836" lon="-4.359780231030152"><ele>771.0</ele><time>2026-04-18T07:23:40Z</time></trkpt><trkpt lat="37.57060292927377" lon="-4.359747521298733"><ele>771.0</ele><time>2026-04-18T07:23:43Z</time></trkpt><trkpt lat="37.5705203780568" lon="-4.35976980070351"><ele>771.0</ele><time>2026-04-18T07:23:46Z</time></trkpt><trkpt lat="37.570441049238894" lon="-4.359786721830903"><ele>771.0</ele><time>2026-04-18T07:23:48.999Z</time></trkpt><trkpt lat="37.57036884502571" lon="-4.359781587173575"><ele>771.0</ele><time>2026-04-18T07:23:51.999Z</time></trkpt><trkpt lat="37.57029774506298" lon="-4.359817196303891"><ele>771.0</ele><time>2026-04-18T07:23:54.999Z</time></trkpt><trkpt lat="37.57022428993639" lon="-4.359802366061197"><ele>772.4285714285714</ele><time>2026-04-18T07:23:57.999Z</time></trkpt><trkpt lat="37.570158593490895" lon="-4.359788941511803"><ele>773.8571428571428</ele><time>2026-04-18T07:24:00.999Z</time></trkpt><trkpt lat="37.57008418413546" lon="-4.359783561065338"><ele>775.2857142857142</ele><time>2026-04-18T07:24:03.999Z</time></trkpt><trkpt lat="37.57000558758923" lon="-4.3597751488584935"><ele>776.7142857142858</ele><time>2026-04-18T07:24:06.999Z</time></trkpt><trkpt lat="37.569941185895324" lon="-4.3597662522333"><ele>778.1428571428571</ele><time>2026-04-18T07:24:09.999Z</time></trkpt><trkpt lat="37.56986851825211" lon="-4.359739566997364"><ele>779.5714285714286</ele><time>2026-04-18T07:24:12.999Z</time></trkpt><trkpt lat="37.56980464147236" lon="-4.3597186163671555"><ele>781.0</ele><time>2026-04-18T07:24:15.999Z</time></trkpt><trkpt lat="37.56973300214779" lon="-4.359702871638185"><ele>780.8333333333333</ele><time>2026-04-18T07:24:19.999Z</time></trkpt><trkpt lat="37.56969320286791" lon="-4.359621931462423"><ele>780.6666666666666</ele><time>2026-04-18T07:24:23.999Z</time></trkpt><trkpt lat="37.56961077406544" lon="-4.359616930729613"><ele>780.5</ele><time>2026-04-18T07:24:27.999Z</time></trkpt><trkpt lat="37.56952951053847" lon="-4.359619717908313"><ele>780.3333333333333</ele><time>2026-04-18T07:24:31.999Z</time></trkpt><trkpt lat="37.56947572692857" lon="-4.359665576825604"><ele>780.1666666666666</ele><time>2026-04-18T07:24:35.998Z</time></trkpt><trkpt lat="37.56939922230972" lon="-4.3596993083444495"><ele>780.0</ele><time>2026-04-18T07:24:39.998Z</time></trkpt><trkpt lat="37.56934048274607" lon="-4.359772717043184"><ele>780.0</ele><time>2026-04-18T07:24:45.998Z</time></trkpt><trkpt lat="37.56927737000678" lon="-4.359744322381957"><ele>780.0</ele><time>2026-04-18T07:24:48.998Z</time></trkpt><trkpt lat="37.569193653078116" lon="-4.359715011865869"><ele>780.0</ele><time>2026-04-18T07:24:52.998Z</time></trkpt><trkpt lat="37.56912454623083" lon="-4.359698203654655"><ele>780.0</ele><time>2026-04-18T07:24:54.998Z</time></trkpt><trkpt lat="37.56905568118955" lon="-4.359690147805292"><ele>780.0</ele><time>2026-04-18T07:24:58.998Z</time></trkpt><trkpt lat="37.56899382303863" lon="-4.359651300903206"><ele>780.0</ele><time>2026-04-18T07:25:02.998Z</time></trkpt><trkpt lat="37.56894459299866" lon="-4.359594282941604"><ele>780.0</ele><time>2026-04-18T07:25:05.998Z</time></trkpt><trkpt lat="37.5688561731764" lon="-4.359568842276364"><ele>780.0</ele><time>2026-04-18T07:25:08.998Z</time></trkpt><trkpt lat="37.568777834590996" lon="-4.359571547941606"><ele>780.0</ele><time>2026-04-18T07:25:10.998Z</time></trkpt><trkpt lat="37.56869086193806" lon="-4.359541812728204"><ele>780.0</ele><time>2026-04-18T07:25:12.998Z</time></trkpt><trkpt lat="37.568609737125335" lon="-4.359506464432107"><ele>780.0</ele><time>2026-04-18T07:25:14.998Z</time></trkpt><trkpt lat="37.56853618146712" lon="-4.359478874319656"><ele>780.0</ele><time>2026-04-18T07:25:16.998Z</time></trkpt><trkpt lat="37.56846815094123" lon="-4.359450069746145"><ele>780.0</ele><time>2026-04-18T07:25:20.997Z</time></trkpt><trkpt lat="37.56841454246478" lon="-4.359393175388451"><ele>779.0</ele><time>2026-04-18T07:25:24.997Z</time></trkpt><trkpt lat="37.56835074112359" lon="-4.359349819261769"><ele>778.0</ele><time>2026-04-18T07:25:49Z</time></trkpt><trkpt lat="37.56829049284644" lon="-4.359316809118588"><ele>777.0</ele><time>2026-04-18T07:25:54Z</time></trkpt><trkpt lat="37.56820529244841" lon="-4.359305832238657"><ele>776.0</ele><time>2026-04-18T07:25:57.999Z</time></trkpt><trkpt lat="37.56813810214659" lon="-4.359342596433034"><ele>775.0</ele><time>2026-04-18T07:26:03.999Z</time></trkpt><trkpt lat="37.56805895106885" lon="-4.359309834626163"><ele>774.0</ele><time>2026-04-18T07:26:06.999Z</time></trkpt><trkpt lat="37.56799586454241" lon="-4.359276432552678"><ele>773.0</ele><time>2026-04-18T07:26:08.999Z</time></trkpt><trkpt lat="37.56793612558869" lon="-4.35924643421395"><ele>773.0000000000001</ele><time>2026-04-18T07:26:10.999Z</time></trkpt><trkpt lat="37.567874616581975" lon="-4.359203589207919"><ele>773.0</ele><time>2026-04-18T07:26:12.999Z</time></trkpt><trkpt lat="37.56779622253358" lon="-4.359192523918954"><ele>773.0</ele><time>2026-04-18T07:26:14.999Z</time></trkpt><trkpt lat="37.567720986678886" lon="-4.359109633279182"><ele>773.0</ele><time>2026-04-18T07:26:17.999Z</time></trkpt><trkpt lat="37.567647347879934" lon="-4.359080482124892"><ele>773.0000000000001</ele><time>2026-04-18T07:26:19.999Z</time></trkpt><trkpt lat="37.567575031968005" lon="-4.359030702381922"><ele>773.0</ele><time>2026-04-18T07:26:21.999Z</time></trkpt><trkpt lat="37.56749229964833" lon="-4.359008346028513"><ele>770.3333333333334</ele><time>2026-04-18T07:26:23.999Z</time></trkpt><trkpt lat="37.56741597089769" lon="-4.3590212229819745"><ele>767.6666666666667</ele><time>2026-04-18T07:26:25.999Z</time></trkpt><trkpt lat="37.56732534566818" lon="-4.359037013919311"><ele>765.0</ele><time>2026-04-18T07:26:27.999Z</time></trkpt><trkpt lat="37.56723786801067" lon="-4.359029434086411"><ele>762.3333333333334</ele><time>2026-04-18T07:26:29.999Z</time></trkpt><trkpt lat="37.567152094528964" lon="-4.358985180675257"><ele>759.6666666666667</ele><time>2026-04-18T07:26:31.999Z</time></trkpt><trkpt lat="37.56705848900128" lon="-4.358940818446964"><ele>757.0</ele><time>2026-04-18T07:26:33.999Z</time></trkpt><trkpt lat="37.56698177015985" lon="-4.3588751285533895"><ele>754.8</ele><time>2026-04-18T07:26:35.999Z</time></trkpt><trkpt lat="37.566891296668715" lon="-4.358832133802395"><ele>752.6</ele><time>2026-04-18T07:26:37.999Z</time></trkpt><trkpt lat="37.56678112316487" lon="-4.358768115894919"><ele>750.4</ele><time>2026-04-18T07:26:39.999Z</time></trkpt><trkpt lat="37.56668238854812" lon="-4.358692409952512"><ele>748.1999999999999</ele><time>2026-04-18T07:26:41.998Z</time></trkpt><trkpt lat="37.566598800732486" lon="-4.3586193118619105"><ele>746.0</ele><time>2026-04-18T07:26:43.998Z</time></trkpt><trkpt lat="37.56649838309352" lon="-4.358577384748244"><ele>746.0</ele><time>2026-04-18T07:26:45.998Z</time></trkpt><trkpt lat="37.566411597913216" lon="-4.358516575570249"><ele>746.0</ele><time>2026-04-18T07:26:47.998Z</time></trkpt><trkpt lat="37.56636392023376" lon="-4.358449380628787"><ele>746.0</ele><time>2026-04-18T07:26:49.998Z</time></trkpt><trkpt lat="37.56627532542728" lon="-4.358389471592765"><ele>746.0</ele><time>2026-04-18T07:26:51.998Z</time></trkpt><trkpt lat="37.56616344066914" lon="-4.358341378341081"><ele>746.0</ele><time>2026-04-18T07:26:53.998Z</time></trkpt><trkpt lat="37.56609863347329" lon="-4.3582977834743355"><ele>743.8333333333333</ele><time>2026-04-18T07:26:54.998Z</time></trkpt><trkpt lat="37.56603920994356" lon="-4.358239701545585"><ele>741.6666666666666</ele><time>2026-04-18T07:26:55.998Z</time></trkpt><trkpt lat="37.565977789949834" lon="-4.358167702200912"><ele>739.5</ele><time>2026-04-18T07:26:56.998Z</time></trkpt><trkpt lat="37.5659121007644" lon="-4.3580971366856245"><ele>737.3333333333334</ele><time>2026-04-18T07:26:57.998Z</time></trkpt><trkpt lat="37.56584337333212" lon="-4.35803344837991"><ele>735.1666666666667</ele><time>2026-04-18T07:26:58.998Z</time></trkpt><trkpt lat="37.56577209319798" lon="-4.357974490005924"><ele>733.0</ele><time>2026-04-18T07:26:59.998Z</time></trkpt><trkpt lat="37.56570782111225" lon="-4.357902027840252"><ele>733.0</ele><time>2026-04-18T07:27:00.998Z</time></trkpt><trkpt lat="37.56564642609284" lon="-4.3578209867721105"><ele>733.0</ele><time>2026-04-18T07:27:01.998Z</time></trkpt><trkpt lat="37.565608190417365" lon="-4.357748564822705"><ele>733.0</ele><time>2026-04-18T07:27:02.998Z</time></trkpt><trkpt lat="37.56557584798639" lon="-4.357665721811994"><ele>733.0</ele><time>2026-04-18T07:27:03.998Z</time></trkpt><trkpt lat="37.56553047512003" lon="-4.357550401180337"><ele>733.0</ele><time>2026-04-18T07:27:05.998Z</time></trkpt><trkpt lat="37.565475023762176" lon="-4.357505176991364"><ele>733.0</ele><time>2026-04-18T07:27:07.998Z</time></trkpt><trkpt lat="37.56542324096141" lon="-4.357409368715511"><ele>733.0</ele><time>2026-04-18T07:27:10.998Z</time></trkpt><trkpt lat="37.56539019234653" lon="-4.357327301392279"><ele>733.0</ele><time>2026-04-18T07:27:12.998Z</time></trkpt><trkpt lat="37.56531842053884" lon="-4.357264525001043"><ele>733.0</ele><time>2026-04-18T07:27:14.998Z</time></trkpt><trkpt lat="37.5652343583438" lon="-4.357228662518918"><ele>733.0</ele><time>2026-04-18T07:27:16.998Z</time></trkpt><trkpt lat="37.56516157314338" lon="-4.357186812156918"><ele>733.0</ele><time>2026-04-18T07:27:18.998Z</time></trkpt><trkpt lat="37.56509391092431" lon="-4.357143474262628"><ele>733.0</ele><time>2026-04-18T07:27:20.998Z</time></trkpt><trkpt lat="37.565012337418686" lon="-4.3570875371663895"><ele>732.9999999999999</ele><time>2026-04-18T07:27:22.998Z</time></trkpt><trkpt lat="37.564946772879296" lon="-4.357064270813629"><ele>733.0</ele><time>2026-04-18T07:27:24.998Z</time></trkpt><trkpt lat="37.56488260377305" lon="-4.357006192557282"><ele>733.0</ele><time>2026-04-18T07:27:26.997Z</time></trkpt><trkpt lat="37.56482372184536" lon="-4.356969458926891"><ele>733.0</ele><time>2026-04-18T07:27:28.997Z</time></trkpt><trkpt lat="37.56475022443554" lon="-4.356957723750644"><ele>733.0</ele><time>2026-04-18T07:27:30.997Z</time></trkpt><trkpt lat="37.56468674772486" lon="-4.356922079025896"><ele>732.9999999999999</ele><time>2026-04-18T07:27:32.997Z</time></trkpt><trkpt lat="37.56462229344799" lon="-4.35687725111529"><ele>733.0</ele><time>2026-04-18T07:27:34.997Z</time></trkpt><trkpt lat="37.564557973250515" lon="-4.356849847082276"><ele>734.5</ele><time>2026-04-18T07:27:36.997Z</time></trkpt><trkpt lat="37.5644995892735" lon="-4.356809648834321"><ele>736.0</ele><time>2026-04-18T07:27:38.997Z</time></trkpt><trkpt lat="37.56443257511845" lon="-4.356754872980469"><ele>737.5</ele><time>2026-04-18T07:27:42Z</time></trkpt><trkpt lat="37.56436588179499" lon="-4.356720954974904"><ele>739.0</ele><time>2026-04-18T07:27:44Z</time></trkpt><trkpt lat="37.56427568909455" lon="-4.3566701105213985"><ele>740.5</ele><time>2026-04-18T07:27:47Z</time></trkpt><trkpt lat="37.56421449109168" lon="-4.356609246109483"><ele>742.0</ele><time>2026-04-18T07:27:49Z</time></trkpt><trkpt lat="37.56415701389094" lon="-4.35656689404867"><ele>742.0</ele><time>2026-04-18T07:27:51Z</time></trkpt><trkpt lat="37.564083252031" lon="-4.356514650384592"><ele>742.0</ele><time>2026-04-18T07:27:54Z</time></trkpt><trkpt lat="37.56400393542132" lon="-4.356456222912309"><ele>742.0</ele><time>2026-04-18T07:27:57Z</time></trkpt><trkpt lat="37.56392485772488" lon="-4.356404894670426"><ele>742.0</ele><time>2026-04-18T07:28:00Z</time></trkpt><trkpt lat="37.56385085240341" lon="-4.356360069326541"><ele>742.0</ele><time>2026-04-18T07:28:02.999Z</time></trkpt><trkpt lat="37.563781834164246" lon="-4.356324864369137"><ele>742.0</ele><time>2026-04-18T07:28:05.999Z</time></trkpt><trkpt lat="37.56371226921429" lon="-4.356271765283494"><ele>744.2857142857143</ele><time>2026-04-18T07:28:08.999Z</time></trkpt><trkpt lat="37.563643402250015" lon="-4.356232589202699"><ele>746.5714285714286</ele><time>2026-04-18T07:28:11.999Z</time></trkpt><trkpt lat="37.563613782369956" lon="-4.356134191921648"><ele>748.8571428571429</ele><time>2026-04-18T07:28:14.999Z</time></trkpt><trkpt lat="37.563585508689094" lon="-4.356050692398704"><ele>751.1428571428571</ele><time>2026-04-18T07:28:17.999Z</time></trkpt><trkpt lat="37.56353714554902" lon="-4.355976087128865"><ele>753.4285714285714</ele><time>2026-04-18T07:28:21.999Z</time></trkpt><trkpt lat="37.563520901365244" lon="-4.35589388279829"><ele>755.7142857142858</ele><time>2026-04-18T07:28:24.999Z</time></trkpt><trkpt lat="37.56349197937753" lon="-4.355814057230651"><ele>758.0</ele><time>2026-04-18T07:28:27.999Z</time></trkpt><trkpt lat="37.56344039507062" lon="-4.355739058345932"><ele>758.0000000000001</ele><time>2026-04-18T07:28:30.999Z</time></trkpt><trkpt lat="37.563391506969346" lon="-4.355681611654854"><ele>758.0</ele><time>2026-04-18T07:28:33.999Z</time></trkpt><trkpt lat="37.563328868833686" lon="-4.355629149672503"><ele>758.0</ele><time>2026-04-18T07:28:36.999Z</time></trkpt><trkpt lat="37.56325509311982" lon="-4.35559089325289"><ele>758.0</ele><time>2026-04-18T07:28:40.999Z</time></trkpt><trkpt lat="37.56319583421415" lon="-4.355547032598585"><ele>758.0</ele><time>2026-04-18T07:28:43.999Z</time></trkpt><trkpt lat="37.56312968279709" lon="-4.355532924741884"><ele>758.0000000000001</ele><time>2026-04-18T07:28:46.999Z</time></trkpt><trkpt lat="37.563068061259145" lon="-4.355512832220008"><ele>758.0</ele><time>2026-04-18T07:28:49.998Z</time></trkpt><trkpt lat="37.56299994538355" lon="-4.355466431161042"><ele>758.1428571428572</ele><time>2026-04-18T07:32:33.999Z</time></trkpt><trkpt lat="37.56293205484169" lon="-4.355500279556098"><ele>758.2857142857143</ele><time>2026-04-18T07:32:38.999Z</time></trkpt><trkpt lat="37.56286198875626" lon="-4.3554765816203185"><ele>758.4285714285714</ele><time>2026-04-18T07:32:41.999Z</time></trkpt><trkpt lat="37.56278898427295" lon="-4.355454184848491"><ele>758.5714285714287</ele><time>2026-04-18T07:32:45.999Z</time></trkpt><trkpt lat="37.562723616382776" lon="-4.355428446904254"><ele>758.7142857142857</ele><time>2026-04-18T07:32:48.999Z</time></trkpt><trkpt lat="37.56265471886606" lon="-4.355397575705524"><ele>758.8571428571429</ele><time>2026-04-18T07:32:50.999Z</time></trkpt><trkpt lat="37.56257912177276" lon="-4.355358249849926"><ele>759.0</ele><time>2026-04-18T07:32:52.999Z</time></trkpt><trkpt lat="37.56251716657475" lon="-4.355321614454957"><ele>759.8571428571429</ele><time>2026-04-18T07:32:54.999Z</time></trkpt><trkpt lat="37.56246991110272" lon="-4.355267786262549"><ele>760.7142857142857</ele><time>2026-04-18T07:32:56.999Z</time></trkpt><trkpt lat="37.56240604628894" lon="-4.355198410653109"><ele>761.5714285714287</ele><time>2026-04-18T07:32:59.999Z</time></trkpt><trkpt lat="37.56235282980631" lon="-4.3551397196748685"><ele>762.4285714285714</ele><time>2026-04-18T07:33:01.999Z</time></trkpt><trkpt lat="37.56229337591791" lon="-4.355079192003723"><ele>763.2857142857143</ele><time>2026-04-18T07:33:03.999Z</time></trkpt><trkpt lat="37.56223160594834" lon="-4.355048930774618"><ele>764.1428571428572</ele><time>2026-04-18T07:33:05.998Z</time></trkpt><trkpt lat="37.562172611555475" lon="-4.3550063893288895"><ele>765.0</ele><time>2026-04-18T07:33:07.998Z</time></trkpt><trkpt lat="37.562107136525334" lon="-4.354982558331405"><ele>764.0</ele><time>2026-04-18T07:33:09.998Z</time></trkpt><trkpt lat="37.56201843041762" lon="-4.354997134147933"><ele>763.0</ele><time>2026-04-18T07:33:11.998Z</time></trkpt><trkpt lat="37.56191314243569" lon="-4.355024947633934"><ele>762.0</ele><time>2026-04-18T07:33:13.998Z</time></trkpt><trkpt lat="37.561820966426424" lon="-4.3550459908461265"><ele>761.0</ele><time>2026-04-18T07:33:15.998Z</time></trkpt><trkpt lat="37.56173982262801" lon="-4.355073907107089"><ele>760.0</ele><time>2026-04-18T07:33:17.998Z</time></trkpt><trkpt lat="37.56165062148311" lon="-4.355077552146763"><ele>760.0</ele><time>2026-04-18T07:33:19.998Z</time></trkpt><trkpt lat="37.56157692485743" lon="-4.355061438016674"><ele>760.0</ele><time>2026-04-18T07:33:21.998Z</time></trkpt><trkpt lat="37.56150573322075" lon="-4.355054272464174"><ele>760.0</ele><time>2026-04-18T07:33:23.998Z</time></trkpt><trkpt lat="37.56143559847854" lon="-4.355022076534121"><ele>760.0</ele><time>2026-04-18T07:33:25.998Z</time></trkpt><trkpt lat="37.56135763082803" lon="-4.354979772234778"><ele>760.0</ele><time>2026-04-18T07:33:28.998Z</time></trkpt><trkpt lat="37.56132132965289" lon="-4.354900410587989"><ele>760.0</ele><time>2026-04-18T07:33:31.998Z</time></trkpt><trkpt lat="37.56128657058526" lon="-4.35482358492811"><ele>760.0</ele><time>2026-04-18T07:33:34.998Z</time></trkpt><trkpt lat="37.56128623497372" lon="-4.3547305577328865"><ele>760.8333333333334</ele><time>2026-04-18T07:33:37.998Z</time></trkpt><trkpt lat="37.561308645862034" lon="-4.354632414848996"><ele>761.6666666666667</ele><time>2026-04-18T07:33:40.998Z</time></trkpt><trkpt lat="37.56131462335729" lon="-4.354522610424447"><ele>762.5</ele><time>2026-04-18T07:33:43.998Z</time></trkpt><trkpt lat="37.561339451870694" lon="-4.354409944500807"><ele>763.3333333333334</ele><time>2026-04-18T07:33:46.998Z</time></trkpt><trkpt lat="37.5613734800045" lon="-4.354339922044031"><ele>764.1666666666666</ele><time>2026-04-18T07:33:48.998Z</time></trkpt><trkpt lat="37.561416858200644" lon="-4.354266941962013"><ele>765.0</ele><time>2026-04-18T07:33:50.997Z</time></trkpt><trkpt lat="37.56147018190904" lon="-4.354186542917773"><ele>765.0</ele><time>2026-04-18T07:33:52.997Z</time></trkpt><trkpt lat="37.56152048247061" lon="-4.354091127268542"><ele>765.0</ele><time>2026-04-18T07:33:54.997Z</time></trkpt><trkpt lat="37.5615859340646" lon="-4.353992662990358"><ele>765.0</ele><time>2026-04-18T07:33:56.997Z</time></trkpt><trkpt lat="37.56165877682643" lon="-4.353915539239902"><ele>765.0</ele><time>2026-04-18T07:33:58.997Z</time></trkpt><trkpt lat="37.56172157016743" lon="-4.3538205742400615"><ele>765.0</ele><time>2026-04-18T07:34:01Z</time></trkpt><trkpt lat="37.561745369598874" lon="-4.353707776016106"><ele>765.5</ele><time>2026-04-18T07:34:03Z</time></trkpt><trkpt lat="37.56177846843496" lon="-4.353639901472107"><ele>766.0</ele><time>2026-04-18T07:34:04Z</time></trkpt><trkpt lat="37.561847342084214" lon="-4.353586508148859"><ele>766.5</ele><time>2026-04-18T07:34:05Z</time></trkpt><trkpt lat="37.56193237652019" lon="-4.353549350557487"><ele>767.0</ele><time>2026-04-18T07:34:06Z</time></trkpt><trkpt lat="37.56200823198715" lon="-4.353545202845629"><ele>767.5</ele><time>2026-04-18T07:34:07Z</time></trkpt><trkpt lat="37.5620841025351" lon="-4.353498454466823"><ele>768.0</ele><time>2026-04-18T07:34:09Z</time></trkpt><trkpt lat="37.562120491474815" lon="-4.353361782816938"><ele>767.9999999999999</ele><time>2026-04-18T07:34:11Z</time></trkpt><trkpt lat="37.56216819610637" lon="-4.353290348220154"><ele>768.0</ele><time>2026-04-18T07:34:12Z</time></trkpt><trkpt lat="37.562227727131635" lon="-4.353232797049604"><ele>768.0</ele><time>2026-04-18T07:34:13Z</time></trkpt><trkpt lat="37.56228025140303" lon="-4.353177377954083"><ele>768.0</ele><time>2026-04-18T07:34:14Z</time></trkpt><trkpt lat="37.56232176694785" lon="-4.353107586967017"><ele>768.0</ele><time>2026-04-18T07:34:15Z</time></trkpt><trkpt lat="37.56236253802303" lon="-4.353025207038491"><ele>767.9999999999999</ele><time>2026-04-18T07:34:16Z</time></trkpt><trkpt lat="37.562410202534906" lon="-4.352965249306267"><ele>768.0</ele><time>2026-04-18T07:34:17Z</time></trkpt><trkpt lat="37.56246539971994" lon="-4.352917289220981"><ele>765.0</ele><time>2026-04-18T07:34:18Z</time></trkpt><trkpt lat="37.562520277454034" lon="-4.352852813032504"><ele>762.0</ele><time>2026-04-18T07:34:18.999Z</time></trkpt><trkpt lat="37.56257246531205" lon="-4.352796982874842"><ele>759.0</ele><time>2026-04-18T07:34:19.999Z</time></trkpt><trkpt lat="37.56261062485087" lon="-4.35272761270638"><ele>756.0</ele><time>2026-04-18T07:34:20.999Z</time></trkpt><trkpt lat="37.562580834052646" lon="-4.352581831568453"><ele>753.0</ele><time>2026-04-18T07:34:22.999Z</time></trkpt><trkpt lat="37.562565262226165" lon="-4.352476755089262"><ele>750.0</ele><time>2026-04-18T07:34:23.999Z</time></trkpt><trkpt lat="37.5625532215762" lon="-4.352358811011965"><ele>750.0</ele><time>2026-04-18T07:34:24.999Z</time></trkpt><trkpt lat="37.56253532381878" lon="-4.3522373222246475"><ele>750.0</ele><time>2026-04-18T07:34:25.999Z</time></trkpt><trkpt lat="37.56252598366227" lon="-4.3521259260496254"><ele>750.0</ele><time>2026-04-18T07:34:26.999Z</time></trkpt><trkpt lat="37.56251420157439" lon="-4.35200831778279"><ele>750.0</ele><time>2026-04-18T07:34:27.999Z</time></trkpt><trkpt lat="37.562496417414785" lon="-4.351898444502695"><ele>750.0</ele><time>2026-04-18T07:34:28.999Z</time></trkpt><trkpt lat="37.562473344287376" lon="-4.351782806640016"><ele>748.6666666666666</ele><time>2026-04-18T07:34:29.999Z</time></trkpt><trkpt lat="37.56245682748388" lon="-4.351702225116504"><ele>747.3333333333334</ele><time>2026-04-18T07:34:30.999Z</time></trkpt><trkpt lat="37.56243954183649" lon="-4.351584928453566"><ele>746.0</ele><time>2026-04-18T07:34:32.999Z</time></trkpt><trkpt lat="37.562405206138486" lon="-4.351470562770512"><ele>744.6666666666667</ele><time>2026-04-18T07:34:35.999Z</time></trkpt><trkpt lat="37.56241953118581" lon="-4.3513897649547495"><ele>743.3333333333334</ele><time>2026-04-18T07:34:36.999Z</time></trkpt><trkpt lat="37.56244113212167" lon="-4.3512593341970485"><ele>742.0</ele><time>2026-04-18T07:34:38.999Z</time></trkpt><trkpt lat="37.56239523396257" lon="-4.351153591671227"><ele>742.0</ele><time>2026-04-18T07:34:40.999Z</time></trkpt><trkpt lat="37.56236250855587" lon="-4.351056838369443"><ele>742.0</ele><time>2026-04-18T07:34:42.999Z</time></trkpt><trkpt lat="37.562336830656136" lon="-4.350953808884402"><ele>742.0</ele><time>2026-04-18T07:34:45.999Z</time></trkpt><trkpt lat="37.562313634021976" lon="-4.350879817229558"><ele>742.0</ele><time>2026-04-18T07:34:48.999Z</time></trkpt><trkpt lat="37.56237159837423" lon="-4.350812462665521"><ele>742.0</ele><time>2026-04-18T07:34:52.999Z</time></trkpt><trkpt lat="37.56242503159178" lon="-4.350752617961636"><ele>742.0</ele><time>2026-04-18T07:34:55.999Z</time></trkpt><trkpt lat="37.562444555502616" lon="-4.350671353749722"><ele>742.0</ele><time>2026-04-18T07:34:57.999Z</time></trkpt><trkpt lat="37.562473162359424" lon="-4.350598713800816"><ele>742.0</ele><time>2026-04-18T07:34:59.999Z</time></trkpt><trkpt lat="37.56250815967864" lon="-4.350499465235027"><ele>742.0</ele><time>2026-04-18T07:35:02.999Z</time></trkpt><trkpt lat="37.56257625352219" lon="-4.3504786289353525"><ele>742.0</ele><time>2026-04-18T07:35:05.999Z</time></trkpt><trkpt lat="37.562650762616464" lon="-4.35044613196172"><ele>742.0</ele><time>2026-04-18T07:35:10.998Z</time></trkpt><trkpt lat="37.56271556753988" lon="-4.350489605335187"><ele>742.0</ele><time>2026-04-18T07:35:13.998Z</time></trkpt><trkpt lat="37.56278182390112" lon="-4.350509143042516"><ele>742.0</ele><time>2026-04-18T07:35:16.998Z</time></trkpt><trkpt lat="37.56283762100156" lon="-4.350459401855803"><ele>743.8333333333334</ele><time>2026-04-18T07:35:20.998Z</time></trkpt><trkpt lat="37.56286334283005" lon="-4.3503470489512175"><ele>745.6666666666667</ele><time>2026-04-18T07:35:23.998Z</time></trkpt><trkpt lat="37.562884963498895" lon="-4.350255781165243"><ele>747.5</ele><time>2026-04-18T07:35:26.998Z</time></trkpt><trkpt lat="37.562910964105605" lon="-4.350164428547289"><ele>749.3333333333334</ele><time>2026-04-18T07:35:29.998Z</time></trkpt><trkpt lat="37.5629219183366" lon="-4.350083460932407"><ele>751.1666666666666</ele><time>2026-04-18T07:35:31.998Z</time></trkpt><trkpt lat="37.562949581588654" lon="-4.34998231652377"><ele>753.0</ele><time>2026-04-18T07:35:34.998Z</time></trkpt><trkpt lat="37.56297729470724" lon="-4.349906028170574"><ele>748.3333333333334</ele><time>2026-04-18T07:35:36.998Z</time></trkpt><trkpt lat="37.56301159729954" lon="-4.3497964176173864"><ele>743.6666666666666</ele><time>2026-04-18T07:35:38.998Z</time></trkpt><trkpt lat="37.56304005570454" lon="-4.349697743245271"><ele>739.0</ele><time>2026-04-18T07:35:40.998Z</time></trkpt><trkpt lat="37.56303748247381" lon="-4.349581666764238"><ele>734.3333333333333</ele><time>2026-04-18T07:35:43.998Z</time></trkpt><trkpt lat="37.563054266599856" lon="-4.349498306028077"><ele>729.6666666666666</ele><time>2026-04-18T07:35:45.998Z</time></trkpt><trkpt lat="37.563067886959615" lon="-4.3493943495998915"><ele>725.0</ele><time>2026-04-18T07:35:47.998Z</time></trkpt><trkpt lat="37.563079190088715" lon="-4.3492935087286275"><ele>725.0</ele><time>2026-04-18T07:35:49.998Z</time></trkpt><trkpt lat="37.56306536057564" lon="-4.349209199503325"><ele>725.0</ele><time>2026-04-18T07:35:51.998Z</time></trkpt><trkpt lat="37.5630602582703" lon="-4.34909311826777"><ele>725.0</ele><time>2026-04-18T07:35:54.997Z</time></trkpt><trkpt lat="37.5630160044078" lon="-4.34901740395147"><ele>725.0</ele><time>2026-04-18T07:35:56.997Z</time></trkpt><trkpt lat="37.562969166465784" lon="-4.348923302405284"><ele>725.0</ele><time>2026-04-18T07:35:59.997Z</time></trkpt><trkpt lat="37.562952198324744" lon="-4.348829485201203"><ele>725.0</ele><time>2026-04-18T07:36:01.997Z</time></trkpt><trkpt lat="37.56291185405695" lon="-4.348752970582138"><ele>726.7142857142858</ele><time>2026-04-18T07:36:03.997Z</time></trkpt><trkpt lat="37.56283869317415" lon="-4.3487071171108544"><ele>728.4285714285714</ele><time>2026-04-18T07:36:07Z</time></trkpt><trkpt lat="37.56276814641388" lon="-4.348689280867051"><ele>730.1428571428571</ele><time>2026-04-18T07:36:10Z</time></trkpt><trkpt lat="37.56270975266016" lon="-4.348719256953442"><ele>731.8571428571429</ele><time>2026-04-18T07:36:12Z</time></trkpt><trkpt lat="37.562672676146605" lon="-4.348785508766648"><ele>733.5714285714286</ele><time>2026-04-18T07:36:16Z</time></trkpt><trkpt lat="37.562591419419306" lon="-4.348781652182448"><ele>735.2857142857143</ele><time>2026-04-18T07:36:30Z</time></trkpt><trkpt lat="37.562530049933066" lon="-4.348837676911459"><ele>737.0</ele><time>2026-04-18T07:36:33.999Z</time></trkpt><trkpt lat="37.562464239173565" lon="-4.34887931280937"><ele>739.8571428571429</ele><time>2026-04-18T07:36:37.999Z</time></trkpt><trkpt lat="37.56240675950873" lon="-4.348923941798955"><ele>742.7142857142858</ele><time>2026-04-18T07:36:41.999Z</time></trkpt><trkpt lat="37.56234553918511" lon="-4.348953085328235"><ele>745.5714285714287</ele><time>2026-04-18T07:36:45.999Z</time></trkpt><trkpt lat="37.56227769724601" lon="-4.348981522013061"><ele>748.4285714285714</ele><time>2026-04-18T07:36:49.999Z</time></trkpt><trkpt lat="37.562221009552715" lon="-4.349018935842587"><ele>751.2857142857142</ele><time>2026-04-18T07:36:53.999Z</time></trkpt><trkpt lat="37.56216145377926" lon="-4.349049325083668"><ele>754.1428571428572</ele><time>2026-04-18T07:36:57.999Z</time></trkpt><trkpt lat="37.56209957320434" lon="-4.34908004500652"><ele>757.0</ele><time>2026-04-18T07:37:01.999Z</time></trkpt><trkpt lat="37.56202774008534" lon="-4.349103831443392"><ele>759.5714285714286</ele><time>2026-04-18T07:37:06.999Z</time></trkpt><trkpt lat="37.561969054270236" lon="-4.3491439885142205"><ele>762.1428571428571</ele><time>2026-04-18T07:37:10.999Z</time></trkpt><trkpt lat="37.56191247157812" lon="-4.349183498833904"><ele>764.7142857142857</ele><time>2026-04-18T07:37:14.999Z</time></trkpt><trkpt lat="37.561843746241735" lon="-4.349226019207731"><ele>767.2857142857142</ele><time>2026-04-18T07:37:19.999Z</time></trkpt><trkpt lat="37.56177560749937" lon="-4.349249162868586"><ele>769.8571428571429</ele><time>2026-04-18T07:37:23.998Z</time></trkpt><trkpt lat="37.56171455849123" lon="-4.349293852735387"><ele>772.4285714285713</ele><time>2026-04-18T07:37:27.998Z</time></trkpt><trkpt lat="37.56165621856778" lon="-4.3493601944826565"><ele>775.0</ele><time>2026-04-18T07:37:32.998Z</time></trkpt><trkpt lat="37.56158945884426" lon="-4.349379056236371"><ele>774.9999999999999</ele><time>2026-04-18T07:37:36.998Z</time></trkpt><trkpt lat="37.561516722820095" lon="-4.349408196434146"><ele>775.0</ele><time>2026-04-18T07:37:40.998Z</time></trkpt><trkpt lat="37.56145267477617" lon="-4.349439182408929"><ele>775.0</ele><time>2026-04-18T07:37:43.998Z</time></trkpt><trkpt lat="37.561371144181" lon="-4.349490398441781"><ele>775.0</ele><time>2026-04-18T07:37:46.998Z</time></trkpt><trkpt lat="37.56130595283435" lon="-4.34954563818635"><ele>774.9999999999999</ele><time>2026-04-18T07:37:49.998Z</time></trkpt><trkpt lat="37.56124458247778" lon="-4.349565658658088"><ele>775.0</ele><time>2026-04-18T07:37:51.998Z</time></trkpt><trkpt lat="37.561168991549316" lon="-4.349550692256892"><ele>775.9999999999999</ele><time>2026-04-18T07:37:53.998Z</time></trkpt><trkpt lat="37.56110554109555" lon="-4.349523765258134"><ele>777.0</ele><time>2026-04-18T07:37:55.998Z</time></trkpt><trkpt lat="37.56102456741949" lon="-4.349481851533531"><ele>778.0</ele><time>2026-04-18T07:37:57.998Z</time></trkpt><trkpt lat="37.5609487350432" lon="-4.349434506976042"><ele>779.0</ele><time>2026-04-18T07:37:59.998Z</time></trkpt><trkpt lat="37.560878564646316" lon="-4.349393848412828"><ele>779.9999999999999</ele><time>2026-04-18T07:38:01.998Z</time></trkpt><trkpt lat="37.560793839563324" lon="-4.349359314704845"><ele>781.0</ele><time>2026-04-18T07:38:03.998Z</time></trkpt><trkpt lat="37.56069579315664" lon="-4.349336504845561"><ele>781.0</ele><time>2026-04-18T07:38:05.998Z</time></trkpt><trkpt lat="37.56059728149398" lon="-4.349304738562712"><ele>781.0</ele><time>2026-04-18T07:38:07.998Z</time></trkpt><trkpt lat="37.56049648784301" lon="-4.349252626697126"><ele>781.0</ele><time>2026-04-18T07:38:09.997Z</time></trkpt><trkpt lat="37.5604004634806" lon="-4.349190555239401"><ele>781.0</ele><time>2026-04-18T07:38:12Z</time></trkpt><trkpt lat="37.560295718958976" lon="-4.349145649696445"><ele>781.0</ele><time>2026-04-18T07:38:14Z</time></trkpt><trkpt lat="37.56020835567187" lon="-4.3490995697611945"><ele>780.3333333333333</ele><time>2026-04-18T07:38:16Z</time></trkpt><trkpt lat="37.56012049399465" lon="-4.349056462349454"><ele>779.6666666666666</ele><time>2026-04-18T07:38:18Z</time></trkpt><trkpt lat="37.56003997246192" lon="-4.349020985980935"><ele>779.0</ele><time>2026-04-18T07:38:20Z</time></trkpt><trkpt lat="37.55996402844601" lon="-4.34899113213692"><ele>778.3333333333333</ele><time>2026-04-18T07:38:22Z</time></trkpt><trkpt lat="37.5598878204832" lon="-4.348951099343572"><ele>777.6666666666666</ele><time>2026-04-18T07:38:24Z</time></trkpt><trkpt lat="37.55981697406365" lon="-4.348925059813177"><ele>777.0</ele><time>2026-04-18T07:38:26Z</time></trkpt><trkpt lat="37.55971304204918" lon="-4.348904095594403"><ele>777.0</ele><time>2026-04-18T07:38:29Z</time></trkpt><trkpt lat="37.559602520908925" lon="-4.348885058528089"><ele>777.0</ele><time>2026-04-18T07:38:31Z</time></trkpt><trkpt lat="37.55953835718562" lon="-4.3488773010404635"><ele>777.0</ele><time>2026-04-18T07:38:32Z</time></trkpt><trkpt lat="37.5594215137782" lon="-4.34889085268908"><ele>777.0</ele><time>2026-04-18T07:38:34Z</time></trkpt><trkpt lat="37.559359952131395" lon="-4.348868786521766"><ele>777.0</ele><time>2026-04-18T07:38:35Z</time></trkpt><trkpt lat="37.559249379388845" lon="-4.348837639503792"><ele>775.4285714285714</ele><time>2026-04-18T07:38:37Z</time></trkpt><trkpt lat="37.55916945036177" lon="-4.3488064346054465"><ele>773.8571428571429</ele><time>2026-04-18T07:38:39Z</time></trkpt><trkpt lat="37.5591103857102" lon="-4.3487707074778985"><ele>772.2857142857142</ele><time>2026-04-18T07:38:42Z</time></trkpt><trkpt lat="37.55904568887682" lon="-4.348732152690718"><ele>770.7142857142858</ele><time>2026-04-18T07:38:44.999Z</time></trkpt><trkpt lat="37.55897639919923" lon="-4.348733887628546"><ele>769.1428571428571</ele><time>2026-04-18T07:38:47.999Z</time></trkpt><trkpt lat="37.558914999902164" lon="-4.348713435803382"><ele>767.5714285714286</ele><time>2026-04-18T07:38:49.999Z</time></trkpt><trkpt lat="37.5588438912873" lon="-4.348687697804439"><ele>766.0</ele><time>2026-04-18T07:38:52.999Z</time></trkpt><trkpt lat="37.55876933586124" lon="-4.348652148183131"><ele>766.0</ele><time>2026-04-18T07:38:55.999Z</time></trkpt><trkpt lat="37.55871235172582" lon="-4.348603199524941"><ele>766.0</ele><time>2026-04-18T07:38:59.999Z</time></trkpt><trkpt lat="37.55865766232408" lon="-4.348527057586723"><ele>766.0</ele><time>2026-04-18T07:39:03.999Z</time></trkpt><trkpt lat="37.5586091712814" lon="-4.348451068293935"><ele>766.0</ele><time>2026-04-18T07:39:07.999Z</time></trkpt><trkpt lat="37.55856106569847" lon="-4.348391997447317"><ele>766.0</ele><time>2026-04-18T07:39:10.999Z</time></trkpt><trkpt lat="37.558501246963814" lon="-4.348307969089412"><ele>766.0</ele><time>2026-04-18T07:39:13.999Z</time></trkpt><trkpt lat="37.558437211696145" lon="-4.348274746293011"><ele>766.7142857142857</ele><time>2026-04-18T07:39:15.999Z</time></trkpt><trkpt lat="37.558351230869604" lon="-4.348263453348368"><ele>767.4285714285713</ele><time>2026-04-18T07:39:18.999Z</time></trkpt><trkpt lat="37.55828761607323" lon="-4.348257169171113"><ele>768.1428571428571</ele><time>2026-04-18T07:39:20.999Z</time></trkpt><trkpt lat="37.558230602419655" lon="-4.348213982270239"><ele>768.8571428571429</ele><time>2026-04-18T07:40:56.999Z</time></trkpt><trkpt lat="37.55815587238933" lon="-4.3482466143766025"><ele>769.5714285714286</ele><time>2026-04-18T07:41:00.999Z</time></trkpt><trkpt lat="37.55808843092549" lon="-4.348241925728838"><ele>770.2857142857143</ele><time>2026-04-18T07:41:07.999Z</time></trkpt><trkpt lat="37.558018276042034" lon="-4.34826032325729"><ele>771.0</ele><time>2026-04-18T07:41:13.999Z</time></trkpt><trkpt lat="37.55794304685797" lon="-4.348296813614849"><ele>771.0</ele><time>2026-04-18T07:41:18.999Z</time></trkpt><trkpt lat="37.5578589183999" lon="-4.348320160074993"><ele>771.0</ele><time>2026-04-18T07:41:21.999Z</time></trkpt><trkpt lat="37.55793884081346" lon="-4.348284361037114"><ele>771.0</ele><time>2026-04-18T07:41:48.998Z</time></trkpt><trkpt lat="37.557990905770154" lon="-4.348224191401257"><ele>771.0</ele><time>2026-04-18T07:41:59.998Z</time></trkpt><trkpt lat="37.557952183587645" lon="-4.348160416116196"><ele>771.0</ele><time>2026-04-18T07:42:02.998Z</time></trkpt><trkpt lat="37.55791496560522" lon="-4.3480820762989785"><ele>771.0</ele><time>2026-04-18T07:42:05.998Z</time></trkpt><trkpt lat="37.55786983765241" lon="-4.348009148578699"><ele>769.1666666666666</ele><time>2026-04-18T07:42:07.998Z</time></trkpt><trkpt lat="37.5577994696073" lon="-4.347925689006247"><ele>767.3333333333334</ele><time>2026-04-18T07:42:09.998Z</time></trkpt><trkpt lat="37.557733718535424" lon="-4.34784034714352"><ele>765.5</ele><time>2026-04-18T07:42:11.998Z</time></trkpt><trkpt lat="37.55766433412042" lon="-4.347794137417037"><ele>763.6666666666667</ele><time>2026-04-18T07:42:15.998Z</time></trkpt><trkpt lat="37.55761611732408" lon="-4.347733545266499"><ele>761.8333333333334</ele><time>2026-04-18T07:42:18.998Z</time></trkpt><trkpt lat="37.55755080064531" lon="-4.347702272364168"><ele>760.0</ele><time>2026-04-18T07:42:24Z</time></trkpt><trkpt lat="37.55748181753802" lon="-4.347668750723291"><ele>760.0</ele><time>2026-04-18T07:42:39Z</time></trkpt><trkpt lat="37.55741939176437" lon="-4.3476528793829505"><ele>760.0</ele><time>2026-04-18T07:42:41Z</time></trkpt><trkpt lat="37.55732718485155" lon="-4.3476380144427775"><ele>760.0</ele><time>2026-04-18T07:42:44Z</time></trkpt><trkpt lat="37.557258920453314" lon="-4.347605025995594"><ele>760.0</ele><time>2026-04-18T07:42:46Z</time></trkpt><trkpt lat="37.55718302967241" lon="-4.347580071890233"><ele>760.0</ele><time>2026-04-18T07:42:48Z</time></trkpt><trkpt lat="37.557124732197536" lon="-4.347528683076643"><ele>760.0</ele><time>2026-04-18T07:42:50Z</time></trkpt><trkpt lat="37.557032979545916" lon="-4.3475084755509865"><ele>759.1666666666667</ele><time>2026-04-18T07:42:54Z</time></trkpt><trkpt lat="37.5569759709947" lon="-4.347471485621372"><ele>758.3333333333334</ele><time>2026-04-18T07:42:57Z</time></trkpt><trkpt lat="37.55688726705824" lon="-4.347414753404833"><ele>757.5</ele><time>2026-04-18T07:43:01Z</time></trkpt><trkpt lat="37.55682118906418" lon="-4.347393023913254"><ele>756.6666666666666</ele><time>2026-04-18T07:43:04Z</time></trkpt><trkpt lat="37.55674117752374" lon="-4.347345262773842"><ele>755.8333333333333</ele><time>2026-04-18T07:43:06.999Z</time></trkpt><trkpt lat="37.556657117458094" lon="-4.347320338381832"><ele>755.0</ele><time>2026-04-18T07:43:08.999Z</time></trkpt><trkpt lat="37.55658478846128" lon="-4.347283693694861"><ele>755.0</ele><time>2026-04-18T07:43:10.999Z</time></trkpt><trkpt lat="37.556521884226704" lon="-4.347250583945026"><ele>755.0</ele><time>2026-04-18T07:43:12.999Z</time></trkpt><trkpt lat="37.55645491516834" lon="-4.347232661687775"><ele>755.0</ele><time>2026-04-18T07:43:14.999Z</time></trkpt><trkpt lat="37.55637403320202" lon="-4.34721531628965"><ele>755.0</ele><time>2026-04-18T07:43:17.999Z</time></trkpt><trkpt lat="37.55629620925099" lon="-4.347193561184779"><ele>755.0</ele><time>2026-04-18T07:43:21.999Z</time></trkpt><trkpt lat="37.556217451832026" lon="-4.34717451722068"><ele>755.0</ele><time>2026-04-18T07:43:24.999Z</time></trkpt><trkpt lat="37.556140476938964" lon="-4.347150790144715"><ele>756.1666666666666</ele><time>2026-04-18T07:43:27.999Z</time></trkpt><trkpt lat="37.556067576346535" lon="-4.347125808201565"><ele>757.3333333333333</ele><time>2026-04-18T07:43:31.999Z</time></trkpt><trkpt lat="37.555993116403926" lon="-4.347105655665508"><ele>758.5</ele><time>2026-04-18T07:43:34.999Z</time></trkpt><trkpt lat="37.55592005252562" lon="-4.34708898586492"><ele>759.6666666666666</ele><time>2026-04-18T07:43:37.999Z</time></trkpt><trkpt lat="37.555836107348" lon="-4.347066832466329"><ele>760.8333333333334</ele><time>2026-04-18T07:43:40.999Z</time></trkpt><trkpt lat="37.55574567500311" lon="-4.347057221688533"><ele>762.0</ele><time>2026-04-18T07:43:43.999Z</time></trkpt><trkpt lat="37.555673335768766" lon="-4.347048309336825"><ele>762.0</ele><time>2026-04-18T07:43:45.999Z</time></trkpt><trkpt lat="37.55560369259894" lon="-4.347013477853107"><ele>762.0</ele><time>2026-04-18T07:43:49.999Z</time></trkpt><trkpt lat="37.5555902566508" lon="-4.3469183283904425"><ele>762.0</ele><time>2026-04-18T07:44:03.998Z</time></trkpt><trkpt lat="37.555597658007535" lon="-4.346830577725595"><ele>762.0</ele><time>2026-04-18T07:44:40Z</time></trkpt><trkpt lat="37.55566660603579" lon="-4.346806324683647"><ele>762.0</ele><time>2026-04-18T07:44:45Z</time></trkpt><trkpt lat="37.555685858646164" lon="-4.346730312396664"><ele>762.0</ele><time>2026-04-18T07:45:01Z</time></trkpt><trkpt lat="37.555626952592064" lon="-4.346669410094139"><ele>762.0</ele><time>2026-04-18T07:45:08Z</time></trkpt><trkpt lat="37.55558538117117" lon="-4.34659832875053"><ele>762.0</ele><time>2026-04-18T07:45:13Z</time></trkpt><trkpt lat="37.55552566285228" lon="-4.3465723276251715"><ele>762.0</ele><time>2026-04-18T07:45:15.999Z</time></trkpt><trkpt lat="37.555465318432724" lon="-4.346538424969162"><ele>762.0</ele><time>2026-04-18T07:45:18.999Z</time></trkpt><trkpt lat="37.55539707208343" lon="-4.346512120683407"><ele>762.0</ele><time>2026-04-18T07:45:21.999Z</time></trkpt><trkpt lat="37.55531239570951" lon="-4.346476630545743"><ele>762.0</ele><time>2026-04-18T07:45:24.999Z</time></trkpt><trkpt lat="37.55525448507355" lon="-4.346445475784602"><ele>762.0</ele><time>2026-04-18T07:45:27.999Z</time></trkpt><trkpt lat="37.55519462565493" lon="-4.346472129106442"><ele>762.0</ele><time>2026-04-18T07:45:29.999Z</time></trkpt><trkpt lat="37.55510420694312" lon="-4.346417755826576"><ele>761.1428571428571</ele><time>2026-04-18T07:45:32.999Z</time></trkpt><trkpt lat="37.555018881463546" lon="-4.346324739624422"><ele>760.2857142857143</ele><time>2026-04-18T07:45:34.999Z</time></trkpt><trkpt lat="37.55496349732011" lon="-4.346284877435035"><ele>759.4285714285714</ele><time>2026-04-18T07:45:35.999Z</time></trkpt><trkpt lat="37.55490378832385" lon="-4.346250258499936"><ele>758.5714285714286</ele><time>2026-04-18T07:45:36.999Z</time></trkpt><trkpt lat="37.55484371608561" lon="-4.346210616837322"><ele>757.7142857142858</ele><time>2026-04-18T07:45:37.999Z</time></trkpt><trkpt lat="37.55478503007216" lon="-4.3461775292445575"><ele>756.8571428571429</ele><time>2026-04-18T07:45:38.999Z</time></trkpt><trkpt lat="37.55471337573992" lon="-4.346158749005565"><ele>756.0</ele><time>2026-04-18T07:45:39.999Z</time></trkpt><trkpt lat="37.55463662095559" lon="-4.346144675360612"><ele>756.0</ele><time>2026-04-18T07:45:40.999Z</time></trkpt><trkpt lat="37.55456606081928" lon="-4.346131743999198"><ele>756.0</ele><time>2026-04-18T07:45:41.999Z</time></trkpt><trkpt lat="37.55449249502439" lon="-4.34612553381455"><ele>756.0</ele><time>2026-04-18T07:45:42.999Z</time></trkpt><trkpt lat="37.554418497110454" lon="-4.34612412883183"><ele>756.0</ele><time>2026-04-18T07:45:43.999Z</time></trkpt><trkpt lat="37.554348004867656" lon="-4.346123868016595"><ele>756.0</ele><time>2026-04-18T07:45:44.999Z</time></trkpt><trkpt lat="37.55423014656934" lon="-4.346128886161382"><ele>756.0</ele><time>2026-04-18T07:45:46.999Z</time></trkpt><trkpt lat="37.554134829841004" lon="-4.346140024151075"><ele>755.1428571428571</ele><time>2026-04-18T07:45:48.999Z</time></trkpt><trkpt lat="37.554070048612594" lon="-4.346140330476237"><ele>754.2857142857142</ele><time>2026-04-18T07:45:50.999Z</time></trkpt><trkpt lat="37.553989993890035" lon="-4.346147386924809"><ele>753.4285714285714</ele><time>2026-04-18T07:45:54.999Z</time></trkpt><trkpt lat="37.55391729132713" lon="-4.346162371569968"><ele>752.5714285714286</ele><time>2026-04-18T07:45:57.999Z</time></trkpt><trkpt lat="37.553835517694516" lon="-4.346177834276263"><ele>751.7142857142857</ele><time>2026-04-18T07:46:00.999Z</time></trkpt><trkpt lat="37.553769478404746" lon="-4.346194664658879"><ele>750.8571428571429</ele><time>2026-04-18T07:46:04.998Z</time></trkpt><trkpt lat="37.5537216758235" lon="-4.34626722264304"><ele>750.0</ele><time>2026-04-18T07:46:10.998Z</time></trkpt><trkpt lat="37.55367978247787" lon="-4.3463442342170415"><ele>751.4285714285714</ele><time>2026-04-18T07:46:13.998Z</time></trkpt><trkpt lat="37.55364275946794" lon="-4.346417908641936"><ele>752.8571428571428</ele><time>2026-04-18T07:46:16.998Z</time></trkpt><trkpt lat="37.553608107875114" lon="-4.346486715273749"><ele>754.2857142857142</ele><time>2026-04-18T07:46:19.998Z</time></trkpt><trkpt lat="37.553573152744484" lon="-4.346562440709108"><ele>755.7142857142858</ele><time>2026-04-18T07:46:22.998Z</time></trkpt><trkpt lat="37.553523856579936" lon="-4.34663519241203"><ele>757.1428571428571</ele><time>2026-04-18T07:46:26.998Z</time></trkpt><trkpt lat="37.553481974652804" lon="-4.346719572952745"><ele>758.5714285714286</ele><time>2026-04-18T07:46:29.998Z</time></trkpt><trkpt lat="37.5534476779969" lon="-4.346803886156795"><ele>760.0</ele><time>2026-04-18T07:46:32.998Z</time></trkpt><trkpt lat="37.55341141223347" lon="-4.346870873552185"><ele>760.0</ele><time>2026-04-18T07:46:36Z</time></trkpt><trkpt lat="37.553389434264275" lon="-4.346947269781839"><ele>760.0</ele><time>2026-04-18T07:46:40Z</time></trkpt><trkpt lat="37.553338321614106" lon="-4.3470221339424135"><ele>760.0</ele><time>2026-04-18T07:46:44Z</time></trkpt><trkpt lat="37.55328336261671" lon="-4.347091625519308"><ele>760.0</ele><time>2026-04-18T07:46:48Z</time></trkpt><trkpt lat="37.55324242257368" lon="-4.347160524236379"><ele>760.0</ele><time>2026-04-18T07:46:52Z</time></trkpt><trkpt lat="37.55317750593446" lon="-4.347174902401784"><ele>760.0</ele><time>2026-04-18T07:47:24Z</time></trkpt><trkpt lat="37.55310709854612" lon="-4.347181887655399"><ele>760.0</ele><time>2026-04-18T07:47:45.999Z</time></trkpt><trkpt lat="37.55303813595261" lon="-4.347201502464257"><ele>757.8333333333334</ele><time>2026-04-18T07:47:58.999Z</time></trkpt><trkpt lat="37.5529635130126" lon="-4.34721542849588"><ele>755.6666666666667</ele><time>2026-04-18T07:48:02.999Z</time></trkpt><trkpt lat="37.55288645247581" lon="-4.347243009285765"><ele>753.5</ele><time>2026-04-18T07:48:05.999Z</time></trkpt><trkpt lat="37.55281916528392" lon="-4.347254314204024"><ele>751.3333333333334</ele><time>2026-04-18T07:48:08.999Z</time></trkpt><trkpt lat="37.552748595095274" lon="-4.347267995992207"><ele>749.1666666666666</ele><time>2026-04-18T07:48:11.999Z</time></trkpt><trkpt lat="37.552686723092386" lon="-4.347294675382954"><ele>747.0</ele><time>2026-04-18T07:48:13.998Z</time></trkpt><trkpt lat="37.55261049762256" lon="-4.347353829445105"><ele>747.0</ele><time>2026-04-18T07:48:16.998Z</time></trkpt><trkpt lat="37.552547618344185" lon="-4.347406968094702"><ele>747.0</ele><time>2026-04-18T07:48:18.998Z</time></trkpt><trkpt lat="37.55248953178188" lon="-4.34747272900708"><ele>747.0</ele><time>2026-04-18T07:48:20.998Z</time></trkpt><trkpt lat="37.55244892638413" lon="-4.347555540697228"><ele>747.0</ele><time>2026-04-18T07:48:22.998Z</time></trkpt><trkpt lat="37.5524107598615" lon="-4.347654648900964"><ele>747.0</ele><time>2026-04-18T07:48:25.998Z</time></trkpt><trkpt lat="37.55235489724923" lon="-4.347778474222686"><ele>747.0</ele><time>2026-04-18T07:48:27.998Z</time></trkpt><trkpt lat="37.552305383283525" lon="-4.347854261614362"><ele>746.9999999999999</ele><time>2026-04-18T07:48:29.998Z</time></trkpt><trkpt lat="37.552254087228555" lon="-4.34793482694968"><ele>747.0</ele><time>2026-04-18T07:48:31.998Z</time></trkpt><trkpt lat="37.5521969481912" lon="-4.3479859455683165"><ele>747.0</ele><time>2026-04-18T07:48:32.998Z</time></trkpt><trkpt lat="37.5521388931297" lon="-4.348036789940113"><ele>747.0</ele><time>2026-04-18T07:48:33.998Z</time></trkpt><trkpt lat="37.55207849564831" lon="-4.348085071772513"><ele>747.0</ele><time>2026-04-18T07:48:34.998Z</time></trkpt><trkpt lat="37.551999825120944" lon="-4.348117261098216"><ele>746.9999999999999</ele><time>2026-04-18T07:48:35.998Z</time></trkpt><trkpt lat="37.55193650685211" lon="-4.348140539545913"><ele>747.0</ele><time>2026-04-18T07:48:36.998Z</time></trkpt><trkpt lat="37.5518209896703" lon="-4.348224875870487"><ele>744.2</ele><time>2026-04-18T07:48:38.998Z</time></trkpt><trkpt lat="37.55174860189798" lon="-4.348274821851768"><ele>741.4000000000001</ele><time>2026-04-18T07:48:39.998Z</time></trkpt><trkpt lat="37.55166460515167" lon="-4.348340272729069"><ele>738.5999999999999</ele><time>2026-04-18T07:48:40.998Z</time></trkpt><trkpt lat="37.55158300965455" lon="-4.348393411030356"><ele>735.8</ele><time>2026-04-18T07:48:42Z</time></trkpt><trkpt lat="37.551501495517925" lon="-4.34845011556602"><ele>733.0</ele><time>2026-04-18T07:48:43Z</time></trkpt><trkpt lat="37.55141788237269" lon="-4.34851752281823"><ele>733.0</ele><time>2026-04-18T07:48:44Z</time></trkpt><trkpt lat="37.55135537224017" lon="-4.3485400927950755"><ele>733.0</ele><time>2026-04-18T07:48:45Z</time></trkpt><trkpt lat="37.55122394263721" lon="-4.34856034070086"><ele>733.0</ele><time>2026-04-18T07:48:47Z</time></trkpt><trkpt lat="37.55111376019853" lon="-4.348584552460383"><ele>733.0</ele><time>2026-04-18T07:48:49Z</time></trkpt><trkpt lat="37.55103927091834" lon="-4.348585304283298"><ele>733.0</ele><time>2026-04-18T07:48:51Z</time></trkpt><trkpt lat="37.550967677288796" lon="-4.34858772697984"><ele>730.3333333333334</ele><time>2026-04-18T07:48:53Z</time></trkpt><trkpt lat="37.55090992885104" lon="-4.348671642192066"><ele>727.6666666666667</ele><time>2026-04-18T07:48:55Z</time></trkpt><trkpt lat="37.55087878682542" lon="-4.348799146716386"><ele>725.0</ele><time>2026-04-18T07:48:57Z</time></trkpt><trkpt lat="37.550833492650014" lon="-4.348890383683068"><ele>722.3333333333334</ele><time>2026-04-18T07:48:59Z</time></trkpt><trkpt lat="37.550831088353895" lon="-4.348971481013265"><ele>719.6666666666666</ele><time>2026-04-18T07:49:01Z</time></trkpt><trkpt lat="37.55083997982576" lon="-4.349059892541321"><ele>717.0</ele><time>2026-04-18T07:49:03Z</time></trkpt><trkpt lat="37.5507876164658" lon="-4.349163393197417"><ele>716.0</ele><time>2026-04-18T07:49:05Z</time></trkpt><trkpt lat="37.55078331700514" lon="-4.349274242650805"><ele>715.0</ele><time>2026-04-18T07:49:07Z</time></trkpt><trkpt lat="37.55069437155829" lon="-4.349370338007471"><ele>714.0</ele><time>2026-04-18T07:49:09Z</time></trkpt><trkpt lat="37.55064158420978" lon="-4.34941931891163"><ele>713.0</ele><time>2026-04-18T07:49:10Z</time></trkpt><trkpt lat="37.5505855274489" lon="-4.34947428324628"><ele>712.0</ele><time>2026-04-18T07:49:11Z</time></trkpt><trkpt lat="37.55048764777916" lon="-4.349560181682943"><ele>708.0</ele><time>2026-04-18T07:49:13Z</time></trkpt><trkpt lat="37.55036702966906" lon="-4.3496703338652845"><ele>704.0</ele><time>2026-04-18T07:49:15Z</time></trkpt><trkpt lat="37.55029774115429" lon="-4.349734103191386"><ele>700.0</ele><time>2026-04-18T07:49:16Z</time></trkpt><trkpt lat="37.55022618694716" lon="-4.349791889657601"><ele>696.0</ele><time>2026-04-18T07:49:17Z</time></trkpt><trkpt lat="37.55015962336044" lon="-4.3498454232115735"><ele>692.0</ele><time>2026-04-18T07:49:18Z</time></trkpt><trkpt lat="37.55009718901523" lon="-4.3499083453646685"><ele>692.0</ele><time>2026-04-18T07:49:19Z</time></trkpt><trkpt lat="37.550028168972304" lon="-4.349962974521923"><ele>692.0</ele><time>2026-04-18T07:49:20Z</time></trkpt><trkpt lat="37.54996975734635" lon="-4.3500124747833135"><ele>692.0</ele><time>2026-04-18T07:49:21Z</time></trkpt><trkpt lat="37.54989348509131" lon="-4.350118578960257"><ele>692.0</ele><time>2026-04-18T07:49:23Z</time></trkpt><trkpt lat="37.54986536868749" lon="-4.350271932852451"><ele>692.0</ele><time>2026-04-18T07:49:25Z</time></trkpt><trkpt lat="37.54986795124572" lon="-4.350353492460491"><ele>692.0</ele><time>2026-04-18T07:49:26Z</time></trkpt><trkpt lat="37.54990049699382" lon="-4.350464982224994"><ele>692.0</ele><time>2026-04-18T07:49:27.999Z</time></trkpt><trkpt lat="37.54984519636819" lon="-4.350525363562625"><ele>692.0</ele><time>2026-04-18T07:49:30.999Z</time></trkpt><trkpt lat="37.54974163610575" lon="-4.350489234139786"><ele>692.0</ele><time>2026-04-18T07:49:32.999Z</time></trkpt><trkpt lat="37.549684930268135" lon="-4.350436540334722"><ele>692.0</ele><time>2026-04-18T07:49:33.999Z</time></trkpt><trkpt lat="37.54961880010613" lon="-4.35037727841624"><ele>692.0</ele><time>2026-04-18T07:49:34.999Z</time></trkpt><trkpt lat="37.549560450581204" lon="-4.350311391636821"><ele>688.5</ele><time>2026-04-18T07:49:35.999Z</time></trkpt><trkpt lat="37.54952436615803" lon="-4.350242528691513"><ele>685.0</ele><time>2026-04-18T07:49:36.999Z</time></trkpt><trkpt lat="37.549467363244325" lon="-4.350143090459694"><ele>681.5</ele><time>2026-04-18T07:49:38.999Z</time></trkpt><trkpt lat="37.549432223519595" lon="-4.350060627607456"><ele>678.0</ele><time>2026-04-18T07:49:41.999Z</time></trkpt><trkpt lat="37.549399518728244" lon="-4.349986921403642"><ele>674.5</ele><time>2026-04-18T07:49:44.999Z</time></trkpt><trkpt lat="37.5493788804704" lon="-4.349901257068405"><ele>671.0</ele><time>2026-04-18T07:49:47.999Z</time></trkpt><trkpt lat="37.54927679193338" lon="-4.3498432386273445"><ele>671.0</ele><time>2026-04-18T07:49:50.999Z</time></trkpt><trkpt lat="37.549196074007654" lon="-4.3497867254039475"><ele>671.0</ele><time>2026-04-18T07:49:52.999Z</time></trkpt><trkpt lat="37.54910397703115" lon="-4.349744041017684"><ele>671.0</ele><time>2026-04-18T07:49:55.999Z</time></trkpt><trkpt lat="37.549033982323195" lon="-4.349738232850426"><ele>671.0</ele><time>2026-04-18T07:49:57.999Z</time></trkpt><trkpt lat="37.548965900348286" lon="-4.349688004803397"><ele>671.0</ele><time>2026-04-18T07:49:59.999Z</time></trkpt><trkpt lat="37.54888940786894" lon="-4.349667846441804"><ele>671.0</ele><time>2026-04-18T07:50:02.999Z</time></trkpt><trkpt lat="37.548881485574455" lon="-4.349766496666454"><ele>671.0</ele><time>2026-04-18T07:50:04.999Z</time></trkpt><trkpt lat="37.548928015385734" lon="-4.3498952819059955"><ele>671.0</ele><time>2026-04-18T07:50:06.999Z</time></trkpt><trkpt lat="37.548951235017846" lon="-4.34997360384368"><ele>671.0</ele><time>2026-04-18T07:50:07.999Z</time></trkpt><trkpt lat="37.54898428481697" lon="-4.350046706011689"><ele>671.0</ele><time>2026-04-18T07:50:08.999Z</time></trkpt><trkpt lat="37.54905922736476" lon="-4.350163232361634"><ele>671.0</ele><time>2026-04-18T07:50:10.999Z</time></trkpt><trkpt lat="37.54910801492596" lon="-4.350273289975329"><ele>671.0</ele><time>2026-04-18T07:50:12.999Z</time></trkpt><trkpt lat="37.54913242233611" lon="-4.350366498391758"><ele>671.0</ele><time>2026-04-18T07:50:14.999Z</time></trkpt><trkpt lat="37.54914195211719" lon="-4.350454674252214"><ele>671.0</ele><time>2026-04-18T07:50:16.998Z</time></trkpt><trkpt lat="37.54916721245473" lon="-4.350530515835635"><ele>671.0</ele><time>2026-04-18T07:50:18.998Z</time></trkpt><trkpt lat="37.54919147604952" lon="-4.350637024100911"><ele>671.0</ele><time>2026-04-18T07:50:20.998Z</time></trkpt><trkpt lat="37.549216489048334" lon="-4.350730789241733"><ele>671.0</ele><time>2026-04-18T07:50:22.998Z</time></trkpt><trkpt lat="37.549224782298914" lon="-4.3508178963348625"><ele>671.0</ele><time>2026-04-18T07:50:24.998Z</time></trkpt><trkpt lat="37.5492047607811" lon="-4.350927263566014"><ele>669.0</ele><time>2026-04-18T07:50:27.998Z</time></trkpt><trkpt lat="37.54922058755148" lon="-4.351034589236092"><ele>667.0</ele><time>2026-04-18T07:50:29.998Z</time></trkpt><trkpt lat="37.549229503197814" lon="-4.351156409919188"><ele>665.0</ele><time>2026-04-18T07:50:31.998Z</time></trkpt><trkpt lat="37.549201965288105" lon="-4.351236290397123"><ele>663.0</ele><time>2026-04-18T07:50:33.998Z</time></trkpt><trkpt lat="37.549147112964235" lon="-4.3512919009132025"><ele>661.0</ele><time>2026-04-18T07:50:35.998Z</time></trkpt><trkpt lat="37.549092248913134" lon="-4.3513970876729955"><ele>659.0</ele><time>2026-04-18T07:50:37.998Z</time></trkpt><trkpt lat="37.54899242865437" lon="-4.351460298084799"><ele>656.4000000000001</ele><time>2026-04-18T07:50:39.998Z</time></trkpt><trkpt lat="37.54889889916191" lon="-4.351519245712275"><ele>653.8</ele><time>2026-04-18T07:50:41.998Z</time></trkpt><trkpt lat="37.54881427400979" lon="-4.351553075343179"><ele>651.2</ele><time>2026-04-18T07:50:43.998Z</time></trkpt><trkpt lat="37.54875593592492" lon="-4.351587684263535"><ele>648.5999999999999</ele><time>2026-04-18T07:50:47Z</time></trkpt><trkpt lat="37.54867275234037" lon="-4.351659899526237"><ele>646.0</ele><time>2026-04-18T07:50:50Z</time></trkpt><trkpt lat="37.54865875684822" lon="-4.351800560024464"><ele>643.2857142857143</ele><time>2026-04-18T07:50:52Z</time></trkpt><trkpt lat="37.548673275509366" lon="-4.3518869596672864"><ele>640.5714285714286</ele><time>2026-04-18T07:50:53Z</time></trkpt><trkpt lat="37.54868660720151" lon="-4.3519695276591115"><ele>637.8571428571429</ele><time>2026-04-18T07:50:54Z</time></trkpt><trkpt lat="37.54867791007783" lon="-4.352075516889366"><ele>635.1428571428571</ele><time>2026-04-18T07:50:56Z</time></trkpt><trkpt lat="37.54863252325746" lon="-4.352137851965741"><ele>632.4285714285714</ele><time>2026-04-18T07:50:58Z</time></trkpt><trkpt lat="37.54864067238787" lon="-4.35222447896284"><ele>629.7142857142858</ele><time>2026-04-18T07:51:00Z</time></trkpt><trkpt lat="37.54864164018734" lon="-4.352327558420414"><ele>627.0</ele><time>2026-04-18T07:51:04Z</time></trkpt><trkpt lat="37.54863284816239" lon="-4.352440486269911"><ele>626.0</ele><time>2026-04-18T07:51:07Z</time></trkpt><trkpt lat="37.548566183706406" lon="-4.352478527196739"><ele>625.0</ele><time>2026-04-18T07:51:10Z</time></trkpt><trkpt lat="37.54854268948512" lon="-4.352568774680831"><ele>624.0</ele><time>2026-04-18T07:51:13Z</time></trkpt><trkpt lat="37.548556455539256" lon="-4.352670154599873"><ele>623.0</ele><time>2026-04-18T07:51:16Z</time></trkpt><trkpt lat="37.54856433888317" lon="-4.352773475822424"><ele>622.0</ele><time>2026-04-18T07:51:19Z</time></trkpt><trkpt lat="37.54857440618294" lon="-4.352876912450519"><ele>621.0</ele><time>2026-04-18T07:51:22Z</time></trkpt><trkpt lat="37.54858610372851" lon="-4.352985355635323"><ele>620.8333333333334</ele><time>2026-04-18T07:51:25Z</time></trkpt><trkpt lat="37.548602062571916" lon="-4.353068659793239"><ele>620.6666666666666</ele><time>2026-04-18T07:51:27Z</time></trkpt><trkpt lat="37.54862306776084" lon="-4.353156686400878"><ele>620.5</ele><time>2026-04-18T07:51:29Z</time></trkpt><trkpt lat="37.54864267856922" lon="-4.353246572557499"><ele>620.3333333333333</ele><time>2026-04-18T07:51:31Z</time></trkpt><trkpt lat="37.54866813227433" lon="-4.353345684093036"><ele>620.1666666666666</ele><time>2026-04-18T07:51:33Z</time></trkpt><trkpt lat="37.54871047873774" lon="-4.353438930666715"><ele>620.0</ele><time>2026-04-18T07:51:35Z</time></trkpt><trkpt lat="37.548748769368416" lon="-4.353534818720467"><ele>620.0</ele><time>2026-04-18T07:51:37Z</time></trkpt><trkpt lat="37.548784667196934" lon="-4.353633328978059"><ele>620.0</ele><time>2026-04-18T07:51:39Z</time></trkpt><trkpt lat="37.5488278578744" lon="-4.353728342798432"><ele>620.0</ele><time>2026-04-18T07:51:41Z</time></trkpt><trkpt lat="37.54887347442306" lon="-4.353797910090904"><ele>620.0</ele><time>2026-04-18T07:51:42.999Z</time></trkpt><trkpt lat="37.54892360249209" lon="-4.353860173950938"><ele>620.0</ele><time>2026-04-18T07:51:44.999Z</time></trkpt><trkpt lat="37.54897926416172" lon="-4.353924603043597"><ele>620.0</ele><time>2026-04-18T07:51:46.999Z</time></trkpt><trkpt lat="37.54904334143601" lon="-4.354012088491843"><ele>620.0</ele><time>2026-04-18T07:51:48.999Z</time></trkpt><trkpt lat="37.5491111752406" lon="-4.354097125560033"><ele>620.0</ele><time>2026-04-18T07:51:50.999Z</time></trkpt><trkpt lat="37.54919117368436" lon="-4.354199278125395"><ele>620.0</ele><time>2026-04-18T07:51:52.999Z</time></trkpt><trkpt lat="37.54925086215191" lon="-4.354271666157779"><ele>620.0</ele><time>2026-04-18T07:51:54.999Z</time></trkpt><trkpt lat="37.54930277281931" lon="-4.354351689288971"><ele>620.0</ele><time>2026-04-18T07:51:55.999Z</time></trkpt><trkpt lat="37.549394900158624" lon="-4.3544384969956305"><ele>620.0</ele><time>2026-04-18T07:51:57.999Z</time></trkpt><trkpt lat="37.54947191277089" lon="-4.354507548118848"><ele>620.0</ele><time>2026-04-18T07:51:59.999Z</time></trkpt><trkpt lat="37.54956014032263" lon="-4.354562361155109"><ele>620.0</ele><time>2026-04-18T07:52:01.999Z</time></trkpt><trkpt lat="37.54967072396769" lon="-4.354583866817902"><ele>620.0</ele><time>2026-04-18T07:52:03.999Z</time></trkpt><trkpt lat="37.549731006787184" lon="-4.354607854048113"><ele>620.0</ele><time>2026-04-18T07:52:04.999Z</time></trkpt><trkpt lat="37.54982226733252" lon="-4.354660635678547"><ele>618.0</ele><time>2026-04-18T07:52:06.999Z</time></trkpt><trkpt lat="37.54984978863663" lon="-4.354780353762524"><ele>616.0</ele><time>2026-04-18T07:52:08.999Z</time></trkpt><trkpt lat="37.549824742089" lon="-4.354936495299047"><ele>614.0</ele><time>2026-04-18T07:52:10.999Z</time></trkpt><trkpt lat="37.54981149379381" lon="-4.3550877634778935"><ele>612.0</ele><time>2026-04-18T07:52:12.999Z</time></trkpt><trkpt lat="37.549805420148346" lon="-4.355238234691078"><ele>612.0</ele><time>2026-04-18T07:52:14.999Z</time></trkpt><trkpt lat="37.54979892069973" lon="-4.355321801098815"><ele>612.0</ele><time>2026-04-18T07:52:15.999Z</time></trkpt><trkpt lat="37.54979463483441" lon="-4.3554070956140505"><ele>612.0</ele><time>2026-04-18T07:52:16.999Z</time></trkpt><trkpt lat="37.5497914725126" lon="-4.355494083482663"><ele>612.0</ele><time>2026-04-18T07:52:17.999Z</time></trkpt><trkpt lat="37.549782363452756" lon="-4.355595298440273"><ele>612.0</ele><time>2026-04-18T07:52:18.999Z</time></trkpt><trkpt lat="37.549775827108256" lon="-4.3557151570740595"><ele>612.0</ele><time>2026-04-18T07:52:19.999Z</time></trkpt><trkpt lat="37.54976922503103" lon="-4.355825948084838"><ele>610.1666666666666</ele><time>2026-04-18T07:52:20.999Z</time></trkpt><trkpt lat="37.5497592650347" lon="-4.355937620043224"><ele>608.3333333333334</ele><time>2026-04-18T07:52:21.999Z</time></trkpt><trkpt lat="37.54975272013165" lon="-4.356036431711327"><ele>606.5</ele><time>2026-04-18T07:52:22.999Z</time></trkpt><trkpt lat="37.54975087902055" lon="-4.356127054772957"><ele>604.6666666666667</ele><time>2026-04-18T07:52:23.999Z</time></trkpt><trkpt lat="37.549748987826234" lon="-4.356226903730413"><ele>602.8333333333334</ele><time>2026-04-18T07:52:24.999Z</time></trkpt><trkpt lat="37.549737176583655" lon="-4.356345500707828"><ele>601.0</ele><time>2026-04-18T07:52:25.999Z</time></trkpt><trkpt lat="37.549735711355346" lon="-4.356464237597264"><ele>599.5</ele><time>2026-04-18T07:52:26.999Z</time></trkpt><trkpt lat="37.54972757043336" lon="-4.356569569779216"><ele>598.0</ele><time>2026-04-18T07:52:27.999Z</time></trkpt><trkpt lat="37.54972209335099" lon="-4.3566644647265536"><ele>596.5</ele><time>2026-04-18T07:52:28.999Z</time></trkpt><trkpt lat="37.54971755879013" lon="-4.356760755026638"><ele>595.0</ele><time>2026-04-18T07:52:29.999Z</time></trkpt><trkpt lat="37.54971263842235" lon="-4.356854253866186"><ele>593.5</ele><time>2026-04-18T07:52:30.998Z</time></trkpt><trkpt lat="37.549709405253374" lon="-4.356941415468949"><ele>592.0</ele><time>2026-04-18T07:52:31.998Z</time></trkpt><trkpt lat="37.54970859677505" lon="-4.3570809603323015"><ele>592.0</ele><time>2026-04-18T07:52:33.998Z</time></trkpt><trkpt lat="37.54971750298431" lon="-4.357168381936354"><ele>592.0</ele><time>2026-04-18T07:52:35.998Z</time></trkpt><trkpt lat="37.54978166606906" lon="-4.357242150654395"><ele>592.0</ele><time>2026-04-18T07:52:38.998Z</time></trkpt><trkpt lat="37.54987850025194" lon="-4.357223871999282"><ele>592.0</ele><time>2026-04-18T07:52:40.998Z</time></trkpt><trkpt lat="37.549984023070905" lon="-4.357221128308884"><ele>592.0</ele><time>2026-04-18T07:52:42.998Z</time></trkpt><trkpt lat="37.55010791989824" lon="-4.357217717728512"><ele>591.5</ele><time>2026-04-18T07:52:44.998Z</time></trkpt><trkpt lat="37.550177286696886" lon="-4.357215150339273"><ele>591.0</ele><time>2026-04-18T07:52:45.998Z</time></trkpt><trkpt lat="37.55024942464733" lon="-4.357214622063204"><ele>590.5</ele><time>2026-04-18T07:52:46.998Z</time></trkpt><trkpt lat="37.55032190251942" lon="-4.357212566996663"><ele>590.0</ele><time>2026-04-18T07:52:47.998Z</time></trkpt><trkpt lat="37.550400074318596" lon="-4.357203640412586"><ele>589.5</ele><time>2026-04-18T07:52:48.998Z</time></trkpt><trkpt lat="37.5504772942096" lon="-4.357185562144828"><ele>589.0</ele><time>2026-04-18T07:52:49.998Z</time></trkpt><trkpt lat="37.550556068017976" lon="-4.35718681724775"><ele>589.0</ele><time>2026-04-18T07:52:50.998Z</time></trkpt><trkpt lat="37.55063654860813" lon="-4.357187927544364"><ele>589.0</ele><time>2026-04-18T07:52:51.998Z</time></trkpt><trkpt lat="37.55071635731707" lon="-4.357198176821794"><ele>589.0</ele><time>2026-04-18T07:52:53.001Z</time></trkpt><trkpt lat="37.55079624171686" lon="-4.357215401948868"><ele>589.0</ele><time>2026-04-18T07:52:54.001Z</time></trkpt><trkpt lat="37.55087547726086" lon="-4.357230478888257"><ele>589.0</ele><time>2026-04-18T07:52:55.001Z</time></trkpt><trkpt lat="37.55095239466327" lon="-4.357247126821771"><ele>589.0</ele><time>2026-04-18T07:52:56.001Z</time></trkpt><trkpt lat="37.551027295395016" lon="-4.357264770890646"><ele>587.8571428571429</ele><time>2026-04-18T07:52:57.001Z</time></trkpt><trkpt lat="37.55109619724453" lon="-4.3572842273319345"><ele>586.7142857142857</ele><time>2026-04-18T07:52:58.001Z</time></trkpt><trkpt lat="37.55116591806885" lon="-4.357300154121213"><ele>585.5714285714286</ele><time>2026-04-18T07:52:59.001Z</time></trkpt><trkpt lat="37.5512352819092" lon="-4.357316578857931"><ele>584.4285714285714</ele><time>2026-04-18T07:53:00.001Z</time></trkpt><trkpt lat="37.55130288242832" lon="-4.357332771402538"><ele>583.2857142857142</ele><time>2026-04-18T07:53:01.001Z</time></trkpt><trkpt lat="37.55136854064527" lon="-4.357352790555847"><ele>582.1428571428571</ele><time>2026-04-18T07:53:02.001Z</time></trkpt><trkpt lat="37.551433392239545" lon="-4.3573761291213975"><ele>581.0</ele><time>2026-04-18T07:53:03.001Z</time></trkpt><trkpt lat="37.55149475757474" lon="-4.357403538800269"><ele>581.0</ele><time>2026-04-18T07:53:04.001Z</time></trkpt><trkpt lat="37.551551773289866" lon="-4.357440402473036"><ele>581.0</ele><time>2026-04-18T07:53:05.001Z</time></trkpt><trkpt lat="37.55160222132334" lon="-4.357489500651568"><ele>581.0</ele><time>2026-04-18T07:53:06.001Z</time></trkpt><trkpt lat="37.55169069432623" lon="-4.357582061965016"><ele>581.0</ele><time>2026-04-18T07:53:08Z</time></trkpt><trkpt lat="37.55177958125236" lon="-4.357668624342022"><ele>581.0</ele><time>2026-04-18T07:53:10Z</time></trkpt><trkpt lat="37.551866514748" lon="-4.357758480967861"><ele>581.0</ele><time>2026-04-18T07:53:12Z</time></trkpt><trkpt lat="37.55194344948313" lon="-4.357835925792753"><ele>581.0</ele><time>2026-04-18T07:53:14Z</time></trkpt><trkpt lat="37.5520089557036" lon="-4.357874321322399"><ele>581.0</ele><time>2026-04-18T07:53:16Z</time></trkpt><trkpt lat="37.55206666920262" lon="-4.357803267059931"><ele>581.0</ele><time>2026-04-18T07:53:18Z</time></trkpt><trkpt lat="37.55212710216927" lon="-4.357712936149628"><ele>581.0</ele><time>2026-04-18T07:53:20Z</time></trkpt><trkpt lat="37.55219872048397" lon="-4.357620923610094"><ele>581.0</ele><time>2026-04-18T07:53:22Z</time></trkpt><trkpt lat="37.55226050952265" lon="-4.357537381353636"><ele>581.6666666666666</ele><time>2026-04-18T07:53:24Z</time></trkpt><trkpt lat="37.55231808961463" lon="-4.357459328752269"><ele>582.3333333333333</ele><time>2026-04-18T07:53:26Z</time></trkpt><trkpt lat="37.552374410256455" lon="-4.357381906206982"><ele>583.0</ele><time>2026-04-18T07:53:28Z</time></trkpt><trkpt lat="37.552422156671625" lon="-4.357312180047724"><ele>583.6666666666666</ele><time>2026-04-18T07:53:30Z</time></trkpt><trkpt lat="37.55245787555838" lon="-4.3572413839447925"><ele>584.3333333333334</ele><time>2026-04-18T07:53:32Z</time></trkpt><trkpt lat="37.55250852215415" lon="-4.3571497049867345"><ele>585.0</ele><time>2026-04-18T07:53:35Z</time></trkpt><trkpt lat="37.55255737918995" lon="-4.357089470342884"><ele>585.0</ele><time>2026-04-18T07:53:39Z</time></trkpt><trkpt lat="37.55263402902488" lon="-4.357159580894866"><ele>585.0</ele><time>2026-04-18T07:53:42Z</time></trkpt><trkpt lat="37.55269617636373" lon="-4.357220839162007"><ele>585.0</ele><time>2026-04-18T07:53:44Z</time></trkpt><trkpt lat="37.55277331180454" lon="-4.35727828352652"><ele>585.0</ele><time>2026-04-18T07:53:46Z</time></trkpt><trkpt lat="37.55284480413276" lon="-4.357332690333872"><ele>585.0</ele><time>2026-04-18T07:53:48Z</time></trkpt><trkpt lat="37.55291180971798" lon="-4.357378738470891"><ele>585.0</ele><time>2026-04-18T07:53:51Z</time></trkpt><trkpt lat="37.55297587231938" lon="-4.357357307527385"><ele>592.0</ele><time>2026-04-18T07:53:55.999Z</time></trkpt><trkpt lat="37.553015852811626" lon="-4.357426279626865"><ele>592.0</ele><time>2026-04-18T07:54:00.999Z</time></trkpt><trkpt lat="37.55306404762135" lon="-4.35749182880794"><ele>592.0</ele><time>2026-04-18T07:54:06.999Z</time></trkpt></trkseg><trkseg><trkpt lat="37.552712193364115" lon="-4.35719846131448"><ele>590.0000000000001</ele><time>2026-04-18T08:30:31.999Z</time></trkpt><trkpt lat="37.55264228012255" lon="-4.35715966453763"><ele>590.0</ele><time>2026-04-18T08:30:37.999Z</time></trkpt><trkpt lat="37.55259021911336" lon="-4.357094381104717"><ele>590.0</ele><time>2026-04-18T08:30:43.999Z</time></trkpt><trkpt lat="37.55258446165264" lon="-4.35701080919716"><ele>590.0</ele><time>2026-04-18T08:30:59.999Z</time></trkpt><trkpt lat="37.552634911012085" lon="-4.3569467238701876"><ele>590.0</ele><time>2026-04-18T08:31:03.998Z</time></trkpt><trkpt lat="37.55267265456682" lon="-4.356879973649659"><ele>590.0000000000001</ele><time>2026-04-18T08:31:07.998Z</time></trkpt><trkpt lat="37.55272509249421" lon="-4.356815567825122"><ele>590.0</ele><time>2026-04-18T08:31:11.998Z</time></trkpt><trkpt lat="37.55276685171129" lon="-4.356739954368483"><ele>590.0000000000001</ele><time>2026-04-18T08:31:15.998Z</time></trkpt><trkpt lat="37.55279276779261" lon="-4.356662638664324"><ele>590.0</ele><time>2026-04-18T08:31:18.998Z</time></trkpt><trkpt lat="37.552824827031905" lon="-4.356585868065757"><ele>590.0</ele><time>2026-04-18T08:31:21.998Z</time></trkpt><trkpt lat="37.552858074843435" lon="-4.356501965297717"><ele>590.0</ele><time>2026-04-18T08:31:25.998Z</time></trkpt><trkpt lat="37.55289244814129" lon="-4.356420978723805"><ele>590.0</ele><time>2026-04-18T08:31:29.998Z</time></trkpt><trkpt lat="37.552921287168076" lon="-4.35634847202962"><ele>590.0000000000001</ele><time>2026-04-18T08:31:32.998Z</time></trkpt><trkpt lat="37.552952919572476" lon="-4.356260974582919"><ele>590.0</ele><time>2026-04-18T08:31:35.998Z</time></trkpt><trkpt lat="37.55298585366647" lon="-4.356167670382173"><ele>591.1666666666666</ele><time>2026-04-18T08:31:38.998Z</time></trkpt><trkpt lat="37.55300972466021" lon="-4.356076692793097"><ele>592.3333333333333</ele><time>2026-04-18T08:31:41.998Z</time></trkpt><trkpt lat="37.553042754152486" lon="-4.35597872353615"><ele>593.5</ele><time>2026-04-18T08:31:44.998Z</time></trkpt><trkpt lat="37.55307293038099" lon="-4.35588752416637"><ele>594.6666666666666</ele><time>2026-04-18T08:31:47.997Z</time></trkpt><trkpt lat="37.55310253615054" lon="-4.3557961923940285"><ele>595.8333333333334</ele><time>2026-04-18T08:31:50.997Z</time></trkpt><trkpt lat="37.553132416072074" lon="-4.355705930095987"><ele>597.0</ele><time>2026-04-18T08:31:53.997Z</time></trkpt><trkpt lat="37.55316506298736" lon="-4.355615469039623"><ele>597.8571428571429</ele><time>2026-04-18T08:31:56.997Z</time></trkpt><trkpt lat="37.55319478159329" lon="-4.355527713566501"><ele>598.7142857142858</ele><time>2026-04-18T08:31:59.997Z</time></trkpt><trkpt lat="37.55321951614345" lon="-4.355434483536576"><ele>599.5714285714287</ele><time>2026-04-18T08:32:02.997Z</time></trkpt><trkpt lat="37.553231978861945" lon="-4.355337349628502"><ele>600.4285714285714</ele><time>2026-04-18T08:32:05.997Z</time></trkpt><trkpt lat="37.55324871358219" lon="-4.355241702973237"><ele>601.2857142857142</ele><time>2026-04-18T08:32:08.997Z</time></trkpt><trkpt lat="37.55328856965436" lon="-4.355178298974545"><ele>602.1428571428572</ele><time>2026-04-18T08:32:12Z</time></trkpt><trkpt lat="37.55335514080624" lon="-4.355179171289093"><ele>603.0</ele><time>2026-04-18T08:32:14Z</time></trkpt><trkpt lat="37.55341645119638" lon="-4.355203715519699"><ele>603.0</ele><time>2026-04-18T08:32:16Z</time></trkpt><trkpt lat="37.553481472184906" lon="-4.355210067922807"><ele>603.0</ele><time>2026-04-18T08:32:18Z</time></trkpt><trkpt lat="37.55355360457268" lon="-4.355233654901246"><ele>603.0</ele><time>2026-04-18T08:32:20Z</time></trkpt><trkpt lat="37.553617761460984" lon="-4.355248372338597"><ele>603.0</ele><time>2026-04-18T08:32:22Z</time></trkpt><trkpt lat="37.5537056557731" lon="-4.355263186107298"><ele>603.0</ele><time>2026-04-18T08:32:25Z</time></trkpt><trkpt lat="37.55378940024732" lon="-4.355313301939818"><ele>603.0</ele><time>2026-04-18T08:32:27.999Z</time></trkpt><trkpt lat="37.55383859866496" lon="-4.355373306530798"><ele>603.6666666666666</ele><time>2026-04-18T08:32:29.999Z</time></trkpt><trkpt lat="37.553892932389424" lon="-4.35545078418367"><ele>604.3333333333334</ele><time>2026-04-18T08:32:32.999Z</time></trkpt><trkpt lat="37.55395706092447" lon="-4.355411251232507"><ele>605.0</ele><time>2026-04-18T08:32:34.999Z</time></trkpt><trkpt lat="37.554016277773506" lon="-4.355332882800971"><ele>605.6666666666667</ele><time>2026-04-18T08:32:37.999Z</time></trkpt><trkpt lat="37.55407063469465" lon="-4.355279160277568"><ele>606.3333333333334</ele><time>2026-04-18T08:32:40.999Z</time></trkpt><trkpt lat="37.5541133537257" lon="-4.3552006168251385"><ele>607.0</ele><time>2026-04-18T08:32:45.999Z</time></trkpt><trkpt lat="37.554164449258536" lon="-4.35512956389383"><ele>606.9999999999999</ele><time>2026-04-18T08:32:49.999Z</time></trkpt><trkpt lat="37.55420777318773" lon="-4.355054574981877"><ele>607.0</ele><time>2026-04-18T08:32:53.999Z</time></trkpt><trkpt lat="37.55425001635757" lon="-4.354972542215664"><ele>607.0</ele><time>2026-04-18T08:32:57.999Z</time></trkpt><trkpt lat="37.55429177762388" lon="-4.354898275337844"><ele>607.0</ele><time>2026-04-18T08:33:01.999Z</time></trkpt><trkpt lat="37.554332618708045" lon="-4.354829571850536"><ele>607.0</ele><time>2026-04-18T08:33:05.999Z</time></trkpt><trkpt lat="37.55438430445682" lon="-4.3547686833376495"><ele>606.9999999999999</ele><time>2026-04-18T08:33:09.999Z</time></trkpt><trkpt lat="37.55443465166349" lon="-4.354718056840829"><ele>607.0</ele><time>2026-04-18T08:33:12.998Z</time></trkpt><trkpt lat="37.55447212336603" lon="-4.354627127330018"><ele>607.7142857142857</ele><time>2026-04-18T08:33:16.998Z</time></trkpt><trkpt lat="37.554508321681176" lon="-4.354549413670871"><ele>608.4285714285714</ele><time>2026-04-18T08:33:19.998Z</time></trkpt><trkpt lat="37.554543316659924" lon="-4.354461351613632"><ele>609.1428571428571</ele><time>2026-04-18T08:33:22.998Z</time></trkpt><trkpt lat="37.55457608629526" lon="-4.35439066719037"><ele>609.8571428571429</ele><time>2026-04-18T08:33:25.998Z</time></trkpt><trkpt lat="37.55461056966366" lon="-4.35432204640191"><ele>610.5714285714286</ele><time>2026-04-18T08:33:28.998Z</time></trkpt><trkpt lat="37.55465263263705" lon="-4.3542590986861445"><ele>611.2857142857142</ele><time>2026-04-18T08:33:31.998Z</time></trkpt><trkpt lat="37.554712682616774" lon="-4.3541854316300395"><ele>612.0</ele><time>2026-04-18T08:33:35.998Z</time></trkpt><trkpt lat="37.55475437714513" lon="-4.354098927400721"><ele>614.5</ele><time>2026-04-18T08:33:39.998Z</time></trkpt><trkpt lat="37.55479955547466" lon="-4.354022973569468"><ele>617.0</ele><time>2026-04-18T08:33:43.998Z</time></trkpt><trkpt lat="37.55485003737939" lon="-4.353940205341242"><ele>619.5</ele><time>2026-04-18T08:33:47.998Z</time></trkpt><trkpt lat="37.55489436944864" lon="-4.353860781736184"><ele>622.0</ele><time>2026-04-18T08:33:50.998Z</time></trkpt><trkpt lat="37.55494521235992" lon="-4.353782409426018"><ele>624.5</ele><time>2026-04-18T08:33:54.998Z</time></trkpt><trkpt lat="37.55499247203785" lon="-4.353703215192818"><ele>627.0</ele><time>2026-04-18T08:33:58.997Z</time></trkpt><trkpt lat="37.555046870601196" lon="-4.35362448835403"><ele>627.1428571428571</ele><time>2026-04-18T08:34:02.997Z</time></trkpt><trkpt lat="37.55509440409328" lon="-4.353545670396294"><ele>627.2857142857142</ele><time>2026-04-18T08:34:06.997Z</time></trkpt><trkpt lat="37.555145711074246" lon="-4.353464745668584"><ele>627.4285714285713</ele><time>2026-04-18T08:34:10.997Z</time></trkpt><trkpt lat="37.55518547864897" lon="-4.353401148357449"><ele>627.5714285714286</ele><time>2026-04-18T08:34:14.999Z</time></trkpt><trkpt lat="37.555231214530046" lon="-4.353346364166876"><ele>627.7142857142857</ele><time>2026-04-18T08:34:17.999Z</time></trkpt><trkpt lat="37.5552910148235" lon="-4.353281455804356"><ele>627.8571428571428</ele><time>2026-04-18T08:34:22Z</time></trkpt><trkpt lat="37.55536098746107" lon="-4.353236326372315"><ele>628.0</ele><time>2026-04-18T08:34:25.999Z</time></trkpt><trkpt lat="37.555423480116595" lon="-4.353221171677998"><ele>629.8571428571428</ele><time>2026-04-18T08:34:29Z</time></trkpt><trkpt lat="37.55550026487355" lon="-4.353236927373625"><ele>631.7142857142857</ele><time>2026-04-18T08:34:32.999Z</time></trkpt><trkpt lat="37.555567242916695" lon="-4.353271244505624"><ele>633.5714285714286</ele><time>2026-04-18T08:34:36.999Z</time></trkpt><trkpt lat="37.555640190703365" lon="-4.353284099584166"><ele>635.4285714285713</ele><time>2026-04-18T08:34:40.999Z</time></trkpt><trkpt lat="37.555692522508785" lon="-4.353233230747479"><ele>637.2857142857142</ele><time>2026-04-18T08:34:45.999Z</time></trkpt><trkpt lat="37.55573878069403" lon="-4.353162838321503"><ele>639.1428571428571</ele><time>2026-04-18T08:34:50.999Z</time></trkpt><trkpt lat="37.55578468525237" lon="-4.3530989957792166"><ele>641.0</ele><time>2026-04-18T08:34:54.999Z</time></trkpt><trkpt lat="37.55581627386515" lon="-4.353017614274519"><ele>641.0</ele><time>2026-04-18T08:34:58.999Z</time></trkpt><trkpt lat="37.55586373083694" lon="-4.352952104206267"><ele>641.0</ele><time>2026-04-18T08:35:02.999Z</time></trkpt><trkpt lat="37.55590103419548" lon="-4.3528726453375315"><ele>641.0</ele><time>2026-04-18T08:35:06.999Z</time></trkpt><trkpt lat="37.55595869072256" lon="-4.352820851852709"><ele>641.0</ele><time>2026-04-18T08:35:10.999Z</time></trkpt><trkpt lat="37.55599423823647" lon="-4.3527446793491995"><ele>641.0</ele><time>2026-04-18T08:35:14.999Z</time></trkpt><trkpt lat="37.55604130194633" lon="-4.352656224351356"><ele>641.0</ele><time>2026-04-18T08:35:20.998Z</time></trkpt><trkpt lat="37.55609501347153" lon="-4.352597065227342"><ele>641.0</ele><time>2026-04-18T08:35:24.998Z</time></trkpt><trkpt lat="37.556147800915326" lon="-4.352525281274773"><ele>641.0</ele><time>2026-04-18T08:35:28.998Z</time></trkpt><trkpt lat="37.55620159525805" lon="-4.35245145982802"><ele>641.0</ele><time>2026-04-18T08:35:32.998Z</time></trkpt><trkpt lat="37.556258732685" lon="-4.352376434457352"><ele>641.0</ele><time>2026-04-18T08:35:36.998Z</time></trkpt><trkpt lat="37.55630413889533" lon="-4.352320681025693"><ele>641.0</ele><time>2026-04-18T08:35:39.998Z</time></trkpt><trkpt lat="37.55635765335216" lon="-4.3522446761905895"><ele>641.0</ele><time>2026-04-18T08:35:43.998Z</time></trkpt><trkpt lat="37.55640404596772" lon="-4.352190058120836"><ele>641.0</ele><time>2026-04-18T08:35:46.998Z</time></trkpt><trkpt lat="37.556476319871834" lon="-4.352146200095054"><ele>643.1428571428571</ele><time>2026-04-18T08:35:50.998Z</time></trkpt><trkpt lat="37.55655784992569" lon="-4.352134342381797"><ele>645.2857142857142</ele><time>2026-04-18T08:35:54.998Z</time></trkpt><trkpt lat="37.556620662630856" lon="-4.352140384891612"><ele>647.4285714285713</ele><time>2026-04-18T08:35:57.998Z</time></trkpt><trkpt lat="37.556703335625464" lon="-4.3521530344350765"><ele>649.5714285714286</ele><time>2026-04-18T08:36:01.998Z</time></trkpt><trkpt lat="37.55678375856698" lon="-4.352175645047779"><ele>651.7142857142857</ele><time>2026-04-18T08:36:05.997Z</time></trkpt><trkpt lat="37.556848908750325" lon="-4.35218793414424"><ele>653.8571428571428</ele><time>2026-04-18T08:36:08.997Z</time></trkpt><trkpt lat="37.55691382314893" lon="-4.352199653751139"><ele>656.0</ele><time>2026-04-18T08:36:11.997Z</time></trkpt><trkpt lat="37.556982433188104" lon="-4.352214755047738"><ele>657.7142857142857</ele><time>2026-04-18T08:36:14.997Z</time></trkpt><trkpt lat="37.557056090079385" lon="-4.352226855768922"><ele>659.4285714285714</ele><time>2026-04-18T08:36:17.997Z</time></trkpt><trkpt lat="37.55712747889976" lon="-4.3522399735097315"><ele>661.1428571428571</ele><time>2026-04-18T08:36:21Z</time></trkpt><trkpt lat="37.55719601921822" lon="-4.3522530959227215"><ele>662.8571428571429</ele><time>2026-04-18T08:36:24Z</time></trkpt><trkpt lat="37.55726705368921" lon="-4.352262114905886"><ele>664.5714285714286</ele><time>2026-04-18T08:36:27Z</time></trkpt><trkpt lat="37.55733536902896" lon="-4.352270976667639"><ele>666.2857142857142</ele><time>2026-04-18T08:36:30Z</time></trkpt><trkpt lat="37.557403752340356" lon="-4.352284159280664"><ele>668.0</ele><time>2026-04-18T08:36:33Z</time></trkpt><trkpt lat="37.55746998097972" lon="-4.352286153031736"><ele>668.0</ele><time>2026-04-18T08:36:35.999Z</time></trkpt><trkpt lat="37.55753853956706" lon="-4.352295878879675"><ele>668.0</ele><time>2026-04-18T08:36:38.999Z</time></trkpt><trkpt lat="37.55760516172564" lon="-4.352304862389307"><ele>668.0</ele><time>2026-04-18T08:36:41.999Z</time></trkpt><trkpt lat="37.557673211179576" lon="-4.352307789769133"><ele>668.0</ele><time>2026-04-18T08:36:44.999Z</time></trkpt><trkpt lat="37.557741028647655" lon="-4.352311155366603"><ele>668.0</ele><time>2026-04-18T08:36:47.999Z</time></trkpt><trkpt lat="37.55780840650932" lon="-4.352320005957554"><ele>668.0</ele><time>2026-04-18T08:36:50.999Z</time></trkpt><trkpt lat="37.557881524030854" lon="-4.352316399836602"><ele>668.0</ele><time>2026-04-18T08:36:53.999Z</time></trkpt><trkpt lat="37.5579511949735" lon="-4.352312380730756"><ele>669.4285714285714</ele><time>2026-04-18T08:36:56.999Z</time></trkpt><trkpt lat="37.55801904744963" lon="-4.352300564294958"><ele>670.8571428571429</ele><time>2026-04-18T08:36:59.999Z</time></trkpt><trkpt lat="37.5580944318451" lon="-4.352281513478347"><ele>672.2857142857142</ele><time>2026-04-18T08:37:02.999Z</time></trkpt><trkpt lat="37.55816206905201" lon="-4.352256045740719"><ele>673.7142857142858</ele><time>2026-04-18T08:37:05.999Z</time></trkpt><trkpt lat="37.55822866177027" lon="-4.35223428303756"><ele>675.1428571428572</ele><time>2026-04-18T08:37:08.999Z</time></trkpt><trkpt lat="37.55829242776739" lon="-4.3522048925501675"><ele>676.5714285714286</ele><time>2026-04-18T08:37:11.999Z</time></trkpt><trkpt lat="37.5583641870043" lon="-4.352183596726824"><ele>678.0</ele><time>2026-04-18T08:37:14.999Z</time></trkpt><trkpt lat="37.55843392661188" lon="-4.352160417898846"><ele>679.1428571428571</ele><time>2026-04-18T08:37:17.999Z</time></trkpt><trkpt lat="37.558501555050434" lon="-4.352138473994583"><ele>680.2857142857143</ele><time>2026-04-18T08:37:20.999Z</time></trkpt><trkpt lat="37.55856959583207" lon="-4.3521135842490315"><ele>681.4285714285714</ele><time>2026-04-18T08:37:23.999Z</time></trkpt><trkpt lat="37.558638983723256" lon="-4.352094161173201"><ele>682.5714285714286</ele><time>2026-04-18T08:37:26.998Z</time></trkpt><trkpt lat="37.55870645017555" lon="-4.3520671664703965"><ele>683.7142857142858</ele><time>2026-04-18T08:37:29.998Z</time></trkpt><trkpt lat="37.558772817754544" lon="-4.352037005709929"><ele>684.8571428571429</ele><time>2026-04-18T08:37:32.998Z</time></trkpt><trkpt lat="37.558834110751754" lon="-4.3519994138410185"><ele>686.0</ele><time>2026-04-18T08:37:35.998Z</time></trkpt><trkpt lat="37.55889648212037" lon="-4.351967492428021"><ele>687.1428571428571</ele><time>2026-04-18T08:37:38.998Z</time></trkpt><trkpt lat="37.55896078765159" lon="-4.351937435120945"><ele>688.2857142857142</ele><time>2026-04-18T08:37:41.998Z</time></trkpt><trkpt lat="37.55902479921548" lon="-4.3519032014382395"><ele>689.4285714285714</ele><time>2026-04-18T08:37:44.998Z</time></trkpt><trkpt lat="37.559092272357425" lon="-4.351877015649018"><ele>690.5714285714286</ele><time>2026-04-18T08:37:47.998Z</time></trkpt><trkpt lat="37.55915850711899" lon="-4.351842213101969"><ele>691.7142857142857</ele><time>2026-04-18T08:37:50.998Z</time></trkpt><trkpt lat="37.559222962429345" lon="-4.351807651613819"><ele>692.8571428571429</ele><time>2026-04-18T08:37:53.998Z</time></trkpt><trkpt lat="37.55928875233912" lon="-4.351773449464291"><ele>694.0</ele><time>2026-04-18T08:37:56.998Z</time></trkpt><trkpt lat="37.559346941686634" lon="-4.351740030711497"><ele>694.0</ele><time>2026-04-18T08:37:59.998Z</time></trkpt><trkpt lat="37.559421906373984" lon="-4.35169050584059"><ele>694.0</ele><time>2026-04-18T08:38:03.998Z</time></trkpt><trkpt lat="37.55948135379669" lon="-4.351654012580292"><ele>694.0</ele><time>2026-04-18T08:38:06.998Z</time></trkpt><trkpt lat="37.55954179746698" lon="-4.35161676451702"><ele>694.0</ele><time>2026-04-18T08:38:09.998Z</time></trkpt><trkpt lat="37.55960255325831" lon="-4.351583509569514"><ele>694.0</ele><time>2026-04-18T08:38:12.997Z</time></trkpt><trkpt lat="37.559664157884136" lon="-4.351553723278025"><ele>694.0</ele><time>2026-04-18T08:38:15.997Z</time></trkpt><trkpt lat="37.559726594146426" lon="-4.351519362277203"><ele>694.0</ele><time>2026-04-18T08:38:18.997Z</time></trkpt><trkpt lat="37.559785707233665" lon="-4.3514872841152705"><ele>695.7142857142858</ele><time>2026-04-18T08:38:21.997Z</time></trkpt><trkpt lat="37.55984662149957" lon="-4.351458402214271"><ele>697.4285714285713</ele><time>2026-04-18T08:38:24.997Z</time></trkpt><trkpt lat="37.55990879026835" lon="-4.351432108962348"><ele>699.1428571428571</ele><time>2026-04-18T08:38:28Z</time></trkpt><trkpt lat="37.5599738010116" lon="-4.35141338362343"><ele>700.8571428571429</ele><time>2026-04-18T08:38:31Z</time></trkpt><trkpt lat="37.56004181391637" lon="-4.351402981766831"><ele>702.5714285714287</ele><time>2026-04-18T08:38:34Z</time></trkpt><trkpt lat="37.56011156406291" lon="-4.351395724111967"><ele>704.2857142857142</ele><time>2026-04-18T08:38:37Z</time></trkpt><trkpt lat="37.560174622638165" lon="-4.351396291166099"><ele>706.0</ele><time>2026-04-18T08:38:40Z</time></trkpt><trkpt lat="37.5602402360925" lon="-4.351394693909817"><ele>706.0</ele><time>2026-04-18T08:38:43Z</time></trkpt><trkpt lat="37.56030493521611" lon="-4.351392382486611"><ele>706.0</ele><time>2026-04-18T08:38:45.999Z</time></trkpt><trkpt lat="37.56036983360662" lon="-4.351383242564086"><ele>706.0</ele><time>2026-04-18T08:38:48.999Z</time></trkpt><trkpt lat="37.560434823381144" lon="-4.351379529482612"><ele>706.0</ele><time>2026-04-18T08:38:51.999Z</time></trkpt><trkpt lat="37.56050288452875" lon="-4.351378655949052"><ele>706.0</ele><time>2026-04-18T08:38:54.999Z</time></trkpt><trkpt lat="37.56056698112067" lon="-4.3513948454929166"><ele>706.0</ele><time>2026-04-18T08:38:57.999Z</time></trkpt><trkpt lat="37.56063382881227" lon="-4.351430212716222"><ele>706.0</ele><time>2026-04-18T08:39:01.999Z</time></trkpt><trkpt lat="37.56070324443501" lon="-4.351463743229839"><ele>708.8333333333334</ele><time>2026-04-18T08:39:05.999Z</time></trkpt><trkpt lat="37.56076747052944" lon="-4.351490029793308"><ele>711.6666666666667</ele><time>2026-04-18T08:39:09.999Z</time></trkpt><trkpt lat="37.560844536149276" lon="-4.351509222134638"><ele>714.5</ele><time>2026-04-18T08:39:13.999Z</time></trkpt><trkpt lat="37.560919787457046" lon="-4.351533677772776"><ele>717.3333333333334</ele><time>2026-04-18T08:39:17.999Z</time></trkpt><trkpt lat="37.56099529167691" lon="-4.351560265496525"><ele>720.1666666666666</ele><time>2026-04-18T08:39:21.999Z</time></trkpt><trkpt lat="37.561070751172224" lon="-4.351590970511362"><ele>723.0</ele><time>2026-04-18T08:39:25.999Z</time></trkpt><trkpt lat="37.56114126971786" lon="-4.351621188983582"><ele>724.5714285714287</ele><time>2026-04-18T08:39:29.999Z</time></trkpt><trkpt lat="37.5612113381469" lon="-4.3516528007525555"><ele>726.1428571428571</ele><time>2026-04-18T08:39:35.998Z</time></trkpt><trkpt lat="37.56127742957072" lon="-4.351684643413346"><ele>727.7142857142858</ele><time>2026-04-18T08:39:38.998Z</time></trkpt><trkpt lat="37.56135210147769" lon="-4.35170197632767"><ele>729.2857142857143</ele><time>2026-04-18T08:39:40.998Z</time></trkpt><trkpt lat="37.56142345752985" lon="-4.351703951672432"><ele>730.8571428571429</ele><time>2026-04-18T08:39:43.998Z</time></trkpt><trkpt lat="37.56150078763765" lon="-4.35170716265972"><ele>732.4285714285714</ele><time>2026-04-18T08:39:47.998Z</time></trkpt><trkpt lat="37.56156816988105" lon="-4.351699390614098"><ele>734.0</ele><time>2026-04-18T08:39:50.998Z</time></trkpt><trkpt lat="37.561629803998294" lon="-4.351678353301701"><ele>734.0</ele><time>2026-04-18T08:39:53.998Z</time></trkpt><trkpt lat="37.561713552425445" lon="-4.351676809217283"><ele>734.0</ele><time>2026-04-18T08:39:57.998Z</time></trkpt><trkpt lat="37.561775656003185" lon="-4.351659643171164"><ele>734.0</ele><time>2026-04-18T08:40:00.998Z</time></trkpt><trkpt lat="37.561841842834376" lon="-4.351652945443204"><ele>734.0</ele><time>2026-04-18T08:40:03.998Z</time></trkpt><trkpt lat="37.561913700192406" lon="-4.351638929288227"><ele>734.0</ele><time>2026-04-18T08:40:06.998Z</time></trkpt><trkpt lat="37.561985156299436" lon="-4.351624638115549"><ele>734.0</ele><time>2026-04-18T08:40:09.998Z</time></trkpt><trkpt lat="37.56206285010986" lon="-4.351605594203493"><ele>734.0</ele><time>2026-04-18T08:40:12.998Z</time></trkpt><trkpt lat="37.562147510446714" lon="-4.3515911010326045"><ele>734.6666666666666</ele><time>2026-04-18T08:40:15.998Z</time></trkpt><trkpt lat="37.56223746184545" lon="-4.351572219350878"><ele>735.3333333333333</ele><time>2026-04-18T08:40:18.998Z</time></trkpt><trkpt lat="37.562304171001976" lon="-4.351559590162435"><ele>736.0</ele><time>2026-04-18T08:40:20.998Z</time></trkpt><trkpt lat="37.56239095625584" lon="-4.351547344550788"><ele>736.6666666666666</ele><time>2026-04-18T08:40:23.997Z</time></trkpt><trkpt lat="37.56247657906635" lon="-4.351547317716319"><ele>737.3333333333334</ele><time>2026-04-18T08:40:26.997Z</time></trkpt><trkpt lat="37.56256643445198" lon="-4.351536157002317"><ele>738.0</ele><time>2026-04-18T08:40:29.997Z</time></trkpt><trkpt lat="37.56263117318522" lon="-4.351527357669813"><ele>738.0</ele><time>2026-04-18T08:40:32Z</time></trkpt><trkpt lat="37.5627263361544" lon="-4.351510886791017"><ele>738.0</ele><time>2026-04-18T08:40:35Z</time></trkpt><trkpt lat="37.56279642068576" lon="-4.351493909695342"><ele>738.0</ele><time>2026-04-18T08:40:37Z</time></trkpt><trkpt lat="37.56286476091055" lon="-4.351477087840622"><ele>738.0</ele><time>2026-04-18T08:40:39Z</time></trkpt><trkpt lat="37.56294195851621" lon="-4.351454466799564"><ele>738.0</ele><time>2026-04-18T08:40:41Z</time></trkpt><trkpt lat="37.56302074436061" lon="-4.351425565977735"><ele>738.0</ele><time>2026-04-18T08:40:43Z</time></trkpt><trkpt lat="37.56308763992978" lon="-4.35138652854596"><ele>736.0</ele><time>2026-04-18T08:40:45Z</time></trkpt><trkpt lat="37.56315754003637" lon="-4.351352498605651"><ele>734.0</ele><time>2026-04-18T08:40:47Z</time></trkpt><trkpt lat="37.56322513819364" lon="-4.351303033809249"><ele>732.0</ele><time>2026-04-18T08:40:48.999Z</time></trkpt><trkpt lat="37.563284506745745" lon="-4.351250865731502"><ele>730.0</ele><time>2026-04-18T08:40:50.999Z</time></trkpt><trkpt lat="37.56334744877501" lon="-4.35116912714049"><ele>728.0</ele><time>2026-04-18T08:40:53.999Z</time></trkpt><trkpt lat="37.5634096991569" lon="-4.351110047713665"><ele>726.0</ele><time>2026-04-18T08:40:55.999Z</time></trkpt><trkpt lat="37.56348910746733" lon="-4.351044948599702"><ele>726.0</ele><time>2026-04-18T08:40:57.999Z</time></trkpt><trkpt lat="37.563588118147145" lon="-4.35097581583997"><ele>726.0</ele><time>2026-04-18T08:40:59.999Z</time></trkpt><trkpt lat="37.56368228997158" lon="-4.350922676459595"><ele>726.0</ele><time>2026-04-18T08:41:01.999Z</time></trkpt><trkpt lat="37.56378100773944" lon="-4.350877815617034"><ele>726.0</ele><time>2026-04-18T08:41:03.999Z</time></trkpt><trkpt lat="37.563863907073596" lon="-4.350829283745404"><ele>726.0</ele><time>2026-04-18T08:41:05.999Z</time></trkpt><trkpt lat="37.5639354935171" lon="-4.3507946887911215"><ele>722.75</ele><time>2026-04-18T08:41:07.999Z</time></trkpt><trkpt lat="37.56403333392277" lon="-4.350765766349786"><ele>719.5</ele><time>2026-04-18T08:41:09.999Z</time></trkpt><trkpt lat="37.56416020526291" lon="-4.3507966412967205"><ele>716.25</ele><time>2026-04-18T08:41:11.999Z</time></trkpt><trkpt lat="37.56426911588497" lon="-4.350825215599341"><ele>713.0</ele><time>2026-04-18T08:41:13.999Z</time></trkpt><trkpt lat="37.56437521668774" lon="-4.35086450413253"><ele>713.0</ele><time>2026-04-18T08:41:15.999Z</time></trkpt><trkpt lat="37.56446839227656" lon="-4.350918385608202"><ele>713.0</ele><time>2026-04-18T08:41:17.999Z</time></trkpt><trkpt lat="37.564555343745916" lon="-4.350965036400824"><ele>713.0</ele><time>2026-04-18T08:41:19.999Z</time></trkpt><trkpt lat="37.56463800208061" lon="-4.351006618610351"><ele>713.0</ele><time>2026-04-18T08:41:21.999Z</time></trkpt><trkpt lat="37.56471899169073" lon="-4.351044210688223"><ele>713.0</ele><time>2026-04-18T08:41:23.999Z</time></trkpt><trkpt lat="37.564816975968796" lon="-4.351106881832937"><ele>713.1666666666666</ele><time>2026-04-18T08:41:25.999Z</time></trkpt><trkpt lat="37.56489303237567" lon="-4.351158164203095"><ele>713.3333333333333</ele><time>2026-04-18T08:41:27.999Z</time></trkpt><trkpt lat="37.56495278234194" lon="-4.3512315972411315"><ele>713.5</ele><time>2026-04-18T08:41:29.999Z</time></trkpt><trkpt lat="37.56502586787579" lon="-4.35131104715062"><ele>713.6666666666666</ele><time>2026-04-18T08:41:31.999Z</time></trkpt><trkpt lat="37.56508969168375" lon="-4.3513853566188505"><ele>713.8333333333334</ele><time>2026-04-18T08:41:33.999Z</time></trkpt><trkpt lat="37.5651585200584" lon="-4.3514623934413015"><ele>714.0</ele><time>2026-04-18T08:41:35.999Z</time></trkpt><trkpt lat="37.56522431325733" lon="-4.3515689919762925"><ele>714.0</ele><time>2026-04-18T08:41:37.999Z</time></trkpt><trkpt lat="37.56525970071789" lon="-4.351697675485592"><ele>714.0</ele><time>2026-04-18T08:41:39.998Z</time></trkpt><trkpt lat="37.56529634067879" lon="-4.351810703379187"><ele>714.0</ele><time>2026-04-18T08:41:41.998Z</time></trkpt><trkpt lat="37.56533707439659" lon="-4.351887893725962"><ele>714.0</ele><time>2026-04-18T08:41:43.998Z</time></trkpt><trkpt lat="37.565397096734536" lon="-4.351978121677206"><ele>714.0</ele><time>2026-04-18T08:41:46.998Z</time></trkpt><trkpt lat="37.565468512830016" lon="-4.352005918616275"><ele>714.0</ele><time>2026-04-18T08:41:48.998Z</time></trkpt><trkpt lat="37.56553405234065" lon="-4.352010644463705"><ele>710.1666666666666</ele><time>2026-04-18T08:41:50.998Z</time></trkpt><trkpt lat="37.565615595940514" lon="-4.352016532883893"><ele>706.3333333333334</ele><time>2026-04-18T08:41:52.998Z</time></trkpt><trkpt lat="37.565698347232605" lon="-4.352027973273869"><ele>702.5</ele><time>2026-04-18T08:41:54.998Z</time></trkpt><trkpt lat="37.565770994119866" lon="-4.352040000121864"><ele>698.6666666666667</ele><time>2026-04-18T08:41:56.998Z</time></trkpt><trkpt lat="37.56585033768382" lon="-4.352059972029829"><ele>694.8333333333334</ele><time>2026-04-18T08:41:58.998Z</time></trkpt><trkpt lat="37.565919246275676" lon="-4.352090258640618"><ele>691.0</ele><time>2026-04-18T08:42:00.998Z</time></trkpt><trkpt lat="37.56600089414578" lon="-4.352110819180165"><ele>691.0</ele><time>2026-04-18T08:42:02.998Z</time></trkpt><trkpt lat="37.566066827154486" lon="-4.352156163189878"><ele>691.0</ele><time>2026-04-18T08:42:03.998Z</time></trkpt><trkpt lat="37.56614065632521" lon="-4.352215820427526"><ele>691.0</ele><time>2026-04-18T08:42:05.998Z</time></trkpt><trkpt lat="37.56612940809042" lon="-4.352318463600652"><ele>691.0</ele><time>2026-04-18T08:42:07.998Z</time></trkpt><trkpt lat="37.566076091270276" lon="-4.3523686587808585"><ele>691.0</ele><time>2026-04-18T08:42:08.998Z</time></trkpt><trkpt lat="37.56600181437177" lon="-4.352442017338604"><ele>691.0</ele><time>2026-04-18T08:42:09.998Z</time></trkpt><trkpt lat="37.5659532844433" lon="-4.35251813373998"><ele>689.5999999999999</ele><time>2026-04-18T08:42:10.998Z</time></trkpt><trkpt lat="37.56592064510007" lon="-4.352617804275409"><ele>688.2</ele><time>2026-04-18T08:42:11.998Z</time></trkpt><trkpt lat="37.56592357422902" lon="-4.352724150277898"><ele>686.8</ele><time>2026-04-18T08:42:12.998Z</time></trkpt><trkpt lat="37.56593215730942" lon="-4.352808226836028"><ele>685.4000000000001</ele><time>2026-04-18T08:42:13.998Z</time></trkpt><trkpt lat="37.566015670570415" lon="-4.352945297529441"><ele>684.0</ele><time>2026-04-18T08:42:15.998Z</time></trkpt><trkpt lat="37.566094046704" lon="-4.353000523063287"><ele>681.2</ele><time>2026-04-18T08:42:16.998Z</time></trkpt><trkpt lat="37.56616975558333" lon="-4.353050347338483"><ele>678.4000000000001</ele><time>2026-04-18T08:42:17.998Z</time></trkpt><trkpt lat="37.566231245294226" lon="-4.353093734126368"><ele>675.6</ele><time>2026-04-18T08:42:18.998Z</time></trkpt><trkpt lat="37.56627749079339" lon="-4.353236051907358"><ele>672.8</ele><time>2026-04-18T08:42:20.998Z</time></trkpt><trkpt lat="37.566244057387" lon="-4.353337547553607"><ele>670.0</ele><time>2026-04-18T08:42:21.998Z</time></trkpt><trkpt lat="37.566190852964425" lon="-4.353430991839798"><ele>670.0</ele><time>2026-04-18T08:42:22.998Z</time></trkpt><trkpt lat="37.566140657179616" lon="-4.353528414357868"><ele>670.0</ele><time>2026-04-18T08:42:23.998Z</time></trkpt><trkpt lat="37.5660910737692" lon="-4.3536121228931615"><ele>670.0</ele><time>2026-04-18T08:42:24.998Z</time></trkpt><trkpt lat="37.56605959440071" lon="-4.353682338343905"><ele>670.0</ele><time>2026-04-18T08:42:25.998Z</time></trkpt><trkpt lat="37.56607737143378" lon="-4.353843852689345"><ele>670.0</ele><time>2026-04-18T08:42:27.997Z</time></trkpt><trkpt lat="37.56608436077077" lon="-4.353927566264508"><ele>670.0</ele><time>2026-04-18T08:42:28.997Z</time></trkpt><trkpt lat="37.56610814868205" lon="-4.354018208352798"><ele>669.8333333333334</ele><time>2026-04-18T08:42:29.997Z</time></trkpt><trkpt lat="37.56618096096812" lon="-4.3540432266958256"><ele>669.6666666666667</ele><time>2026-04-18T08:42:30.997Z</time></trkpt><trkpt lat="37.56626071669749" lon="-4.354078380555247"><ele>669.5</ele><time>2026-04-18T08:42:31.997Z</time></trkpt><trkpt lat="37.56631958623508" lon="-4.354125015881396"><ele>669.3333333333334</ele><time>2026-04-18T08:42:32.997Z</time></trkpt><trkpt lat="37.56639164986211" lon="-4.354165068399343"><ele>669.1666666666666</ele><time>2026-04-18T08:42:33.997Z</time></trkpt><trkpt lat="37.56646715216983" lon="-4.354186586157391"><ele>669.0</ele><time>2026-04-18T08:42:34.997Z</time></trkpt><trkpt lat="37.56653463603889" lon="-4.354210212866801"><ele>666.5</ele><time>2026-04-18T08:42:36Z</time></trkpt><trkpt lat="37.56661942823502" lon="-4.354228171283746"><ele>664.0</ele><time>2026-04-18T08:42:37Z</time></trkpt><trkpt lat="37.566703775814986" lon="-4.354264065433109"><ele>661.5</ele><time>2026-04-18T08:42:39Z</time></trkpt><trkpt lat="37.566733934713156" lon="-4.354175012987781"><ele>659.0</ele><time>2026-04-18T08:42:41Z</time></trkpt><trkpt lat="37.56677885591682" lon="-4.354085679640393"><ele>656.5</ele><time>2026-04-18T08:42:43Z</time></trkpt><trkpt lat="37.56687262904656" lon="-4.354114325514389"><ele>654.0</ele><time>2026-04-18T08:42:45Z</time></trkpt><trkpt lat="37.56694960071501" lon="-4.354135792815029"><ele>651.2</ele><time>2026-04-18T08:42:47Z</time></trkpt><trkpt lat="37.56704372991837" lon="-4.354150741451663"><ele>648.4000000000001</ele><time>2026-04-18T08:42:49Z</time></trkpt><trkpt lat="37.56715665804429" lon="-4.35417986527486"><ele>645.6</ele><time>2026-04-18T08:42:51Z</time></trkpt><trkpt lat="37.567265383291804" lon="-4.354209504466004"><ele>642.8</ele><time>2026-04-18T08:42:53Z</time></trkpt><trkpt lat="37.56732846271633" lon="-4.3542240849126745"><ele>640.0</ele><time>2026-04-18T08:42:54Z</time></trkpt><trkpt lat="37.56744062633041" lon="-4.354228926825974"><ele>640.0</ele><time>2026-04-18T08:42:56Z</time></trkpt><trkpt lat="37.5675124663128" lon="-4.354234536737972"><ele>640.0</ele><time>2026-04-18T08:42:59Z</time></trkpt><trkpt lat="37.56758075546791" lon="-4.3542917874599"><ele>640.0</ele><time>2026-04-18T08:43:01Z</time></trkpt><trkpt lat="37.56769814433114" lon="-4.354305119906448"><ele>640.0</ele><time>2026-04-18T08:43:02.999Z</time></trkpt><trkpt lat="37.567822343887734" lon="-4.354304629851878"><ele>640.0</ele><time>2026-04-18T08:43:04.999Z</time></trkpt><trkpt lat="37.56792491433488" lon="-4.354325647143603"><ele>638.2</ele><time>2026-04-18T08:43:06.999Z</time></trkpt><trkpt lat="37.5680132277715" lon="-4.354372203395905"><ele>636.4</ele><time>2026-04-18T08:43:08.999Z</time></trkpt><trkpt lat="37.568107193045975" lon="-4.354380516635392"><ele>634.6</ele><time>2026-04-18T08:43:10.999Z</time></trkpt><trkpt lat="37.568143315582226" lon="-4.354234832428727"><ele>632.8</ele><time>2026-04-18T08:43:12.999Z</time></trkpt><trkpt lat="37.56822715930311" lon="-4.354207052336002"><ele>631.0</ele><time>2026-04-18T08:43:14.999Z</time></trkpt><trkpt lat="37.568315260531506" lon="-4.354183471973369"><ele>631.0</ele><time>2026-04-18T08:43:16.999Z</time></trkpt><trkpt lat="37.56836009908162" lon="-4.354083835409808"><ele>631.0</ele><time>2026-04-18T08:43:18.999Z</time></trkpt><trkpt lat="37.56835736148545" lon="-4.35399182384332"><ele>631.0</ele><time>2026-04-18T08:43:20.999Z</time></trkpt><trkpt lat="37.568337346150756" lon="-4.353898164956472"><ele>631.0</ele><time>2026-04-18T08:43:22.999Z</time></trkpt><trkpt lat="37.56837455153705" lon="-4.353811556855637"><ele>631.0</ele><time>2026-04-18T08:43:25.999Z</time></trkpt><trkpt lat="37.568457977920474" lon="-4.353755474223146"><ele>631.0</ele><time>2026-04-18T08:43:27.999Z</time></trkpt><trkpt lat="37.56855477913879" lon="-4.353696826275588"><ele>630.0</ele><time>2026-04-18T08:43:29.999Z</time></trkpt><trkpt lat="37.568634717121576" lon="-4.353684728513824"><ele>629.0</ele><time>2026-04-18T08:43:30.999Z</time></trkpt><trkpt lat="37.568693469193775" lon="-4.3536288129863525"><ele>628.0</ele><time>2026-04-18T08:43:31.999Z</time></trkpt><trkpt lat="37.56875134722428" lon="-4.353556034404352"><ele>627.0</ele><time>2026-04-18T08:43:32.999Z</time></trkpt><trkpt lat="37.568816040471255" lon="-4.353506469919206"><ele>626.0</ele><time>2026-04-18T08:43:33.999Z</time></trkpt><trkpt lat="37.568882817839174" lon="-4.353509011865416"><ele>625.0</ele><time>2026-04-18T08:43:34.999Z</time></trkpt><trkpt lat="37.56894309167185" lon="-4.353540682941952"><ele>624.0</ele><time>2026-04-18T08:43:35.999Z</time></trkpt><trkpt lat="37.5690546570298" lon="-4.35359886564289"><ele>622.1666666666666</ele><time>2026-04-18T08:43:37.999Z</time></trkpt><trkpt lat="37.56911380607818" lon="-4.353566760762146"><ele>620.3333333333334</ele><time>2026-04-18T08:43:38.999Z</time></trkpt><trkpt lat="37.569178661894234" lon="-4.353516582725183"><ele>618.5</ele><time>2026-04-18T08:43:39.999Z</time></trkpt><trkpt lat="37.56928548092414" lon="-4.35354500090572"><ele>616.6666666666667</ele><time>2026-04-18T08:43:41.999Z</time></trkpt><trkpt lat="37.5693595733865" lon="-4.353563765575488"><ele>614.8333333333334</ele><time>2026-04-18T08:43:43.999Z</time></trkpt><trkpt lat="37.569441222263144" lon="-4.353597168270545"><ele>613.0</ele><time>2026-04-18T08:43:45.999Z</time></trkpt><trkpt lat="37.569537586999" lon="-4.353609678554193"><ele>612.25</ele><time>2026-04-18T08:43:47.999Z</time></trkpt><trkpt lat="37.56964891621155" lon="-4.353634583717543"><ele>611.5</ele><time>2026-04-18T08:43:49.999Z</time></trkpt><trkpt lat="37.56975905649182" lon="-4.353632611733006"><ele>610.75</ele><time>2026-04-18T08:43:51.999Z</time></trkpt><trkpt lat="37.56987849443242" lon="-4.353639783276579"><ele>610.0</ele><time>2026-04-18T08:43:53.998Z</time></trkpt><trkpt lat="37.569985072454635" lon="-4.353650124978308"><ele>610.0</ele><time>2026-04-18T08:43:55.998Z</time></trkpt><trkpt lat="37.5700678869269" lon="-4.35366416848255"><ele>610.0</ele><time>2026-04-18T08:43:57.998Z</time></trkpt><trkpt lat="37.570140269298925" lon="-4.353676032325144"><ele>610.0</ele><time>2026-04-18T08:43:59.998Z</time></trkpt><trkpt lat="37.570226851237386" lon="-4.3537107215610495"><ele>610.0</ele><time>2026-04-18T08:44:02.998Z</time></trkpt><trkpt lat="37.57031335010609" lon="-4.353711523323016"><ele>610.0</ele><time>2026-04-18T08:44:05.998Z</time></trkpt><trkpt lat="37.570401669950584" lon="-4.353715141485462"><ele>610.0</ele><time>2026-04-18T08:44:08.998Z</time></trkpt><trkpt lat="37.570492611169804" lon="-4.353755560739065"><ele>609.6666666666667</ele><time>2026-04-18T08:44:11.998Z</time></trkpt><trkpt lat="37.5705781895185" lon="-4.353778960877261"><ele>609.3333333333334</ele><time>2026-04-18T08:44:13.998Z</time></trkpt><trkpt lat="37.57065854311598" lon="-4.353828158847079"><ele>609.0</ele><time>2026-04-18T08:44:15.998Z</time></trkpt><trkpt lat="37.570727441676254" lon="-4.353903196626657"><ele>608.6666666666666</ele><time>2026-04-18T08:44:17.998Z</time></trkpt><trkpt lat="37.57077700121941" lon="-4.353956185367823"><ele>608.3333333333333</ele><time>2026-04-18T08:44:19.998Z</time></trkpt><trkpt lat="37.57083766350502" lon="-4.3540108207125945"><ele>608.0</ele><time>2026-04-18T08:44:22.998Z</time></trkpt><trkpt lat="37.57089542112435" lon="-4.354083764761202"><ele>608.3333333333333</ele><time>2026-04-18T08:44:25.998Z</time></trkpt><trkpt lat="37.570953586689996" lon="-4.354164741695598"><ele>608.6666666666666</ele><time>2026-04-18T08:44:28.998Z</time></trkpt><trkpt lat="37.57101571663557" lon="-4.354236708732351"><ele>609.0</ele><time>2026-04-18T08:44:30.998Z</time></trkpt><trkpt lat="37.571104136910414" lon="-4.354326592152448"><ele>609.3333333333334</ele><time>2026-04-18T08:44:32.998Z</time></trkpt><trkpt lat="37.571155691930024" lon="-4.354386266998718"><ele>609.6666666666667</ele><time>2026-04-18T08:44:33.998Z</time></trkpt><trkpt lat="37.5712103338164" lon="-4.35444842957377"><ele>610.0</ele><time>2026-04-18T08:44:34.998Z</time></trkpt><trkpt lat="37.571315374614095" lon="-4.354509709779344"><ele>610.0</ele><time>2026-04-18T08:44:36.998Z</time></trkpt><trkpt lat="37.57141456409498" lon="-4.354525723551677"><ele>610.0</ele><time>2026-04-18T08:44:38.998Z</time></trkpt><trkpt lat="37.571477632801496" lon="-4.354585325955361"><ele>610.0</ele><time>2026-04-18T08:44:40.998Z</time></trkpt><trkpt lat="37.57156110482135" lon="-4.354625369767265"><ele>610.0</ele><time>2026-04-18T08:44:44Z</time></trkpt><trkpt lat="37.571644440875424" lon="-4.354614616462159"><ele>610.0</ele><time>2026-04-18T08:44:47Z</time></trkpt><trkpt lat="37.57173535767779" lon="-4.354617716361932"><ele>610.0</ele><time>2026-04-18T08:44:50Z</time></trkpt><trkpt lat="37.57179537059177" lon="-4.35466300714848"><ele>612.0</ele><time>2026-04-18T08:44:52Z</time></trkpt><trkpt lat="37.57186217864183" lon="-4.3547074967263155"><ele>614.0</ele><time>2026-04-18T08:44:55Z</time></trkpt><trkpt lat="37.57193853022634" lon="-4.35474720900866"><ele>616.0</ele><time>2026-04-18T08:44:58Z</time></trkpt><trkpt lat="37.572006661493525" lon="-4.354781920067038"><ele>618.0</ele><time>2026-04-18T08:45:00Z</time></trkpt><trkpt lat="37.57206976919866" lon="-4.35483143617268"><ele>620.0</ele><time>2026-04-18T08:45:02Z</time></trkpt><trkpt lat="37.57212832022232" lon="-4.3548616709343175"><ele>622.0</ele><time>2026-04-18T08:45:04Z</time></trkpt><trkpt lat="37.57220210365246" lon="-4.354828544951876"><ele>624.0</ele><time>2026-04-18T08:45:07Z</time></trkpt><trkpt lat="37.57228873038456" lon="-4.354835757452985"><ele>624.0</ele><time>2026-04-18T08:45:10Z</time></trkpt><trkpt lat="37.57236221448765" lon="-4.354856270998372"><ele>624.0</ele><time>2026-04-18T08:45:13Z</time></trkpt><trkpt lat="37.57244272258778" lon="-4.354855702719528"><ele>624.0</ele><time>2026-04-18T08:45:16Z</time></trkpt><trkpt lat="37.572533478242086" lon="-4.354871961510269"><ele>624.0</ele><time>2026-04-18T08:45:18.999Z</time></trkpt><trkpt lat="37.572616564333075" lon="-4.354893923478767"><ele>624.0</ele><time>2026-04-18T08:45:21.999Z</time></trkpt><trkpt lat="37.572697682893754" lon="-4.354937443470824"><ele>624.0</ele><time>2026-04-18T08:45:24.999Z</time></trkpt><trkpt lat="37.57273258187729" lon="-4.355045804447983"><ele>624.0</ele><time>2026-04-18T08:45:27.999Z</time></trkpt><trkpt lat="37.57278600877103" lon="-4.355121582877488"><ele>624.0</ele><time>2026-04-18T08:45:30.999Z</time></trkpt><trkpt lat="37.57282276025011" lon="-4.355214584972915"><ele>624.0</ele><time>2026-04-18T08:45:33.999Z</time></trkpt><trkpt lat="37.57286263671871" lon="-4.355313117996663"><ele>624.0</ele><time>2026-04-18T08:45:36.999Z</time></trkpt><trkpt lat="37.572905820792265" lon="-4.355411331828556"><ele>624.0</ele><time>2026-04-18T08:45:39.999Z</time></trkpt><trkpt lat="37.572966662801704" lon="-4.355486679205386"><ele>624.0</ele><time>2026-04-18T08:45:42.999Z</time></trkpt><trkpt lat="37.57304967960859" lon="-4.35552617990437"><ele>623.3333333333334</ele><time>2026-04-18T08:45:45.999Z</time></trkpt><trkpt lat="37.573130951582705" lon="-4.355537500554719"><ele>622.6666666666666</ele><time>2026-04-18T08:45:48.999Z</time></trkpt><trkpt lat="37.57321318004359" lon="-4.355537022226704"><ele>622.0</ele><time>2026-04-18T08:45:51.999Z</time></trkpt><trkpt lat="37.573286214760245" lon="-4.355539045912056"><ele>621.3333333333333</ele><time>2026-04-18T08:45:54.999Z</time></trkpt><trkpt lat="37.57336635126613" lon="-4.355549189485446"><ele>620.6666666666666</ele><time>2026-04-18T08:45:57.999Z</time></trkpt><trkpt lat="37.57345305041756" lon="-4.355577090113194"><ele>620.0</ele><time>2026-04-18T08:46:00.999Z</time></trkpt><trkpt lat="37.57352456307532" lon="-4.355613175899976"><ele>622.4285714285714</ele><time>2026-04-18T08:46:03.999Z</time></trkpt><trkpt lat="37.57360525670588" lon="-4.355647131992505"><ele>624.8571428571429</ele><time>2026-04-18T08:46:06.999Z</time></trkpt><trkpt lat="37.57368055385045" lon="-4.35567376539025"><ele>627.2857142857142</ele><time>2026-04-18T08:46:09.998Z</time></trkpt><trkpt lat="37.57374888018301" lon="-4.355683670047692"><ele>629.7142857142858</ele><time>2026-04-18T08:46:12.998Z</time></trkpt><trkpt lat="37.57381473807383" lon="-4.355664658902203"><ele>632.1428571428571</ele><time>2026-04-18T08:46:14.998Z</time></trkpt><trkpt lat="37.57387606142436" lon="-4.355643386793752"><ele>634.5714285714286</ele><time>2026-04-18T08:46:16.998Z</time></trkpt><trkpt lat="37.573955691108274" lon="-4.355629111983961"><ele>637.0</ele><time>2026-04-18T08:46:19.998Z</time></trkpt><trkpt lat="37.57402754053985" lon="-4.355621539232361"><ele>637.1666666666667</ele><time>2026-04-18T08:46:22.998Z</time></trkpt><trkpt lat="37.57409714811197" lon="-4.3556222184429645"><ele>637.3333333333334</ele><time>2026-04-18T08:46:25.998Z</time></trkpt><trkpt lat="37.57417691243955" lon="-4.3556508704252215"><ele>637.5</ele><time>2026-04-18T08:46:28.998Z</time></trkpt><trkpt lat="37.57424424269075" lon="-4.3556979742249595"><ele>637.6666666666666</ele><time>2026-04-18T08:46:31.998Z</time></trkpt><trkpt lat="37.57432031466806" lon="-4.3557450051551845"><ele>637.8333333333333</ele><time>2026-04-18T08:46:34.998Z</time></trkpt><trkpt lat="37.57440024415107" lon="-4.355787133922743"><ele>638.0</ele><time>2026-04-18T08:46:37.998Z</time></trkpt><trkpt lat="37.574474190765756" lon="-4.355846292612903"><ele>638.3333333333333</ele><time>2026-04-18T08:46:40.998Z</time></trkpt><trkpt lat="37.57454998586307" lon="-4.355896042467615"><ele>638.6666666666666</ele><time>2026-04-18T08:46:43.998Z</time></trkpt><trkpt lat="37.57462760742023" lon="-4.355959463589072"><ele>639.0</ele><time>2026-04-18T08:46:46.998Z</time></trkpt><trkpt lat="37.574705031780844" lon="-4.3560034953784506"><ele>639.3333333333334</ele><time>2026-04-18T08:46:50Z</time></trkpt><trkpt lat="37.57477235474064" lon="-4.356051236615211"><ele>639.6666666666667</ele><time>2026-04-18T08:46:53Z</time></trkpt><trkpt lat="37.57484737687204" lon="-4.356091051827361"><ele>640.0</ele><time>2026-04-18T08:46:56Z</time></trkpt><trkpt lat="37.574918868181776" lon="-4.356135246434886"><ele>640.0</ele><time>2026-04-18T08:46:59Z</time></trkpt><trkpt lat="37.57498051999318" lon="-4.356172016985525"><ele>640.0</ele><time>2026-04-18T08:47:02Z</time></trkpt><trkpt lat="37.5750474297432" lon="-4.356217701686385"><ele>640.0</ele><time>2026-04-18T08:47:05Z</time></trkpt><trkpt lat="37.57510803540111" lon="-4.3562525675719055"><ele>640.0</ele><time>2026-04-18T08:47:08Z</time></trkpt><trkpt lat="37.5751665494853" lon="-4.356293785349017"><ele>640.0</ele><time>2026-04-18T08:47:11Z</time></trkpt><trkpt lat="37.57523410158761" lon="-4.356326195776959"><ele>640.0</ele><time>2026-04-18T08:47:14Z</time></trkpt><trkpt lat="37.57530485507623" lon="-4.3563601584792355"><ele>640.0</ele><time>2026-04-18T08:47:17Z</time></trkpt><trkpt lat="37.575365496103046" lon="-4.356396084852903"><ele>642.5714285714286</ele><time>2026-04-18T08:47:20Z</time></trkpt><trkpt lat="37.57542921804915" lon="-4.356442790631418"><ele>645.1428571428571</ele><time>2026-04-18T08:47:22.999Z</time></trkpt><trkpt lat="37.57549787834893" lon="-4.356477446319795"><ele>647.7142857142858</ele><time>2026-04-18T08:47:25.999Z</time></trkpt><trkpt lat="37.5755587020555" lon="-4.356514049378286"><ele>650.2857142857142</ele><time>2026-04-18T08:47:28.999Z</time></trkpt><trkpt lat="37.575622184813895" lon="-4.356551948558637"><ele>652.8571428571429</ele><time>2026-04-18T08:47:31.999Z</time></trkpt><trkpt lat="37.5756929078364" lon="-4.356584372834441"><ele>655.4285714285714</ele><time>2026-04-18T08:47:34.999Z</time></trkpt><trkpt lat="37.57576823729854" lon="-4.3566208545917116"><ele>658.0</ele><time>2026-04-18T08:47:37.999Z</time></trkpt><trkpt lat="37.575834322876716" lon="-4.356638678272337"><ele>658.0</ele><time>2026-04-18T08:47:40.999Z</time></trkpt><trkpt lat="37.57590926496692" lon="-4.356655689670693"><ele>658.0</ele><time>2026-04-18T08:47:43.999Z</time></trkpt><trkpt lat="37.57598457349456" lon="-4.356668373653145"><ele>658.0</ele><time>2026-04-18T08:47:46.999Z</time></trkpt><trkpt lat="37.5760546357079" lon="-4.356687735469325"><ele>658.0</ele><time>2026-04-18T08:47:49.999Z</time></trkpt><trkpt lat="37.576134168124824" lon="-4.356683694126461"><ele>658.0</ele><time>2026-04-18T08:47:52.999Z</time></trkpt><trkpt lat="37.576216165326244" lon="-4.356682547199828"><ele>658.0</ele><time>2026-04-18T08:47:55.999Z</time></trkpt><trkpt lat="37.57630162114496" lon="-4.35668569946036"><ele>659.0</ele><time>2026-04-18T08:47:58.999Z</time></trkpt><trkpt lat="37.576388053663734" lon="-4.356691466871931"><ele>660.0</ele><time>2026-04-18T08:48:01.999Z</time></trkpt><trkpt lat="37.576468027603404" lon="-4.356711737360249"><ele>661.0</ele><time>2026-04-18T08:48:04.999Z</time></trkpt><trkpt lat="37.57655523106637" lon="-4.356702862273641"><ele>662.0</ele><time>2026-04-18T08:48:07.999Z</time></trkpt><trkpt lat="37.576643226855175" lon="-4.356693686380414"><ele>663.0</ele><time>2026-04-18T08:48:10.999Z</time></trkpt><trkpt lat="37.57672643202049" lon="-4.356690408260515"><ele>664.0</ele><time>2026-04-18T08:48:13.999Z</time></trkpt><trkpt lat="37.57681438024157" lon="-4.356690142396031"><ele>664.0</ele><time>2026-04-18T08:48:16.998Z</time></trkpt><trkpt lat="37.576897519409165" lon="-4.356697467277244"><ele>664.0</ele><time>2026-04-18T08:48:19.998Z</time></trkpt><trkpt lat="37.576984028669905" lon="-4.356700182261375"><ele>664.0</ele><time>2026-04-18T08:48:22.998Z</time></trkpt><trkpt lat="37.57706584263869" lon="-4.356711397535666"><ele>664.0</ele><time>2026-04-18T08:48:25.998Z</time></trkpt><trkpt lat="37.577149984807235" lon="-4.356732314595556"><ele>664.0</ele><time>2026-04-18T08:48:28.998Z</time></trkpt><trkpt lat="37.577231630376566" lon="-4.3567493023444674"><ele>664.0</ele><time>2026-04-18T08:48:31.998Z</time></trkpt><trkpt lat="37.577315999752976" lon="-4.356761304564506"><ele>664.5</ele><time>2026-04-18T08:48:34.998Z</time></trkpt><trkpt lat="37.577401798959436" lon="-4.356773396039174"><ele>665.0</ele><time>2026-04-18T08:48:37.998Z</time></trkpt><trkpt lat="37.577479137361344" lon="-4.35680304704535"><ele>665.5</ele><time>2026-04-18T08:48:40.998Z</time></trkpt><trkpt lat="37.57755483029159" lon="-4.3568228162822"><ele>666.0</ele><time>2026-04-18T08:48:43.998Z</time></trkpt><trkpt lat="37.577628502508986" lon="-4.356859536997456"><ele>666.5</ele><time>2026-04-18T08:48:46.998Z</time></trkpt><trkpt lat="37.577703654886335" lon="-4.356898303172325"><ele>667.0</ele><time>2026-04-18T08:48:49.998Z</time></trkpt><trkpt lat="37.577776277794" lon="-4.356951611087756"><ele>667.0</ele><time>2026-04-18T08:48:52.998Z</time></trkpt><trkpt lat="37.57783780282309" lon="-4.357013966124312"><ele>667.0</ele><time>2026-04-18T08:48:56Z</time></trkpt><trkpt lat="37.57789567849605" lon="-4.35708384375344"><ele>667.0</ele><time>2026-04-18T08:48:59Z</time></trkpt><trkpt lat="37.57795856191294" lon="-4.357104390046472"><ele>667.0</ele><time>2026-04-18T08:49:02Z</time></trkpt><trkpt lat="37.57801947774503" lon="-4.357083335996981"><ele>667.0</ele><time>2026-04-18T08:49:04Z</time></trkpt><trkpt lat="37.57810900932129" lon="-4.357065639848045"><ele>667.0</ele><time>2026-04-18T08:49:07Z</time></trkpt><trkpt lat="37.57819487555903" lon="-4.357047836195365"><ele>668.5</ele><time>2026-04-18T08:49:10Z</time></trkpt><trkpt lat="37.578277887542825" lon="-4.35705115391366"><ele>670.0</ele><time>2026-04-18T08:49:13Z</time></trkpt><trkpt lat="37.57835974303118" lon="-4.357037485123837"><ele>671.5</ele><time>2026-04-18T08:49:16Z</time></trkpt><trkpt lat="37.57842983159401" lon="-4.357012479085013"><ele>673.0</ele><time>2026-04-18T08:49:19Z</time></trkpt><trkpt lat="37.57850147950012" lon="-4.356993239532281"><ele>674.5</ele><time>2026-04-18T08:49:22Z</time></trkpt><trkpt lat="37.57859290254166" lon="-4.356984060660278"><ele>676.0</ele><time>2026-04-18T08:49:25Z</time></trkpt><trkpt lat="37.57867555474838" lon="-4.35697800730598"><ele>678.1666666666667</ele><time>2026-04-18T08:49:28Z</time></trkpt><trkpt lat="37.578760288104036" lon="-4.356960765692604"><ele>680.3333333333334</ele><time>2026-04-18T08:49:30.999Z</time></trkpt><trkpt lat="37.57884411745088" lon="-4.356962876758892"><ele>682.5</ele><time>2026-04-18T08:49:33.999Z</time></trkpt><trkpt lat="37.5789251322886" lon="-4.356986656557092"><ele>684.6666666666666</ele><time>2026-04-18T08:49:36.999Z</time></trkpt><trkpt lat="37.57900883046792" lon="-4.35699532474058"><ele>686.8333333333333</ele><time>2026-04-18T08:49:39.999Z</time></trkpt><trkpt lat="37.57909458582805" lon="-4.356999376727089"><ele>689.0</ele><time>2026-04-18T08:49:42.999Z</time></trkpt><trkpt lat="37.579176674925975" lon="-4.357022598075732"><ele>689.0</ele><time>2026-04-18T08:49:45.999Z</time></trkpt><trkpt lat="37.579247371145485" lon="-4.357052181822332"><ele>689.0</ele><time>2026-04-18T08:49:48.999Z</time></trkpt><trkpt lat="37.57932750604408" lon="-4.357053766907004"><ele>689.0</ele><time>2026-04-18T08:49:51.999Z</time></trkpt><trkpt lat="37.579418840730646" lon="-4.357041532399979"><ele>689.0</ele><time>2026-04-18T08:49:54.999Z</time></trkpt><trkpt lat="37.579508725102066" lon="-4.357035168712146"><ele>689.0</ele><time>2026-04-18T08:49:57.999Z</time></trkpt><trkpt lat="37.57959715109293" lon="-4.357019125085935"><ele>689.0</ele><time>2026-04-18T08:50:00.999Z</time></trkpt><trkpt lat="37.57968606695849" lon="-4.356994807483161"><ele>690.8333333333333</ele><time>2026-04-18T08:50:03.999Z</time></trkpt><trkpt lat="37.57977125321154" lon="-4.356971944949537"><ele>692.6666666666666</ele><time>2026-04-18T08:50:06.999Z</time></trkpt><trkpt lat="37.579857952177285" lon="-4.356930729829816"><ele>694.5</ele><time>2026-04-18T08:50:09.999Z</time></trkpt><trkpt lat="37.57991886437577" lon="-4.356905693276377"><ele>696.3333333333334</ele><time>2026-04-18T08:50:11.999Z</time></trkpt><trkpt lat="37.58000786235026" lon="-4.356871085863955"><ele>698.1666666666667</ele><time>2026-04-18T08:50:14.999Z</time></trkpt><trkpt lat="37.580067401545165" lon="-4.356844126423856"><ele>700.0</ele><time>2026-04-18T08:50:16.999Z</time></trkpt><trkpt lat="37.58012083243481" lon="-4.356799989083089"><ele>700.0</ele><time>2026-04-18T08:50:18.999Z</time></trkpt><trkpt lat="37.58018868881819" lon="-4.3567387683522805"><ele>700.0</ele><time>2026-04-18T08:50:21.998Z</time></trkpt><trkpt lat="37.5802666997423" lon="-4.356681907318785"><ele>700.0</ele><time>2026-04-18T08:50:24.998Z</time></trkpt><trkpt lat="37.580343670889285" lon="-4.3566218712363725"><ele>700.0</ele><time>2026-04-18T08:50:27.998Z</time></trkpt><trkpt lat="37.58041189620408" lon="-4.356542835117814"><ele>700.0</ele><time>2026-04-18T08:50:30.998Z</time></trkpt><trkpt lat="37.580481615787434" lon="-4.356466304570736"><ele>700.0</ele><time>2026-04-18T08:50:33.998Z</time></trkpt><trkpt lat="37.58053499092654" lon="-4.356423568760169"><ele>699.3333333333334</ele><time>2026-04-18T08:50:35.998Z</time></trkpt><trkpt lat="37.58062385514276" lon="-4.356382859659146"><ele>698.6666666666667</ele><time>2026-04-18T08:50:38.998Z</time></trkpt><trkpt lat="37.580706732807094" lon="-4.356319010646561"><ele>698.0</ele><time>2026-04-18T08:50:41.998Z</time></trkpt><trkpt lat="37.58076794114652" lon="-4.356296085307733"><ele>697.3333333333334</ele><time>2026-04-18T08:50:43.998Z</time></trkpt><trkpt lat="37.58084784246175" lon="-4.356272944268241"><ele>696.6666666666666</ele><time>2026-04-18T08:50:45.998Z</time></trkpt><trkpt lat="37.58093097869735" lon="-4.356249885330632"><ele>696.0</ele><time>2026-04-18T08:50:47.998Z</time></trkpt><trkpt lat="37.58101672741285" lon="-4.356227414555983"><ele>696.0</ele><time>2026-04-18T08:50:49.998Z</time></trkpt><trkpt lat="37.58110040801671" lon="-4.356200260963867"><ele>696.0</ele><time>2026-04-18T08:50:51.998Z</time></trkpt><trkpt lat="37.5811787957983" lon="-4.356166606674087"><ele>696.0</ele><time>2026-04-18T08:50:53.998Z</time></trkpt><trkpt lat="37.581255943111586" lon="-4.356125925935867"><ele>696.0</ele><time>2026-04-18T08:50:55.998Z</time></trkpt><trkpt lat="37.58131670609479" lon="-4.3560851192628895"><ele>696.0</ele><time>2026-04-18T08:50:57.998Z</time></trkpt><trkpt lat="37.58138189102654" lon="-4.356039557800785"><ele>696.0</ele><time>2026-04-18T08:51:00Z</time></trkpt><trkpt lat="37.581444214329174" lon="-4.355984878418925"><ele>698.0</ele><time>2026-04-18T08:51:02Z</time></trkpt><trkpt lat="37.58149880036826" lon="-4.355929969482797"><ele>700.0</ele><time>2026-04-18T08:51:04Z</time></trkpt><trkpt lat="37.581563023428515" lon="-4.355863788311219"><ele>702.0</ele><time>2026-04-18T08:51:07Z</time></trkpt><trkpt lat="37.58161725169631" lon="-4.355786473534536"><ele>704.0</ele><time>2026-04-18T08:51:10Z</time></trkpt><trkpt lat="37.581660365737584" lon="-4.355725479032583"><ele>706.0</ele><time>2026-04-18T08:51:15Z</time></trkpt><trkpt lat="37.58161216226449" lon="-4.355790659522127"><ele>708.0</ele><time>2026-04-18T08:51:21Z</time></trkpt><trkpt lat="37.581554036440984" lon="-4.355852085855048"><ele>710.0</ele><time>2026-04-18T08:51:25Z</time></trkpt><trkpt lat="37.58150371032259" lon="-4.355907980401747"><ele>710.0</ele><time>2026-04-18T08:51:28Z</time></trkpt><trkpt lat="37.581452436964554" lon="-4.355954217162136"><ele>710.0</ele><time>2026-04-18T08:51:33Z</time></trkpt><trkpt lat="37.58148459723555" lon="-4.356023680658593"><ele>710.0</ele><time>2026-04-18T08:51:39.999Z</time></trkpt><trkpt lat="37.58155881737979" lon="-4.3560166253312875"><ele>710.0</ele><time>2026-04-18T08:51:58.999Z</time></trkpt><trkpt lat="37.58161446570369" lon="-4.355957861080882"><ele>710.0</ele><time>2026-04-18T08:52:03.999Z</time></trkpt><trkpt lat="37.581685104749766" lon="-4.3558990059214695"><ele>710.0</ele><time>2026-04-18T08:52:07.999Z</time></trkpt><trkpt lat="37.58173174907819" lon="-4.355965675431928"><ele>710.0</ele><time>2026-04-18T08:52:13.999Z</time></trkpt><trkpt lat="37.5817022062387" lon="-4.356050597855769"><ele>710.0</ele><time>2026-04-18T08:52:17.999Z</time></trkpt><trkpt lat="37.58171897257082" lon="-4.356127936426294"><ele>710.0</ele><time>2026-04-18T08:52:21.999Z</time></trkpt><trkpt lat="37.581725111359745" lon="-4.356211694817622"><ele>710.0</ele><time>2026-04-18T08:52:25.999Z</time></trkpt><trkpt lat="37.5817009319139" lon="-4.356305278832627"><ele>710.0</ele><time>2026-04-18T08:52:29.999Z</time></trkpt><trkpt lat="37.581709708239856" lon="-4.356395681785103"><ele>710.0</ele><time>2026-04-18T08:52:33.998Z</time></trkpt><trkpt lat="37.58175189899543" lon="-4.356476199896936"><ele>710.0</ele><time>2026-04-18T08:52:38.998Z</time></trkpt><trkpt lat="37.5818019928302" lon="-4.3565340851751015"><ele>710.0</ele><time>2026-04-18T08:52:42.998Z</time></trkpt><trkpt lat="37.58184906868731" lon="-4.35659962019462"><ele>712.1428571428571</ele><time>2026-04-18T08:52:46.998Z</time></trkpt><trkpt lat="37.58189602458201" lon="-4.356658823726206"><ele>714.2857142857143</ele><time>2026-04-18T08:52:50.998Z</time></trkpt><trkpt lat="37.5819469238378" lon="-4.3567232198108785"><ele>716.4285714285714</ele><time>2026-04-18T08:52:54.998Z</time></trkpt><trkpt lat="37.582008883526996" lon="-4.3567903854723795"><ele>718.5714285714286</ele><time>2026-04-18T08:52:59.998Z</time></trkpt><trkpt lat="37.582048996227485" lon="-4.356854341103696"><ele>720.7142857142858</ele><time>2026-04-18T08:53:03.998Z</time></trkpt><trkpt lat="37.58210903198082" lon="-4.356881477329074"><ele>722.8571428571429</ele><time>2026-04-18T08:53:07Z</time></trkpt><trkpt lat="37.58214654393885" lon="-4.356946609217576"><ele>725.0</ele><time>2026-04-18T08:53:10Z</time></trkpt><trkpt lat="37.58218923274042" lon="-4.357014369883653"><ele>725.2857142857143</ele><time>2026-04-18T08:53:14Z</time></trkpt><trkpt lat="37.58224115450334" lon="-4.3570789387462945"><ele>725.5714285714287</ele><time>2026-04-18T08:53:19Z</time></trkpt><trkpt lat="37.582282536571206" lon="-4.357176127503375"><ele>725.8571428571429</ele><time>2026-04-18T08:53:24Z</time></trkpt><trkpt lat="37.582335215528104" lon="-4.357234231307198"><ele>726.1428571428571</ele><time>2026-04-18T08:53:27Z</time></trkpt><trkpt lat="37.582380815613156" lon="-4.357304941698763"><ele>726.4285714285714</ele><time>2026-04-18T08:53:32Z</time></trkpt><trkpt lat="37.582430290642435" lon="-4.357370479480195"><ele>726.7142857142857</ele><time>2026-04-18T08:53:35Z</time></trkpt><trkpt lat="37.58247663115882" lon="-4.35743347868376"><ele>727.0</ele><time>2026-04-18T08:53:38Z</time></trkpt><trkpt lat="37.58250802521669" lon="-4.357518494316015"><ele>727.0</ele><time>2026-04-18T08:53:42Z</time></trkpt><trkpt lat="37.58255785912766" lon="-4.357591237868478"><ele>727.0</ele><time>2026-04-18T08:53:45Z</time></trkpt><trkpt lat="37.58261328899671" lon="-4.357630168008644"><ele>727.0</ele><time>2026-04-18T08:53:48Z</time></trkpt><trkpt lat="37.582638218007865" lon="-4.3577218177192405"><ele>727.0</ele><time>2026-04-18T08:53:51.999Z</time></trkpt><trkpt lat="37.58269986638391" lon="-4.357794641610694"><ele>727.0</ele><time>2026-04-18T08:53:54.999Z</time></trkpt><trkpt lat="37.58276229964767" lon="-4.357878250224636"><ele>727.0</ele><time>2026-04-18T08:53:57.999Z</time></trkpt><trkpt lat="37.5828332215024" lon="-4.357914648810447"><ele>725.0</ele><time>2026-04-18T08:54:00.999Z</time></trkpt><trkpt lat="37.58290639704359" lon="-4.357862268015502"><ele>723.0</ele><time>2026-04-18T08:54:03.999Z</time></trkpt><trkpt lat="37.582966849860135" lon="-4.3578031422482075"><ele>721.0</ele><time>2026-04-18T08:54:07.999Z</time></trkpt><trkpt lat="37.58303088387971" lon="-4.35772326453602"><ele>719.0</ele><time>2026-04-18T08:54:11.999Z</time></trkpt><trkpt lat="37.5830688450903" lon="-4.357643748478125"><ele>717.0</ele><time>2026-04-18T08:54:13.999Z</time></trkpt><trkpt lat="37.58310190400956" lon="-4.357565885186049"><ele>715.0</ele><time>2026-04-18T08:54:17.999Z</time></trkpt><trkpt lat="37.583152238790746" lon="-4.3575067552134295"><ele>715.0</ele><time>2026-04-18T08:54:21.999Z</time></trkpt><trkpt lat="37.58319408386306" lon="-4.357422475250345"><ele>715.0</ele><time>2026-04-18T08:54:25.999Z</time></trkpt><trkpt lat="37.58323426384165" lon="-4.357356967951188"><ele>715.0</ele><time>2026-04-18T08:54:29.999Z</time></trkpt><trkpt lat="37.58329687668583" lon="-4.357314223563783"><ele>715.0</ele><time>2026-04-18T08:54:33.999Z</time></trkpt><trkpt lat="37.583345991841824" lon="-4.357262363336343"><ele>715.0</ele><time>2026-04-18T08:54:36.999Z</time></trkpt><trkpt lat="37.58341501012721" lon="-4.357198083513473"><ele>715.0</ele><time>2026-04-18T08:54:40.999Z</time></trkpt><trkpt lat="37.58346528274996" lon="-4.3571375860034225"><ele>715.0</ele><time>2026-04-18T08:54:44.998Z</time></trkpt><trkpt lat="37.58350483121228" lon="-4.357054418386243"><ele>715.4285714285714</ele><time>2026-04-18T08:54:48.998Z</time></trkpt><trkpt lat="37.58355146845432" lon="-4.3569999200277465"><ele>715.8571428571428</ele><time>2026-04-18T08:54:52.998Z</time></trkpt><trkpt lat="37.58360313491161" lon="-4.356928608240189"><ele>716.2857142857142</ele><time>2026-04-18T08:54:56.998Z</time></trkpt><trkpt lat="37.58364449161605" lon="-4.356859016785541"><ele>716.7142857142858</ele><time>2026-04-18T08:55:00.998Z</time></trkpt><trkpt lat="37.583707816245244" lon="-4.356834850501561"><ele>717.1428571428571</ele><time>2026-04-18T08:55:05.998Z</time></trkpt><trkpt lat="37.58377184805958" lon="-4.356775068800067"><ele>717.5714285714286</ele><time>2026-04-18T08:55:09.998Z</time></trkpt><trkpt lat="37.58380253991357" lon="-4.356695745645365"><ele>718.0</ele><time>2026-04-18T08:55:14Z</time></trkpt><trkpt lat="37.583872422261685" lon="-4.356679777774537"><ele>718.0</ele><time>2026-04-18T08:55:18Z</time></trkpt><trkpt lat="37.583951449798256" lon="-4.356662872244856"><ele>718.0</ele><time>2026-04-18T08:55:22Z</time></trkpt><trkpt lat="37.584014866432106" lon="-4.356642223732699"><ele>718.0</ele><time>2026-04-18T08:55:25Z</time></trkpt><trkpt lat="37.5840944817779" lon="-4.356601151584851"><ele>718.0</ele><time>2026-04-18T08:55:29Z</time></trkpt><trkpt lat="37.58415751351047" lon="-4.356579659201585"><ele>718.0</ele><time>2026-04-18T08:55:32Z</time></trkpt><trkpt lat="37.58422721397194" lon="-4.356546371129105"><ele>718.0</ele><time>2026-04-18T08:55:37Z</time></trkpt><trkpt lat="37.58426116609052" lon="-4.356457612964979"><ele>718.0</ele><time>2026-04-18T08:55:41Z</time></trkpt><trkpt lat="37.58432383807033" lon="-4.356419084517237"><ele>718.0</ele><time>2026-04-18T08:55:45Z</time></trkpt><trkpt lat="37.58437907824833" lon="-4.356363957469671"><ele>718.0</ele><time>2026-04-18T08:55:49Z</time></trkpt><trkpt lat="37.584396678310114" lon="-4.356284133325366"><ele>718.0</ele><time>2026-04-18T08:55:54Z</time></trkpt><trkpt lat="37.58441206413963" lon="-4.356203332462684"><ele>718.0</ele><time>2026-04-18T08:56:00Z</time></trkpt><trkpt lat="37.58446592623215" lon="-4.3561530724513755"><ele>718.0</ele><time>2026-04-18T08:56:09.999Z</time></trkpt><trkpt lat="37.584531893428334" lon="-4.356098642509242"><ele>718.0</ele><time>2026-04-18T08:56:16.999Z</time></trkpt><trkpt lat="37.58458363838694" lon="-4.3560461846985525"><ele>720.1428571428571</ele><time>2026-04-18T08:56:21.999Z</time></trkpt><trkpt lat="37.58458225608073" lon="-4.355961505683807"><ele>722.2857142857143</ele><time>2026-04-18T08:56:26.999Z</time></trkpt><trkpt lat="37.58462174985656" lon="-4.355883403313873"><ele>724.4285714285713</ele><time>2026-04-18T08:56:30.999Z</time></trkpt><trkpt lat="37.5846697575777" lon="-4.355814359073575"><ele>726.5714285714286</ele><time>2026-04-18T08:56:34.999Z</time></trkpt><trkpt lat="37.58471128089136" lon="-4.355749448916156"><ele>728.7142857142857</ele><time>2026-04-18T08:56:38.999Z</time></trkpt><trkpt lat="37.584755626841776" lon="-4.355672232279825"><ele>730.8571428571428</ele><time>2026-04-18T08:56:43.999Z</time></trkpt><trkpt lat="37.58481998449377" lon="-4.355617668752916"><ele>733.0</ele><time>2026-04-18T08:56:47.999Z</time></trkpt><trkpt lat="37.584859898599824" lon="-4.355544505895756"><ele>734.4285714285713</ele><time>2026-04-18T08:56:53.999Z</time></trkpt><trkpt lat="37.58487983823948" lon="-4.3554608569275866"><ele>735.8571428571429</ele><time>2026-04-18T08:56:58.998Z</time></trkpt><trkpt lat="37.584916076299095" lon="-4.355386827217314"><ele>737.2857142857142</ele><time>2026-04-18T08:57:13.998Z</time></trkpt><trkpt lat="37.584902828906124" lon="-4.355308336620983"><ele>738.7142857142857</ele><time>2026-04-18T08:57:18Z</time></trkpt><trkpt lat="37.58492041160847" lon="-4.355213370183688"><ele>740.1428571428571</ele><time>2026-04-18T08:57:24Z</time></trkpt><trkpt lat="37.58496874235562" lon="-4.355151901636792"><ele>741.5714285714286</ele><time>2026-04-18T08:57:29Z</time></trkpt><trkpt lat="37.585040915742084" lon="-4.355119835827142"><ele>743.0</ele><time>2026-04-18T08:57:34Z</time></trkpt><trkpt lat="37.58505150308325" lon="-4.355030008711654"><ele>743.0</ele><time>2026-04-18T08:57:38Z</time></trkpt><trkpt lat="37.58504693470129" lon="-4.35493497459973"><ele>743.0</ele><time>2026-04-18T08:57:43Z</time></trkpt><trkpt lat="37.584996486496415" lon="-4.354869104416577"><ele>743.0</ele><time>2026-04-18T08:57:47Z</time></trkpt><trkpt lat="37.58498127479377" lon="-4.3547879054564556"><ele>743.0</ele><time>2026-04-18T08:57:51Z</time></trkpt><trkpt lat="37.58499301530598" lon="-4.354700726174121"><ele>743.0</ele><time>2026-04-18T08:57:55Z</time></trkpt><trkpt lat="37.58500191804117" lon="-4.354611199621151"><ele>743.0</ele><time>2026-04-18T08:57:59Z</time></trkpt><trkpt lat="37.58501929368031" lon="-4.354517743229546"><ele>743.0</ele><time>2026-04-18T08:58:03Z</time></trkpt><trkpt lat="37.58503604076518" lon="-4.3544293093261714"><ele>743.6666666666666</ele><time>2026-04-18T08:58:07Z</time></trkpt><trkpt lat="37.585077867959555" lon="-4.354354270623019"><ele>744.3333333333333</ele><time>2026-04-18T08:58:11Z</time></trkpt><trkpt lat="37.58511208921192" lon="-4.354279095099096"><ele>745.0</ele><time>2026-04-18T08:58:15Z</time></trkpt><trkpt lat="37.585151437525504" lon="-4.354200141679085"><ele>745.6666666666666</ele><time>2026-04-18T08:58:19Z</time></trkpt><trkpt lat="37.58519413834396" lon="-4.354122418103403"><ele>746.3333333333334</ele><time>2026-04-18T08:58:22.999Z</time></trkpt><trkpt lat="37.58523916582476" lon="-4.354065696029655"><ele>747.0</ele><time>2026-04-18T08:58:25.999Z</time></trkpt><trkpt lat="37.58530566390291" lon="-4.353936966785278"><ele>747.8333333333334</ele><time>2026-04-18T09:03:56Z</time></trkpt><trkpt lat="37.585346657086" lon="-4.353865957097716"><ele>748.6666666666666</ele><time>2026-04-18T09:04:03Z</time></trkpt><trkpt lat="37.585396259679875" lon="-4.353785928265851"><ele>749.5</ele><time>2026-04-18T09:04:07Z</time></trkpt><trkpt lat="37.58540075724649" lon="-4.353690962193904"><ele>750.3333333333333</ele><time>2026-04-18T09:04:09.999Z</time></trkpt><trkpt lat="37.58541191508119" lon="-4.3536125970535595"><ele>751.1666666666666</ele><time>2026-04-18T09:04:11.999Z</time></trkpt><trkpt lat="37.58543612505792" lon="-4.353522843265812"><ele>752.0</ele><time>2026-04-18T09:04:14.999Z</time></trkpt><trkpt lat="37.585492259918865" lon="-4.3534322413575754"><ele>752.0</ele><time>2026-04-18T09:04:17.999Z</time></trkpt><trkpt lat="37.58553663136185" lon="-4.353354232083467"><ele>752.0</ele><time>2026-04-18T09:04:21.999Z</time></trkpt><trkpt lat="37.58558707621052" lon="-4.353274441720138"><ele>752.0</ele><time>2026-04-18T09:04:25.999Z</time></trkpt><trkpt lat="37.585631963755894" lon="-4.353215056344049"><ele>752.0</ele><time>2026-04-18T09:04:28.999Z</time></trkpt><trkpt lat="37.58570970887624" lon="-4.35317781223664"><ele>752.0</ele><time>2026-04-18T09:04:32.999Z</time></trkpt><trkpt lat="37.5857705108751" lon="-4.35312698142092"><ele>752.0</ele><time>2026-04-18T09:04:36.999Z</time></trkpt><trkpt lat="37.58582878276238" lon="-4.353074091347202"><ele>750.4285714285714</ele><time>2026-04-18T09:04:44.999Z</time></trkpt><trkpt lat="37.585902796522205" lon="-4.353021161476661"><ele>748.8571428571429</ele><time>2026-04-18T09:04:49.999Z</time></trkpt><trkpt lat="37.58588218796691" lon="-4.352942807144137"><ele>747.2857142857142</ele><time>2026-04-18T09:04:52.999Z</time></trkpt><trkpt lat="37.585841446329404" lon="-4.352881966390208"><ele>745.7142857142858</ele><time>2026-04-18T09:04:55.999Z</time></trkpt><trkpt lat="37.58584056996057" lon="-4.35279287326786"><ele>744.1428571428572</ele><time>2026-04-18T09:04:58.998Z</time></trkpt><trkpt lat="37.58577578046137" lon="-4.352748343817893"><ele>742.5714285714286</ele><time>2026-04-18T09:05:01.998Z</time></trkpt><trkpt lat="37.58574147029816" lon="-4.352648777885026"><ele>741.0</ele><time>2026-04-18T09:05:04.998Z</time></trkpt><trkpt lat="37.58568040070693" lon="-4.352623169402053"><ele>741.0</ele><time>2026-04-18T09:05:07.998Z</time></trkpt><trkpt lat="37.58566700167752" lon="-4.352506517353697"><ele>741.0</ele><time>2026-04-18T09:05:10.998Z</time></trkpt><trkpt lat="37.58570932290796" lon="-4.35239150123402"><ele>741.0</ele><time>2026-04-18T09:05:13.998Z</time></trkpt><trkpt lat="37.58571735369907" lon="-4.352289025903414"><ele>741.0</ele><time>2026-04-18T09:05:15.998Z</time></trkpt><trkpt lat="37.5857169402519" lon="-4.352161237755648"><ele>741.0</ele><time>2026-04-18T09:05:17.998Z</time></trkpt><trkpt lat="37.58575108303715" lon="-4.352063965291384"><ele>738.8</ele><time>2026-04-18T09:05:19.998Z</time></trkpt><trkpt lat="37.58577075105725" lon="-4.351955592038622"><ele>736.5999999999999</ele><time>2026-04-18T09:05:22.998Z</time></trkpt><trkpt lat="37.5857881580617" lon="-4.351853186328927"><ele>734.4</ele><time>2026-04-18T09:05:24.998Z</time></trkpt><trkpt lat="37.58581249448723" lon="-4.351706176835388"><ele>732.2</ele><time>2026-04-18T09:05:26.998Z</time></trkpt><trkpt lat="37.58581632308604" lon="-4.351576800910752"><ele>730.0</ele><time>2026-04-18T09:05:28.998Z</time></trkpt><trkpt lat="37.585844644907326" lon="-4.3514637214614424"><ele>730.0000000000001</ele><time>2026-04-18T09:05:31.998Z</time></trkpt><trkpt lat="37.58579846405669" lon="-4.351394096304126"><ele>730.0</ele><time>2026-04-18T09:05:34.998Z</time></trkpt><trkpt lat="37.5857546607378" lon="-4.3513356699751515"><ele>730.0</ele><time>2026-04-18T09:05:37.998Z</time></trkpt><trkpt lat="37.58571296783333" lon="-4.3512716883012015"><ele>730.0</ele><time>2026-04-18T09:05:41Z</time></trkpt><trkpt lat="37.58567598904755" lon="-4.351196764757445"><ele>730.0</ele><time>2026-04-18T09:05:45Z</time></trkpt><trkpt lat="37.58563108666502" lon="-4.351135586548062"><ele>730.0000000000001</ele><time>2026-04-18T09:05:50Z</time></trkpt><trkpt lat="37.585558059849355" lon="-4.351139059978296"><ele>730.0</ele><time>2026-04-18T09:08:01Z</time></trkpt><trkpt lat="37.58549746580704" lon="-4.351116055062607"><ele>729.7142857142858</ele><time>2026-04-18T09:08:04Z</time></trkpt><trkpt lat="37.5854300744714" lon="-4.351109860111581"><ele>729.4285714285714</ele><time>2026-04-18T09:08:07Z</time></trkpt><trkpt lat="37.58536352853651" lon="-4.351108091043983"><ele>729.1428571428571</ele><time>2026-04-18T09:08:10Z</time></trkpt><trkpt lat="37.58533922193058" lon="-4.3510196413478655"><ele>728.8571428571429</ele><time>2026-04-18T09:08:13.999Z</time></trkpt><trkpt lat="37.58527805819275" lon="-4.350962084785425"><ele>728.5714285714286</ele><time>2026-04-18T09:08:17.999Z</time></trkpt><trkpt lat="37.58525232911049" lon="-4.350868877421709"><ele>728.2857142857143</ele><time>2026-04-18T09:08:20.999Z</time></trkpt><trkpt lat="37.58519814358521" lon="-4.350820489892444"><ele>728.0</ele><time>2026-04-18T09:08:24.999Z</time></trkpt><trkpt lat="37.58515147811213" lon="-4.350736681818474"><ele>729.6666666666666</ele><time>2026-04-18T09:08:28.999Z</time></trkpt><trkpt lat="37.58509181417837" lon="-4.350692539646061"><ele>731.3333333333333</ele><time>2026-04-18T09:08:32.999Z</time></trkpt><trkpt lat="37.585074757213704" lon="-4.350615444311088"><ele>733.0</ele><time>2026-04-18T09:08:35.999Z</time></trkpt><trkpt lat="37.585110113699805" lon="-4.35051102718223"><ele>734.6666666666666</ele><time>2026-04-18T09:08:38.999Z</time></trkpt><trkpt lat="37.585115048849126" lon="-4.350427146452703"><ele>736.3333333333334</ele><time>2026-04-18T09:08:41.999Z</time></trkpt><trkpt lat="37.58514535594274" lon="-4.350317436102519"><ele>738.0</ele><time>2026-04-18T09:08:44.999Z</time></trkpt><trkpt lat="37.58514380397702" lon="-4.350210644430404"><ele>738.0</ele><time>2026-04-18T09:08:47.999Z</time></trkpt><trkpt lat="37.585103092586124" lon="-4.35013893866529"><ele>738.0</ele><time>2026-04-18T09:08:49.999Z</time></trkpt><trkpt lat="37.58499264948523" lon="-4.350116746185059"><ele>738.0</ele><time>2026-04-18T09:08:52.999Z</time></trkpt><trkpt lat="37.58491978963479" lon="-4.350040219282389"><ele>738.0</ele><time>2026-04-18T09:08:54.999Z</time></trkpt><trkpt lat="37.58491019192277" lon="-4.349960666314567"><ele>738.0</ele><time>2026-04-18T09:08:56.999Z</time></trkpt><trkpt lat="37.58495407338772" lon="-4.349873095149653"><ele>738.0</ele><time>2026-04-18T09:08:59.999Z</time></trkpt><trkpt lat="37.584926649267" lon="-4.349800216444636"><ele>738.0</ele><time>2026-04-18T09:09:02.998Z</time></trkpt><trkpt lat="37.584856298706015" lon="-4.349745289646708"><ele>738.0</ele><time>2026-04-18T09:09:06.998Z</time></trkpt><trkpt lat="37.58483759985925" lon="-4.349643198735261"><ele>738.0</ele><time>2026-04-18T09:09:09.998Z</time></trkpt><trkpt lat="37.584789910608926" lon="-4.349581133484385"><ele>738.0</ele><time>2026-04-18T09:09:11.998Z</time></trkpt><trkpt lat="37.5847236041817" lon="-4.349509522504758"><ele>738.0</ele><time>2026-04-18T09:09:14.998Z</time></trkpt><trkpt lat="37.58468069015361" lon="-4.349428354349899"><ele>738.0</ele><time>2026-04-18T09:09:17.998Z</time></trkpt><trkpt lat="37.5846501699079" lon="-4.349340916834144"><ele>737.8333333333334</ele><time>2026-04-18T09:09:20.998Z</time></trkpt><trkpt lat="37.584605069112456" lon="-4.349252806450083"><ele>737.6666666666666</ele><time>2026-04-18T09:09:23.998Z</time></trkpt><trkpt lat="37.58462613645178" lon="-4.34915903789479"><ele>737.5</ele><time>2026-04-18T09:09:26.998Z</time></trkpt><trkpt lat="37.584577106125224" lon="-4.349082518964797"><ele>737.3333333333333</ele><time>2026-04-18T09:09:29.998Z</time></trkpt><trkpt lat="37.5844975464419" lon="-4.349102410960227"><ele>737.1666666666666</ele><time>2026-04-18T09:09:32.998Z</time></trkpt><trkpt lat="37.584413289563884" lon="-4.349107319787198"><ele>737.0</ele><time>2026-04-18T09:09:35.998Z</time></trkpt><trkpt lat="37.58434727594073" lon="-4.3490513370670465"><ele>736.6666666666666</ele><time>2026-04-18T09:09:38.998Z</time></trkpt><trkpt lat="37.584298943030326" lon="-4.348959889726985"><ele>736.3333333333333</ele><time>2026-04-18T09:09:41.998Z</time></trkpt><trkpt lat="37.584238148180184" lon="-4.34888487884262"><ele>736.0</ele><time>2026-04-18T09:09:44.998Z</time></trkpt><trkpt lat="37.584173533828796" lon="-4.3488388525377255"><ele>735.6666666666666</ele><time>2026-04-18T09:09:47.998Z</time></trkpt><trkpt lat="37.58409010257952" lon="-4.34879582825445"><ele>735.3333333333334</ele><time>2026-04-18T09:09:50.998Z</time></trkpt><trkpt lat="37.584005342705524" lon="-4.348756281550822"><ele>735.0</ele><time>2026-04-18T09:09:54Z</time></trkpt><trkpt lat="37.583919519462924" lon="-4.34871985694824"><ele>734.8333333333334</ele><time>2026-04-18T09:09:57Z</time></trkpt><trkpt lat="37.58383462555819" lon="-4.348691605169827"><ele>734.6666666666666</ele><time>2026-04-18T09:10:00Z</time></trkpt><trkpt lat="37.58375464054354" lon="-4.348644020438144"><ele>734.5</ele><time>2026-04-18T09:10:03Z</time></trkpt><trkpt lat="37.58370359392951" lon="-4.348555456787279"><ele>734.3333333333333</ele><time>2026-04-18T09:10:06Z</time></trkpt><trkpt lat="37.58368143105646" lon="-4.348446227781222"><ele>734.1666666666666</ele><time>2026-04-18T09:10:09Z</time></trkpt><trkpt lat="37.58367554662027" lon="-4.348348272415576"><ele>734.0</ele><time>2026-04-18T09:10:13Z</time></trkpt><trkpt lat="37.58367996760201" lon="-4.348246995174192"><ele>734.0</ele><time>2026-04-18T09:10:16Z</time></trkpt><trkpt lat="37.583757540533604" lon="-4.348225266433629"><ele>734.0</ele><time>2026-04-18T09:10:18.999Z</time></trkpt><trkpt lat="37.583809497263125" lon="-4.348275745474489"><ele>734.0</ele><time>2026-04-18T09:10:21.999Z</time></trkpt><trkpt lat="37.583886458764546" lon="-4.348295391851614"><ele>734.0</ele><time>2026-04-18T09:10:24.999Z</time></trkpt><trkpt lat="37.583987620756865" lon="-4.348278637385001"><ele>734.0</ele><time>2026-04-18T09:10:27.999Z</time></trkpt><trkpt lat="37.58406522053406" lon="-4.3482706101723965"><ele>734.0</ele><time>2026-04-18T09:10:29.999Z</time></trkpt><trkpt lat="37.58414478213444" lon="-4.348263856866599"><ele>734.0</ele><time>2026-04-18T09:10:31.999Z</time></trkpt><trkpt lat="37.58422114025233" lon="-4.34823983807214"><ele>734.0</ele><time>2026-04-18T09:10:33.999Z</time></trkpt><trkpt lat="37.584319104364745" lon="-4.348233980313125"><ele>734.0</ele><time>2026-04-18T09:10:35.999Z</time></trkpt><trkpt lat="37.58441787293503" lon="-4.3482310607317745"><ele>734.0</ele><time>2026-04-18T09:10:37.999Z</time></trkpt><trkpt lat="37.58450372369049" lon="-4.348214247118895"><ele>734.0</ele><time>2026-04-18T09:10:39.999Z</time></trkpt><trkpt lat="37.58459605212986" lon="-4.348192049294471"><ele>733.0</ele><time>2026-04-18T09:10:41.999Z</time></trkpt><trkpt lat="37.584654452263436" lon="-4.348226869826667"><ele>732.0</ele><time>2026-04-18T09:10:43.999Z</time></trkpt><trkpt lat="37.584730040892424" lon="-4.348243172394361"><ele>731.0</ele><time>2026-04-18T09:10:45.999Z</time></trkpt><trkpt lat="37.58481174199425" lon="-4.348214682029115"><ele>730.0</ele><time>2026-04-18T09:10:47.999Z</time></trkpt><trkpt lat="37.58489329521994" lon="-4.348181270382342"><ele>729.0</ele><time>2026-04-18T09:10:49.999Z</time></trkpt><trkpt lat="37.58497530672309" lon="-4.348171805193502"><ele>728.0</ele><time>2026-04-18T09:10:51.999Z</time></trkpt><trkpt lat="37.58505269239896" lon="-4.348179297830788"><ele>728.0</ele><time>2026-04-18T09:10:53.999Z</time></trkpt><trkpt lat="37.58512865815086" lon="-4.34813822087625"><ele>728.0</ele><time>2026-04-18T09:10:55.999Z</time></trkpt><trkpt lat="37.58520886716189" lon="-4.34816047471144"><ele>728.0</ele><time>2026-04-18T09:10:57.999Z</time></trkpt><trkpt lat="37.585307004727774" lon="-4.348134029478955"><ele>728.0</ele><time>2026-04-18T09:11:00.999Z</time></trkpt><trkpt lat="37.58539338861746" lon="-4.348087925295058"><ele>728.0</ele><time>2026-04-18T09:11:02.999Z</time></trkpt><trkpt lat="37.58548965592853" lon="-4.348053214384663"><ele>726.8333333333333</ele><time>2026-04-18T09:11:04.999Z</time></trkpt><trkpt lat="37.58556802527628" lon="-4.348091047479531"><ele>725.6666666666666</ele><time>2026-04-18T09:11:06.999Z</time></trkpt><trkpt lat="37.58564212256134" lon="-4.348112890080532"><ele>724.5</ele><time>2026-04-18T09:11:08.999Z</time></trkpt><trkpt lat="37.58572740095061" lon="-4.348148670624508"><ele>723.3333333333334</ele><time>2026-04-18T09:11:10.998Z</time></trkpt><trkpt lat="37.58581933287424" lon="-4.348164559704428"><ele>722.1666666666667</ele><time>2026-04-18T09:11:12.998Z</time></trkpt><trkpt lat="37.58589265285377" lon="-4.3481692207205915"><ele>721.0</ele><time>2026-04-18T09:11:14.998Z</time></trkpt><trkpt lat="37.585966910277214" lon="-4.348107793915559"><ele>718.0</ele><time>2026-04-18T09:11:16.998Z</time></trkpt><trkpt lat="37.58604450345917" lon="-4.348028962275932"><ele>715.0</ele><time>2026-04-18T09:11:18.998Z</time></trkpt><trkpt lat="37.586121173211474" lon="-4.347981648498419"><ele>712.0</ele><time>2026-04-18T09:11:20.998Z</time></trkpt><trkpt lat="37.58620648254656" lon="-4.347991474284794"><ele>709.0</ele><time>2026-04-18T09:11:22.998Z</time></trkpt><trkpt lat="37.58629233667351" lon="-4.347993781782"><ele>706.0</ele><time>2026-04-18T09:11:25.998Z</time></trkpt><trkpt lat="37.58633327639327" lon="-4.347923127591065"><ele>703.0</ele><time>2026-04-18T09:11:27.998Z</time></trkpt><trkpt lat="37.58638468174581" lon="-4.3478483689790215"><ele>701.8</ele><time>2026-04-18T09:11:29.998Z</time></trkpt><trkpt lat="37.586452098336885" lon="-4.347783718179528"><ele>700.5999999999999</ele><time>2026-04-18T09:11:31.998Z</time></trkpt><trkpt lat="37.586543191910955" lon="-4.347745372017396"><ele>699.4000000000001</ele><time>2026-04-18T09:11:33.998Z</time></trkpt><trkpt lat="37.58663735817755" lon="-4.34767062321439"><ele>698.2</ele><time>2026-04-18T09:11:35.998Z</time></trkpt><trkpt lat="37.58672855443743" lon="-4.34758586701176"><ele>697.0</ele><time>2026-04-18T09:11:37.998Z</time></trkpt><trkpt lat="37.58682290071408" lon="-4.34751074971342"><ele>697.0</ele><time>2026-04-18T09:11:39.998Z</time></trkpt><trkpt lat="37.58689199738876" lon="-4.347455160543304"><ele>697.0</ele><time>2026-04-18T09:11:41.998Z</time></trkpt><trkpt lat="37.58691391609985" lon="-4.347351808026358"><ele>697.0</ele><time>2026-04-18T09:11:43.998Z</time></trkpt><trkpt lat="37.586909410996384" lon="-4.347215990451817"><ele>697.0</ele><time>2026-04-18T09:11:45.998Z</time></trkpt><trkpt lat="37.58689076492854" lon="-4.347098034997483"><ele>697.0</ele><time>2026-04-18T09:11:47.998Z</time></trkpt><trkpt lat="37.58685013057508" lon="-4.346990221799218"><ele>694.8333333333334</ele><time>2026-04-18T09:11:49.998Z</time></trkpt><trkpt lat="37.586874176243334" lon="-4.346861393578077"><ele>692.6666666666667</ele><time>2026-04-18T09:11:51.998Z</time></trkpt><trkpt lat="37.586903647270375" lon="-4.3467813078937345"><ele>690.5</ele><time>2026-04-18T09:11:52.998Z</time></trkpt><trkpt lat="37.58691966032974" lon="-4.346698109812807"><ele>688.3333333333334</ele><time>2026-04-18T09:11:53.998Z</time></trkpt><trkpt lat="37.58696181177072" lon="-4.346570920793975"><ele>686.1666666666666</ele><time>2026-04-18T09:11:55.998Z</time></trkpt><trkpt lat="37.587031569343544" lon="-4.346565453233749"><ele>684.0</ele><time>2026-04-18T09:11:58Z</time></trkpt><trkpt lat="37.58712823266285" lon="-4.3465397072916785"><ele>683.6</ele><time>2026-04-18T09:12:00Z</time></trkpt><trkpt lat="37.587226108903245" lon="-4.346479827237249"><ele>683.2</ele><time>2026-04-18T09:12:02Z</time></trkpt><trkpt lat="37.58731219924847" lon="-4.346390308518785"><ele>682.8000000000001</ele><time>2026-04-18T09:12:04Z</time></trkpt><trkpt lat="37.58738337952915" lon="-4.346284712158276"><ele>682.4000000000001</ele><time>2026-04-18T09:12:06Z</time></trkpt><trkpt lat="37.58745936463544" lon="-4.346183757493935"><ele>682.0</ele><time>2026-04-18T09:12:08Z</time></trkpt><trkpt lat="37.58751167305065" lon="-4.346127139426294"><ele>680.0</ele><time>2026-04-18T09:12:09Z</time></trkpt><trkpt lat="37.587563028758105" lon="-4.34606545730149"><ele>678.0</ele><time>2026-04-18T09:12:10Z</time></trkpt><trkpt lat="37.58762519972086" lon="-4.345993992775455"><ele>676.0</ele><time>2026-04-18T09:12:11Z</time></trkpt><trkpt lat="37.5876746464727" lon="-4.345931189067782"><ele>674.0</ele><time>2026-04-18T09:12:12Z</time></trkpt><trkpt lat="37.587728274652434" lon="-4.345857543024441"><ele>672.0</ele><time>2026-04-18T09:12:13Z</time></trkpt><trkpt lat="37.58777652772663" lon="-4.345760119623925"><ele>670.0</ele><time>2026-04-18T09:12:14Z</time></trkpt><trkpt lat="37.58782096446071" lon="-4.34567916046514"><ele>668.0</ele><time>2026-04-18T09:12:15Z</time></trkpt><trkpt lat="37.587862751547576" lon="-4.345537923680531"><ele>666.0</ele><time>2026-04-18T09:12:17Z</time></trkpt><trkpt lat="37.587966702050814" lon="-4.3454331704990965"><ele>664.0</ele><time>2026-04-18T09:12:19Z</time></trkpt><trkpt lat="37.58803457949378" lon="-4.345388702126096"><ele>662.0</ele><time>2026-04-18T09:12:20Z</time></trkpt><trkpt lat="37.58809929882418" lon="-4.3453404077477895"><ele>660.0</ele><time>2026-04-18T09:12:21Z</time></trkpt><trkpt lat="37.58815199812544" lon="-4.345272158799255"><ele>660.0</ele><time>2026-04-18T09:12:22Z</time></trkpt><trkpt lat="37.58821203469838" lon="-4.345187775160742"><ele>660.0</ele><time>2026-04-18T09:12:23Z</time></trkpt><trkpt lat="37.58825946153417" lon="-4.345101787545371"><ele>660.0</ele><time>2026-04-18T09:12:24Z</time></trkpt><trkpt lat="37.58831985063156" lon="-4.345043698653754"><ele>660.0</ele><time>2026-04-18T09:12:25Z</time></trkpt><trkpt lat="37.58839232222516" lon="-4.344999850314375"><ele>660.0</ele><time>2026-04-18T09:12:26Z</time></trkpt><trkpt lat="37.588460982593254" lon="-4.344979185118839"><ele>660.0</ele><time>2026-04-18T09:12:26.999Z</time></trkpt><trkpt lat="37.58858105606645" lon="-4.34495619419358"><ele>660.0</ele><time>2026-04-18T09:12:28.999Z</time></trkpt><trkpt lat="37.58859582304493" lon="-4.3448745374251905"><ele>660.0</ele><time>2026-04-18T09:12:31.999Z</time></trkpt><trkpt lat="37.58856039956513" lon="-4.344772121674376"><ele>660.0</ele><time>2026-04-18T09:12:33.999Z</time></trkpt><trkpt lat="37.588518691042495" lon="-4.34466593927679"><ele>660.0</ele><time>2026-04-18T09:12:35.999Z</time></trkpt><trkpt lat="37.58846239632404" lon="-4.344574488638375"><ele>660.0</ele><time>2026-04-18T09:12:37.999Z</time></trkpt><trkpt lat="37.5884078124085" lon="-4.344482829549463"><ele>660.0</ele><time>2026-04-18T09:12:39.999Z</time></trkpt><trkpt lat="37.58835399752342" lon="-4.344350654984147"><ele>660.3333333333334</ele><time>2026-04-18T09:12:41.999Z</time></trkpt><trkpt lat="37.58830979571283" lon="-4.344292497084346"><ele>660.6666666666666</ele><time>2026-04-18T09:12:42.999Z</time></trkpt><trkpt lat="37.588247915582514" lon="-4.34419525111629"><ele>661.0</ele><time>2026-04-18T09:12:44.999Z</time></trkpt><trkpt lat="37.58821384887649" lon="-4.344101154383627"><ele>661.3333333333333</ele><time>2026-04-18T09:12:46.999Z</time></trkpt><trkpt lat="37.58817781185407" lon="-4.343995785296908"><ele>661.6666666666666</ele><time>2026-04-18T09:12:48.999Z</time></trkpt><trkpt lat="37.588152071305075" lon="-4.343868184368265"><ele>662.0</ele><time>2026-04-18T09:12:50.999Z</time></trkpt><trkpt lat="37.58811531703044" lon="-4.343771179439388"><ele>662.1666666666666</ele><time>2026-04-18T09:12:52.999Z</time></trkpt><trkpt lat="37.58801263932471" lon="-4.343751441334629"><ele>662.3333333333333</ele><time>2026-04-18T09:12:54.999Z</time></trkpt><trkpt lat="37.58790218365992" lon="-4.343715167096706"><ele>662.5</ele><time>2026-04-18T09:12:56.999Z</time></trkpt><trkpt lat="37.587853587801895" lon="-4.343660157309101"><ele>662.6666666666666</ele><time>2026-04-18T09:12:57.999Z</time></trkpt><trkpt lat="37.58778915754516" lon="-4.3436181625452095"><ele>662.8333333333334</ele><time>2026-04-18T09:12:58.999Z</time></trkpt><trkpt lat="37.58772555269717" lon="-4.343575548432146"><ele>663.0</ele><time>2026-04-18T09:12:59.999Z</time></trkpt><trkpt lat="37.58766260691323" lon="-4.343518907458525"><ele>660.0</ele><time>2026-04-18T09:13:00.999Z</time></trkpt><trkpt lat="37.58760162161421" lon="-4.343455391121133"><ele>657.0</ele><time>2026-04-18T09:13:01.999Z</time></trkpt><trkpt lat="37.587558800671054" lon="-4.343345146304956"><ele>654.0</ele><time>2026-04-18T09:13:02.999Z</time></trkpt><trkpt lat="37.587513390057495" lon="-4.34325451139919"><ele>651.0</ele><time>2026-04-18T09:13:03.999Z</time></trkpt><trkpt lat="37.58747055951932" lon="-4.3431761231839"><ele>648.0</ele><time>2026-04-18T09:13:04.999Z</time></trkpt><trkpt lat="37.587434787224" lon="-4.343100302136837"><ele>645.0</ele><time>2026-04-18T09:13:05.999Z</time></trkpt><trkpt lat="37.587406674328655" lon="-4.343014541935034"><ele>644.0</ele><time>2026-04-18T09:13:06.999Z</time></trkpt><trkpt lat="37.58736631055324" lon="-4.342940441085886"><ele>643.0</ele><time>2026-04-18T09:13:07.999Z</time></trkpt><trkpt lat="37.58729843776499" lon="-4.342880088696773"><ele>642.0</ele><time>2026-04-18T09:13:08.999Z</time></trkpt><trkpt lat="37.58721094461629" lon="-4.342835864714489"><ele>641.0</ele><time>2026-04-18T09:13:09.999Z</time></trkpt><trkpt lat="37.58713306010382" lon="-4.342789602587848"><ele>640.0</ele><time>2026-04-18T09:13:10.999Z</time></trkpt><trkpt lat="37.58707239765328" lon="-4.342757419547669"><ele>639.0</ele><time>2026-04-18T09:13:11.999Z</time></trkpt><trkpt lat="37.58697194003759" lon="-4.342745676553938"><ele>637.0</ele><time>2026-04-18T09:13:13.999Z</time></trkpt><trkpt lat="37.58693041737435" lon="-4.342666829487213"><ele>635.0</ele><time>2026-04-18T09:13:15.999Z</time></trkpt><trkpt lat="37.58685261644042" lon="-4.342548642550867"><ele>633.0</ele><time>2026-04-18T09:13:17.999Z</time></trkpt><trkpt lat="37.58679867561209" lon="-4.342485393487032"><ele>631.0</ele><time>2026-04-18T09:13:18.999Z</time></trkpt><trkpt lat="37.58674764417709" lon="-4.342428765756278"><ele>629.0</ele><time>2026-04-18T09:13:19.998Z</time></trkpt><trkpt lat="37.58670229022229" lon="-4.342350281247726"><ele>627.0</ele><time>2026-04-18T09:13:20.998Z</time></trkpt><trkpt lat="37.58665566576732" lon="-4.34227537111648"><ele>626.0</ele><time>2026-04-18T09:13:21.998Z</time></trkpt><trkpt lat="37.58660290048063" lon="-4.34221455965102"><ele>625.0</ele><time>2026-04-18T09:13:22.998Z</time></trkpt><trkpt lat="37.586547148319156" lon="-4.342148597289462"><ele>624.0</ele><time>2026-04-18T09:13:23.998Z</time></trkpt><trkpt lat="37.58650722010119" lon="-4.342085677557284"><ele>623.0</ele><time>2026-04-18T09:13:24.998Z</time></trkpt><trkpt lat="37.586503538245196" lon="-4.341982070761938"><ele>622.0</ele><time>2026-04-18T09:13:26.998Z</time></trkpt><trkpt lat="37.58645764876366" lon="-4.341910951614242"><ele>621.0</ele><time>2026-04-18T09:13:28.998Z</time></trkpt><trkpt lat="37.5863957304747" lon="-4.341814763864873"><ele>621.0</ele><time>2026-04-18T09:13:30.998Z</time></trkpt><trkpt lat="37.5863455118403" lon="-4.341734077181714"><ele>621.0</ele><time>2026-04-18T09:13:32.998Z</time></trkpt><trkpt lat="37.586337008769895" lon="-4.341646821906577"><ele>621.0</ele><time>2026-04-18T09:13:34.998Z</time></trkpt><trkpt lat="37.58634406572927" lon="-4.341567243014877"><ele>621.0</ele><time>2026-04-18T09:13:36.998Z</time></trkpt><trkpt lat="37.5862569997018" lon="-4.3415255255939735"><ele>621.0</ele><time>2026-04-18T09:13:39.998Z</time></trkpt><trkpt lat="37.58617006537699" lon="-4.34158140530283"><ele>621.0</ele><time>2026-04-18T09:13:41.998Z</time></trkpt><trkpt lat="37.5860818235363" lon="-4.341570275101465"><ele>619.3333333333334</ele><time>2026-04-18T09:13:44.998Z</time></trkpt><trkpt lat="37.5860026935001" lon="-4.341484865841851"><ele>617.6666666666666</ele><time>2026-04-18T09:13:46.998Z</time></trkpt><trkpt lat="37.58591647114305" lon="-4.341384887325547"><ele>616.0</ele><time>2026-04-18T09:13:48.998Z</time></trkpt><trkpt lat="37.58586560240723" lon="-4.341325284045795"><ele>614.3333333333333</ele><time>2026-04-18T09:13:49.998Z</time></trkpt><trkpt lat="37.585824068980344" lon="-4.341247151613556"><ele>612.6666666666666</ele><time>2026-04-18T09:13:50.998Z</time></trkpt><trkpt lat="37.58577589485508" lon="-4.34119431596688"><ele>611.0</ele><time>2026-04-18T09:13:51.998Z</time></trkpt><trkpt lat="37.58570945915186" lon="-4.341136436975965"><ele>609.8333333333333</ele><time>2026-04-18T09:13:52.998Z</time></trkpt><trkpt lat="37.58564665864035" lon="-4.3410817966263515"><ele>608.6666666666666</ele><time>2026-04-18T09:13:53.998Z</time></trkpt><trkpt lat="37.5856073078672" lon="-4.341015493548768"><ele>607.5</ele><time>2026-04-18T09:13:54.998Z</time></trkpt><trkpt lat="37.58560848594794" lon="-4.340900595030619"><ele>606.3333333333334</ele><time>2026-04-18T09:13:56.998Z</time></trkpt><trkpt lat="37.585601571035134" lon="-4.340754462055313"><ele>605.1666666666667</ele><time>2026-04-18T09:13:58.998Z</time></trkpt><trkpt lat="37.58555486298098" lon="-4.340670391441584"><ele>604.0</ele><time>2026-04-18T09:13:59.998Z</time></trkpt><trkpt lat="37.58550628387243" lon="-4.340583712674474"><ele>602.0</ele><time>2026-04-18T09:14:00.998Z</time></trkpt><trkpt lat="37.58546233488645" lon="-4.340495193318077"><ele>600.0</ele><time>2026-04-18T09:14:01.998Z</time></trkpt><trkpt lat="37.585417888304335" lon="-4.340411591300777"><ele>598.0</ele><time>2026-04-18T09:14:02.998Z</time></trkpt><trkpt lat="37.58535905110388" lon="-4.34027641295468"><ele>596.0</ele><time>2026-04-18T09:14:05Z</time></trkpt><trkpt lat="37.585342029685904" lon="-4.34017169495419"><ele>594.0</ele><time>2026-04-18T09:14:07Z</time></trkpt><trkpt lat="37.58539712312642" lon="-4.340112576666536"><ele>592.0</ele><time>2026-04-18T09:14:09Z</time></trkpt><trkpt lat="37.585476385115065" lon="-4.340110796394052"><ele>592.0</ele><time>2026-04-18T09:14:11Z</time></trkpt><trkpt lat="37.58554266099809" lon="-4.340094441124061"><ele>592.0</ele><time>2026-04-18T09:14:13Z</time></trkpt><trkpt lat="37.58561373025872" lon="-4.340060983970411"><ele>592.0</ele><time>2026-04-18T09:14:15Z</time></trkpt><trkpt lat="37.58568653714829" lon="-4.34001574594539"><ele>592.0</ele><time>2026-04-18T09:14:17Z</time></trkpt><trkpt lat="37.58575316461563" lon="-4.339974749311163"><ele>592.0</ele><time>2026-04-18T09:14:19Z</time></trkpt><trkpt lat="37.58582043561505" lon="-4.339928036102939"><ele>592.0</ele><time>2026-04-18T09:14:21Z</time></trkpt><trkpt lat="37.58590396385244" lon="-4.339881830583239"><ele>592.0</ele><time>2026-04-18T09:14:23Z</time></trkpt><trkpt lat="37.58598358609669" lon="-4.339830713478841"><ele>592.0</ele><time>2026-04-18T09:14:25Z</time></trkpt><trkpt lat="37.586070270057746" lon="-4.33978318133498"><ele>592.0</ele><time>2026-04-18T09:14:27Z</time></trkpt><trkpt lat="37.586159763437394" lon="-4.339727306805197"><ele>592.0</ele><time>2026-04-18T09:14:29Z</time></trkpt><trkpt lat="37.58625464526838" lon="-4.3396709492758285"><ele>592.0</ele><time>2026-04-18T09:14:31Z</time></trkpt><trkpt lat="37.58635859623511" lon="-4.339616903133092"><ele>590.8333333333334</ele><time>2026-04-18T09:14:33Z</time></trkpt><trkpt lat="37.586467098425075" lon="-4.339551836994882"><ele>589.6666666666667</ele><time>2026-04-18T09:14:34.999Z</time></trkpt><trkpt lat="37.58657240613261" lon="-4.3394777447258885"><ele>588.5</ele><time>2026-04-18T09:14:36.999Z</time></trkpt><trkpt lat="37.58663493416578" lon="-4.339457215297352"><ele>587.3333333333334</ele><time>2026-04-18T09:14:37.999Z</time></trkpt><trkpt lat="37.586697306859406" lon="-4.339440144327352"><ele>586.1666666666666</ele><time>2026-04-18T09:14:38.999Z</time></trkpt><trkpt lat="37.58675949843018" lon="-4.339426389727251"><ele>585.0</ele><time>2026-04-18T09:14:39.999Z</time></trkpt><trkpt lat="37.58682298010627" lon="-4.33941596188079"><ele>585.0</ele><time>2026-04-18T09:14:40.999Z</time></trkpt><trkpt lat="37.586953184212724" lon="-4.339404742899843"><ele>585.0</ele><time>2026-04-18T09:14:42.999Z</time></trkpt><trkpt lat="37.58701789916174" lon="-4.339397643192705"><ele>585.0</ele><time>2026-04-18T09:14:43.999Z</time></trkpt><trkpt lat="37.587083018153166" lon="-4.339387251936731"><ele>585.0</ele><time>2026-04-18T09:14:44.999Z</time></trkpt><trkpt lat="37.587197727759566" lon="-4.339323072868667"><ele>585.0</ele><time>2026-04-18T09:14:46.999Z</time></trkpt><trkpt lat="37.58724259332346" lon="-4.339256640394017"><ele>585.1666666666666</ele><time>2026-04-18T09:14:47.999Z</time></trkpt><trkpt lat="37.58727327458899" lon="-4.339169566409716"><ele>585.3333333333334</ele><time>2026-04-18T09:14:48.999Z</time></trkpt><trkpt lat="37.58730089538758" lon="-4.3390691623662425"><ele>585.5</ele><time>2026-04-18T09:14:49.999Z</time></trkpt><trkpt lat="37.58733880328324" lon="-4.338969431279075"><ele>585.6666666666667</ele><time>2026-04-18T09:14:50.999Z</time></trkpt><trkpt lat="37.58737140506841" lon="-4.338857687804642"><ele>585.8333333333334</ele><time>2026-04-18T09:14:51.999Z</time></trkpt><trkpt lat="37.587403911457635" lon="-4.338751277534771"><ele>586.0</ele><time>2026-04-18T09:14:52.999Z</time></trkpt><trkpt lat="37.587448778783894" lon="-4.33862570781604"><ele>583.8</ele><time>2026-04-18T09:14:53.999Z</time></trkpt><trkpt lat="37.58749143170961" lon="-4.3384978324407575"><ele>581.6</ele><time>2026-04-18T09:14:54.999Z</time></trkpt><trkpt lat="37.587527611959544" lon="-4.338384473183314"><ele>579.4</ele><time>2026-04-18T09:14:55.999Z</time></trkpt><trkpt lat="37.58756406038138" lon="-4.338275630236502"><ele>577.2</ele><time>2026-04-18T09:14:56.999Z</time></trkpt><trkpt lat="37.58760819250041" lon="-4.338157584338516"><ele>575.0</ele><time>2026-04-18T09:14:57.999Z</time></trkpt><trkpt lat="37.5876489632025" lon="-4.338047541091694"><ele>573.4</ele><time>2026-04-18T09:14:58.999Z</time></trkpt><trkpt lat="37.587699203842746" lon="-4.33795792800656"><ele>571.8</ele><time>2026-04-18T09:14:59.999Z</time></trkpt><trkpt lat="37.58775418371211" lon="-4.337861154742984"><ele>570.2</ele><time>2026-04-18T09:15:00.999Z</time></trkpt><trkpt lat="37.58778523352314" lon="-4.3377463567260275"><ele>568.6</ele><time>2026-04-18T09:15:01.999Z</time></trkpt><trkpt lat="37.5877937356614" lon="-4.3376306798587585"><ele>567.0</ele><time>2026-04-18T09:15:02.999Z</time></trkpt><trkpt lat="37.587811202772485" lon="-4.337514741169409"><ele>566.6</ele><time>2026-04-18T09:15:03.999Z</time></trkpt><trkpt lat="37.58785327712303" lon="-4.337409566701501"><ele>566.2</ele><time>2026-04-18T09:15:04.999Z</time></trkpt><trkpt lat="37.587904639521284" lon="-4.337316908036966"><ele>565.8</ele><time>2026-04-18T09:15:05.999Z</time></trkpt><trkpt lat="37.58794870324201" lon="-4.337222000230424"><ele>565.4</ele><time>2026-04-18T09:15:06.999Z</time></trkpt><trkpt lat="37.58798911552041" lon="-4.337120723424613"><ele>565.0</ele><time>2026-04-18T09:15:07.999Z</time></trkpt><trkpt lat="37.588044966047086" lon="-4.337025842194641"><ele>565.0</ele><time>2026-04-18T09:15:08.999Z</time></trkpt><trkpt lat="37.58810866546602" lon="-4.336935665479603"><ele>565.0</ele><time>2026-04-18T09:15:09.999Z</time></trkpt><trkpt lat="37.58817603027627" lon="-4.33684444548691"><ele>565.0</ele><time>2026-04-18T09:15:10.999Z</time></trkpt><trkpt lat="37.5882468636454" lon="-4.336751954526604"><ele>565.0</ele><time>2026-04-18T09:15:11.999Z</time></trkpt><trkpt lat="37.5883250523418" lon="-4.336654139352312"><ele>565.0</ele><time>2026-04-18T09:15:12.999Z</time></trkpt><trkpt lat="37.588397751338015" lon="-4.336553676433859"><ele>565.0</ele><time>2026-04-18T09:15:13.999Z</time></trkpt><trkpt lat="37.58847576086523" lon="-4.336443271823132"><ele>565.0</ele><time>2026-04-18T09:15:14.999Z</time></trkpt><trkpt lat="37.588529385029595" lon="-4.336342231115163"><ele>565.0</ele><time>2026-04-18T09:15:15.999Z</time></trkpt><trkpt lat="37.58856311367289" lon="-4.3362456250042465"><ele>565.0</ele><time>2026-04-18T09:15:16.999Z</time></trkpt><trkpt lat="37.588576303374" lon="-4.336131526902114"><ele>565.0</ele><time>2026-04-18T09:15:17.999Z</time></trkpt><trkpt lat="37.58857791949617" lon="-4.3360148532428"><ele>565.2</ele><time>2026-04-18T09:15:18.999Z</time></trkpt><trkpt lat="37.58860262688376" lon="-4.335904748935181"><ele>565.4</ele><time>2026-04-18T09:15:19.999Z</time></trkpt><trkpt lat="37.588649702035084" lon="-4.335807954722595"><ele>565.6</ele><time>2026-04-18T09:15:20.999Z</time></trkpt><trkpt lat="37.5887080088255" lon="-4.335719416837838"><ele>565.8</ele><time>2026-04-18T09:15:21.999Z</time></trkpt><trkpt lat="37.58877733633784" lon="-4.335640849613797"><ele>566.0</ele><time>2026-04-18T09:15:22.999Z</time></trkpt><trkpt lat="37.58884102509088" lon="-4.335561556792567"><ele>564.0</ele><time>2026-04-18T09:15:23.999Z</time></trkpt><trkpt lat="37.588898082656684" lon="-4.335476950290059"><ele>562.0</ele><time>2026-04-18T09:15:24.999Z</time></trkpt><trkpt lat="37.588952883358104" lon="-4.335380312456003"><ele>560.0</ele><time>2026-04-18T09:15:25.999Z</time></trkpt><trkpt lat="37.589007114824504" lon="-4.335284021992246"><ele>558.0</ele><time>2026-04-18T09:15:26.999Z</time></trkpt><trkpt lat="37.58906449597136" lon="-4.335186347425476"><ele>556.0</ele><time>2026-04-18T09:15:27.998Z</time></trkpt><trkpt lat="37.58912662202418" lon="-4.335095197231062"><ele>556.0</ele><time>2026-04-18T09:15:28.998Z</time></trkpt><trkpt lat="37.58918860188503" lon="-4.335005744866069"><ele>556.0</ele><time>2026-04-18T09:15:29.998Z</time></trkpt><trkpt lat="37.58924671101705" lon="-4.334911117956467"><ele>556.0</ele><time>2026-04-18T09:15:30.998Z</time></trkpt><trkpt lat="37.58930183610059" lon="-4.334817130497888"><ele>556.0</ele><time>2026-04-18T09:15:31.998Z</time></trkpt><trkpt lat="37.58935463413005" lon="-4.334726543821364"><ele>556.0</ele><time>2026-04-18T09:15:32.998Z</time></trkpt><trkpt lat="37.589404794839055" lon="-4.33463695853827"><ele>555.8333333333334</ele><time>2026-04-18T09:15:33.998Z</time></trkpt><trkpt lat="37.58945852210612" lon="-4.334557558528959"><ele>555.6666666666667</ele><time>2026-04-18T09:15:34.998Z</time></trkpt><trkpt lat="37.5895269189896" lon="-4.334501763625543"><ele>555.5</ele><time>2026-04-18T09:15:35.998Z</time></trkpt><trkpt lat="37.58960610795419" lon="-4.33448259778592"><ele>555.3333333333334</ele><time>2026-04-18T09:15:36.998Z</time></trkpt><trkpt lat="37.589689017533985" lon="-4.334504026426087"><ele>555.1666666666666</ele><time>2026-04-18T09:15:37.998Z</time></trkpt><trkpt lat="37.58976251503684" lon="-4.334539600136096"><ele>555.0</ele><time>2026-04-18T09:15:38.998Z</time></trkpt><trkpt lat="37.58986267199167" lon="-4.334562402423184"><ele>555.0</ele><time>2026-04-18T09:15:40.998Z</time></trkpt><trkpt lat="37.58992750710079" lon="-4.334468544555635"><ele>555.0</ele><time>2026-04-18T09:15:42.998Z</time></trkpt><trkpt lat="37.58992161012273" lon="-4.3343802189429415"><ele>555.0</ele><time>2026-04-18T09:15:43.998Z</time></trkpt><trkpt lat="37.58990208850113" lon="-4.334270357070396"><ele>555.0</ele><time>2026-04-18T09:15:45.998Z</time></trkpt><trkpt lat="37.589921466920195" lon="-4.3341259292405825"><ele>555.0</ele><time>2026-04-18T09:15:47.998Z</time></trkpt><trkpt lat="37.58996608397888" lon="-4.333983002945629"><ele>552.75</ele><time>2026-04-18T09:15:49.998Z</time></trkpt><trkpt lat="37.59001530198366" lon="-4.3338441723936665"><ele>550.5</ele><time>2026-04-18T09:15:51.998Z</time></trkpt><trkpt lat="37.590065524266656" lon="-4.3337087028265096"><ele>548.25</ele><time>2026-04-18T09:15:53.998Z</time></trkpt><trkpt lat="37.590113078087846" lon="-4.333584990843971"><ele>546.0</ele><time>2026-04-18T09:15:55.998Z</time></trkpt><trkpt lat="37.590167423248936" lon="-4.333474952437622"><ele>546.0</ele><time>2026-04-18T09:15:57.998Z</time></trkpt><trkpt lat="37.59022812595041" lon="-4.3333826078924105"><ele>546.0</ele><time>2026-04-18T09:15:59.998Z</time></trkpt><trkpt lat="37.59030397763899" lon="-4.333307264130986"><ele>546.0</ele><time>2026-04-18T09:16:01.998Z</time></trkpt><trkpt lat="37.590382105643265" lon="-4.33324034699336"><ele>546.0</ele><time>2026-04-18T09:16:03.998Z</time></trkpt><trkpt lat="37.590454525689175" lon="-4.333175128856334"><ele>546.0</ele><time>2026-04-18T09:16:05.998Z</time></trkpt><trkpt lat="37.59050055054034" lon="-4.333074503672159"><ele>549.0</ele><time>2026-04-18T09:16:07.998Z</time></trkpt><trkpt lat="37.590519366735116" lon="-4.332965792012038"><ele>552.0</ele><time>2026-04-18T09:16:10Z</time></trkpt><trkpt lat="37.59052530689053" lon="-4.332850068535066"><ele>555.0</ele><time>2026-04-18T09:16:12Z</time></trkpt><trkpt lat="37.59055131538162" lon="-4.332737987448784"><ele>558.0</ele><time>2026-04-18T09:16:14Z</time></trkpt><trkpt lat="37.590601994494136" lon="-4.332632781631164"><ele>561.0</ele><time>2026-04-18T09:16:16Z</time></trkpt><trkpt lat="37.590662386729186" lon="-4.332537686841316"><ele>561.0</ele><time>2026-04-18T09:16:18Z</time></trkpt><trkpt lat="37.59070376372012" lon="-4.332428195392161"><ele>561.0</ele><time>2026-04-18T09:16:20Z</time></trkpt><trkpt lat="37.59072821443358" lon="-4.332317729424594"><ele>561.0</ele><time>2026-04-18T09:16:22Z</time></trkpt><trkpt lat="37.59073436659582" lon="-4.332201645860989"><ele>561.0</ele><time>2026-04-18T09:16:24Z</time></trkpt><trkpt lat="37.59073955090912" lon="-4.332084381488833"><ele>561.0</ele><time>2026-04-18T09:16:26Z</time></trkpt><trkpt lat="37.59074782264821" lon="-4.331976163137421"><ele>561.0</ele><time>2026-04-18T09:16:28Z</time></trkpt><trkpt lat="37.59076287000365" lon="-4.331877131629817"><ele>561.0</ele><time>2026-04-18T09:16:30Z</time></trkpt><trkpt lat="37.590777969032004" lon="-4.331792827052782"><ele>561.0</ele><time>2026-04-18T09:16:32Z</time></trkpt><trkpt lat="37.59079708654731" lon="-4.331703864080412"><ele>561.0</ele><time>2026-04-18T09:16:34Z</time></trkpt><trkpt lat="37.590812929522954" lon="-4.33161550906447"><ele>561.0</ele><time>2026-04-18T09:16:36Z</time></trkpt><trkpt lat="37.590831479210685" lon="-4.3315200486895575"><ele>561.0</ele><time>2026-04-18T09:16:38Z</time></trkpt><trkpt lat="37.590849952916905" lon="-4.331421011582447"><ele>560.0</ele><time>2026-04-18T09:16:40Z</time></trkpt><trkpt lat="37.590880113368584" lon="-4.33131762534333"><ele>559.0</ele><time>2026-04-18T09:16:42Z</time></trkpt><trkpt lat="37.59091326881342" lon="-4.331201586672269"><ele>558.0</ele><time>2026-04-18T09:16:43.999Z</time></trkpt><trkpt lat="37.59095987976802" lon="-4.331078402709687"><ele>557.0</ele><time>2026-04-18T09:16:45.999Z</time></trkpt><trkpt lat="37.591005288003686" lon="-4.330937058013398"><ele>556.0</ele><time>2026-04-18T09:16:47.999Z</time></trkpt><trkpt lat="37.59103121978771" lon="-4.330858306483371"><ele>556.0</ele><time>2026-04-18T09:16:48.999Z</time></trkpt><trkpt lat="37.59104986967548" lon="-4.330775338970872"><ele>556.0</ele><time>2026-04-18T09:16:49.999Z</time></trkpt><trkpt lat="37.59107317988166" lon="-4.330685849564555"><ele>556.0</ele><time>2026-04-18T09:16:50.999Z</time></trkpt><trkpt lat="37.591098372848" lon="-4.330601329320324"><ele>556.0</ele><time>2026-04-18T09:16:51.999Z</time></trkpt><trkpt lat="37.59112178210476" lon="-4.330521365563575"><ele>556.0</ele><time>2026-04-18T09:16:52.999Z</time></trkpt><trkpt lat="37.59114268024543" lon="-4.330432513878274"><ele>556.0</ele><time>2026-04-18T09:16:53.999Z</time></trkpt><trkpt lat="37.59116648176619" lon="-4.330336370118619"><ele>556.0</ele><time>2026-04-18T09:16:54.999Z</time></trkpt><trkpt lat="37.59118989185651" lon="-4.330240370845663"><ele>556.6666666666667</ele><time>2026-04-18T09:16:55.999Z</time></trkpt><trkpt lat="37.59121407341865" lon="-4.330142418011104"><ele>557.3333333333334</ele><time>2026-04-18T09:16:56.999Z</time></trkpt><trkpt lat="37.59124342441145" lon="-4.330045411010773"><ele>558.0</ele><time>2026-04-18T09:16:57.999Z</time></trkpt><trkpt lat="37.59126857557471" lon="-4.329949749666606"><ele>558.6666666666666</ele><time>2026-04-18T09:16:58.999Z</time></trkpt><trkpt lat="37.59129408328456" lon="-4.3298489815996355"><ele>559.3333333333333</ele><time>2026-04-18T09:16:59.999Z</time></trkpt><trkpt lat="37.59131859641567" lon="-4.32975322204847"><ele>560.0</ele><time>2026-04-18T09:17:00.999Z</time></trkpt><trkpt lat="37.59133989326081" lon="-4.329657377160807"><ele>558.6666666666666</ele><time>2026-04-18T09:17:01.999Z</time></trkpt><trkpt lat="37.59136172651381" lon="-4.329558300471315"><ele>557.3333333333333</ele><time>2026-04-18T09:17:02.999Z</time></trkpt><trkpt lat="37.59137845173118" lon="-4.329461871822079"><ele>556.0</ele><time>2026-04-18T09:17:03.999Z</time></trkpt><trkpt lat="37.59139275858503" lon="-4.3293580239186635"><ele>554.6666666666666</ele><time>2026-04-18T09:17:04.999Z</time></trkpt><trkpt lat="37.59139884295347" lon="-4.329253699843668"><ele>553.3333333333334</ele><time>2026-04-18T09:17:05.999Z</time></trkpt><trkpt lat="37.591404152708165" lon="-4.329151738560299"><ele>552.0</ele><time>2026-04-18T09:17:06.999Z</time></trkpt><trkpt lat="37.59141759580164" lon="-4.32904363624112"><ele>552.0</ele><time>2026-04-18T09:17:07.999Z</time></trkpt><trkpt lat="37.59143308283214" lon="-4.328918217950296"><ele>552.0</ele><time>2026-04-18T09:17:08.999Z</time></trkpt><trkpt lat="37.59145121718155" lon="-4.328799848540906"><ele>552.0</ele><time>2026-04-18T09:17:09.999Z</time></trkpt><trkpt lat="37.591470519210894" lon="-4.328681212779776"><ele>552.0</ele><time>2026-04-18T09:17:10.999Z</time></trkpt><trkpt lat="37.591500405933836" lon="-4.3285720138130035"><ele>552.0</ele><time>2026-04-18T09:17:11.999Z</time></trkpt><trkpt lat="37.59153864202376" lon="-4.328479274421275"><ele>550.3333333333334</ele><time>2026-04-18T09:17:12.999Z</time></trkpt><trkpt lat="37.591575696338914" lon="-4.328396006049982"><ele>548.6666666666666</ele><time>2026-04-18T09:17:13.999Z</time></trkpt><trkpt lat="37.59162096791093" lon="-4.328312249309365"><ele>547.0</ele><time>2026-04-18T09:17:14.999Z</time></trkpt><trkpt lat="37.59167657592177" lon="-4.328224606402229"><ele>545.3333333333333</ele><time>2026-04-18T09:17:15.999Z</time></trkpt><trkpt lat="37.59173903238938" lon="-4.32814032373018"><ele>543.6666666666666</ele><time>2026-04-18T09:17:16.999Z</time></trkpt><trkpt lat="37.59181328760611" lon="-4.328058039044682"><ele>542.0</ele><time>2026-04-18T09:17:17.999Z</time></trkpt><trkpt lat="37.59190150176939" lon="-4.327988376230391"><ele>539.0</ele><time>2026-04-18T09:17:18.999Z</time></trkpt><trkpt lat="37.59199546205271" lon="-4.32790682019914"><ele>536.0</ele><time>2026-04-18T09:17:19.999Z</time></trkpt><trkpt lat="37.59208755186267" lon="-4.327826465126877"><ele>533.0</ele><time>2026-04-18T09:17:20.999Z</time></trkpt><trkpt lat="37.59218803182566" lon="-4.327757444993809"><ele>530.0</ele><time>2026-04-18T09:17:21.999Z</time></trkpt><trkpt lat="37.592282164504645" lon="-4.327687120661467"><ele>529.25</ele><time>2026-04-18T09:17:22.999Z</time></trkpt><trkpt lat="37.592372336075094" lon="-4.327601650509084"><ele>528.5</ele><time>2026-04-18T09:17:23.999Z</time></trkpt><trkpt lat="37.5924598779579" lon="-4.327489115916925"><ele>527.75</ele><time>2026-04-18T09:17:24.999Z</time></trkpt><trkpt lat="37.592539185302336" lon="-4.327351640080658"><ele>527.0</ele><time>2026-04-18T09:17:25.999Z</time></trkpt><trkpt lat="37.5926055175138" lon="-4.3271893839030175"><ele>527.25</ele><time>2026-04-18T09:17:26.999Z</time></trkpt><trkpt lat="37.59266654357009" lon="-4.327010784670275"><ele>527.5</ele><time>2026-04-18T09:17:27.999Z</time></trkpt><trkpt lat="37.592722209751564" lon="-4.326843554581578"><ele>527.75</ele><time>2026-04-18T09:17:28.999Z</time></trkpt><trkpt lat="37.59278371524566" lon="-4.326689857056247"><ele>528.0</ele><time>2026-04-18T09:17:29.999Z</time></trkpt><trkpt lat="37.59285061939728" lon="-4.3265555991242035"><ele>528.0</ele><time>2026-04-18T09:17:30.999Z</time></trkpt><trkpt lat="37.592912985705226" lon="-4.326434611500898"><ele>528.0</ele><time>2026-04-18T09:17:31.999Z</time></trkpt><trkpt lat="37.592967197414914" lon="-4.326311375921876"><ele>528.0</ele><time>2026-04-18T09:17:32.999Z</time></trkpt><trkpt lat="37.59300796073239" lon="-4.3261799205695315"><ele>528.0</ele><time>2026-04-18T09:17:33.999Z</time></trkpt><trkpt lat="37.59304805048509" lon="-4.326051592689042"><ele>528.0</ele><time>2026-04-18T09:17:34.999Z</time></trkpt><trkpt lat="37.593105556281195" lon="-4.325936186803001"><ele>525.0</ele><time>2026-04-18T09:17:35.999Z</time></trkpt><trkpt lat="37.59317657706219" lon="-4.325829885498683"><ele>522.0</ele><time>2026-04-18T09:17:36.998Z</time></trkpt><trkpt lat="37.59323141519656" lon="-4.325720111855115"><ele>519.0</ele><time>2026-04-18T09:17:37.998Z</time></trkpt><trkpt lat="37.593284532443086" lon="-4.325619566887164"><ele>516.0</ele><time>2026-04-18T09:17:38.998Z</time></trkpt><trkpt lat="37.59332486481574" lon="-4.325515173482699"><ele>513.0</ele><time>2026-04-18T09:17:39.998Z</time></trkpt><trkpt lat="37.593351966691344" lon="-4.325408443388349"><ele>511.4285714285715</ele><time>2026-04-18T09:17:40.998Z</time></trkpt><trkpt lat="37.593373558160906" lon="-4.325308873536823"><ele>509.8571428571429</ele><time>2026-04-18T09:17:41.998Z</time></trkpt><trkpt lat="37.59340013839291" lon="-4.325213591680227"><ele>508.2857142857143</ele><time>2026-04-18T09:17:42.998Z</time></trkpt><trkpt lat="37.593420363132026" lon="-4.325119330803061"><ele>506.7142857142857</ele><time>2026-04-18T09:17:43.998Z</time></trkpt><trkpt lat="37.59343706367064" lon="-4.325033363416948"><ele>505.1428571428571</ele><time>2026-04-18T09:17:44.998Z</time></trkpt><trkpt lat="37.59345824071366" lon="-4.3249517073456625"><ele>503.5714285714285</ele><time>2026-04-18T09:17:45.998Z</time></trkpt><trkpt lat="37.59348103285974" lon="-4.324872287363086"><ele>501.99999999999994</ele><time>2026-04-18T09:17:46.998Z</time></trkpt><trkpt lat="37.59351477012529" lon="-4.324728756219568"><ele>501.40000000000003</ele><time>2026-04-18T09:17:48.998Z</time></trkpt><trkpt lat="37.5935313341794" lon="-4.3245942661431815"><ele>500.80000000000007</ele><time>2026-04-18T09:17:50.998Z</time></trkpt><trkpt lat="37.59354313649664" lon="-4.324462122676605"><ele>500.2</ele><time>2026-04-18T09:17:52.998Z</time></trkpt><trkpt lat="37.593553829883255" lon="-4.324342519725049"><ele>499.6</ele><time>2026-04-18T09:17:54.998Z</time></trkpt><trkpt lat="37.59356160040435" lon="-4.324246015847121"><ele>499.0</ele><time>2026-04-18T09:17:56.998Z</time></trkpt><trkpt lat="37.593591074203395" lon="-4.324148499006178"><ele>499.00000000000006</ele><time>2026-04-18T09:17:58.998Z</time></trkpt><trkpt lat="37.59362824807276" lon="-4.324054822899304"><ele>499.0</ele><time>2026-04-18T09:18:00.998Z</time></trkpt><trkpt lat="37.59368800758652" lon="-4.3239978584751135"><ele>499.0</ele><time>2026-04-18T09:18:02.998Z</time></trkpt><trkpt lat="37.59375366438997" lon="-4.323926437474267"><ele>499.0</ele><time>2026-04-18T09:18:04.998Z</time></trkpt><trkpt lat="37.59381730229914" lon="-4.32384745350734"><ele>499.00000000000006</ele><time>2026-04-18T09:18:06.998Z</time></trkpt><trkpt lat="37.59389154418819" lon="-4.323766028733513"><ele>499.0</ele><time>2026-04-18T09:18:08.998Z</time></trkpt><trkpt lat="37.59397575278644" lon="-4.323685608767926"><ele>500.25</ele><time>2026-04-18T09:18:10.998Z</time></trkpt><trkpt lat="37.5940595616767" lon="-4.323602656349045"><ele>501.5</ele><time>2026-04-18T09:18:12.998Z</time></trkpt><trkpt lat="37.59415675866545" lon="-4.323514085261773"><ele>502.75</ele><time>2026-04-18T09:18:15Z</time></trkpt><trkpt lat="37.59425669538935" lon="-4.323432628186122"><ele>504.0</ele><time>2026-04-18T09:18:17Z</time></trkpt><trkpt lat="37.59435457269094" lon="-4.3233392008408265"><ele>504.0</ele><time>2026-04-18T09:18:19Z</time></trkpt><trkpt lat="37.59444419159561" lon="-4.32323992652514"><ele>504.0</ele><time>2026-04-18T09:18:21Z</time></trkpt><trkpt lat="37.594492423393405" lon="-4.323186691264914"><ele>504.0</ele><time>2026-04-18T09:18:22Z</time></trkpt><trkpt lat="37.594582303339074" lon="-4.323096498710697"><ele>504.0</ele><time>2026-04-18T09:18:24Z</time></trkpt><trkpt lat="37.59467494783427" lon="-4.32300911786498"><ele>504.0</ele><time>2026-04-18T09:18:26Z</time></trkpt><trkpt lat="37.59477301834188" lon="-4.322914996416568"><ele>503.75</ele><time>2026-04-18T09:18:28Z</time></trkpt><trkpt lat="37.59487161431063" lon="-4.322827640385468"><ele>503.5</ele><time>2026-04-18T09:18:30Z</time></trkpt><trkpt lat="37.59497215484279" lon="-4.3227493383271325"><ele>503.25</ele><time>2026-04-18T09:18:32Z</time></trkpt><trkpt lat="37.595073152953255" lon="-4.322683554439858"><ele>503.0</ele><time>2026-04-18T09:18:34Z</time></trkpt><trkpt lat="37.59516614620101" lon="-4.322617620729378"><ele>503.0</ele><time>2026-04-18T09:18:36Z</time></trkpt><trkpt lat="37.59525565247479" lon="-4.322533406000647"><ele>503.0</ele><time>2026-04-18T09:18:38Z</time></trkpt><trkpt lat="37.595347426998345" lon="-4.322444206248779"><ele>503.0</ele><time>2026-04-18T09:18:40Z</time></trkpt><trkpt lat="37.5954393011132" lon="-4.322368828750114"><ele>503.0</ele><time>2026-04-18T09:18:42Z</time></trkpt><trkpt lat="37.59555016532053" lon="-4.322325392574669"><ele>503.66666666666663</ele><time>2026-04-18T09:18:44Z</time></trkpt><trkpt lat="37.59561688504852" lon="-4.322319175218724"><ele>504.3333333333333</ele><time>2026-04-18T09:18:45Z</time></trkpt><trkpt lat="37.595685873626834" lon="-4.322315844614424"><ele>505.0</ele><time>2026-04-18T09:18:46Z</time></trkpt><trkpt lat="37.595750929797" lon="-4.322322284112377"><ele>505.66666666666663</ele><time>2026-04-18T09:18:47Z</time></trkpt><trkpt lat="37.59587051629052" lon="-4.322367460350124"><ele>506.3333333333333</ele><time>2026-04-18T09:18:48.999Z</time></trkpt><trkpt lat="37.59594246972804" lon="-4.322413399175612"><ele>507.0</ele><time>2026-04-18T09:18:50.999Z</time></trkpt><trkpt lat="37.59602215736347" lon="-4.322480223980614"><ele>507.0</ele><time>2026-04-18T09:18:52.999Z</time></trkpt><trkpt lat="37.596097167306226" lon="-4.322552372599409"><ele>507.00000000000006</ele><time>2026-04-18T09:18:54.999Z</time></trkpt><trkpt lat="37.59618396785329" lon="-4.322625927615171"><ele>507.00000000000006</ele><time>2026-04-18T09:18:56.999Z</time></trkpt><trkpt lat="37.596271145984616" lon="-4.322705062103736"><ele>507.0</ele><time>2026-04-18T09:18:58.999Z</time></trkpt><trkpt lat="37.59637462160928" lon="-4.322770884560736"><ele>507.0</ele><time>2026-04-18T09:19:00.999Z</time></trkpt><trkpt lat="37.596491507704556" lon="-4.322831314277062"><ele>504.5</ele><time>2026-04-18T09:19:02.999Z</time></trkpt><trkpt lat="37.59655406744305" lon="-4.322863193339824"><ele>502.0</ele><time>2026-04-18T09:19:03.999Z</time></trkpt><trkpt lat="37.59661887950749" lon="-4.322890989395878"><ele>499.5</ele><time>2026-04-18T09:19:04.999Z</time></trkpt><trkpt lat="37.59668257668888" lon="-4.32292170397404"><ele>497.0</ele><time>2026-04-18T09:19:05.999Z</time></trkpt><trkpt lat="37.59674683417979" lon="-4.3229500249691615"><ele>494.5</ele><time>2026-04-18T09:19:06.999Z</time></trkpt><trkpt lat="37.59682428548152" lon="-4.322996834118774"><ele>492.0</ele><time>2026-04-18T09:19:07.999Z</time></trkpt><trkpt lat="37.59690659060775" lon="-4.323057564135027"><ele>492.00000000000006</ele><time>2026-04-18T09:19:08.999Z</time></trkpt><trkpt lat="37.59699849363536" lon="-4.323050701197311"><ele>492.0</ele><time>2026-04-18T09:19:10.999Z</time></trkpt><trkpt lat="37.59706590979963" lon="-4.323061172355686"><ele>492.00000000000006</ele><time>2026-04-18T09:19:11.999Z</time></trkpt><trkpt lat="37.59713167306997" lon="-4.323072002804114"><ele>492.00000000000006</ele><time>2026-04-18T09:19:12.999Z</time></trkpt><trkpt lat="37.597197034403685" lon="-4.323078966224692"><ele>492.0</ele><time>2026-04-18T09:19:13.999Z</time></trkpt><trkpt lat="37.59726278790014" lon="-4.32308054002452"><ele>492.00000000000006</ele><time>2026-04-18T09:19:14.999Z</time></trkpt><trkpt lat="37.59733095562862" lon="-4.323077219451376"><ele>492.00000000000006</ele><time>2026-04-18T09:19:15.999Z</time></trkpt><trkpt lat="37.597398053090025" lon="-4.3230660350483054"><ele>490.7142857142858</ele><time>2026-04-18T09:19:16.999Z</time></trkpt><trkpt lat="37.597462804749625" lon="-4.32304810362761"><ele>489.42857142857144</ele><time>2026-04-18T09:19:17.999Z</time></trkpt><trkpt lat="37.597527715317426" lon="-4.323023259668724"><ele>488.14285714285717</ele><time>2026-04-18T09:19:18.999Z</time></trkpt><trkpt lat="37.59759340907555" lon="-4.322993604448891"><ele>486.8571428571429</ele><time>2026-04-18T09:19:19.999Z</time></trkpt><trkpt lat="37.59765807750126" lon="-4.322966751084282"><ele>485.57142857142856</ele><time>2026-04-18T09:19:20.999Z</time></trkpt><trkpt lat="37.5977291030984" lon="-4.322951975847337"><ele>484.2857142857143</ele><time>2026-04-18T09:19:21.999Z</time></trkpt><trkpt lat="37.597797925308335" lon="-4.322952282912472"><ele>483.0</ele><time>2026-04-18T09:19:22.999Z</time></trkpt><trkpt lat="37.59787922144872" lon="-4.322975823510984"><ele>482.5</ele><time>2026-04-18T09:19:23.999Z</time></trkpt><trkpt lat="37.597957591748425" lon="-4.323009212374154"><ele>482.0</ele><time>2026-04-18T09:19:24.999Z</time></trkpt><trkpt lat="37.598041494860844" lon="-4.323051683296866"><ele>481.5</ele><time>2026-04-18T09:19:25.999Z</time></trkpt><trkpt lat="37.59812678839981" lon="-4.323079630517983"><ele>481.0</ele><time>2026-04-18T09:19:26.999Z</time></trkpt><trkpt lat="37.59821529638024" lon="-4.323086700318681"><ele>480.5</ele><time>2026-04-18T09:19:27.999Z</time></trkpt><trkpt lat="37.59830249991773" lon="-4.323085416671713"><ele>480.0</ele><time>2026-04-18T09:19:28.999Z</time></trkpt><trkpt lat="37.59838289709039" lon="-4.323083351339316"><ele>480.0</ele><time>2026-04-18T09:19:29.999Z</time></trkpt><trkpt lat="37.59846532332908" lon="-4.323063838141918"><ele>480.0</ele><time>2026-04-18T09:19:30.999Z</time></trkpt><trkpt lat="37.59853933352409" lon="-4.323060454714215"><ele>480.0</ele><time>2026-04-18T09:19:31.999Z</time></trkpt><trkpt lat="37.59861710134001" lon="-4.323056425145273"><ele>480.0</ele><time>2026-04-18T09:19:32.999Z</time></trkpt><trkpt lat="37.59868989964409" lon="-4.323056823794099"><ele>480.0</ele><time>2026-04-18T09:19:33.999Z</time></trkpt><trkpt lat="37.59876677071521" lon="-4.323061090360215"><ele>480.0</ele><time>2026-04-18T09:19:34.999Z</time></trkpt><trkpt lat="37.59884088785532" lon="-4.323074374575852"><ele>481.0</ele><time>2026-04-18T09:19:35.999Z</time></trkpt><trkpt lat="37.59891588023718" lon="-4.32308495022833"><ele>482.0</ele><time>2026-04-18T09:19:36.999Z</time></trkpt><trkpt lat="37.598998405960906" lon="-4.323108482069615"><ele>483.0</ele><time>2026-04-18T09:19:37.999Z</time></trkpt><trkpt lat="37.59907686990013" lon="-4.323139383517498"><ele>484.0</ele><time>2026-04-18T09:19:38.999Z</time></trkpt><trkpt lat="37.59916311362614" lon="-4.323174670609629"><ele>485.0</ele><time>2026-04-18T09:19:39.999Z</time></trkpt><trkpt lat="37.599251957954024" lon="-4.323212495338393"><ele>486.0</ele><time>2026-04-18T09:19:40.999Z</time></trkpt><trkpt lat="37.59934143575584" lon="-4.323260849453797"><ele>486.0</ele><time>2026-04-18T09:19:41.999Z</time></trkpt><trkpt lat="37.5994334811759" lon="-4.3233211362241795"><ele>486.0</ele><time>2026-04-18T09:19:42.998Z</time></trkpt><trkpt lat="37.599527521735055" lon="-4.323382616234657"><ele>486.0</ele><time>2026-04-18T09:19:43.998Z</time></trkpt><trkpt lat="37.59961543626983" lon="-4.323453493599893"><ele>486.0</ele><time>2026-04-18T09:19:44.998Z</time></trkpt><trkpt lat="37.5996914167226" lon="-4.323543871569035"><ele>486.0</ele><time>2026-04-18T09:19:45.998Z</time></trkpt><trkpt lat="37.59975207943853" lon="-4.323666486047559"><ele>482.5</ele><time>2026-04-18T09:19:46.998Z</time></trkpt><trkpt lat="37.59977457118516" lon="-4.323817383625476"><ele>479.0</ele><time>2026-04-18T09:19:47.998Z</time></trkpt><trkpt lat="37.59982021716933" lon="-4.323984271420074"><ele>475.5</ele><time>2026-04-18T09:19:48.998Z</time></trkpt><trkpt lat="37.599880985304594" lon="-4.324135278850366"><ele>472.0</ele><time>2026-04-18T09:19:49.998Z</time></trkpt><trkpt lat="37.599940506982456" lon="-4.32426339497321"><ele>471.6</ele><time>2026-04-18T09:19:50.998Z</time></trkpt><trkpt lat="37.60000807781716" lon="-4.324384614165498"><ele>471.20000000000005</ele><time>2026-04-18T09:19:51.998Z</time></trkpt><trkpt lat="37.600078440209096" lon="-4.324503879114535"><ele>470.8</ele><time>2026-04-18T09:19:52.998Z</time></trkpt><trkpt lat="37.600129866082995" lon="-4.324610731115118"><ele>470.4</ele><time>2026-04-18T09:19:53.998Z</time></trkpt><trkpt lat="37.60017913102049" lon="-4.324693749449867"><ele>470.0</ele><time>2026-04-18T09:19:54.998Z</time></trkpt><trkpt lat="37.6002230510502" lon="-4.324763845760818"><ele>471.0</ele><time>2026-04-18T09:19:55.998Z</time></trkpt><trkpt lat="37.60030035093124" lon="-4.324864987725934"><ele>472.0</ele><time>2026-04-18T09:19:57.998Z</time></trkpt><trkpt lat="37.600372956090254" lon="-4.324947477028563"><ele>473.0</ele><time>2026-04-18T09:19:59.998Z</time></trkpt><trkpt lat="37.600454284012464" lon="-4.325011542509181"><ele>474.0</ele><time>2026-04-18T09:20:01.998Z</time></trkpt><trkpt lat="37.60055069576992" lon="-4.325027666234266"><ele>475.0</ele><time>2026-04-18T09:20:03.998Z</time></trkpt><trkpt lat="37.600615434517216" lon="-4.324992684242146"><ele>475.0</ele><time>2026-04-18T09:20:05.998Z</time></trkpt><trkpt lat="37.60066133642369" lon="-4.324891276697094"><ele>475.0</ele><time>2026-04-18T09:20:12.998Z</time></trkpt><trkpt lat="37.6007223796352" lon="-4.324780349926097"><ele>475.0</ele><time>2026-04-18T09:20:14.998Z</time></trkpt><trkpt lat="37.60083031094524" lon="-4.32470403465086"><ele>475.0</ele><time>2026-04-18T09:20:16.998Z</time></trkpt><trkpt lat="37.6008862138627" lon="-4.324659533886305"><ele>475.0</ele><time>2026-04-18T09:20:17.998Z</time></trkpt><trkpt lat="37.600945126069945" lon="-4.324610106437145"><ele>472.83333333333337</ele><time>2026-04-18T09:20:18.998Z</time></trkpt><trkpt lat="37.60100507311854" lon="-4.324554415616612"><ele>470.6666666666667</ele><time>2026-04-18T09:20:19.998Z</time></trkpt><trkpt lat="37.601065093234816" lon="-4.3244917804511"><ele>468.5</ele><time>2026-04-18T09:20:21Z</time></trkpt><trkpt lat="37.601125829312736" lon="-4.324431167975311"><ele>466.33333333333337</ele><time>2026-04-18T09:20:22Z</time></trkpt><trkpt lat="37.6011900303433" lon="-4.324374312098459"><ele>464.1666666666667</ele><time>2026-04-18T09:20:23Z</time></trkpt><trkpt lat="37.601260853301795" lon="-4.324319604539333"><ele>462.0</ele><time>2026-04-18T09:20:24Z</time></trkpt><trkpt lat="37.60133699731813" lon="-4.32427494026071"><ele>461.20000000000005</ele><time>2026-04-18T09:20:25Z</time></trkpt><trkpt lat="37.6014276479604" lon="-4.324258314007405"><ele>460.40000000000003</ele><time>2026-04-18T09:20:26Z</time></trkpt><trkpt lat="37.60152309813445" lon="-4.324272374914209"><ele>459.59999999999997</ele><time>2026-04-18T09:20:27Z</time></trkpt><trkpt lat="37.60161634336348" lon="-4.324316804118167"><ele>458.79999999999995</ele><time>2026-04-18T09:20:28Z</time></trkpt><trkpt lat="37.60171179027016" lon="-4.324370146403783"><ele>458.0</ele><time>2026-04-18T09:20:29Z</time></trkpt><trkpt lat="37.601804078708625" lon="-4.324439135540188"><ele>458.0</ele><time>2026-04-18T09:20:30Z</time></trkpt><trkpt lat="37.601896181966794" lon="-4.324516242023594"><ele>457.99999999999994</ele><time>2026-04-18T09:20:31Z</time></trkpt><trkpt lat="37.601991680658145" lon="-4.324585346083087"><ele>457.99999999999994</ele><time>2026-04-18T09:20:32Z</time></trkpt><trkpt lat="37.60209220425891" lon="-4.32464576560096"><ele>458.0</ele><time>2026-04-18T09:20:33Z</time></trkpt><trkpt lat="37.60219829921666" lon="-4.324694831639545"><ele>458.0</ele><time>2026-04-18T09:20:34Z</time></trkpt><trkpt lat="37.60230737096147" lon="-4.324736296803527"><ele>459.0</ele><time>2026-04-18T09:20:35Z</time></trkpt><trkpt lat="37.602421664544934" lon="-4.324779888455414"><ele>460.0</ele><time>2026-04-18T09:20:36Z</time></trkpt><trkpt lat="37.60253638847403" lon="-4.324821107156708"><ele>461.0</ele><time>2026-04-18T09:20:37Z</time></trkpt><trkpt lat="37.602652959725155" lon="-4.324858189097032"><ele>462.0</ele><time>2026-04-18T09:20:38Z</time></trkpt><trkpt lat="37.602767120597065" lon="-4.324903318133066"><ele>459.75</ele><time>2026-04-18T09:20:39Z</time></trkpt><trkpt lat="37.60288199393387" lon="-4.324950873090041"><ele>457.5</ele><time>2026-04-18T09:20:40Z</time></trkpt><trkpt lat="37.60299739427629" lon="-4.324991000875805"><ele>455.25</ele><time>2026-04-18T09:20:41Z</time></trkpt><trkpt lat="37.60311777641923" lon="-4.325028869476277"><ele>453.0</ele><time>2026-04-18T09:20:42Z</time></trkpt><trkpt lat="37.60324071403754" lon="-4.325062288721661"><ele>453.0</ele><time>2026-04-18T09:20:43Z</time></trkpt><trkpt lat="37.60336371618163" lon="-4.325080045617319"><ele>453.0</ele><time>2026-04-18T09:20:44Z</time></trkpt><trkpt lat="37.60348990531489" lon="-4.325082103522265"><ele>453.0</ele><time>2026-04-18T09:20:45Z</time></trkpt><trkpt lat="37.60361668377466" lon="-4.325072360996884"><ele>453.0</ele><time>2026-04-18T09:20:46Z</time></trkpt><trkpt lat="37.60374023007168" lon="-4.325053197586462"><ele>452.25</ele><time>2026-04-18T09:20:47Z</time></trkpt><trkpt lat="37.60386208602202" lon="-4.325015948564061"><ele>451.5</ele><time>2026-04-18T09:20:48Z</time></trkpt><trkpt lat="37.60398054918988" lon="-4.32496646770032"><ele>450.75</ele><time>2026-04-18T09:20:49Z</time></trkpt><trkpt lat="37.604095704059596" lon="-4.324909857529795"><ele>450.0</ele><time>2026-04-18T09:20:50Z</time></trkpt><trkpt lat="37.604211121161164" lon="-4.324855730466879"><ele>450.0</ele><time>2026-04-18T09:20:51Z</time></trkpt><trkpt lat="37.604330215608556" lon="-4.324813258070587"><ele>450.0</ele><time>2026-04-18T09:20:52Z</time></trkpt><trkpt lat="37.604454047947875" lon="-4.324787750401254"><ele>450.0</ele><time>2026-04-18T09:20:53Z</time></trkpt><trkpt lat="37.604577129853915" lon="-4.324762538187866"><ele>450.0</ele><time>2026-04-18T09:20:54Z</time></trkpt><trkpt lat="37.60469985242818" lon="-4.3247488423392015"><ele>448.25</ele><time>2026-04-18T09:20:55Z</time></trkpt><trkpt lat="37.60482466986723" lon="-4.3247574494869125"><ele>446.5</ele><time>2026-04-18T09:20:56Z</time></trkpt><trkpt lat="37.60494972363764" lon="-4.3247791125471435"><ele>444.75</ele><time>2026-04-18T09:20:57Z</time></trkpt><trkpt lat="37.605070355748786" lon="-4.324818293895133"><ele>443.0</ele><time>2026-04-18T09:20:58Z</time></trkpt><trkpt lat="37.60518436409598" lon="-4.32485999444156"><ele>443.0</ele><time>2026-04-18T09:20:59Z</time></trkpt><trkpt lat="37.60528922863343" lon="-4.324902906616572"><ele>442.99999999999994</ele><time>2026-04-18T09:21:00Z</time></trkpt><trkpt lat="37.605381257375726" lon="-4.324948411667501"><ele>442.99999999999994</ele><time>2026-04-18T09:21:00.999Z</time></trkpt><trkpt lat="37.60546425473456" lon="-4.324993050900156"><ele>443.0</ele><time>2026-04-18T09:21:01.999Z</time></trkpt><trkpt lat="37.60554345436743" lon="-4.325020808174388"><ele>443.0</ele><time>2026-04-18T09:21:02.999Z</time></trkpt><trkpt lat="37.60561466373892" lon="-4.325033162589486"><ele>442.0</ele><time>2026-04-18T09:21:03.999Z</time></trkpt><trkpt lat="37.60568048653163" lon="-4.325032250679765"><ele>441.0</ele><time>2026-04-18T09:21:04.999Z</time></trkpt><trkpt lat="37.60574699373527" lon="-4.3250396796883015"><ele>440.0</ele><time>2026-04-18T09:21:05.999Z</time></trkpt><trkpt lat="37.60581539800066" lon="-4.325056870739513"><ele>439.0</ele><time>2026-04-18T09:21:06.999Z</time></trkpt><trkpt lat="37.60588229122597" lon="-4.325096024654949"><ele>438.0</ele><time>2026-04-18T09:21:07.999Z</time></trkpt><trkpt lat="37.605938051543525" lon="-4.325141671917183"><ele>437.0</ele><time>2026-04-18T09:21:08.999Z</time></trkpt><trkpt lat="37.6060097619374" lon="-4.325174695463917"><ele>436.0</ele><time>2026-04-18T09:21:09.999Z</time></trkpt><trkpt lat="37.60607943569879" lon="-4.325211672769793"><ele>436.0</ele><time>2026-04-18T09:21:10.999Z</time></trkpt><trkpt lat="37.60615184798555" lon="-4.3252434455444195"><ele>436.0</ele><time>2026-04-18T09:21:11.999Z</time></trkpt><trkpt lat="37.60621330423854" lon="-4.325272541935846"><ele>436.0</ele><time>2026-04-18T09:21:12.999Z</time></trkpt><trkpt lat="37.60631141968632" lon="-4.325332672775597"><ele>436.0</ele><time>2026-04-18T09:21:14.999Z</time></trkpt><trkpt lat="37.60640793966808" lon="-4.3253565442882085"><ele>436.0</ele><time>2026-04-18T09:21:16.999Z</time></trkpt><trkpt lat="37.60653031520082" lon="-4.325364584752495"><ele>434.4</ele><time>2026-04-18T09:21:18.999Z</time></trkpt><trkpt lat="37.60659379553485" lon="-4.325338395012443"><ele>432.8</ele><time>2026-04-18T09:21:19.999Z</time></trkpt><trkpt lat="37.606698994660064" lon="-4.325282574837195"><ele>431.19999999999993</ele><time>2026-04-18T09:21:21.999Z</time></trkpt><trkpt lat="37.606773573366226" lon="-4.325269148281214"><ele>429.59999999999997</ele><time>2026-04-18T09:21:22.999Z</time></trkpt><trkpt lat="37.60689790892238" lon="-4.325287773754565"><ele>428.0</ele><time>2026-04-18T09:21:24.999Z</time></trkpt><trkpt lat="37.60697247340494" lon="-4.3253281640849135"><ele>426.66666666666663</ele><time>2026-04-18T09:21:26.999Z</time></trkpt><trkpt lat="37.60703907680723" lon="-4.325354874137006"><ele>425.3333333333333</ele><time>2026-04-18T09:21:29.999Z</time></trkpt><trkpt lat="37.60711602733107" lon="-4.325414003580906"><ele>424.0</ele><time>2026-04-18T09:21:32.999Z</time></trkpt><trkpt lat="37.607194589715085" lon="-4.3254572202771495"><ele>422.66666666666663</ele><time>2026-04-18T09:21:35.999Z</time></trkpt><trkpt lat="37.60730557775824" lon="-4.3254753635173016"><ele>421.3333333333333</ele><time>2026-04-18T09:21:37.999Z</time></trkpt><trkpt lat="37.60738001968911" lon="-4.325496930658707"><ele>420.0</ele><time>2026-04-18T09:21:38.999Z</time></trkpt><trkpt lat="37.607453523179466" lon="-4.3255229323532625"><ele>420.0</ele><time>2026-04-18T09:21:39.999Z</time></trkpt><trkpt lat="37.607530315447676" lon="-4.325548886617724"><ele>420.0</ele><time>2026-04-18T09:21:40.999Z</time></trkpt><trkpt lat="37.607601692102335" lon="-4.32555413470301"><ele>420.0</ele><time>2026-04-18T09:21:41.999Z</time></trkpt><trkpt lat="37.607664940370036" lon="-4.3255538971239105"><ele>420.0</ele><time>2026-04-18T09:21:42.999Z</time></trkpt><trkpt lat="37.607752170459904" lon="-4.325569455659932"><ele>420.0</ele><time>2026-04-18T09:21:43.999Z</time></trkpt><trkpt lat="37.6078420313238" lon="-4.325567182584219"><ele>420.0</ele><time>2026-04-18T09:21:44.999Z</time></trkpt><trkpt lat="37.60794442765005" lon="-4.3255611087473875"><ele>417.6</ele><time>2026-04-18T09:21:45.999Z</time></trkpt><trkpt lat="37.60803302788541" lon="-4.325554811441229"><ele>415.2</ele><time>2026-04-18T09:21:46.999Z</time></trkpt><trkpt lat="37.6081370463109" lon="-4.325555052138111"><ele>412.79999999999995</ele><time>2026-04-18T09:21:47.999Z</time></trkpt><trkpt lat="37.60824469515934" lon="-4.325548006772116"><ele>410.4</ele><time>2026-04-18T09:21:48.999Z</time></trkpt><trkpt lat="37.608348961132975" lon="-4.325529497332893"><ele>408.0</ele><time>2026-04-18T09:21:49.999Z</time></trkpt><trkpt lat="37.60844457928087" lon="-4.325516451707542"><ele>408.0</ele><time>2026-04-18T09:21:50.999Z</time></trkpt><trkpt lat="37.60854189073276" lon="-4.325513582794059"><ele>408.0</ele><time>2026-04-18T09:21:51.999Z</time></trkpt><trkpt lat="37.60866012464909" lon="-4.325524382597133"><ele>408.0</ele><time>2026-04-18T09:21:52.999Z</time></trkpt><trkpt lat="37.608787452573694" lon="-4.325540853751391"><ele>408.0</ele><time>2026-04-18T09:21:53.999Z</time></trkpt><trkpt lat="37.60891330133007" lon="-4.325533756924827"><ele>405.25</ele><time>2026-04-18T09:21:54.999Z</time></trkpt><trkpt lat="37.60904494892971" lon="-4.325506246985343"><ele>402.5</ele><time>2026-04-18T09:21:55.999Z</time></trkpt><trkpt lat="37.60915518755881" lon="-4.325479024425359"><ele>399.75</ele><time>2026-04-18T09:21:56.999Z</time></trkpt><trkpt lat="37.60925956210755" lon="-4.325430890867996"><ele>397.0</ele><time>2026-04-18T09:21:57.998Z</time></trkpt><trkpt lat="37.60937617357484" lon="-4.325362633089562"><ele>397.0</ele><time>2026-04-18T09:21:58.998Z</time></trkpt><trkpt lat="37.60948693892646" lon="-4.32530658408271"><ele>397.0</ele><time>2026-04-18T09:21:59.998Z</time></trkpt><trkpt lat="37.60960267168365" lon="-4.325249663998365"><ele>397.0</ele><time>2026-04-18T09:22:00.998Z</time></trkpt><trkpt lat="37.60969728384047" lon="-4.325213881883015"><ele>397.0</ele><time>2026-04-18T09:22:01.998Z</time></trkpt><trkpt lat="37.609764541314235" lon="-4.325163996010887"><ele>397.0</ele><time>2026-04-18T09:22:02.998Z</time></trkpt><trkpt lat="37.60982842650374" lon="-4.325126037499728"><ele>396.00000000000006</ele><time>2026-04-18T09:22:03.998Z</time></trkpt><trkpt lat="37.609915404565555" lon="-4.325126204039911"><ele>395.0</ele><time>2026-04-18T09:22:05.998Z</time></trkpt><trkpt lat="37.60999915408453" lon="-4.325059336357774"><ele>394.0</ele><time>2026-04-18T09:22:07.998Z</time></trkpt><trkpt lat="37.61003852475988" lon="-4.324975606649792"><ele>393.0</ele><time>2026-04-18T09:22:08.998Z</time></trkpt><trkpt lat="37.61007594471519" lon="-4.324897112499669"><ele>392.00000000000006</ele><time>2026-04-18T09:22:09.998Z</time></trkpt><trkpt lat="37.61012287914452" lon="-4.324822186453131"><ele>391.0</ele><time>2026-04-18T09:22:10.998Z</time></trkpt><trkpt lat="37.610184924383915" lon="-4.3247476708513855"><ele>389.4</ele><time>2026-04-18T09:22:11.998Z</time></trkpt><trkpt lat="37.610249605219295" lon="-4.3246676716436445"><ele>387.8</ele><time>2026-04-18T09:22:12.998Z</time></trkpt><trkpt lat="37.610317650903475" lon="-4.324582479885284"><ele>386.2</ele><time>2026-04-18T09:22:13.998Z</time></trkpt><trkpt lat="37.61039130974534" lon="-4.324503835492836"><ele>384.59999999999997</ele><time>2026-04-18T09:22:14.998Z</time></trkpt><trkpt lat="37.610470918600846" lon="-4.324421514501416"><ele>383.0</ele><time>2026-04-18T09:22:15.998Z</time></trkpt><trkpt lat="37.61054591321502" lon="-4.324341360169481"><ele>381.0</ele><time>2026-04-18T09:22:16.998Z</time></trkpt><trkpt lat="37.61061239445075" lon="-4.324266535707767"><ele>379.0</ele><time>2026-04-18T09:22:17.998Z</time></trkpt><trkpt lat="37.610674494617655" lon="-4.324194498787594"><ele>377.0</ele><time>2026-04-18T09:22:18.998Z</time></trkpt><trkpt lat="37.61073379717605" lon="-4.324112349880379"><ele>375.0</ele><time>2026-04-18T09:22:19.998Z</time></trkpt><trkpt lat="37.610791389357026" lon="-4.324016555955015"><ele>373.0</ele><time>2026-04-18T09:22:20.998Z</time></trkpt><trkpt lat="37.61085463850571" lon="-4.32390751968077"><ele>372.59999999999997</ele><time>2026-04-18T09:22:21.998Z</time></trkpt><trkpt lat="37.610912796820635" lon="-4.3238164277777615"><ele>372.2</ele><time>2026-04-18T09:22:22.998Z</time></trkpt><trkpt lat="37.61096134866712" lon="-4.323727400779851"><ele>371.8</ele><time>2026-04-18T09:22:23.998Z</time></trkpt><trkpt lat="37.61099912890223" lon="-4.323640361042467"><ele>371.4</ele><time>2026-04-18T09:22:24.998Z</time></trkpt><trkpt lat="37.61104456047851" lon="-4.323492454820597"><ele>371.0</ele><time>2026-04-18T09:22:27Z</time></trkpt><trkpt lat="37.611046883706415" lon="-4.323341475473422"><ele>371.0</ele><time>2026-04-18T09:22:29Z</time></trkpt><trkpt lat="37.61098383751726" lon="-4.32323813084354"><ele>371.0</ele><time>2026-04-18T09:22:31Z</time></trkpt><trkpt lat="37.61093320159679" lon="-4.323184964587743"><ele>371.0</ele><time>2026-04-18T09:22:33Z</time></trkpt><trkpt lat="37.61084437882164" lon="-4.323161883196556"><ele>371.0</ele><time>2026-04-18T09:22:37Z</time></trkpt><trkpt lat="37.610765938283485" lon="-4.323163647769738"><ele>371.0</ele><time>2026-04-18T09:22:39Z</time></trkpt><trkpt lat="37.61068933537813" lon="-4.323173557284082"><ele>371.0</ele><time>2026-04-18T09:22:41Z</time></trkpt><trkpt lat="37.61061073193563" lon="-4.323165025773072"><ele>371.0</ele><time>2026-04-18T09:22:43Z</time></trkpt><trkpt lat="37.61053439565384" lon="-4.323172824353838"><ele>371.0</ele><time>2026-04-18T09:22:45Z</time></trkpt><trkpt lat="37.61048999860395" lon="-4.32310147469607"><ele>371.0</ele><time>2026-04-18T09:22:48Z</time></trkpt><trkpt lat="37.61053197369259" lon="-4.323008322856329"><ele>371.0</ele><time>2026-04-18T09:22:50Z</time></trkpt><trkpt lat="37.610596809136105" lon="-4.322916871500113"><ele>371.0</ele><time>2026-04-18T09:22:52Z</time></trkpt><trkpt lat="37.610678845652906" lon="-4.322835680919635"><ele>371.0</ele><time>2026-04-18T09:22:54Z</time></trkpt><trkpt lat="37.61076439762692" lon="-4.322744863543806"><ele>370.25</ele><time>2026-04-18T09:22:56Z</time></trkpt><trkpt lat="37.610850643945234" lon="-4.322642937200665"><ele>369.5</ele><time>2026-04-18T09:22:58Z</time></trkpt><trkpt lat="37.61093766412084" lon="-4.322539426342785"><ele>368.75</ele><time>2026-04-18T09:23:00Z</time></trkpt><trkpt lat="37.6110250205203" lon="-4.322437952616146"><ele>368.0</ele><time>2026-04-18T09:23:02Z</time></trkpt><trkpt lat="37.61110569364585" lon="-4.322336682033353"><ele>368.75</ele><time>2026-04-18T09:23:04Z</time></trkpt><trkpt lat="37.61119336725622" lon="-4.3222389293020615"><ele>369.5</ele><time>2026-04-18T09:23:06Z</time></trkpt><trkpt lat="37.61128253237979" lon="-4.322135140736404"><ele>370.25</ele><time>2026-04-18T09:23:07.999Z</time></trkpt><trkpt lat="37.61137003066319" lon="-4.322030980622126"><ele>371.0</ele><time>2026-04-18T09:23:09.999Z</time></trkpt><trkpt lat="37.61145731145554" lon="-4.321928041455795"><ele>371.25</ele><time>2026-04-18T09:23:11.999Z</time></trkpt><trkpt lat="37.611542389728875" lon="-4.321822151779491"><ele>371.5</ele><time>2026-04-18T09:23:13.999Z</time></trkpt><trkpt lat="37.61162760614935" lon="-4.321714950287064"><ele>371.75</ele><time>2026-04-18T09:23:15.999Z</time></trkpt><trkpt lat="37.61171140450892" lon="-4.321607733007562"><ele>372.0</ele><time>2026-04-18T09:23:17.999Z</time></trkpt><trkpt lat="37.611797269808044" lon="-4.32150450246767"><ele>372.6</ele><time>2026-04-18T09:23:19.999Z</time></trkpt><trkpt lat="37.61187609003658" lon="-4.321397758249359"><ele>373.20000000000005</ele><time>2026-04-18T09:23:21.999Z</time></trkpt><trkpt lat="37.61193984266611" lon="-4.321286473241801"><ele>373.8</ele><time>2026-04-18T09:23:23.999Z</time></trkpt><trkpt lat="37.611960003473236" lon="-4.321179868892744"><ele>374.4</ele><time>2026-04-18T09:23:25.999Z</time></trkpt><trkpt lat="37.61199491617568" lon="-4.321078303508874"><ele>375.0</ele><time>2026-04-18T09:23:47.999Z</time></trkpt><trkpt lat="37.612019550085314" lon="-4.320996621947071"><ele>375.1666666666667</ele><time>2026-04-18T09:23:49.999Z</time></trkpt><trkpt lat="37.612101301017866" lon="-4.3210105458598935"><ele>375.3333333333333</ele><time>2026-04-18T09:23:53.999Z</time></trkpt><trkpt lat="37.61217255059251" lon="-4.321040793939678"><ele>375.5</ele><time>2026-04-18T09:23:56.999Z</time></trkpt><trkpt lat="37.61224919499213" lon="-4.321083841083306"><ele>375.66666666666663</ele><time>2026-04-18T09:23:59.999Z</time></trkpt><trkpt lat="37.61231626153716" lon="-4.321164283476392"><ele>375.8333333333333</ele><time>2026-04-18T09:24:03.999Z</time></trkpt><trkpt lat="37.61239069895759" lon="-4.321188074059147"><ele>376.0</ele><time>2026-04-18T09:24:05.998Z</time></trkpt><trkpt lat="37.612470530187935" lon="-4.3212052245074375"><ele>376.0</ele><time>2026-04-18T09:24:07.998Z</time></trkpt><trkpt lat="37.61254668371731" lon="-4.321216538438628"><ele>376.0</ele><time>2026-04-18T09:24:09.998Z</time></trkpt><trkpt lat="37.61261705804428" lon="-4.321231237344066"><ele>376.0</ele><time>2026-04-18T09:24:11.998Z</time></trkpt><trkpt lat="37.612685597566994" lon="-4.32124897982031"><ele>376.0</ele><time>2026-04-18T09:24:13.998Z</time></trkpt><trkpt lat="37.612755421945145" lon="-4.321269539189747"><ele>376.0</ele><time>2026-04-18T09:24:15.998Z</time></trkpt><trkpt lat="37.61282710053089" lon="-4.321292465757793"><ele>376.0</ele><time>2026-04-18T09:24:17.998Z</time></trkpt><trkpt lat="37.61290354605172" lon="-4.321310525425489"><ele>376.0</ele><time>2026-04-18T09:24:19.998Z</time></trkpt><trkpt lat="37.612979173105636" lon="-4.321331259951922"><ele>376.8333333333333</ele><time>2026-04-18T09:24:21.998Z</time></trkpt><trkpt lat="37.61305656767433" lon="-4.32135228389676"><ele>377.66666666666663</ele><time>2026-04-18T09:24:23.998Z</time></trkpt><trkpt lat="37.6131360375264" lon="-4.321369218898452"><ele>378.5</ele><time>2026-04-18T09:24:25.998Z</time></trkpt><trkpt lat="37.61320921433116" lon="-4.321392963030086"><ele>379.3333333333333</ele><time>2026-04-18T09:24:27.998Z</time></trkpt><trkpt lat="37.613285742105724" lon="-4.321414597765947"><ele>380.1666666666667</ele><time>2026-04-18T09:24:29.998Z</time></trkpt><trkpt lat="37.61336626601558" lon="-4.321434033590613"><ele>381.0</ele><time>2026-04-18T09:24:32Z</time></trkpt><trkpt lat="37.61345006115868" lon="-4.3214524401704875"><ele>381.0</ele><time>2026-04-18T09:24:34Z</time></trkpt><trkpt lat="37.613530992090496" lon="-4.321475942275489"><ele>381.0</ele><time>2026-04-18T09:24:36Z</time></trkpt><trkpt lat="37.61361867870415" lon="-4.321485253821726"><ele>381.0</ele><time>2026-04-18T09:24:38Z</time></trkpt><trkpt lat="37.61369765334949" lon="-4.3214854342616045"><ele>381.0</ele><time>2026-04-18T09:24:40Z</time></trkpt><trkpt lat="37.61376870210276" lon="-4.321466704120378"><ele>381.0</ele><time>2026-04-18T09:24:42Z</time></trkpt><trkpt lat="37.61382936053002" lon="-4.321430554505499"><ele>381.0</ele><time>2026-04-18T09:24:44Z</time></trkpt><trkpt lat="37.6138959183097" lon="-4.321406209354253"><ele>382.85714285714283</ele><time>2026-04-18T09:24:46Z</time></trkpt><trkpt lat="37.61395909470661" lon="-4.3213645923256205"><ele>384.7142857142857</ele><time>2026-04-18T09:24:48Z</time></trkpt><trkpt lat="37.614022928709886" lon="-4.321315387447628"><ele>386.57142857142856</ele><time>2026-04-18T09:24:50Z</time></trkpt><trkpt lat="37.614091633522015" lon="-4.321278862768548"><ele>388.42857142857144</ele><time>2026-04-18T09:24:52Z</time></trkpt><trkpt lat="37.61415403230201" lon="-4.321234969361013"><ele>390.28571428571433</ele><time>2026-04-18T09:24:54Z</time></trkpt><trkpt lat="37.61421893312753" lon="-4.321198401684508"><ele>392.14285714285717</ele><time>2026-04-18T09:24:56Z</time></trkpt><trkpt lat="37.61428231180368" lon="-4.321156495425883"><ele>394.0</ele><time>2026-04-18T09:24:58Z</time></trkpt><trkpt lat="37.61434347442242" lon="-4.321113673516068"><ele>394.0</ele><time>2026-04-18T09:25:00Z</time></trkpt><trkpt lat="37.61441012571595" lon="-4.3210758458096"><ele>394.0</ele><time>2026-04-18T09:25:02Z</time></trkpt><trkpt lat="37.61447801550033" lon="-4.321042160953728"><ele>394.0</ele><time>2026-04-18T09:25:04Z</time></trkpt><trkpt lat="37.614549779502305" lon="-4.321016422000517"><ele>394.0</ele><time>2026-04-18T09:25:06Z</time></trkpt><trkpt lat="37.61462250785882" lon="-4.321006708980336"><ele>394.0</ele><time>2026-04-18T09:25:08Z</time></trkpt><trkpt lat="37.61469427426035" lon="-4.321012388058304"><ele>394.0</ele><time>2026-04-18T09:25:10Z</time></trkpt><trkpt lat="37.614764765293565" lon="-4.321018879564996"><ele>394.0</ele><time>2026-04-18T09:25:12Z</time></trkpt><trkpt lat="37.61483730727922" lon="-4.3210362155995945"><ele>394.7142857142857</ele><time>2026-04-18T09:25:13.999Z</time></trkpt><trkpt lat="37.61490646025177" lon="-4.32107009416967"><ele>395.42857142857144</ele><time>2026-04-18T09:25:15.999Z</time></trkpt><trkpt lat="37.61497089737592" lon="-4.321112882355466"><ele>396.1428571428571</ele><time>2026-04-18T09:25:17.999Z</time></trkpt><trkpt lat="37.615023804399904" lon="-4.321174869364731"><ele>396.8571428571429</ele><time>2026-04-18T09:25:19.999Z</time></trkpt><trkpt lat="37.61506550495323" lon="-4.321254411546229"><ele>397.57142857142856</ele><time>2026-04-18T09:25:21.999Z</time></trkpt><trkpt lat="37.61509400297277" lon="-4.321329764100284"><ele>398.2857142857143</ele><time>2026-04-18T09:25:23.999Z</time></trkpt><trkpt lat="37.615130244954244" lon="-4.321420141009874"><ele>399.0</ele><time>2026-04-18T09:25:25.999Z</time></trkpt><trkpt lat="37.61515750612914" lon="-4.321510237272499"><ele>399.0</ele><time>2026-04-18T09:25:27.999Z</time></trkpt><trkpt lat="37.61517597943727" lon="-4.32159786842686"><ele>399.0</ele><time>2026-04-18T09:25:29.999Z</time></trkpt><trkpt lat="37.61519535903779" lon="-4.321690088042124"><ele>399.0</ele><time>2026-04-18T09:25:31.999Z</time></trkpt><trkpt lat="37.61521575030332" lon="-4.321778080869982"><ele>399.0</ele><time>2026-04-18T09:25:33.999Z</time></trkpt><trkpt lat="37.61523783164124" lon="-4.321870602350306"><ele>399.0</ele><time>2026-04-18T09:25:35.999Z</time></trkpt><trkpt lat="37.615262000437305" lon="-4.3219622783638085"><ele>399.0</ele><time>2026-04-18T09:25:37.999Z</time></trkpt><trkpt lat="37.61528045003138" lon="-4.322055126861765"><ele>399.0</ele><time>2026-04-18T09:25:39.999Z</time></trkpt><trkpt lat="37.615305319174304" lon="-4.322150075612523"><ele>400.57142857142856</ele><time>2026-04-18T09:25:41.999Z</time></trkpt><trkpt lat="37.61533905255316" lon="-4.322236515595268"><ele>402.1428571428571</ele><time>2026-04-18T09:25:43.999Z</time></trkpt><trkpt lat="37.61538068987342" lon="-4.322301797981341"><ele>403.7142857142857</ele><time>2026-04-18T09:25:45.999Z</time></trkpt><trkpt lat="37.61542788904276" lon="-4.322379413671207"><ele>405.2857142857143</ele><time>2026-04-18T09:25:47.999Z</time></trkpt><trkpt lat="37.615485174188166" lon="-4.322438100666664"><ele>406.85714285714283</ele><time>2026-04-18T09:25:49.999Z</time></trkpt><trkpt lat="37.61553528028023" lon="-4.322493376419873"><ele>408.42857142857144</ele><time>2026-04-18T09:25:51.999Z</time></trkpt><trkpt lat="37.615578316554085" lon="-4.322552207000162"><ele>410.0</ele><time>2026-04-18T09:25:53.999Z</time></trkpt><trkpt lat="37.615634805105856" lon="-4.322604725729142"><ele>409.99999999999994</ele><time>2026-04-18T09:25:58.999Z</time></trkpt><trkpt lat="37.615703187343506" lon="-4.322666565382742"><ele>410.0</ele><time>2026-04-18T09:26:01.999Z</time></trkpt><trkpt lat="37.615744377192286" lon="-4.322752694191877"><ele>410.0</ele><time>2026-04-18T09:26:03.999Z</time></trkpt><trkpt lat="37.61575343825504" lon="-4.322838632119841"><ele>410.0</ele><time>2026-04-18T09:26:05.999Z</time></trkpt><trkpt lat="37.61579240280223" lon="-4.322926628746257"><ele>409.99999999999994</ele><time>2026-04-18T09:26:07.999Z</time></trkpt><trkpt lat="37.61582278955382" lon="-4.32301972894064"><ele>410.0</ele><time>2026-04-18T09:26:09.999Z</time></trkpt><trkpt lat="37.61585997570364" lon="-4.323107630997242"><ele>409.99999999999994</ele><time>2026-04-18T09:26:11.999Z</time></trkpt><trkpt lat="37.61589376515351" lon="-4.323203621299261"><ele>410.0</ele><time>2026-04-18T09:26:13.998Z</time></trkpt><trkpt lat="37.61595901274364" lon="-4.323266100960079"><ele>410.0</ele><time>2026-04-18T09:26:15.998Z</time></trkpt><trkpt lat="37.61602170266076" lon="-4.323337042427667"><ele>410.0</ele><time>2026-04-18T09:26:17.998Z</time></trkpt><trkpt lat="37.61608991533681" lon="-4.3234180435827785"><ele>409.99999999999994</ele><time>2026-04-18T09:26:19.998Z</time></trkpt><trkpt lat="37.61616592186536" lon="-4.323500299782505"><ele>410.0</ele><time>2026-04-18T09:26:21.998Z</time></trkpt><trkpt lat="37.616254479083" lon="-4.3235504161145055"><ele>409.2</ele><time>2026-04-18T09:26:23.998Z</time></trkpt><trkpt lat="37.616351212034104" lon="-4.323550914949896"><ele>408.4</ele><time>2026-04-18T09:26:25.998Z</time></trkpt><trkpt lat="37.61643763265361" lon="-4.323536490320192"><ele>407.6</ele><time>2026-04-18T09:26:27.998Z</time></trkpt><trkpt lat="37.616519915278104" lon="-4.323530142806377"><ele>406.8</ele><time>2026-04-18T09:26:29.998Z</time></trkpt><trkpt lat="37.61660726690746" lon="-4.323543254862486"><ele>406.0</ele><time>2026-04-18T09:26:31.998Z</time></trkpt><trkpt lat="37.616699650267115" lon="-4.3235798300944674"><ele>406.0</ele><time>2026-04-18T09:26:33.998Z</time></trkpt><trkpt lat="37.61679169575328" lon="-4.323638094399503"><ele>406.0</ele><time>2026-04-18T09:26:35.998Z</time></trkpt><trkpt lat="37.61687043375831" lon="-4.323731613352427"><ele>406.0</ele><time>2026-04-18T09:26:38Z</time></trkpt><trkpt lat="37.616950723154225" lon="-4.323841156326961"><ele>406.0</ele><time>2026-04-18T09:26:40Z</time></trkpt><trkpt lat="37.617015987637984" lon="-4.3239606003850755"><ele>406.0</ele><time>2026-04-18T09:26:42Z</time></trkpt><trkpt lat="37.61705842330912" lon="-4.324023542193671"><ele>405.6666666666667</ele><time>2026-04-18T09:26:43Z</time></trkpt><trkpt lat="37.617130133362444" lon="-4.324150978186767"><ele>405.33333333333337</ele><time>2026-04-18T09:26:45Z</time></trkpt><trkpt lat="37.61716943311881" lon="-4.32422035436242"><ele>405.0</ele><time>2026-04-18T09:26:46Z</time></trkpt><trkpt lat="37.617209617586596" lon="-4.3242888081275215"><ele>404.66666666666663</ele><time>2026-04-18T09:26:47Z</time></trkpt><trkpt lat="37.617249881523705" lon="-4.324351896504533"><ele>404.3333333333333</ele><time>2026-04-18T09:26:48Z</time></trkpt><trkpt lat="37.6172874149216" lon="-4.324422138504238"><ele>404.0</ele><time>2026-04-18T09:26:49Z</time></trkpt><trkpt lat="37.617355308537796" lon="-4.324534946734043"><ele>404.0</ele><time>2026-04-18T09:26:51Z</time></trkpt><trkpt lat="37.617452994694" lon="-4.324539822240803"><ele>404.0</ele><time>2026-04-18T09:26:53Z</time></trkpt><trkpt lat="37.61754428093158" lon="-4.324548333965318"><ele>404.0</ele><time>2026-04-18T09:26:55Z</time></trkpt><trkpt lat="37.61763930587167" lon="-4.324613882009145"><ele>404.0</ele><time>2026-04-18T09:26:57Z</time></trkpt><trkpt lat="37.61773711099547" lon="-4.324673574850901"><ele>404.0</ele><time>2026-04-18T09:26:59Z</time></trkpt><trkpt lat="37.61783135260931" lon="-4.324734882508841"><ele>404.0</ele><time>2026-04-18T09:27:01Z</time></trkpt><trkpt lat="37.61792668284284" lon="-4.324793894644521"><ele>404.0</ele><time>2026-04-18T09:27:03Z</time></trkpt><trkpt lat="37.61802999469395" lon="-4.3248549779704355"><ele>404.0</ele><time>2026-04-18T09:27:05Z</time></trkpt><trkpt lat="37.61811649790579" lon="-4.324912809908754"><ele>404.0</ele><time>2026-04-18T09:27:07Z</time></trkpt><trkpt lat="37.61820357065075" lon="-4.324975678663152"><ele>404.0</ele><time>2026-04-18T09:27:09Z</time></trkpt><trkpt lat="37.61829163910033" lon="-4.325040742938967"><ele>404.0</ele><time>2026-04-18T09:27:11Z</time></trkpt><trkpt lat="37.61839067217634" lon="-4.325099643837325"><ele>404.0</ele><time>2026-04-18T09:27:13Z</time></trkpt><trkpt lat="37.61848718360092" lon="-4.325155665206367"><ele>404.0</ele><time>2026-04-18T09:27:15Z</time></trkpt><trkpt lat="37.61857088693434" lon="-4.325223138794112"><ele>404.0</ele><time>2026-04-18T09:27:17Z</time></trkpt><trkpt lat="37.618664875972634" lon="-4.325284507317126"><ele>404.0</ele><time>2026-04-18T09:27:19Z</time></trkpt><trkpt lat="37.6187583178823" lon="-4.325336740122709"><ele>404.79999999999995</ele><time>2026-04-18T09:27:21Z</time></trkpt><trkpt lat="37.61885412491414" lon="-4.325401927580077"><ele>405.59999999999997</ele><time>2026-04-18T09:27:23Z</time></trkpt><trkpt lat="37.61894779719922" lon="-4.325470184742763"><ele>406.4</ele><time>2026-04-18T09:27:25Z</time></trkpt><trkpt lat="37.6190428017605" lon="-4.325545680012441"><ele>407.2</ele><time>2026-04-18T09:27:27Z</time></trkpt><trkpt lat="37.619138042957566" lon="-4.325615795261597"><ele>408.0</ele><time>2026-04-18T09:27:29Z</time></trkpt><trkpt lat="37.619232110284486" lon="-4.325684072199925"><ele>408.0</ele><time>2026-04-18T09:27:30.999Z</time></trkpt><trkpt lat="37.619327495142734" lon="-4.325754796077941"><ele>408.0</ele><time>2026-04-18T09:27:32.999Z</time></trkpt><trkpt lat="37.61941964548122" lon="-4.325824597717353"><ele>408.0</ele><time>2026-04-18T09:27:34.999Z</time></trkpt><trkpt lat="37.61951025202184" lon="-4.325897715826416"><ele>408.0</ele><time>2026-04-18T09:27:36.999Z</time></trkpt><trkpt lat="37.61955926108362" lon="-4.326006371902322"><ele>408.0</ele><time>2026-04-18T09:27:38.999Z</time></trkpt><trkpt lat="37.619537472114274" lon="-4.3261334511070295"><ele>408.0</ele><time>2026-04-18T09:27:40.999Z</time></trkpt><trkpt lat="37.61948384016976" lon="-4.326226787144197"><ele>408.0</ele><time>2026-04-18T09:27:42.999Z</time></trkpt><trkpt lat="37.6194524336465" lon="-4.326313882753712"><ele>408.0</ele><time>2026-04-18T09:27:44.999Z</time></trkpt><trkpt lat="37.619412246763645" lon="-4.326402869981178"><ele>408.0</ele><time>2026-04-18T09:27:46.999Z</time></trkpt><trkpt lat="37.61937831757375" lon="-4.326493274924225"><ele>408.0</ele><time>2026-04-18T09:27:48.999Z</time></trkpt><trkpt lat="37.619338699834636" lon="-4.326581963460474"><ele>408.0</ele><time>2026-04-18T09:27:50.999Z</time></trkpt><trkpt lat="37.619303778742946" lon="-4.326676768691994"><ele>411.0</ele><time>2026-04-18T09:27:52.999Z</time></trkpt><trkpt lat="37.61927631797402" lon="-4.326773516779627"><ele>411.0</ele><time>2026-04-18T09:27:54.999Z</time></trkpt><trkpt lat="37.61925037855991" lon="-4.326851719653022"><ele>411.0</ele><time>2026-04-18T09:27:56.999Z</time></trkpt><trkpt lat="37.61930459828745" lon="-4.326933007627075"><ele>411.0</ele><time>2026-04-18T09:27:59.999Z</time></trkpt><trkpt lat="37.61937984931978" lon="-4.3269605552152495"><ele>411.0</ele><time>2026-04-18T09:28:02.999Z</time></trkpt><trkpt lat="37.61939111027346" lon="-4.3270402088743145"><ele>411.0</ele><time>2026-04-18T09:28:06.999Z</time></trkpt></trkseg></trk></gpx>